# Wetter Temperatur Luftdruck Luftfeuchtigkeit Sichtweite Windgeschwindigkeit Windrichtung Zeit
1 Clouds 24 998 98 10000 0.49 265 11:31 14.08.2022
2 Clouds 24 999 98 10000 0.57 210 10:27 14.08.2022
3 Clouds 24 999 99 10000 1.26 133 08:45 14.08.2022
4 Clouds 23 1002 96 10000 0.65 138 06:21 14.08.2022
5 Rain 23 1003 95 10000 1.47 107 02:46 14.08.2022
6 Clouds 25 1004 92 10000 1.47 98 23:36 13.08.2022
7 Clouds 26 1004 90 10000 1.23 82 22:28 13.08.2022
8 Clouds 26 1004 88 10000 1.16 87 20:58 13.08.2022
9 Rain 26 1004 85 10000 1.23 116 20:19 13.08.2022
10 Clouds 27 1005 81 10000 2.15 114 19:20 13.08.2022
11 Rain 28 1005 80 10000 2.14 145 17:36 13.08.2022
12 Clouds 28 1005 76 10000 3.04 155 15:23 13.08.2022
13 Clouds 29 1004 71 10000 1.85 152 14:24 13.08.2022
14 Clouds 30 1004 71 10000 2.29 153 13:38 13.08.2022
15 Clouds 31 1003 60 10000 2.63 159 11:51 13.08.2022
16 Clouds 31 1003 54 10000 3.05 144 09:50 13.08.2022
17 Clouds 32 1003 53 10000 2.93 149 07:51 13.08.2022
18 Clouds 27 1004 73 10000 0.92 93 02:56 13.08.2022
19 Clouds 25 1004 90 10000 1.6 81 23:46 12.08.2022
20 Clouds 24 1003 94 10000 1.87 84 21:41 12.08.2022
21 Clouds 26 1003 95 10000 2.02 97 20:40 12.08.2022
22 Clouds 25 1004 90 10000 2.05 94 19:36 12.08.2022
23 Rain 25 1004 89 10000 2.02 85 18:38 12.08.2022
24 Clouds 28 1004 81 10000 1.91 150 16:28 12.08.2022
25 Clouds 27 1004 81 10000 1.91 150 15:31 12.08.2022
26 Clouds 27 1003 75 10000 1.28 156 14:27 12.08.2022
27 Clouds 30 1001 67 10000 1.19 165 12:51 12.08.2022
28 Clouds 31 1001 53 10000 2.29 152 09:51 12.08.2022
29 Clouds 31 1003 58 10000 0.69 171 07:47 12.08.2022
30 Clouds 30 1003 61 10000 0.28 176 06:31 12.08.2022
31 Clouds 26 1005 87 10000 1.29 122 02:22 12.08.2022
32 Clouds 25 1004 91 10000 1.29 131 00:23 12.08.2022
33 Clouds 24 1004 91 10000 1.29 131 23:34 11.08.2022
34 Clouds 24 1004 92 10000 1.44 139 22:24 11.08.2022
35 Clouds 25 1004 92 10000 1.44 139 21:39 11.08.2022
36 Clouds 25 1004 90 10000 1.49 150 20:32 11.08.2022
37 Clouds 26 1004 87 10000 1.07 129 19:57 11.08.2022
38 Clouds 26 1004 87 10000 1.07 129 19:32 11.08.2022
39 Clouds 26 1003 82 10000 1.53 160 17:47 11.08.2022
40 Clouds 26 1002 78 10000 1.93 156 16:32 11.08.2022
41 Clear 27 1002 71 10000 1.6 164 15:21 11.08.2022
42 Clear 31 1001 70 10000 2.66 188 12:41 11.08.2022
43 Clear 32 1001 51 10000 3.7 193 09:54 11.08.2022
44 Clouds 30 1003 50 10000 1.85 189 06:59 11.08.2022
45 Clouds 27 1004 67 10000 0.44 197 03:45 11.08.2022
46 Clear 21 1004 88 10000 0.62 191 00:35 11.08.2022
47 Clear 21 1003 92 10000 0.97 181 22:22 10.08.2022
48 Clear 21 1004 91 10000 0.71 212 21:24 10.08.2022
49 Clear 21 1004 91 10000 0.71 212 20:47 10.08.2022
50 Clear 23 1004 89 10000 1.35 208 19:24 10.08.2022
51 Clear 23 1004 87 10000 1.39 209 17:55 10.08.2022
52 Clear 25 1004 86 10000 1.81 208 16:35 10.08.2022
53 Clear 28 1004 78 10000 2.51 192 13:35 10.08.2022
54 Clear 29 1004 70 10000 2.55 185 12:35 10.08.2022
55 Clear 31 1004 46 10000 3.35 191 09:24 10.08.2022
56 Clear 31 1004 46 10000 3.35 191 08:32 10.08.2022
57 Clear 28 1006 54 10000 2.37 188 06:23 10.08.2022
58 Clear 25 1008 74 10000 1.51 202 03:24 10.08.2022
59 Clear 18 1008 92 10000 0.29 299 23:34 09.08.2022
60 Clear 18 1007 93 10000 0.38 282 22:56 09.08.2022
61 Clear 18 1008 93 10000 0.23 238 21:35 09.08.2022
62 Clear 19 1009 92 10000 0.58 238 19:35 09.08.2022
63 Clear 19 1009 91 10000 1.21 205 18:29 09.08.2022
64 Clear 19 1009 91 10000 1.76 196 17:27 09.08.2022
65 Clear 20 1009 91 10000 1.76 196 16:40 09.08.2022
66 Clear 20 1009 91 10000 1.76 196 16:40 09.08.2022
67 Clear 21 1009 90 10000 2.01 199 15:46 09.08.2022
68 Clouds 25 1009 85 10000 2.86 199 12:48 09.08.2022
69 Clouds 26 1010 85 10000 2.51 199 09:30 09.08.2022
70 Clouds 26 1010 85 10000 2.51 199 08:33 09.08.2022
71 Clouds 24 1011 92 10000 2.24 194 07:20 09.08.2022
72 Clouds 22 1012 96 10000 1.53 104 03:34 09.08.2022
73 Rain 21 1010 94 5625 1.36 307 23:27 08.08.2022
74 Clouds 22 1010 94 5625 1.36 307 22:54 08.08.2022
75 Clouds 21 1010 91 10000 1.42 307 21:49 08.08.2022
76 Clouds 22 1010 86 10000 0.93 233 20:55 08.08.2022
77 Rain 23 1010 70 10000 2.9 230 19:50 08.08.2022
78 Clouds 23 1009 62 10000 3.02 210 18:38 08.08.2022
79 Clouds 23 1009 50 10000 1.13 191 16:37 08.08.2022
80 Clouds 24 1009 50 10000 0.76 190 15:39 08.08.2022
81 Clouds 25 1008 53 10000 0.89 288 12:51 08.08.2022
82 Clouds 25 1008 54 10000 0.68 311 11:53 08.08.2022
83 Clouds 28 1008 56 10000 0.83 231 09:43 08.08.2022
84 Clouds 28 1008 58 10000 2.11 148 05:43 08.08.2022
85 Clouds 27 1007 76 10000 1.49 87 02:27 08.08.2022
86 Clouds 27 1004 91 10000 2.72 22 22:25 07.08.2022
87 Clouds 25 1004 91 10000 2.72 22 21:38 07.08.2022
88 Clouds 25 1003 94 10000 1.96 41 20:25 07.08.2022
89 Clouds 25 1003 94 10000 1.96 41 19:54 07.08.2022
90 Clouds 25 1003 94 10000 1.96 41 19:33 07.08.2022
91 Clouds 29 1002 81 10000 1.09 49 18:22 07.08.2022
92 Clouds 28 1001 77 10000 0.51 24 16:54 07.08.2022
93 Clouds 28 1001 76 10000 0.54 165 16:28 07.08.2022
94 Clear 29 1000 76 10000 1.03 141 15:19 07.08.2022
95 Clouds 30 999 71 10000 2.28 185 13:22 07.08.2022
96 Rain 32 998 58 10000 3.58 184 10:59 07.08.2022
97 Clouds 32 998 58 10000 3.58 184 10:33 07.08.2022
98 Clouds 30 999 89 10000 0.89 12 05:48 07.08.2022
99 Clouds 27 1000 94 10000 0.85 42 03:19 07.08.2022
100 Clouds 27 1000 96 9852 1.44 34 23:44 06.08.2022
101 Clouds 27 1000 95 10000 0.98 71 22:20 06.08.2022
102 Clouds 27 1000 94 10000 0.51 13 20:26 06.08.2022
103 Clouds 27 1000 95 10000 1.01 358 19:41 06.08.2022
104 Clouds 27 1000 95 10000 1.01 358 19:41 06.08.2022
105 Clouds 27 1001 95 10000 2.75 9 18:25 06.08.2022
106 Clouds 28 1001 94 10000 2.44 10 17:28 06.08.2022
107 Rain 27 1000 88 10000 1.73 51 14:35 06.08.2022
108 Rain 28 1000 85 10000 1.41 40 13:44 06.08.2022
109 Clouds 30 998 58 10000 3.21 112 11:24 06.08.2022
110 Clouds 31 999 45 10000 3.08 127 09:51 06.08.2022
111 Clouds 31 999 43 10000 2.24 178 08:32 06.08.2022
112 Clouds 30 1002 41 10000 1.93 78 03:51 06.08.2022
113 Clouds 26 1002 57 10000 1.32 29 23:36 05.08.2022
114 Clear 26 1001 53 10000 1.88 30 22:23 05.08.2022
115 Clear 28 1001 55 10000 1.3 31 19:33 05.08.2022
116 Clear 27 1001 47 10000 1.18 88 18:44 05.08.2022
117 Clear 28 1001 43 10000 1.36 92 17:54 05.08.2022
118 Clear 28 1001 42 10000 0.59 119 16:49 05.08.2022
119 Clear 28 1001 42 10000 0.59 119 16:49 05.08.2022
120 Clear 29 1001 33 10000 1.69 174 15:22 05.08.2022
121 Clear 30 1000 30 10000 1.79 175 14:19 05.08.2022
122 Clear 33 999 30 10000 2.32 159 13:23 05.08.2022
123 Clear 35 999 26 10000 3.2 158 12:28 05.08.2022
124 Clear 37 999 21 10000 3.52 158 10:49 05.08.2022
125 Clear 36 1000 19 10000 1.99 130 08:27 05.08.2022
126 Clear 34 1000 25 10000 1.5 110 06:41 05.08.2022
127 Clear 25 1003 76 10000 2.15 12 00:34 05.08.2022
128 Clear 25 1002 86 10000 2.11 7 22:31 04.08.2022
129 Clear 25 1002 85 10000 1.62 11 21:27 04.08.2022
130 Clear 25 1002 85 10000 1.62 11 20:43 04.08.2022
131 Clouds 24 1002 76 10000 1.02 335 19:46 04.08.2022
132 Clouds 24 1002 72 10000 0.07 53 18:37 04.08.2022
133 Clouds 24 1002 68 10000 0.99 141 18:18 04.08.2022
134 Clear 25 1000 61 10000 3.89 198 14:23 04.08.2022
135 Clear 33 999 48 10000 4.04 210 12:57 04.08.2022
136 Clear 35 1000 39 10000 4.77 209 11:20 04.08.2022
137 Clouds 35 1002 37 10000 4.7 213 07:54 04.08.2022
138 Clouds 34 1002 39 10000 4.59 205 06:40 04.08.2022
139 Clouds 30 1005 56 10000 1.1 187 02:33 04.08.2022
140 Clouds 28 1005 70 10000 0.25 344 23:45 03.08.2022
141 Clouds 28 1005 70 10000 0.08 254 22:55 03.08.2022
142 Clouds 28 1005 66 10000 0.58 172 20:50 03.08.2022
143 Clouds 28 1005 66 10000 1.29 194 19:46 03.08.2022
144 Clouds 28 1005 63 10000 1.87 200 18:37 03.08.2022
145 Clouds 29 1005 56 10000 2.82 197 16:26 03.08.2022
146 Clouds 29 1005 56 10000 2.82 197 15:45 03.08.2022
147 Clouds 34 1004 54 10000 3.22 199 12:44 03.08.2022
148 Clouds 36 1004 41 10000 4.27 198 09:46 03.08.2022
149 Clouds 34 1005 44 10000 4.07 195 06:29 03.08.2022
150 Clouds 32 1006 56 10000 1.97 208 04:21 03.08.2022
151 Clouds 30 1007 71 10000 0.62 209 02:25 03.08.2022
152 Clouds 27 1006 80 10000 0.38 194 23:54 02.08.2022
153 Clouds 28 1006 78 10000 1.04 190 21:59 02.08.2022
154 Clouds 28 1006 78 10000 1.04 190 21:40 02.08.2022
155 Clouds 28 1006 73 10000 1.65 187 20:20 02.08.2022
156 Clear 30 1006 70 10000 2.4 188 16:49 02.08.2022
157 Clear 31 1004 59 10000 3.05 205 13:54 02.08.2022
158 Clear 35 1003 41 10000 4.76 205 10:34 02.08.2022
159 Clear 34 1004 39 10000 3.96 192 08:29 02.08.2022
160 Clear 34 1004 39 10000 3.96 192 07:50 02.08.2022
161 Clear 32 1006 51 10000 2.33 168 04:56 02.08.2022
162 Clear 29 1007 67 10000 1.46 76 02:20 02.08.2022
163 Clear 26 1006 76 10000 1.4 74 23:23 01.08.2022
164 Clear 27 1006 74 10000 0.93 61 21:42 01.08.2022
165 Clear 27 1006 71 10000 0.89 177 20:19 01.08.2022
166 Clear 28 1006 67 10000 1.56 171 18:55 01.08.2022
167 Clear 28 1005 64 10000 1.7 163 16:58 01.08.2022
168 Clear 27 1005 64 10000 1.7 163 16:39 01.08.2022
169 Clear 28 1005 62 10000 1.52 172 15:44 01.08.2022
170 Clear 29 1005 61 10000 1.61 175 14:57 01.08.2022
171 Clear 32 1004 55 10000 2.12 201 13:32 01.08.2022
172 Clear 34 1002 40 10000 3.67 191 11:18 01.08.2022
173 Clear 34 1003 37 10000 3.34 188 08:55 01.08.2022
174 Clear 33 1004 40 10000 2.57 194 07:23 01.08.2022
175 Clear 31 1005 48 10000 0.96 197 04:37 01.08.2022
176 Clear 27 1006 68 10000 1.04 26 01:33 01.08.2022
177 Clear 25 1005 80 10000 0.57 347 22:47 31.07.2022
178 Clear 25 1005 78 10000 0.45 120 22:29 31.07.2022
179 Clear 26 1005 77 10000 0.61 128 20:44 31.07.2022
180 Clear 27 1005 74 10000 1.55 160 18:42 31.07.2022
181 Clear 28 1005 70 10000 1.51 156 17:29 31.07.2022
182 Clear 29 1004 65 10000 2.05 177 14:43 31.07.2022
183 Clear 31 1003 57 10000 2.87 174 12:59 31.07.2022
184 Clear 32 1003 51 10000 3.51 172 11:44 31.07.2022
185 Clear 32 1003 43 10000 2.37 181 08:47 31.07.2022
186 Clouds 30 1005 54 10000 1.25 176 05:38 31.07.2022
187 Clear 27 1007 81 10000 1.62 49 02:29 31.07.2022
188 Clouds 25 1006 94 10000 1.6 40 22:49 30.07.2022
189 Clouds 25 1006 94 10000 1.63 48 21:52 30.07.2022
190 Clouds 25 1006 94 10000 1.63 48 21:33 30.07.2022
191 Clear 25 1006 93 10000 1.82 55 20:38 30.07.2022
192 Clear 25 1006 93 10000 1.82 55 20:38 30.07.2022
193 Clear 26 1007 91 10000 1.5 61 19:50 30.07.2022
194 Clear 26 1007 87 10000 1.84 127 18:20 30.07.2022
195 Clear 27 1007 85 10000 2.1 148 16:40 30.07.2022
196 Clear 28 1007 82 10000 2.29 159 15:33 30.07.2022
197 Clouds 28 1006 70 10000 1.99 150 14:23 30.07.2022
198 Clouds 30 1006 68 10000 2.71 147 12:32 30.07.2022
199 Clouds 30 1005 62 10000 3.3 150 11:53 30.07.2022
200 Clouds 31 1006 53 10000 3.72 141 10:20 30.07.2022
201 Clouds 32 1006 53 10000 3.72 141 09:32 30.07.2022
202 Clouds 31 1006 51 10000 3.12 137 07:44 30.07.2022
203 Clouds 26 1010 70 10000 2.05 86 02:34 30.07.2022
204 Clouds 24 1010 77 10000 1.61 86 00:32 30.07.2022
205 Clouds 24 1009 77 10000 1.63 84 21:39 29.07.2022
206 Clouds 25 1009 78 10000 1.47 97 20:51 29.07.2022
207 Clear 25 1009 80 10000 1.18 121 19:48 29.07.2022
208 Clear 26 1009 78 10000 1.75 154 17:39 29.07.2022
209 Clear 26 1008 73 10000 1.94 131 14:51 29.07.2022
210 Clouds 30 1006 61 10000 1.64 164 12:55 29.07.2022
211 Clouds 32 1006 47 10000 3.27 169 09:34 29.07.2022
212 Clouds 31 1006 46 10000 2.58 172 08:41 29.07.2022
213 Clouds 31 1006 46 10000 1.77 145 07:30 29.07.2022
214 Clear 26 1009 77 10000 1.45 32 01:46 29.07.2022
215 Clear 22 1008 93 10000 0.91 312 21:54 28.07.2022
216 Clear 22 1008 93 10000 0.57 298 20:54 28.07.2022
217 Clear 21 1008 91 10000 0.58 207 20:21 28.07.2022
218 Clear 22 1008 91 10000 0.58 207 19:40 28.07.2022
219 Clear 22 1008 90 10000 0.87 179 18:26 28.07.2022
220 Clear 23 1008 90 10000 0.87 179 17:42 28.07.2022
221 Clear 23 1008 89 10000 1.12 151 16:41 28.07.2022
222 Clear 24 1007 87 10000 1.36 137 14:50 28.07.2022
223 Clouds 28 1006 81 10000 1.05 137 12:41 28.07.2022
224 Clouds 30 1006 81 10000 1.79 88 09:34 28.07.2022
225 Clouds 25 1008 71 10000 2.93 24 06:21 28.07.2022
226 Rain 23 1008 79 10000 2.63 25 05:26 28.07.2022
227 Clouds 21 1008 95 10000 1.92 0 00:44 28.07.2022
228 Clouds 20 1007 96 7398 2.22 7 22:26 27.07.2022
229 Rain 21 1007 96 6673 2.42 357 20:20 27.07.2022
230 Rain 21 1007 96 10000 2.86 347 19:34 27.07.2022
231 Rain 22 1008 93 9502 3.31 319 16:54 27.07.2022
232 Clouds 21 1008 91 10000 2.86 329 15:51 27.07.2022
233 Rain 21 1008 90 10000 2.78 341 14:46 27.07.2022
234 Rain 22 1008 91 10000 2.67 318 14:27 27.07.2022
235 Rain 23 1006 93 10000 2.79 329 12:19 27.07.2022
236 Rain 27 1006 82 4352 2.23 304 07:53 27.07.2022
237 Rain 26 1007 66 10000 0.85 49 05:33 27.07.2022
238 Clouds 23 1007 88 10000 2.09 75 00:28 27.07.2022
239 Clouds 23 1007 91 10000 1.92 68 22:24 26.07.2022
240 Clouds 23 1007 92 10000 2.01 69 21:19 26.07.2022
241 Rain 26 1007 90 10000 2.27 87 19:40 26.07.2022
242 Clouds 27 1007 89 10000 2.59 94 18:41 26.07.2022
243 Clouds 27 1007 89 10000 2.9 107 17:57 26.07.2022
244 Clouds 28 1006 84 10000 3.15 118 15:47 26.07.2022
245 Clouds 28 1006 77 10000 3.02 128 14:44 26.07.2022
246 Clouds 29 1003 49 10000 3.91 157 12:41 26.07.2022
247 Clouds 30 1003 41 10000 3.85 171 10:57 26.07.2022
248 Clouds 31 1003 41 10000 5.13 170 08:31 26.07.2022
249 Clouds 30 1006 43 10000 4.05 183 03:58 26.07.2022
250 Clouds 25 1005 70 10000 2.22 207 00:24 26.07.2022
251 Clouds 23 1005 71 10000 2.94 196 22:43 25.07.2022
252 Clouds 23 1005 73 10000 3.1 188 22:21 25.07.2022
253 Clouds 24 1005 73 10000 3.1 188 21:38 25.07.2022
254 Rain 25 1005 74 10000 3.06 161 20:39 25.07.2022
255 Clouds 27 1005 62 10000 2.76 161 19:26 25.07.2022
256 Clouds 27 1005 58 10000 2.17 169 18:18 25.07.2022
257 Clouds 29 1004 56 10000 2.67 184 17:26 25.07.2022
258 Rain 31 1002 46 10000 4.43 165 14:23 25.07.2022
259 Clouds 32 1002 39 10000 3.68 166 11:39 25.07.2022
260 Clouds 33 1004 41 10000 4.22 200 08:22 25.07.2022
261 Clouds 26 1005 60 10000 1.47 216 01:49 25.07.2022
262 Rain 24 1004 69 10000 1.26 199 23:49 24.07.2022
263 Clouds 24 1003 68 10000 1.57 183 22:51 24.07.2022
264 Clouds 23 1003 65 10000 1.97 195 22:24 24.07.2022
265 Clouds 23 1003 62 10000 2.31 203 21:18 24.07.2022
266 Clouds 23 1003 62 10000 2.31 203 20:46 24.07.2022
267 Clouds 24 1003 57 10000 2.15 194 19:38 24.07.2022
268 Clouds 25 1003 54 10000 2.63 190 18:30 24.07.2022
269 Clear 25 1001 43 10000 5.02 200 15:57 24.07.2022
270 Clear 26 1001 43 10000 5.02 200 15:33 24.07.2022
271 Clear 31 999 36 10000 4.55 186 13:54 24.07.2022
272 Clear 32 998 29 10000 5.36 201 12:52 24.07.2022
273 Clear 34 998 26 10000 6.28 204 11:37 24.07.2022
274 Clear 34 998 24 10000 6.47 207 10:48 24.07.2022
275 Clear 32 999 25 10000 5.59 209 08:30 24.07.2022
276 Clear 32 1000 27 10000 4.7 208 07:46 24.07.2022
277 Clear 28 1002 48 10000 1.61 195 03:57 24.07.2022
278 Clear 23 1002 68 10000 0.58 220 23:51 23.07.2022
279 Clear 25 1001 64 10000 1.83 205 20:59 23.07.2022
280 Clear 24 1002 59 10000 2.15 181 19:44 23.07.2022
281 Clear 26 1001 57 10000 2.79 199 18:50 23.07.2022
282 Clear 26 1002 53 10000 3.09 195 17:28 23.07.2022
283 Clear 26 1002 53 10000 3.09 195 16:31 23.07.2022
284 Clear 29 1002 50 10000 3.17 191 15:22 23.07.2022
285 Clear 28 1002 50 10000 3.17 191 14:56 23.07.2022
286 Clear 28 1001 49 10000 3.58 195 14:24 23.07.2022
287 Clear 32 999 37 10000 3.45 188 12:44 23.07.2022
288 Clear 34 999 28 10000 4.28 183 10:45 23.07.2022
289 Clear 33 1000 25 10000 3.11 178 09:54 23.07.2022
290 Clear 33 1000 26 10000 1.91 170 08:30 23.07.2022
291 Clear 28 1004 51 10000 1.51 256 03:38 23.07.2022
292 Clouds 23 1005 73 10000 0.88 253 00:41 23.07.2022
293 Clouds 22 1005 83 10000 1.91 337 22:19 22.07.2022
294 Clouds 22 1005 84 10000 2.73 346 20:39 22.07.2022
295 Clouds 22 1006 73 10000 2.91 313 19:32 22.07.2022
296 Clouds 24 1006 77 10000 3.98 341 18:23 22.07.2022
297 Clouds 23 1007 73 10000 2.8 344 16:47 22.07.2022
298 Rain 28 1006 62 10000 1.33 212 14:40 22.07.2022
299 Clouds 31 1004 39 10000 4.46 186 10:59 22.07.2022
300 Clouds 31 1005 40 10000 4.63 174 09:25 22.07.2022
301 Clouds 31 1005 38 10000 4.1 167 08:27 22.07.2022
302 Clouds 30 1008 47 10000 2.11 177 04:48 22.07.2022
303 Clouds 24 1008 66 10000 0.78 62 23:45 21.07.2022
304 Clouds 23 1007 65 10000 0.5 49 22:25 21.07.2022
305 Clouds 25 1007 62 10000 0.83 63 20:48 21.07.2022
306 Clouds 26 1008 57 10000 1.37 154 19:23 21.07.2022
307 Clouds 27 1008 57 10000 2.13 161 17:39 21.07.2022
308 Clouds 27 1008 56 10000 2.42 147 17:19 21.07.2022
309 Clouds 30 1006 51 10000 2.51 156 14:55 21.07.2022
310 Clear 30 1005 47 10000 2.65 175 14:29 21.07.2022
311 Clear 33 1003 33 10000 3.34 159 12:27 21.07.2022
312 Clear 34 1003 30 10000 3.22 147 10:48 21.07.2022
313 Clear 33 1004 30 10000 1.89 162 09:18 21.07.2022
314 Clear 33 1004 30 10000 1.89 162 08:45 21.07.2022
315 Clouds 32 1005 34 10000 1.64 161 07:32 21.07.2022
316 Clouds 28 1006 51 10000 0.08 197 03:55 21.07.2022
317 Clear 23 1006 75 10000 0.43 135 00:24 21.07.2022
318 Clear 22 1005 75 10000 1.08 145 22:21 20.07.2022
319 Clear 23 1004 73 10000 1.66 162 20:51 20.07.2022
320 Clear 24 1004 71 10000 2.36 178 19:50 20.07.2022
321 Clear 25 1005 66 10000 1.91 164 19:20 20.07.2022
322 Clear 25 1005 66 10000 1.91 164 18:33 20.07.2022
323 Clear 26 1004 63 10000 2.78 185 17:54 20.07.2022
324 Clear 27 1005 61 10000 2.98 184 16:42 20.07.2022
325 Clear 28 1004 57 10000 3.56 147 15:31 20.07.2022
326 Clear 28 1002 44 10000 3.36 154 14:18 20.07.2022
327 Clear 32 1001 33 10000 4.89 177 11:33 20.07.2022
328 Clear 33 1002 30 10000 4.98 180 08:46 20.07.2022
329 Clear 28 1004 40 10000 2.48 186 03:47 20.07.2022
330 Clouds 26 1004 59 10000 0.3 314 00:49 20.07.2022
331 Clouds 25 1004 64 10000 0.72 197 23:41 19.07.2022
332 Clouds 26 1003 65 10000 1.06 147 22:33 19.07.2022
333 Clouds 26 1003 62 10000 0.61 175 21:31 19.07.2022
334 Clouds 26 1003 60 10000 2.08 201 20:28 19.07.2022
335 Clouds 27 1002 60 10000 3.35 196 18:44 19.07.2022
336 Clouds 27 1002 59 10000 3.33 186 17:58 19.07.2022
337 Clouds 26 1002 56 10000 2.86 185 16:37 19.07.2022
338 Clouds 26 1002 50 10000 2.9 186 14:53 19.07.2022
339 Clouds 32 999 33 10000 3.53 199 11:43 19.07.2022
340 Clouds 33 999 29 10000 3.81 184 10:52 19.07.2022
341 Clouds 32 1000 22 10000 4.05 192 09:25 19.07.2022
342 Clouds 32 1000 22 10000 4.05 192 08:39 19.07.2022
343 Clouds 32 1001 20 10000 1.55 197 07:19 19.07.2022
344 Clouds 31 1001 22 10000 0.57 134 05:30 19.07.2022
345 Clouds 32 1002 24 10000 0.73 52 04:55 19.07.2022
346 Clouds 26 1002 42 10000 2.23 28 01:19 19.07.2022
347 Clouds 22 1001 49 10000 2.34 27 23:47 18.07.2022
348 Clouds 21 1001 50 10000 2.4 22 23:18 18.07.2022
349 Clouds 22 1001 49 10000 2.16 15 21:58 18.07.2022
350 Clouds 22 1001 50 10000 1.48 5 20:51 18.07.2022
351 Clouds 24 1001 45 10000 0.54 351 19:33 18.07.2022
352 Clouds 24 1001 38 10000 0.88 146 17:38 18.07.2022
353 Clouds 28 1000 34 10000 1.12 185 15:55 18.07.2022
354 Clouds 30 999 34 10000 2.52 199 14:51 18.07.2022
355 Clouds 33 997 28 10000 2.69 163 13:23 18.07.2022
356 Clouds 35 997 19 10000 0.92 193 11:31 18.07.2022
357 Clouds 35 998 14 10000 2.85 298 09:28 18.07.2022
358 Clouds 35 999 16 10000 3.02 301 07:43 18.07.2022
359 Clouds 28 1002 36 10000 2.66 9 01:44 18.07.2022
360 Clouds 23 1001 68 10000 2.08 38 22:51 17.07.2022
361 Clouds 23 1001 69 10000 1.86 51 22:23 17.07.2022
362 Clear 24 1001 65 10000 2.33 62 21:24 17.07.2022
363 Clear 24 1001 65 10000 2.33 62 20:44 17.07.2022
364 Clouds 27 1000 38 10000 2.29 18 19:34 17.07.2022
365 Clouds 26 1000 36 10000 2.53 1 18:56 17.07.2022
366 Clouds 29 1000 36 10000 2.84 349 17:39 17.07.2022
367 Clouds 25 999 36 10000 2.48 353 16:51 17.07.2022
368 Clouds 30 998 36 10000 2.21 17 16:27 17.07.2022
369 Clouds 28 998 33 10000 3.22 14 14:58 17.07.2022
370 Clouds 36 996 29 10000 4.5 33 13:34 17.07.2022
371 Clouds 37 994 21 10000 1.66 337 12:22 17.07.2022
372 Clouds 37 994 18 10000 1.65 296 09:30 17.07.2022
373 Clouds 35 997 20 10000 1.35 326 06:37 17.07.2022
374 Clouds 29 999 37 10000 2.4 316 02:33 17.07.2022
375 Clouds 23 999 70 10000 0.52 241 23:22 16.07.2022
376 Clouds 24 999 68 10000 0.6 264 21:57 16.07.2022
377 Clouds 24 999 66 10000 0.73 229 20:26 16.07.2022
378 Clouds 26 999 65 10000 0.55 118 18:41 16.07.2022
379 Clouds 26 999 62 10000 2.16 193 17:20 16.07.2022
380 Clouds 28 998 59 10000 3.04 181 15:23 16.07.2022
381 Clouds 31 997 44 10000 4.81 177 11:54 16.07.2022
382 Clouds 33 997 37 10000 3.85 186 09:37 16.07.2022
383 Clouds 33 998 38 10000 3.44 174 08:48 16.07.2022
384 Clouds 33 998 42 10000 2.87 167 08:29 16.07.2022
385 Clouds 31 1000 40 10000 2.54 91 04:28 16.07.2022
386 Clouds 30 1000 42 10000 2.12 79 03:29 16.07.2022
387 Clouds 23 999 54 10000 2.37 44 23:51 15.07.2022
388 Clouds 23 999 53 10000 2.23 56 22:43 15.07.2022
389 Clouds 24 998 45 10000 2.04 64 21:29 15.07.2022
390 Clouds 24 998 45 10000 2.04 64 20:31 15.07.2022
391 Clouds 27 998 41 10000 0.91 280 18:44 15.07.2022
392 Clouds 26 998 40 10000 0.98 260 17:48 15.07.2022
393 Clouds 33 999 33 10000 2.6 216 14:57 15.07.2022
394 Clouds 34 997 26 10000 3.69 215 13:20 15.07.2022
395 Clouds 35 997 23 10000 3.99 210 11:48 15.07.2022
396 Clouds 37 997 19 10000 3.9 196 10:42 15.07.2022
397 Clouds 36 999 16 10000 1.72 146 07:42 15.07.2022
398 Clouds 29 1003 31 10000 2.26 3 02:24 15.07.2022
399 Clouds 24 1002 37 10000 1.92 359 00:37 15.07.2022
400 Clouds 23 1002 44 10000 1.39 359 22:53 14.07.2022
401 Clouds 22 1002 46 10000 1.56 5 21:56 14.07.2022
402 Clouds 22 1002 46 10000 1.56 5 21:30 14.07.2022
403 Clouds 23 1002 46 10000 1.66 11 20:45 14.07.2022
404 Clouds 25 1002 45 10000 1.31 14 20:26 14.07.2022
405 Clouds 24 1002 50 10000 0.3 8 19:58 14.07.2022
406 Clouds 25 1002 40 10000 1.46 166 16:23 14.07.2022
407 Clouds 26 1002 40 10000 1.46 166 15:54 14.07.2022
408 Clouds 27 1001 38 10000 1.86 182 14:44 14.07.2022
409 Clouds 32 1000 40 10000 3.29 188 13:32 14.07.2022
410 Clouds 34 1000 30 10000 3.84 178 12:18 14.07.2022
411 Clouds 35 1000 27 10000 4.48 175 11:25 14.07.2022
412 Clouds 36 1000 27 10000 4.48 175 10:39 14.07.2022
413 Clouds 35 1001 21 10000 2.59 98 08:22 14.07.2022
414 Clouds 31 1002 25 10000 2.98 11 03:36 14.07.2022
415 Clear 26 1002 39 10000 2.98 348 00:54 14.07.2022
416 Clear 23 1002 42 10000 2.81 348 23:38 13.07.2022
417 Clear 23 1001 41 10000 2.32 351 22:26 13.07.2022
418 Clear 24 1001 41 10000 2.32 351 21:30 13.07.2022
419 Clouds 24 1001 49 10000 2.37 346 20:26 13.07.2022
420 Clouds 26 1000 56 10000 2.16 346 17:56 13.07.2022
421 Clouds 27 1000 58 10000 1.93 314 16:59 13.07.2022
422 Clouds 28 1000 62 10000 2.08 269 15:51 13.07.2022
423 Clouds 33 998 60 10000 3.67 220 13:45 13.07.2022
424 Clear 35 997 44 10000 5.21 202 10:47 13.07.2022
425 Clear 35 998 40 10000 4.39 196 10:28 13.07.2022
426 Clear 34 998 39 10000 3.42 192 09:28 13.07.2022
427 Clear 33 998 40 10000 2.91 192 07:53 13.07.2022
428 Clear 29 1001 47 10000 1.76 218 04:36 13.07.2022
429 Clear 22 1001 75 10000 1.07 332 00:25 13.07.2022
430 Clouds 22 1001 77 10000 1.22 293 22:28 12.07.2022
431 Clouds 22 1001 77 10000 1.22 293 21:45 12.07.2022
432 Clouds 23 1001 76 10000 1.55 271 20:44 12.07.2022
433 Clouds 22 1001 77 10000 1.66 282 19:48 12.07.2022
434 Clouds 24 1001 76 10000 1.01 278 18:35 12.07.2022
435 Clouds 25 1002 75 10000 0.7 240 16:24 12.07.2022
436 Clouds 26 1002 75 10000 0.43 334 14:31 12.07.2022
437 Clouds 26 1002 81 10000 0.95 321 13:35 12.07.2022
438 Clouds 27 1002 83 10000 1.53 338 11:54 12.07.2022
439 Clouds 25 1003 86 10000 2.23 351 10:26 12.07.2022
440 Clouds 25 1003 86 10000 2.43 2 08:46 12.07.2022
441 Clouds 25 1004 67 10000 2.79 22 07:48 12.07.2022
442 Clouds 22 1005 81 10000 2.25 34 05:45 12.07.2022
443 Clouds 22 1005 82 10000 2.45 14 04:46 12.07.2022
444 Clouds 21 1006 89 10000 2.66 30 00:54 12.07.2022
445 Clouds 23 1006 91 9139 3.71 14 22:43 11.07.2022
446 Clouds 23 1005 91 10000 4.29 10 20:56 11.07.2022
447 Clouds 23 1005 91 10000 4.29 10 20:32 11.07.2022
448 Clouds 23 1005 91 10000 4.29 10 20:32 11.07.2022
449 Clouds 24 1006 83 10000 3.03 338 18:50 11.07.2022
450 Clouds 24 1007 83 10000 2.52 311 18:28 11.07.2022
451 Clouds 24 1006 74 10000 0.67 244 16:30 11.07.2022
452 Clouds 24 1006 65 10000 2.06 153 15:28 11.07.2022
453 Rain 24 1005 58 10000 2.36 132 13:19 11.07.2022
454 Rain 25 1005 51 10000 2.09 131 11:23 11.07.2022
455 Clouds 27 1005 49 10000 1.74 143 09:55 11.07.2022
456 Clouds 27 1005 46 10000 2.98 171 09:27 11.07.2022
457 Clouds 27 1005 46 10000 2.98 171 08:31 11.07.2022
458 Clouds 23 1006 72 10000 0.31 153 00:59 11.07.2022
459 Clouds 20 1006 77 10000 0.95 42 23:54 10.07.2022
460 Clouds 20 1005 77 10000 1.13 44 22:45 10.07.2022
461 Clouds 20 1005 75 10000 0.68 33 20:56 10.07.2022
462 Clouds 20 1005 75 10000 0.68 33 20:36 10.07.2022
463 Clouds 20 1005 69 10000 0.58 220 19:30 10.07.2022
464 Clouds 20 1005 69 10000 0.58 220 19:30 10.07.2022
465 Clouds 22 1005 66 10000 1.7 196 18:25 10.07.2022
466 Clouds 21 1005 66 10000 1.7 196 17:33 10.07.2022
467 Clear 23 1006 63 10000 1.8 200 16:21 10.07.2022
468 Clear 23 1005 62 10000 2.2 176 14:47 10.07.2022
469 Clear 26 1004 58 10000 3.21 172 13:31 10.07.2022
470 Clear 28 1003 50 10000 3.81 187 11:57 10.07.2022
471 Clouds 28 1003 46 10000 3.25 187 09:46 10.07.2022
472 Clouds 26 1004 47 10000 3.13 181 08:44 10.07.2022
473 Clouds 26 1006 55 10000 2.93 161 07:20 10.07.2022
474 Clouds 21 1004 60 10000 3.69 197 23:58 09.07.2022
475 Rain 23 1003 54 10000 1.86 205 22:27 09.07.2022
476 Rain 23 1003 54 10000 1.86 205 21:49 09.07.2022
477 Rain 26 1004 49 10000 4.54 209 19:57 09.07.2022
478 Clouds 28 1004 41 10000 2.51 205 18:32 09.07.2022
479 Clouds 27 1003 41 10000 2.87 208 17:32 09.07.2022
480 Rain 26 1003 40 10000 3.38 227 16:40 09.07.2022
481 Clouds 26 1003 38 10000 2.68 248 15:39 09.07.2022
482 Clouds 31 1002 31 10000 3.36 214 14:27 09.07.2022
483 Clouds 31 1001 31 10000 3.1 189 13:49 09.07.2022
484 Clouds 29 1001 30 10000 3.6 187 12:43 09.07.2022
485 Rain 30 1000 23 10000 4.23 183 11:19 09.07.2022
486 Clouds 32 1000 19 10000 3.75 182 10:22 09.07.2022
487 Clouds 34 1000 14 10000 1.43 118 07:45 09.07.2022
488 Clouds 32 1002 18 10000 3.04 16 04:53 09.07.2022
489 Clear 25 1002 30 10000 3.33 1 00:59 09.07.2022
490 Clear 22 1002 42 10000 2.94 1 22:53 08.07.2022
491 Clear 24 1001 50 10000 2.66 0 21:34 08.07.2022
492 Clear 24 1001 55 10000 2.3 2 20:40 08.07.2022
493 Clear 24 1001 56 10000 2.32 0 19:48 08.07.2022
494 Clear 25 1000 53 10000 1.83 36 18:20 08.07.2022
495 Clear 26 1000 47 10000 1.5 20 16:40 08.07.2022
496 Clear 27 999 43 10000 1.13 189 14:51 08.07.2022
497 Clouds 29 998 39 10000 2.49 221 13:26 08.07.2022
498 Clouds 32 998 34 10000 2.06 208 11:28 08.07.2022
499 Clouds 32 998 33 10000 1.37 196 10:27 08.07.2022
500 Clear 35 999 32 10000 1.98 138 08:26 08.07.2022
501 Clear 34 1000 31 10000 2.49 121 06:47 08.07.2022
502 Clear 27 1003 50 10000 2.65 13 01:23 08.07.2022
503 Clear 25 1001 56 10000 2.32 32 22:57 07.07.2022
504 Clear 25 1001 54 10000 1.91 42 22:27 07.07.2022
505 Clouds 26 1000 49 10000 1.2 174 19:53 07.07.2022
506 Clouds 28 1000 43 10000 2.23 191 18:20 07.07.2022
507 Clouds 27 1000 43 10000 2.31 194 16:46 07.07.2022
508 Clear 30 1000 40 10000 2.89 179 14:32 07.07.2022
509 Clear 34 999 29 10000 3.02 166 12:53 07.07.2022
510 Clear 35 999 24 10000 3.53 185 12:23 07.07.2022
511 Clear 36 999 24 10000 3.53 185 11:35 07.07.2022
512 Clear 36 999 21 10000 3.75 183 10:47 07.07.2022
513 Clear 36 999 18 10000 3.33 183 10:29 07.07.2022
514 Clear 36 999 18 10000 3.33 183 09:52 07.07.2022
515 Clear 33 1000 15 10000 0.71 59 06:40 07.07.2022
516 Clear 26 1002 58 10000 1.93 350 00:32 07.07.2022
517 Clear 25 1001 69 10000 1.28 338 23:36 06.07.2022
518 Clear 22 1001 74 10000 1.34 313 23:18 06.07.2022
519 Clear 22 1001 74 10000 1.34 313 22:52 06.07.2022
520 Clear 21 1001 74 10000 1.34 313 22:33 06.07.2022
521 Clear 23 1000 74 10000 0.98 281 20:30 06.07.2022
522 Clear 23 1000 74 10000 0.98 281 20:30 06.07.2022
523 Clear 23 1001 77 10000 1.49 226 19:32 06.07.2022
524 Clear 24 1001 72 10000 1.14 189 17:22 06.07.2022
525 Clear 24 1001 71 10000 1.46 196 15:58 06.07.2022
526 Clear 29 1001 66 10000 3.42 136 13:21 06.07.2022
527 Clear 30 1000 59 10000 3.9 125 12:28 06.07.2022
528 Clear 30 1000 59 10000 3.9 125 11:44 06.07.2022
529 Clear 30 1000 48 10000 3.7 91 09:50 06.07.2022
530 Clouds 29 1001 47 10000 2.8 79 07:44 06.07.2022
531 Clouds 28 1001 51 10000 2.48 74 06:49 06.07.2022
532 Rain 23 1002 89 10000 2.01 350 00:38 06.07.2022
533 Clouds 23 1002 91 10000 2.32 342 22:43 05.07.2022
534 Clouds 23 1002 87 10000 2.2 357 20:57 05.07.2022
535 Rain 24 1002 87 10000 2.2 357 20:33 05.07.2022
536 Rain 24 1002 86 10000 1.76 294 19:39 05.07.2022
537 Clouds 24 1002 84 7889 3.18 342 17:55 05.07.2022
538 Clouds 24 1003 82 10000 3.25 322 17:25 05.07.2022
539 Clouds 24 1003 82 10000 3.25 322 16:36 05.07.2022
540 Rain 24 1002 80 4312 1.41 171 14:55 05.07.2022
541 Rain 26 1001 75 10000 3.43 176 13:36 05.07.2022
542 Clouds 29 1000 58 10000 3.59 151 12:26 05.07.2022
543 Clouds 32 999 55 10000 3.76 147 10:46 05.07.2022
544 Clouds 33 1000 53 10000 3.72 145 09:58 05.07.2022
545 Clouds 32 1000 50 10000 3.66 142 08:23 05.07.2022
546 Rain 31 1000 43 10000 2.78 177 07:20 05.07.2022
547 Clear 28 1002 49 10000 1.47 173 04:39 05.07.2022
548 Clouds 26 1003 71 10000 1.28 59 01:33 05.07.2022
549 Clouds 26 1002 84 10000 1.47 95 23:38 04.07.2022
550 Clouds 26 1002 85 10000 1.6 86 22:57 04.07.2022
551 Clouds 26 1002 82 10000 1.62 60 22:19 04.07.2022
552 Clouds 26 1002 80 10000 1.13 60 20:57 04.07.2022
553 Clouds 26 1002 80 10000 1.13 60 20:36 04.07.2022
554 Clouds 26 1002 77 10000 1.26 96 19:57 04.07.2022
555 Clouds 26 1002 77 10000 1.26 96 19:37 04.07.2022
556 Clouds 26 1001 77 10000 0.86 113 18:52 04.07.2022
557 Clouds 26 1001 72 10000 1.19 117 16:58 04.07.2022
558 Clouds 27 1001 70 10000 1.34 141 15:40 04.07.2022
559 Clouds 27 999 61 10000 2.77 152 14:19 04.07.2022
560 Clouds 28 999 57 10000 2.88 154 12:55 04.07.2022
561 Clouds 29 999 51 10000 3.45 166 10:57 04.07.2022
562 Clouds 29 999 49 10000 2.87 175 10:27 04.07.2022
563 Clouds 28 1000 49 10000 2.44 181 09:23 04.07.2022
564 Clouds 27 1002 66 10000 1.07 201 06:28 04.07.2022
565 Clouds 26 1002 85 10000 0.38 184 02:59 04.07.2022
566 Clouds 24 1002 88 10000 0.85 82 23:52 03.07.2022
567 Clouds 24 1003 90 10000 1.09 79 22:36 03.07.2022
568 Clouds 24 1003 88 10000 0.75 111 20:46 03.07.2022
569 Clouds 24 1003 87 10000 1.34 149 19:52 03.07.2022
570 Clouds 24 1003 87 10000 1.27 159 19:24 03.07.2022
571 Clouds 24 1004 87 10000 1.14 168 18:27 03.07.2022
572 Clouds 24 1004 87 10000 1.14 168 17:38 03.07.2022
573 Clouds 23 1005 87 10000 1.4 166 15:27 03.07.2022
574 Clouds 24 1005 87 10000 1.4 166 14:53 03.07.2022
575 Clouds 24 1004 82 10000 1.83 147 13:50 03.07.2022
576 Clouds 24 1004 81 10000 1.82 149 12:47 03.07.2022
577 Clouds 24 1004 79 10000 1.94 138 12:18 03.07.2022
578 Rain 25 1004 75 10000 1.39 145 10:54 03.07.2022
579 Clouds 26 1004 75 10000 1.39 145 10:35 03.07.2022
580 Clouds 25 1004 78 10000 2.27 188 07:38 03.07.2022
581 Clouds 24 1005 74 10000 1.7 190 06:35 03.07.2022
582 Clouds 24 1006 76 10000 1.8 81 00:38 03.07.2022
583 Rain 24 1005 77 10000 1.74 76 23:37 02.07.2022
584 Rain 24 1005 79 10000 1.5 69 22:31 02.07.2022
585 Rain 26 1006 76 10000 1.39 117 20:28 02.07.2022
586 Rain 27 1005 67 10000 1.48 145 19:49 02.07.2022
587 Rain 26 1006 65 10000 1.65 157 18:24 02.07.2022
588 Rain 27 1006 65 10000 1.65 157 17:38 02.07.2022
589 Clouds 28 1006 61 10000 1.71 152 15:56 02.07.2022
590 Clouds 29 1005 57 10000 2.64 173 13:40 02.07.2022
591 Clouds 30 1003 38 10000 4.14 178 11:49 02.07.2022
592 Clouds 31 1003 35 10000 3.05 179 10:51 02.07.2022
593 Clouds 31 1004 35 10000 2.77 192 10:21 02.07.2022
594 Clouds 30 1004 37 10000 3.01 201 08:37 02.07.2022
595 Clouds 30 1005 39 10000 2.92 199 08:19 02.07.2022
596 Clear 27 1008 56 10000 0.79 120 02:59 02.07.2022
597 Clouds 23 1008 73 10000 0.85 54 00:28 02.07.2022
598 Clouds 23 1008 75 10000 0.69 59 23:21 01.07.2022
599 Clouds 23 1008 75 10000 0.69 59 22:33 01.07.2022
600 Clouds 23 1008 74 10000 0.77 54 21:38 01.07.2022
601 Clouds 23 1007 73 10000 0.66 72 20:58 01.07.2022
602 Clouds 23 1007 73 10000 0.66 72 20:32 01.07.2022
603 Clouds 23 1008 73 10000 1.36 61 19:36 01.07.2022
604 Clouds 24 1008 68 10000 1.18 71 16:42 01.07.2022
605 Clouds 25 1007 63 10000 0.86 83 14:32 01.07.2022
606 Clouds 26 1006 59 10000 1 100 13:51 01.07.2022
607 Clouds 29 1006 53 10000 1.51 119 11:22 01.07.2022
608 Clouds 29 1007 51 10000 1.5 112 10:19 01.07.2022
609 Clouds 29 1007 51 10000 1.94 56 07:32 01.07.2022
610 Rain 23 1009 81 10000 2.56 17 02:43 01.07.2022
611 Clouds 22 1007 85 10000 1.62 33 23:52 30.06.2022
612 Rain 23 1007 88 10000 1.7 27 22:51 30.06.2022
613 Rain 23 1007 88 10000 1.7 27 22:32 30.06.2022
614 Rain 23 1007 88 10000 1.7 27 22:32 30.06.2022
615 Rain 23 1007 88 10000 1.91 33 22:32 30.06.2022
616 Rain 23 1007 88 10000 1.91 33 22:32 30.06.2022
617 Rain 23 1007 88 10000 1.91 33 21:54 30.06.2022
618 Clouds 23 1007 87 10000 1.78 36 20:49 30.06.2022
619 Rain 23 1007 85 10000 1.34 47 20:21 30.06.2022
620 Clouds 24 1007 85 10000 1.6 28 19:48 30.06.2022
621 Clouds 24 1006 82 8778 0.74 20 18:56 30.06.2022
622 Rain 24 1006 79 5411 0.61 142 18:22 30.06.2022
623 Clouds 25 1006 79 5411 0.61 142 17:34 30.06.2022
624 Clouds 25 1006 61 10000 1.97 143 16:20 30.06.2022
625 Clouds 28 1005 52 10000 1.45 179 14:20 30.06.2022
626 Clouds 29 1004 50 10000 1.91 175 13:29 30.06.2022
627 Clouds 30 1004 50 10000 1.91 175 12:34 30.06.2022
628 Clouds 31 1004 45 10000 3.19 150 11:21 30.06.2022
629 Clouds 31 1004 41 10000 3.17 136 09:51 30.06.2022
630 Clouds 31 1004 38 10000 2.56 128 09:26 30.06.2022
631 Rain 31 1004 36 10000 2.6 97 07:41 30.06.2022
632 Clouds 30 1005 38 10000 1.99 56 05:46 30.06.2022
633 Clouds 23 1005 74 10000 1.71 12 00:26 30.06.2022
634 Clouds 21 1005 77 10000 1.79 15 22:53 29.06.2022
635 Clouds 22 1005 77 10000 1.79 15 22:33 29.06.2022
636 Clouds 22 1004 77 10000 1.72 359 20:56 29.06.2022
637 Clouds 22 1004 77 10000 1.72 359 20:32 29.06.2022
638 Clouds 23 1004 76 10000 2 6 19:33 29.06.2022
639 Clouds 22 1004 77 10000 1.57 19 17:40 29.06.2022
640 Clouds 22 1004 77 10000 1.47 35 16:33 29.06.2022
641 Clouds 25 1003 74 10000 1.55 34 14:19 29.06.2022
642 Rain 26 1002 67 10000 1.76 26 12:38 29.06.2022
643 Clouds 26 1001 61 10000 2.95 344 10:20 29.06.2022
644 Clouds 27 1001 61 10000 2.95 344 09:31 29.06.2022
645 Clouds 27 1002 73 10000 2.99 328 07:23 29.06.2022
646 Rain 25 1003 73 10000 2.56 342 04:48 29.06.2022
647 Rain 22 1002 80 10000 1.74 308 00:55 29.06.2022
648 Clouds 22 1002 80 10000 1.74 308 00:35 29.06.2022
649 Clouds 21 1000 78 10000 1.61 340 22:53 28.06.2022
650 Rain 22 1000 78 10000 1.8 354 22:21 28.06.2022
651 Rain 21 1000 78 10000 1.8 354 21:50 28.06.2022
652 Rain 21 1000 78 10000 1.8 354 21:30 28.06.2022
653 Rain 22 1000 74 10000 1.52 10 20:20 28.06.2022
654 Rain 23 1000 82 10000 1.68 33 19:32 28.06.2022
655 Rain 23 1000 82 10000 1.68 33 19:32 28.06.2022
656 Rain 23 1000 80 10000 1.38 63 18:42 28.06.2022
657 Clouds 25 1000 78 10000 1.79 79 17:38 28.06.2022
658 Clouds 24 1000 70 10000 1.58 40 15:56 28.06.2022
659 Clouds 24 1000 70 10000 1.58 40 15:56 28.06.2022
660 Clouds 25 999 68 10000 1.54 8 14:59 28.06.2022
661 Clouds 25 998 65 10000 2.36 343 14:20 28.06.2022
662 Clouds 25 998 65 10000 2.36 343 13:49 28.06.2022
663 Clouds 25 997 51 10000 3.13 31 12:48 28.06.2022
664 Clouds 26 996 44 10000 1.59 333 10:46 28.06.2022
665 Clouds 25 996 41 10000 1.78 334 09:25 28.06.2022
666 Clouds 24 996 41 10000 1.78 334 08:43 28.06.2022
667 Clouds 24 997 49 10000 0.51 62 07:20 28.06.2022
668 Clouds 22 998 55 10000 1.27 114 04:56 28.06.2022
669 Clouds 22 998 72 10000 0.54 177 23:59 27.06.2022
670 Clouds 22 998 83 10000 0.56 129 23:36 27.06.2022
671 Clouds 22 997 84 10000 0.81 177 22:50 27.06.2022
672 Rain 23 997 83 10000 0.11 175 21:30 27.06.2022
673 Rain 26 996 81 5981 0.09 282 20:38 27.06.2022
674 Rain 24 997 78 10000 0.75 160 18:55 27.06.2022
675 Clouds 26 997 73 8893 1.22 127 17:45 27.06.2022
676 Clouds 26 995 55 10000 2.89 113 15:51 27.06.2022
677 Clouds 26 995 51 10000 3.07 125 14:44 27.06.2022
678 Clouds 28 993 41 10000 2.51 91 13:24 27.06.2022
679 Clouds 29 993 41 10000 2.51 91 12:49 27.06.2022
680 Clouds 28 994 36 10000 2.38 67 10:22 27.06.2022
681 Clouds 28 994 37 10000 3.17 61 08:43 27.06.2022
682 Clouds 31 995 39 10000 3.12 55 07:53 27.06.2022
683 Clouds 29 996 43 10000 3.39 33 06:37 27.06.2022
684 Rain 24 1000 79 10000 1.93 20 01:54 27.06.2022
685 Rain 25 1000 78 10000 1.66 61 23:39 26.06.2022
686 Clouds 26 1000 68 10000 2.65 48 21:51 26.06.2022
687 Clouds 25 1000 69 10000 2.7 36 20:34 26.06.2022
688 Rain 25 1002 74 10000 2.82 36 19:22 26.06.2022
689 Rain 25 1002 73 10000 2.29 74 18:24 26.06.2022
690 Clouds 25 1003 66 10000 2.73 138 15:53 26.06.2022
691 Clouds 30 1002 55 10000 4.11 137 14:34 26.06.2022
692 Clouds 30 999 43 10000 2.72 139 13:29 26.06.2022
693 Clouds 31 999 43 10000 2.72 139 12:44 26.06.2022
694 Clouds 32 999 36 10000 3.01 84 10:53 26.06.2022
695 Clouds 32 999 37 10000 3.29 67 10:23 26.06.2022
696 Clouds 31 1000 42 10000 3.06 70 08:45 26.06.2022
697 Clouds 30 1001 38 10000 2.56 93 07:18 26.06.2022
698 Clouds 29 1000 40 10000 4.27 59 00:45 26.06.2022
699 Clouds 28 1000 41 10000 3.74 62 00:20 26.06.2022
700 Clouds 28 1000 41 10000 3.74 62 23:33 25.06.2022
701 Clouds 28 1000 41 10000 3.74 62 23:33 25.06.2022
702 Clouds 28 999 42 10000 3.5 55 22:51 25.06.2022
703 Clouds 29 998 42 10000 3.42 46 22:25 25.06.2022
704 Clouds 29 997 39 10000 3.14 44 21:22 25.06.2022
705 Clouds 30 997 39 10000 3.14 44 20:54 25.06.2022
706 Clouds 29 997 36 10000 2.76 47 20:25 25.06.2022
707 Clouds 32 995 33 10000 3.08 34 18:42 25.06.2022
708 Clouds 33 995 29 10000 1.57 40 17:28 25.06.2022
709 Clouds 33 995 29 10000 1.57 40 16:31 25.06.2022
710 Clouds 32 994 25 10000 3.8 84 14:47 25.06.2022
711 Clouds 34 991 15 10000 1.71 350 12:56 25.06.2022
712 Clouds 36 991 15 10000 1.71 350 12:37 25.06.2022
713 Clouds 37 989 10 10000 0.76 208 09:40 25.06.2022
714 Clouds 37 990 10 10000 1.43 227 08:56 25.06.2022
715 Clouds 36 991 11 10000 1.56 226 08:28 25.06.2022
716 Clouds 34 992 12 10000 1.64 268 06:46 25.06.2022
717 Clouds 27 995 23 10000 1.44 20 01:53 25.06.2022
718 Clouds 21 995 28 10000 1.48 22 00:20 25.06.2022
719 Clouds 20 995 28 10000 1.09 349 22:31 24.06.2022
720 Clear 20 994 25 10000 0.99 251 21:29 24.06.2022
721 Clear 21 995 24 10000 0.95 226 20:25 24.06.2022
722 Clear 22 995 23 10000 0.29 166 19:43 24.06.2022
723 Clear 22 996 23 10000 0.07 244 19:18 24.06.2022
724 Clear 23 996 23 10000 0.07 244 18:47 24.06.2022
725 Clear 24 996 22 10000 0.43 204 18:29 24.06.2022
726 Clear 29 996 22 10000 0.91 69 16:52 24.06.2022
727 Clear 30 995 19 10000 1.57 90 15:27 24.06.2022
728 Clear 31 994 16 10000 1.49 69 14:25 24.06.2022
729 Clear 31 994 15 10000 0.95 124 13:46 24.06.2022
730 Clear 38 994 11 10000 3.4 305 11:42 24.06.2022
731 Clear 38 994 11 10000 3.94 299 10:43 24.06.2022
732 Clear 38 994 12 10000 3.63 281 09:42 24.06.2022
733 Clear 38 995 13 10000 3.62 286 08:58 24.06.2022
734 Clear 37 995 13 10000 3.62 286 08:40 24.06.2022
735 Clear 35 997 15 10000 5.41 300 06:47 24.06.2022
736 Clear 35 998 16 10000 4.49 308 06:27 24.06.2022
737 Clear 33 998 17 10000 4.32 321 05:21 24.06.2022
738 Clear 25 999 27 10000 3.02 348 00:47 24.06.2022
739 Clear 19 999 33 10000 2.77 349 22:44 23.06.2022
740 Clear 21 998 35 10000 2.88 358 21:43 23.06.2022
741 Clear 22 997 34 10000 2.23 351 20:43 23.06.2022
742 Clear 24 997 36 10000 2.71 337 19:57 23.06.2022
743 Clear 27 997 37 10000 3.01 332 18:43 23.06.2022
744 Clear 27 997 37 10000 2.35 297 17:37 23.06.2022
745 Clear 26 997 38 10000 2.02 295 16:32 23.06.2022
746 Clear 27 997 38 10000 1.86 322 15:27 23.06.2022
747 Clear 25 997 38 10000 1.86 322 14:51 23.06.2022
748 Clouds 28 995 23 10000 3.74 264 11:54 23.06.2022
749 Clear 27 995 20 10000 7.15 304 10:56 23.06.2022
750 Clear 36 994 14 10000 1.68 224 09:20 23.06.2022
751 Clear 32 997 18 10000 1.43 359 05:48 23.06.2022
752 Clear 25 1000 65 10000 3.26 347 01:22 23.06.2022
753 Clear 22 999 76 10000 2.62 352 00:25 23.06.2022
754 Clear 22 999 82 10000 2.14 349 23:22 22.06.2022
755 Clear 23 998 84 10000 2 342 21:44 22.06.2022
756 Clear 23 998 86 10000 1.84 357 20:52 22.06.2022
757 Clouds 23 999 87 10000 1.94 360 20:20 22.06.2022
758 Clouds 23 999 87 10000 1.94 360 19:44 22.06.2022
759 Clouds 23 1000 84 10000 1.91 359 17:50 22.06.2022
760 Clouds 24 1000 84 10000 2.15 4 16:50 22.06.2022
761 Clouds 24 1001 82 10000 2.54 21 15:29 22.06.2022
762 Clouds 24 1001 82 10000 2.54 21 14:57 22.06.2022
763 Clouds 24 1001 83 10000 3.07 22 13:49 22.06.2022
764 Clouds 24 1001 83 10000 3.97 23 13:24 22.06.2022
765 Clouds 25 1001 83 10000 3.97 23 12:31 22.06.2022
766 Rain 25 1001 81 10000 4.41 11 11:45 22.06.2022
767 Clouds 25 1000 80 10000 4.94 16 10:50 22.06.2022
768 Rain 25 1000 73 10000 3.97 22 09:42 22.06.2022
769 Clouds 24 1001 63 10000 5.14 359 07:22 22.06.2022
770 Rain 25 1001 53 10000 2.74 49 02:39 22.06.2022
771 Clouds 26 1000 54 10000 2.43 81 00:57 22.06.2022
772 Clouds 26 1000 54 10000 2.47 77 22:57 21.06.2022
773 Clouds 26 1000 50 10000 2.79 59 21:21 21.06.2022
774 Clouds 26 1000 53 10000 4.13 79 19:30 21.06.2022
775 Clouds 27 1000 50 10000 4.32 77 17:56 21.06.2022
776 Clouds 27 1000 45 10000 3.97 69 16:49 21.06.2022
777 Clouds 32 995 20 10000 1.84 141 12:23 21.06.2022
778 Clouds 33 995 17 10000 2.36 170 10:47 21.06.2022
779 Clouds 33 995 17 10000 2.35 203 09:35 21.06.2022
780 Clouds 33 996 20 10000 3.98 243 07:56 21.06.2022
781 Clouds 31 999 31 10000 0.46 69 04:59 21.06.2022
782 Clouds 26 999 51 10000 2.04 42 00:31 21.06.2022
783 Clouds 25 999 48 10000 1.61 36 22:22 20.06.2022
784 Clouds 26 999 48 10000 1.61 36 21:41 20.06.2022
785 Rain 27 998 47 10000 1.39 42 20:30 20.06.2022
786 Clouds 28 998 46 10000 2.18 44 19:37 20.06.2022
787 Clouds 28 998 45 10000 2.06 35 18:43 20.06.2022
788 Clouds 28 998 44 10000 1.99 36 17:50 20.06.2022
789 Clouds 29 998 44 10000 1.62 14 16:53 20.06.2022
790 Rain 29 998 43 10000 1.98 37 15:52 20.06.2022
791 Clouds 34 997 28 10000 4.21 358 12:37 20.06.2022
792 Clouds 34 996 28 10000 3.27 285 10:32 20.06.2022
793 Clouds 33 996 25 10000 3.48 235 08:56 20.06.2022
794 Clouds 32 998 28 10000 2.07 195 07:53 20.06.2022
795 Clouds 30 1001 41 10000 1.33 215 05:26 20.06.2022
796 Clouds 24 1003 61 10000 1.12 143 01:33 20.06.2022
797 Clear 23 1003 72 10000 1.23 123 00:25 20.06.2022
798 Clouds 23 1003 75 10000 1.64 110 22:46 19.06.2022
799 Clouds 24 1003 73 10000 1.89 96 21:51 19.06.2022
800 Clouds 24 1003 73 10000 1.89 96 21:31 19.06.2022
801 Clear 25 1003 71 10000 2.19 93 20:38 19.06.2022
802 Clouds 25 1003 66 10000 2.05 123 19:47 19.06.2022
803 Clouds 26 1004 64 10000 2.72 125 18:43 19.06.2022
804 Clouds 26 1004 61 10000 2.66 123 17:48 19.06.2022
805 Clouds 27 1004 59 10000 3.07 134 17:22 19.06.2022
806 Clouds 28 1004 59 10000 3.07 134 16:35 19.06.2022
807 Clouds 29 1003 56 10000 3.58 137 15:41 19.06.2022
808 Clouds 29 1002 49 10000 4.89 135 14:57 19.06.2022
809 Clear 30 1000 44 10000 4.62 142 14:19 19.06.2022
810 Clear 30 1000 35 10000 3.34 174 13:21 19.06.2022
811 Clear 31 1000 32 10000 2.95 176 10:55 19.06.2022
812 Clear 31 1001 33 10000 2.59 169 09:58 19.06.2022
813 Clear 31 1001 34 10000 2.37 163 08:47 19.06.2022
814 Clear 31 1002 36 10000 2.12 163 08:19 19.06.2022
815 Clear 28 1004 40 10000 2.14 145 05:37 19.06.2022
816 Clear 25 1006 59 10000 2.1 93 02:26 19.06.2022
817 Clear 23 1006 67 10000 1.75 70 00:25 19.06.2022
818 Clear 22 1006 67 10000 1.75 70 23:36 18.06.2022
819 Clear 22 1006 67 10000 1.75 70 23:36 18.06.2022
820 Clear 21 1006 68 10000 1.59 74 22:44 18.06.2022
821 Clear 22 1006 67 10000 1.37 79 21:38 18.06.2022
822 Clear 24 1005 67 10000 1.54 105 20:42 18.06.2022
823 Clouds 25 1005 63 10000 1.91 105 19:40 18.06.2022
824 Clouds 25 1005 62 10000 3.03 103 18:53 18.06.2022
825 Clouds 26 1005 61 10000 3.39 114 17:35 18.06.2022
826 Clouds 26 1005 58 10000 3.03 117 16:59 18.06.2022
827 Clouds 28 1004 54 10000 3.93 120 15:37 18.06.2022
828 Clouds 29 1004 51 10000 3.61 144 14:46 18.06.2022
829 Clouds 30 1001 43 10000 4.14 133 13:30 18.06.2022
830 Clouds 31 999 32 10000 2.47 122 11:56 18.06.2022
831 Clouds 32 999 32 10000 2.81 123 10:56 18.06.2022
832 Clouds 32 999 32 10000 2.81 123 10:56 18.06.2022
833 Clouds 32 1000 33 10000 2.55 117 09:28 18.06.2022
834 Clouds 31 1000 33 10000 2.55 117 08:32 18.06.2022
835 Clouds 30 1001 36 10000 1.77 127 07:23 18.06.2022
836 Clouds 28 1002 48 10000 1.51 114 03:58 18.06.2022
837 Clouds 24 1002 64 10000 1.86 37 01:26 18.06.2022
838 Clouds 24 1002 64 10000 1.86 37 00:49 18.06.2022
839 Clouds 21 1002 69 10000 1.7 42 23:59 17.06.2022
840 Clouds 22 1002 72 10000 1.68 60 23:29 17.06.2022
841 Clouds 23 1001 71 10000 1.79 70 21:33 17.06.2022
842 Clouds 23 1001 67 10000 1.89 78 20:26 17.06.2022
843 Clouds 24 1002 66 10000 2.95 85 18:52 17.06.2022
844 Clouds 25 1002 62 10000 3.63 93 17:46 17.06.2022
845 Clouds 26 1001 58 10000 3.89 103 16:43 17.06.2022
846 Clouds 27 1000 53 10000 4.16 111 16:19 17.06.2022
847 Clouds 28 1000 53 10000 4.16 111 15:37 17.06.2022
848 Clouds 28 998 43 10000 3.29 143 14:21 17.06.2022
849 Clouds 29 999 42 10000 3.36 116 13:51 17.06.2022
850 Clouds 29 999 42 10000 3.36 116 13:31 17.06.2022
851 Clouds 30 997 31 10000 2.92 182 11:59 17.06.2022
852 Clouds 30 997 31 10000 2.92 182 11:39 17.06.2022
853 Clouds 30 997 30 10000 3.23 188 11:21 17.06.2022
854 Clouds 30 999 32 10000 2.61 185 08:38 17.06.2022
855 Clouds 30 1000 32 10000 2.18 181 07:53 17.06.2022
856 Clouds 29 1001 34 10000 2.64 164 06:34 17.06.2022
857 Clear 25 1003 47 10000 2.59 71 03:24 17.06.2022
858 Clear 22 1003 60 10000 2 34 00:46 17.06.2022
859 Clear 20 1003 66 10000 1.85 30 23:30 16.06.2022
860 Clear 20 1002 68 10000 1.9 56 22:38 16.06.2022
861 Clear 20 1002 68 10000 1.9 56 22:38 16.06.2022
862 Clear 20 1003 63 10000 1.98 48 21:19 16.06.2022
863 Clear 20 1003 63 10000 1.98 48 20:50 16.06.2022
864 Clear 20 1002 48 10000 1.92 71 20:21 16.06.2022
865 Clear 23 1003 48 10000 1.33 92 18:51 16.06.2022
866 Clear 23 1002 48 10000 1.54 118 17:50 16.06.2022
867 Clear 23 1002 48 10000 1.54 118 17:49 16.06.2022
868 Clear 23 1002 50 10000 1.98 109 17:27 16.06.2022
869 Clear 23 1002 51 10000 2.75 104 16:20 16.06.2022
870 Clear 24 1001 47 10000 3 104 15:21 16.06.2022
871 Clouds 27 1000 40 10000 1.81 87 14:27 16.06.2022
872 Rain 28 999 28 10000 1.19 115 12:53 16.06.2022
873 Clouds 28 999 28 10000 1.19 115 12:34 16.06.2022
874 Clouds 29 998 26 10000 1.32 186 11:48 16.06.2022
875 Clouds 29 999 26 10000 2.36 193 10:41 16.06.2022
876 Clouds 29 1000 27 10000 3.07 211 09:43 16.06.2022
877 Clouds 28 1000 28 10000 3.76 214 08:59 16.06.2022
878 Clouds 29 1001 30 10000 4.2 204 07:42 16.06.2022
879 Clouds 27 1002 33 10000 3.34 192 06:36 16.06.2022
880 Clouds 25 1004 52 10000 1.05 143 04:24 16.06.2022
881 Rain 22 1005 67 10000 1.4 59 01:53 16.06.2022
882 Clouds 22 1005 74 10000 1.6 56 01:29 16.06.2022
883 Clouds 21 1005 77 10000 1.73 39 00:29 16.06.2022
884 Clouds 20 1005 77 10000 1.98 88 22:59 15.06.2022
885 Rain 21 1006 76 10000 1.01 59 21:55 15.06.2022
886 Clouds 21 1005 73 10000 2.02 91 21:20 15.06.2022
887 Clouds 21 1005 73 10000 2.02 91 20:37 15.06.2022
888 Clouds 21 1006 71 10000 1.93 103 20:18 15.06.2022
889 Clouds 22 1005 65 10000 2.43 98 18:47 15.06.2022
890 Clouds 23 1005 63 10000 2.3 116 17:54 15.06.2022
891 Clouds 24 1005 60 10000 3.05 122 16:37 15.06.2022
892 Clouds 24 1005 53 10000 2.83 123 15:23 15.06.2022
893 Clouds 26 1003 42 10000 2.88 149 13:37 15.06.2022
894 Clouds 26 1003 39 10000 3.24 170 12:51 15.06.2022
895 Clear 27 1003 36 10000 3.07 170 11:42 15.06.2022
896 Clear 27 1004 36 10000 3.01 167 10:23 15.06.2022
897 Clear 27 1004 36 10000 3.01 167 09:37 15.06.2022
898 Clouds 26 1005 39 10000 2.81 166 08:27 15.06.2022
899 Clouds 24 1007 44 10000 2.53 174 06:33 15.06.2022
900 Clouds 22 1009 58 10000 1.65 133 03:30 15.06.2022
901 Clouds 20 1008 72 10000 1.9 122 01:38 15.06.2022
902 Clouds 19 1008 77 10000 1.94 118 00:50 15.06.2022
903 Clouds 19 1008 81 10000 1.99 105 23:39 14.06.2022
904 Clouds 19 1007 83 10000 2.07 99 22:52 14.06.2022
905 Clouds 19 1007 82 10000 1.74 103 21:53 14.06.2022
906 Clouds 19 1007 81 10000 1.57 105 21:27 14.06.2022
907 Clouds 20 1007 81 10000 1.57 105 20:48 14.06.2022
908 Clouds 20 1007 81 10000 1.74 98 20:28 14.06.2022
909 Clouds 20 1007 83 10000 2.26 108 18:45 14.06.2022
910 Clouds 20 1006 74 10000 3.74 119 17:29 14.06.2022
911 Clouds 20 1006 74 10000 3.74 119 16:43 14.06.2022
912 Clouds 20 1006 65 10000 3.84 125 15:49 14.06.2022
913 Clouds 20 1005 53 10000 3.28 121 14:57 14.06.2022
914 Clouds 21 1004 45 10000 2.93 115 14:23 14.06.2022
915 Clouds 22 1004 56 10000 4.45 120 13:39 14.06.2022
916 Clouds 24 1003 36 10000 1.35 47 12:27 14.06.2022
917 Clouds 26 1003 32 10000 1.11 47 11:27 14.06.2022
918 Clouds 27 1003 32 10000 1.11 47 10:35 14.06.2022
919 Clouds 27 1003 31 10000 0.73 108 09:45 14.06.2022
920 Clouds 26 1003 30 10000 1.37 101 08:41 14.06.2022
921 Clouds 26 1005 35 10000 1.55 80 07:26 14.06.2022
922 Clouds 25 1006 47 10000 1.76 79 04:35 14.06.2022
923 Clouds 21 1006 62 10000 1.9 68 02:43 14.06.2022
924 Clouds 18 1005 83 10000 1.9 75 00:27 14.06.2022
925 Clouds 18 1005 86 10000 2.02 92 23:18 13.06.2022
926 Clouds 17 1004 83 10000 2.04 100 22:25 13.06.2022
927 Clouds 17 1004 83 10000 2.04 100 21:43 13.06.2022
928 Clouds 18 1004 83 10000 1.17 97 20:19 13.06.2022
929 Clouds 18 1004 79 10000 1.59 76 19:26 13.06.2022
930 Clouds 19 1004 73 10000 1.41 57 17:57 13.06.2022
931 Clouds 18 1004 73 10000 1.41 57 17:36 13.06.2022
932 Clouds 19 1004 66 10000 0.96 55 16:39 13.06.2022
933 Clouds 20 1004 63 10000 1.52 96 15:20 13.06.2022
934 Clouds 21 1003 54 10000 1.68 88 14:41 13.06.2022
935 Clouds 21 1002 52 10000 2.58 105 13:41 13.06.2022
936 Clouds 22 1001 49 10000 3.54 106 12:31 13.06.2022
937 Clouds 22 1000 39 10000 2.11 65 11:25 13.06.2022
938 Clouds 22 1000 41 10000 2.57 80 10:26 13.06.2022
939 Clouds 23 1000 32 10000 1.24 149 09:23 13.06.2022
940 Clouds 21 1001 40 10000 1.62 118 07:38 13.06.2022
941 Clouds 20 1002 44 10000 2 87 05:42 13.06.2022
942 Clouds 19 1004 70 10000 1.96 47 02:50 13.06.2022
943 Clouds 18 1004 77 10000 1.77 54 01:37 13.06.2022
944 Clouds 17 1004 86 10000 1.22 52 00:18 13.06.2022
945 Clouds 16 1003 88 10000 1.51 57 23:24 12.06.2022
946 Clouds 16 1003 89 10000 1.55 89 22:22 12.06.2022
947 Clouds 17 1004 89 10000 1.73 35 21:22 12.06.2022
948 Clouds 17 1004 88 10000 0.81 46 20:29 12.06.2022
949 Clouds 16 1004 88 10000 0.81 46 19:30 12.06.2022
950 Clouds 16 1004 88 10000 0.81 46 19:30 12.06.2022
951 Rain 17 1005 89 10000 1.75 33 17:51 12.06.2022
952 Clouds 18 1005 89 10000 4.16 80 16:24 12.06.2022
953 Clouds 17 1004 86 10000 3.51 70 14:58 12.06.2022
954 Clouds 25 1002 67 10000 0.28 60 14:23 12.06.2022
955 Clouds 25 1002 67 10000 0.28 60 13:55 12.06.2022
956 Clouds 26 1002 59 10000 2.22 155 12:40 12.06.2022
957 Clouds 26 1002 60 10000 3.27 143 11:39 12.06.2022
958 Clouds 27 1002 57 10000 1.82 216 10:22 12.06.2022
959 Clouds 26 1003 55 10000 1.94 191 08:55 12.06.2022
960 Clouds 25 1003 55 10000 1.94 191 08:36 12.06.2022
961 Clouds 24 1004 60 10000 2.45 169 07:33 12.06.2022
962 Rain 22 1006 79 10000 1.83 175 04:45 12.06.2022
963 Clouds 21 1007 88 10000 2.16 153 03:24 12.06.2022
964 Rain 20 1007 89 10000 2.17 140 01:42 12.06.2022
965 Rain 20 1007 90 10000 2.22 137 00:58 12.06.2022
966 Clouds 19 1007 90 10000 1.99 138 00:20 12.06.2022
967 Rain 19 1007 90 10000 1.99 138 23:44 11.06.2022
968 Rain 19 1007 92 10000 1.65 141 22:38 11.06.2022
969 Clouds 19 1007 93 10000 1.72 135 21:52 11.06.2022
970 Rain 19 1007 93 10000 2.89 128 20:37 11.06.2022
971 Rain 19 1008 92 10000 3.08 117 19:46 11.06.2022
972 Rain 19 1008 93 5291 3.37 95 19:25 11.06.2022
973 Rain 19 1008 93 5291 3.37 95 18:33 11.06.2022
974 Rain 20 1009 92 4471 2.63 78 17:51 11.06.2022
975 Rain 20 1010 90 5334 2.51 47 17:27 11.06.2022
976 Rain 20 1010 90 5334 2.51 47 16:56 11.06.2022
977 Clouds 20 1010 91 5596 3.36 30 16:29 11.06.2022
978 Rain 20 1010 91 5596 3.36 30 15:42 11.06.2022
979 Rain 22 1009 73 7414 1.82 349 13:53 11.06.2022
980 Clouds 23 1005 52 10000 3.49 103 12:51 11.06.2022
981 Clouds 25 1003 37 10000 5.35 137 10:48 11.06.2022
982 Clouds 26 1005 37 10000 5.47 143 09:55 11.06.2022
983 Clouds 26 1006 40 10000 5.39 135 09:19 11.06.2022
984 Clouds 25 1008 53 10000 0.96 183 07:41 11.06.2022
985 Clouds 24 1009 47 10000 2.29 168 06:30 11.06.2022
986 Rain 23 1011 52 10000 3.18 128 04:49 11.06.2022
987 Clouds 21 1011 65 10000 2.68 119 01:53 11.06.2022
988 Clouds 21 1011 65 10000 2.68 119 01:33 11.06.2022
989 Rain 20 1011 71 10000 3.07 112 00:20 11.06.2022
990 Clouds 20 1011 71 10000 3.58 108 22:32 10.06.2022
991 Clouds 20 1010 69 10000 3.02 109 21:52 10.06.2022
992 Clouds 20 1010 68 10000 2.67 99 20:42 10.06.2022
993 Clouds 20 1010 69 10000 2.63 118 20:22 10.06.2022
994 Clouds 20 1010 69 10000 2.63 118 19:38 10.06.2022
995 Clouds 20 1010 68 10000 2.47 107 19:18 10.06.2022
996 Clouds 20 1010 68 10000 2.06 114 18:18 10.06.2022
997 Rain 24 1010 68 10000 2.06 114 17:35 10.06.2022
998 Clouds 24 1010 66 10000 2.3 123 16:51 10.06.2022
999 Clouds 24 1010 64 10000 3.23 113 15:45 10.06.2022
1000 Rain 25 1011 61 10000 3.45 95 14:57 10.06.2022
1001 Clouds 26 1009 60 10000 4.74 110 13:41 10.06.2022
1002 Clouds 27 1007 45 10000 6.29 137 12:24 10.06.2022
1003 Clouds 28 1007 45 10000 6.29 137 11:30 10.06.2022
1004 Clouds 29 1006 41 10000 6.21 148 10:36 10.06.2022
1005 Clouds 28 1005 39 10000 6.47 158 09:37 10.06.2022
1006 Clouds 27 1006 34 10000 2.82 173 08:23 10.06.2022
1007 Clouds 27 1007 34 10000 1.97 194 06:51 10.06.2022
1008 Clouds 27 1007 34 10000 1.97 194 06:32 10.06.2022
1009 Clouds 26 1008 37 10000 1.64 178 05:35 10.06.2022
1010 Clouds 24 1010 50 10000 1.62 106 02:54 10.06.2022
1011 Clouds 21 1010 57 10000 1.93 110 01:37 10.06.2022
1012 Clouds 17 1009 68 10000 2.04 57 23:58 09.06.2022
1013 Clouds 17 1009 71 10000 2.06 85 22:56 09.06.2022
1014 Clouds 19 1009 69 10000 2.02 94 21:46 09.06.2022
1015 Clouds 19 1009 66 10000 2.25 99 21:28 09.06.2022
1016 Clouds 20 1009 66 10000 2.25 99 20:40 09.06.2022
1017 Clouds 21 1009 68 10000 2.33 86 19:51 09.06.2022
1018 Clouds 22 1009 64 10000 2.86 100 18:43 09.06.2022
1019 Clouds 21 1008 60 10000 2.75 118 17:56 09.06.2022
1020 Clouds 21 1008 58 10000 3.36 127 16:38 09.06.2022
1021 Rain 23 1007 56 10000 4.41 122 15:42 09.06.2022
1022 Clouds 23 1006 49 10000 4.34 124 14:34 09.06.2022
1023 Clouds 24 1004 42 10000 4.67 138 13:46 09.06.2022
1024 Clouds 24 1003 36 10000 4.43 159 13:25 09.06.2022
1025 Clouds 24 1003 32 10000 4.82 172 11:53 09.06.2022
1026 Clouds 25 1003 31 10000 4.16 174 10:40 09.06.2022
1027 Clouds 24 1004 31 10000 3.67 182 09:41 09.06.2022
1028 Clouds 24 1005 32 10000 3.35 178 09:22 09.06.2022
1029 Clouds 22 1007 33 10000 3.47 179 07:29 09.06.2022
1030 Clouds 20 1009 39 10000 2.73 161 04:47 09.06.2022
1031 Clouds 18 1011 54 10000 2.17 129 01:43 09.06.2022
1032 Clouds 17 1011 68 10000 1.58 83 23:24 08.06.2022
1033 Clouds 18 1011 68 10000 1.58 83 22:50 08.06.2022
1034 Clouds 18 1010 68 10000 1.78 81 22:25 08.06.2022
1035 Clouds 18 1010 68 10000 1.78 81 21:48 08.06.2022
1036 Clear 18 1011 66 10000 2.03 95 20:33 08.06.2022
1037 Clear 19 1011 64 10000 2.03 116 19:47 08.06.2022
1038 Clear 19 1011 64 10000 1.83 121 18:56 08.06.2022
1039 Clear 19 1011 62 10000 2.09 129 18:22 08.06.2022
1040 Clear 20 1011 59 10000 2.73 135 16:30 08.06.2022
1041 Clear 20 1010 53 10000 3.85 105 14:49 08.06.2022
1042 Clouds 22 1008 40 10000 4.67 98 12:55 08.06.2022
1043 Clouds 23 1006 36 10000 5.14 106 11:50 08.06.2022
1044 Clouds 23 1006 34 10000 4.75 101 11:22 08.06.2022
1045 Clouds 23 1006 34 10000 4.72 97 09:46 08.06.2022
1046 Clouds 23 1006 34 10000 4.39 92 09:19 08.06.2022
1047 Clouds 23 1007 32 10000 2.86 90 07:30 08.06.2022
1048 Clouds 23 1009 37 10000 1.75 85 05:20 08.06.2022
1049 Clear 20 1010 52 10000 2.07 104 02:28 08.06.2022
1050 Clear 19 1009 63 10000 2.69 95 23:41 07.06.2022
1051 Clear 19 1009 66 10000 2.53 106 23:22 07.06.2022
1052 Clear 19 1009 66 10000 2.53 106 22:38 07.06.2022
1053 Clear 19 1008 65 10000 2.45 109 21:45 07.06.2022
1054 Clear 19 1008 64 10000 2.2 108 21:25 07.06.2022
1055 Clear 19 1008 64 10000 2.2 108 20:43 07.06.2022
1056 Clouds 20 1009 62 10000 2.46 116 20:23 07.06.2022
1057 Clouds 21 1009 57 10000 2.4 122 18:51 07.06.2022
1058 Clouds 22 1009 54 10000 1.21 149 17:54 07.06.2022
1059 Clouds 23 1008 47 10000 1.74 171 16:54 07.06.2022
1060 Clouds 23 1008 47 10000 1.74 171 16:32 07.06.2022
1061 Clouds 23 1007 39 10000 4.02 161 15:40 07.06.2022
1062 Clouds 23 1007 34 10000 4.49 172 15:22 07.06.2022
1063 Rain 23 1007 34 10000 4.49 172 14:46 07.06.2022
1064 Clouds 24 1005 29 10000 5.41 168 13:46 07.06.2022
1065 Clouds 24 1005 29 10000 5.41 168 13:46 07.06.2022
1066 Clouds 24 1004 25 10000 4.89 158 13:27 07.06.2022
1067 Clear 25 1003 23 10000 5.17 154 12:22 07.06.2022
1068 Clear 26 1003 23 10000 4.56 157 10:57 07.06.2022
1069 Clear 26 1004 23 10000 3.91 159 09:46 07.06.2022
1070 Clear 27 1005 23 10000 3.39 168 08:32 07.06.2022
1071 Clouds 26 1007 24 10000 3.25 197 07:21 07.06.2022
1072 Clouds 24 1008 25 10000 3.14 196 05:47 07.06.2022
1073 Clear 22 1010 34 10000 1.3 204 02:28 07.06.2022
1074 Clear 19 1010 38 10000 1.51 211 00:33 07.06.2022
1075 Clear 14 1010 41 10000 1.35 183 23:32 06.06.2022
1076 Clear 13 1010 44 10000 1.97 213 22:37 06.06.2022
1077 Clear 14 1009 43 10000 2.15 200 21:36 06.06.2022
1078 Clear 17 1009 41 10000 1.17 153 19:59 06.06.2022
1079 Clear 18 1009 40 10000 1.02 115 19:21 06.06.2022
1080 Clear 21 1009 40 10000 1.02 115 18:38 06.06.2022
1081 Clear 21 1009 38 10000 2.14 75 17:42 06.06.2022
1082 Clear 22 1009 36 10000 2.98 68 16:39 06.06.2022
1083 Clear 24 1009 34 10000 3.37 66 15:40 06.06.2022
1084 Clear 25 1007 31 10000 4.73 68 14:40 06.06.2022
1085 Clouds 27 1004 22 10000 3.37 62 13:27 06.06.2022
1086 Clouds 29 1004 22 10000 3.37 62 12:39 06.06.2022
1087 Clouds 29 1003 20 10000 2.73 107 12:20 06.06.2022
1088 Clouds 29 1003 20 10000 2.73 107 11:42 06.06.2022
1089 Clear 28 1003 20 10000 4.72 71 09:41 06.06.2022
1090 Clouds 29 1003 18 10000 5.37 52 08:35 06.06.2022
1091 Clouds 28 1003 16 10000 3.92 8 07:40 06.06.2022
1092 Clouds 26 1005 21 10000 4.47 8 05:34 06.06.2022
1093 Clouds 26 1005 26 10000 5.07 343 03:47 06.06.2022
1094 Clear 23 1004 35 10000 5.83 0 01:30 06.06.2022
1095 Clear 21 1004 35 10000 5.83 0 00:43 06.06.2022
1096 Clear 21 1004 37 10000 5.44 6 00:19 06.06.2022
1097 Clear 19 1003 36 10000 4.6 1 22:57 05.06.2022
1098 Clear 19 1002 35 10000 3.21 357 21:56 05.06.2022
1099 Clouds 22 1001 31 10000 4.34 352 20:23 05.06.2022
1100 Clouds 23 1001 29 10000 4.46 340 18:47 05.06.2022
1101 Clouds 24 1000 29 10000 5.54 330 17:58 05.06.2022
1102 Clouds 24 1000 29 10000 5.54 330 17:38 05.06.2022
1103 Clouds 24 1000 29 10000 6.31 326 17:19 05.06.2022
1104 Clouds 25 1000 29 10000 6.31 326 16:46 05.06.2022
1105 Clouds 27 999 23 10000 5.66 340 14:59 05.06.2022
1106 Clouds 28 998 21 10000 6.07 357 13:55 05.06.2022
1107 Clouds 33 996 14 10000 7.16 348 11:58 05.06.2022
1108 Clouds 34 996 11 10000 7.49 320 10:45 05.06.2022
1109 Clouds 35 996 9 10000 7.81 317 10:24 05.06.2022
1110 Clear 34 996 8 10000 7.34 314 09:21 05.06.2022
1111 Clear 35 997 7 10000 6.92 312 08:22 05.06.2022
1112 Clear 33 1001 9 10000 6.19 310 05:24 05.06.2022
1113 Clear 31 1001 9 10000 6.19 310 04:36 05.06.2022
1114 Clouds 27 1003 12 10000 5.38 315 02:23 05.06.2022
1115 Clear 24 1003 12 10000 4.34 309 01:23 05.06.2022
1116 Clear 24 1003 12 10000 4.34 309 01:23 05.06.2022
1117 Clouds 20 1003 13 10000 2.17 297 22:48 04.06.2022
1118 Clouds 19 1002 17 10000 1.63 325 21:25 04.06.2022
1119 Clouds 21 1002 21 10000 2.78 343 19:26 04.06.2022
1120 Clouds 21 1001 36 10000 0.99 319 16:48 04.06.2022
1121 Clouds 21 1001 38 10000 0.97 235 16:20 04.06.2022
1122 Clouds 22 1001 38 10000 0.97 235 15:35 04.06.2022
1123 Clouds 29 999 34 10000 2.88 111 13:59 04.06.2022
1124 Clouds 32 997 24 10000 2.9 128 11:38 04.06.2022
1125 Clouds 34 997 22 10000 2.62 142 10:52 04.06.2022
1126 Clouds 33 998 23 10000 2.45 153 09:56 04.06.2022
1127 Clouds 34 998 23 10000 2.45 153 09:38 04.06.2022
1128 Clouds 32 999 26 10000 2 150 08:38 04.06.2022
1129 Clouds 28 1002 35 10000 1.37 347 06:32 04.06.2022
1130 Clouds 23 1003 46 10000 3.63 333 03:52 04.06.2022
1131 Clouds 24 1002 46 10000 2.3 36 00:22 04.06.2022
1132 Clouds 24 1001 44 10000 1.53 49 22:57 03.06.2022
1133 Rain 24 1001 42 10000 1.25 80 21:53 03.06.2022
1134 Clouds 26 1000 40 10000 1.69 59 20:40 03.06.2022
1135 Clouds 27 1000 39 10000 2.78 56 19:37 03.06.2022
1136 Rain 28 1001 30 10000 2.75 1 16:58 03.06.2022
1137 Rain 29 1001 28 10000 3.04 343 15:55 03.06.2022
1138 Clouds 30 1000 25 10000 1.61 321 14:42 03.06.2022
1139 Clouds 32 996 13 10000 3.72 190 12:21 03.06.2022
1140 Clouds 34 997 12 10000 4.84 202 09:57 03.06.2022
1141 Clouds 33 998 11 10000 4.36 205 09:29 03.06.2022
1142 Clouds 34 998 11 10000 3.47 216 07:47 03.06.2022
1143 Clouds 32 999 12 10000 3.24 217 06:59 03.06.2022
1144 Clouds 31 1001 13 10000 2.8 222 06:28 03.06.2022
1145 Clouds 27 1002 18 10000 1.53 194 03:52 03.06.2022
1146 Clouds 19 1003 30 10000 1.95 43 23:53 02.06.2022
1147 Clouds 20 1003 31 10000 1.7 48 22:33 02.06.2022
1148 Clouds 20 1002 29 10000 1.95 104 20:57 02.06.2022
1149 Clouds 22 1002 27 10000 2.24 118 19:58 02.06.2022
1150 Clouds 21 1002 27 10000 2.24 118 19:39 02.06.2022
1151 Clouds 22 1002 23 10000 2.42 125 18:51 02.06.2022
1152 Clouds 27 1001 20 10000 2.9 183 16:30 02.06.2022
1153 Clouds 29 1001 18 10000 4.09 176 15:47 02.06.2022
1154 Clouds 33 999 17 10000 6.23 159 13:32 02.06.2022
1155 Clouds 34 998 14 10000 6.86 160 12:51 02.06.2022
1156 Clouds 37 998 8 10000 5.45 182 10:48 02.06.2022
1157 Clouds 37 998 8 10000 5.3 194 09:45 02.06.2022
1158 Clouds 36 998 9 10000 4.77 200 09:26 02.06.2022
1159 Clouds 35 999 10 10000 3.94 206 08:23 02.06.2022
1160 Clouds 33 1001 11 10000 2.04 206 06:21 02.06.2022
1161 Clear 28 1003 14 10000 1.18 72 03:51 02.06.2022
1162 Clear 24 1003 17 10000 2.4 36 01:33 02.06.2022
1163 Clear 15 1002 23 10000 1.48 12 23:22 01.06.2022
1164 Clear 15 1002 23 10000 1.29 344 22:18 01.06.2022
1165 Clear 16 1001 22 10000 1.26 302 21:25 01.06.2022
1166 Clear 17 1001 22 10000 1.26 302 20:39 01.06.2022
1167 Clouds 18 1001 21 10000 1.37 248 19:52 01.06.2022
1168 Clouds 19 1001 20 10000 2.41 230 18:52 01.06.2022
1169 Clouds 25 1001 19 10000 3.4 218 17:38 01.06.2022
1170 Clouds 28 1001 18 10000 5.4 217 15:56 01.06.2022
1171 Clear 30 1001 17 10000 5.79 210 14:50 01.06.2022
1172 Clear 31 1000 15 10000 5.28 206 13:39 01.06.2022
1173 Clear 34 998 7 10000 2.67 268 11:32 01.06.2022
1174 Clouds 36 999 6 10000 2.72 278 09:34 01.06.2022
1175 Clear 35 1000 7 10000 2.21 257 08:28 01.06.2022
1176 Clear 33 1002 9 10000 1.33 243 07:20 01.06.2022
1177 Clear 29 1005 16 10000 1.5 220 04:53 01.06.2022
1178 Clear 14 1006 34 10000 1.3 27 23:56 31.05.2022
1179 Clear 13 1005 36 10000 1.27 50 22:43 31.05.2022
1180 Clear 14 1004 35 10000 1.33 41 22:25 31.05.2022
1181 Clear 13 1004 35 10000 1.33 41 21:44 31.05.2022
1182 Clear 15 1004 34 10000 1.44 12 20:44 31.05.2022
1183 Clear 14 1004 34 10000 1.44 12 20:44 31.05.2022
1184 Clear 15 1004 34 10000 1.44 12 20:44 31.05.2022
1185 Clear 15 1004 34 10000 1.44 12 20:44 31.05.2022
1186 Clear 15 1004 33 10000 1.57 360 19:46 31.05.2022
1187 Clear 16 1004 28 10000 2.02 25 18:33 31.05.2022
1188 Clear 18 1003 26 10000 2.74 2 17:46 31.05.2022
1189 Clear 19 1002 23 10000 3.04 354 16:21 31.05.2022
1190 Clear 25 1002 23 10000 3.04 354 15:37 31.05.2022
1191 Clouds 26 997 17 10000 3.66 36 13:22 31.05.2022
1192 Clouds 28 996 17 10000 2.82 15 12:19 31.05.2022
1193 Clouds 28 996 15 10000 7.79 3 10:34 31.05.2022
1194 Clouds 29 994 9 10000 3.31 57 08:35 31.05.2022
1195 Clear 30 996 8 10000 2.33 209 06:38 31.05.2022
1196 Clear 27 999 10 10000 2.43 167 04:34 31.05.2022
1197 Clouds 13 1001 20 10000 1.56 67 23:46 30.05.2022
1198 Clouds 12 1001 21 10000 1.24 58 23:24 30.05.2022
1199 Clouds 11 1001 21 10000 1.24 58 22:42 30.05.2022
1200 Clouds 12 1001 20 10000 1.19 95 21:42 30.05.2022
1201 Clouds 12 1001 19 10000 1.27 81 21:21 30.05.2022
1202 Clouds 13 1002 17 10000 1.87 51 19:45 30.05.2022
1203 Clear 16 1002 13 10000 1.2 15 18:21 30.05.2022
1204 Clear 17 1002 12 10000 0.98 334 17:23 30.05.2022
1205 Clear 17 1002 12 10000 0.98 334 17:23 30.05.2022
1206 Clear 18 1002 12 10000 0.98 334 16:30 30.05.2022
1207 Clear 28 1000 9 10000 3.4 318 13:38 30.05.2022
1208 Clear 31 998 7 10000 4.82 319 11:40 30.05.2022
1209 Clear 32 999 8 10000 5.35 308 10:20 30.05.2022
1210 Clear 32 1000 8 10000 5.46 307 09:18 30.05.2022
1211 Clear 30 1003 9 10000 7.11 308 06:28 30.05.2022
1212 Clear 26 1004 11 10000 4.08 314 04:52 30.05.2022
1213 Clear 19 1006 12 10000 1.48 248 01:23 30.05.2022
1214 Clear 10 1006 14 10000 1.23 327 22:49 29.05.2022
1215 Clear 10 1006 13 10000 1.58 324 22:28 29.05.2022
1216 Clear 11 1007 12 10000 3.19 303 20:38 29.05.2022
1217 Clear 12 1007 12 10000 3.34 304 19:30 29.05.2022
1218 Clear 16 1007 13 10000 2.45 310 18:34 29.05.2022
1219 Clear 19 1007 12 10000 3.94 338 16:40 29.05.2022
1220 Clear 21 1006 12 10000 3.78 334 15:47 29.05.2022
1221 Clear 23 1005 11 10000 3.71 348 14:55 29.05.2022
1222 Clear 26 1002 10 10000 5.98 342 13:19 29.05.2022
1223 Clear 29 1000 9 10000 6.77 331 11:31 29.05.2022
1224 Clear 29 999 9 10000 6.92 330 10:37 29.05.2022
1225 Clear 28 998 12 10000 6.17 337 08:36 29.05.2022
1226 Clouds 25 1000 41 10000 7.5 332 04:59 29.05.2022
1227 Clouds 26 1000 41 10000 7.5 332 04:41 29.05.2022
1228 Clouds 27 995 29 10000 5.67 328 02:24 29.05.2022
1229 Clouds 24 993 28 10000 0.85 242 23:48 28.05.2022
1230 Clouds 25 992 29 10000 1.81 212 23:25 28.05.2022
1231 Clouds 26 991 28 10000 3.19 195 22:21 28.05.2022
1232 Clouds 26 991 27 10000 4.59 190 21:19 28.05.2022
1233 Clouds 28 990 20 10000 6.85 205 19:21 28.05.2022
1234 Clouds 28 990 20 10000 6.85 205 18:45 28.05.2022
1235 Clouds 30 990 18 10000 6.67 207 17:34 28.05.2022
1236 Clouds 30 990 16 10000 6.44 208 16:35 28.05.2022
1237 Clouds 31 990 14 10000 6.56 204 15:38 28.05.2022
1238 Clouds 33 988 12 10000 6.88 188 13:57 28.05.2022
1239 Clouds 34 988 9 10000 7.23 184 12:43 28.05.2022
1240 Clear 35 987 8 10000 6.63 184 11:54 28.05.2022
1241 Clear 36 988 7 10000 6.02 193 10:49 28.05.2022
1242 Clear 36 989 8 10000 4.49 207 09:56 28.05.2022
1243 Clear 34 990 8 10000 3.86 213 08:43 28.05.2022
1244 Clear 34 992 9 10000 3.44 175 07:23 28.05.2022
1245 Clear 31 994 9 10000 1.1 127 05:24 28.05.2022
1246 Clouds 26 995 10 10000 1.85 49 02:33 28.05.2022
1247 Clouds 18 995 13 10000 2.03 11 00:31 28.05.2022
1248 Clouds 18 994 15 10000 1.11 311 22:50 27.05.2022
1249 Clouds 19 994 14 10000 0.9 223 21:37 27.05.2022
1250 Clear 20 994 13 10000 1.99 236 20:48 27.05.2022
1251 Clouds 21 994 12 10000 3.62 217 20:21 27.05.2022
1252 Clouds 27 994 12 10000 3.62 217 19:41 27.05.2022
1253 Clouds 27 993 11 10000 3.43 214 19:21 27.05.2022
1254 Clouds 29 994 11 10000 3.89 218 17:34 27.05.2022
1255 Clouds 29 994 10 10000 4.82 209 16:36 27.05.2022
1256 Clouds 30 995 9 10000 4.84 194 15:20 27.05.2022
1257 Clouds 32 995 9 10000 5.18 178 13:44 27.05.2022
1258 Clouds 33 994 7 10000 2.59 187 12:35 27.05.2022
1259 Clouds 35 994 5 10000 3.02 223 11:33 27.05.2022
1260 Clouds 35 994 5 10000 3.02 223 10:52 27.05.2022
1261 Clouds 36 995 5 10000 3.56 212 10:22 27.05.2022
1262 Clouds 36 995 5 10000 3.56 212 09:31 27.05.2022
1263 Clear 35 997 6 10000 2.3 237 07:42 27.05.2022
1264 Clear 31 1000 8 10000 2.22 294 05:27 27.05.2022
1265 Clear 24 1002 13 10000 1.66 338 02:25 27.05.2022
1266 Clear 16 1002 20 10000 1.45 16 00:19 27.05.2022
1267 Clear 14 1002 22 10000 1.4 12 22:30 26.05.2022
1268 Clear 14 1001 22 10000 1.4 14 21:34 26.05.2022
1269 Clear 15 1001 21 10000 1.25 51 19:51 26.05.2022
1270 Clear 17 1001 18 10000 0.4 52 19:19 26.05.2022
1271 Clear 19 1001 17 10000 1.56 252 17:37 26.05.2022
1272 Clear 18 1001 16 10000 1.26 206 16:36 26.05.2022
1273 Clear 20 1001 14 10000 0.94 120 15:42 26.05.2022
1274 Clouds 22 999 10 10000 1.68 12 14:24 26.05.2022
1275 Clouds 33 998 9 10000 2.81 32 12:36 26.05.2022
1276 Clouds 35 997 7 10000 3.6 349 11:23 26.05.2022
1277 Clouds 35 998 7 10000 4.22 348 09:40 26.05.2022
1278 Clouds 35 998 7 10000 3.75 327 09:19 26.05.2022
1279 Clear 32 999 8 10000 3.15 302 07:51 26.05.2022
1280 Clear 28 1005 11 10000 4.68 329 03:35 26.05.2022
1281 Clear 16 1007 18 10000 1.5 310 00:21 26.05.2022
1282 Clear 12 1007 18 10000 1.5 310 23:39 25.05.2022
1283 Clear 12 1007 19 10000 1.1 320 21:47 25.05.2022
1284 Clear 13 1007 19 10000 1.13 313 21:28 25.05.2022
1285 Clear 13 1007 19 10000 1.13 313 20:34 25.05.2022
1286 Clouds 14 1008 17 10000 0.4 25 19:21 25.05.2022
1287 Clouds 19 1009 16 10000 0.6 125 17:33 25.05.2022
1288 Clouds 23 1009 14 10000 0.17 173 16:36 25.05.2022
1289 Clear 25 1010 13 10000 0.77 237 15:53 25.05.2022
1290 Clear 20 1010 12 10000 0.26 59 14:51 25.05.2022
1291 Clear 20 1010 12 10000 0.26 59 14:32 25.05.2022
1292 Clouds 25 1009 12 10000 1.88 54 13:35 25.05.2022
1293 Clouds 29 1008 10 10000 3.18 34 12:36 25.05.2022
1294 Clouds 31 1008 7 10000 3.14 341 10:43 25.05.2022
1295 Clouds 31 1008 7 10000 3.08 359 09:54 25.05.2022
1296 Clouds 30 1011 8 10000 4.28 32 08:23 25.05.2022
1297 Clear 29 1012 9 10000 4.33 31 07:22 25.05.2022
1298 Clear 24 1016 20 10000 5.03 17 03:22 25.05.2022
1299 Clouds 20 1015 31 10000 7.58 357 23:56 24.05.2022
1300 Clouds 20 1013 33 10000 6.91 358 23:25 24.05.2022
1301 Clouds 20 1012 30 10000 6.76 359 22:19 24.05.2022
1302 Clouds 22 1012 30 10000 6.76 359 21:39 24.05.2022
1303 Clouds 22 1011 30 10000 4.77 5 21:20 24.05.2022
1304 Clouds 23 1011 35 10000 2.95 11 19:45 24.05.2022
1305 Clouds 25 1010 36 10000 3.79 20 18:53 24.05.2022
1306 Clouds 24 1010 40 10000 6.25 14 16:42 24.05.2022
1307 Clouds 24 1008 50 10000 6.08 357 16:22 24.05.2022
1308 Clouds 23 1007 60 10000 5.55 1 14:56 24.05.2022
1309 Clouds 24 1006 62 10000 4.34 341 14:20 24.05.2022
1310 Clouds 30 1005 62 10000 1.68 102 12:49 24.05.2022
1311 Rain 31 1002 22 10000 4.95 241 11:26 24.05.2022
1312 Clear 32 1000 17 10000 6.64 188 09:44 24.05.2022
1313 Clear 33 1001 17 10000 6.31 192 08:50 24.05.2022
1314 Clouds 32 1005 17 10000 4.77 204 06:57 24.05.2022
1315 Clouds 27 1008 21 10000 4.21 208 03:56 24.05.2022
1316 Clear 23 1009 27 10000 1.53 211 01:53 24.05.2022
1317 Clear 22 1009 27 10000 1.53 211 01:33 24.05.2022
1318 Clear 17 1008 33 10000 0.91 149 22:55 23.05.2022
1319 Clear 18 1008 32 10000 1.56 143 21:55 23.05.2022
1320 Clear 18 1008 30 10000 1.59 156 21:29 23.05.2022
1321 Clear 19 1008 30 10000 1.59 156 20:35 23.05.2022
1322 Clouds 21 1007 27 10000 1.69 151 19:32 23.05.2022
1323 Clouds 23 1007 25 10000 2.01 185 18:58 23.05.2022
1324 Clouds 24 1007 25 10000 2.01 185 18:30 23.05.2022
1325 Clouds 25 1008 23 10000 3.39 207 17:20 23.05.2022
1326 Clear 23 1006 24 10000 3.03 169 15:31 23.05.2022
1327 Clouds 29 1004 18 10000 3.5 204 13:22 23.05.2022
1328 Clouds 33 1004 16 10000 5.93 198 11:33 23.05.2022
1329 Clouds 33 1004 16 10000 5.93 198 10:31 23.05.2022
1330 Clouds 33 1004 15 10000 5.84 198 09:39 23.05.2022
1331 Clouds 34 1004 14 10000 5.94 200 08:32 23.05.2022
1332 Clouds 33 1005 15 10000 4.94 197 06:46 23.05.2022
1333 Clouds 32 1006 18 10000 4.48 200 06:22 23.05.2022
1334 Clouds 25 1007 25 10000 1.42 218 02:35 23.05.2022
1335 Clouds 24 1007 28 10000 0.44 208 01:42 23.05.2022
1336 Clouds 21 1007 30 10000 0.22 113 00:38 23.05.2022
1337 Clouds 19 1005 33 10000 0.32 11 22:42 22.05.2022
1338 Clouds 21 1005 32 10000 0.44 201 21:55 22.05.2022
1339 Clouds 20 1005 32 10000 0.44 201 21:36 22.05.2022
1340 Clouds 22 1005 30 10000 0.86 185 20:37 22.05.2022
1341 Clouds 22 1005 42 10000 2.49 44 20:18 22.05.2022
1342 Clouds 24 1006 39 10000 2.55 40 18:57 22.05.2022
1343 Clouds 26 1005 36 10000 2.54 40 18:28 22.05.2022
1344 Clouds 24 1005 36 10000 2.54 40 17:39 22.05.2022
1345 Clouds 23 1005 34 10000 2.75 33 16:50 22.05.2022
1346 Clouds 28 1004 26 10000 2.46 29 14:53 22.05.2022
1347 Clouds 29 1003 20 10000 2.43 32 13:57 22.05.2022
1348 Clouds 30 1002 17 10000 0.82 56 12:53 22.05.2022
1349 Clouds 32 1000 13 10000 1.29 207 11:52 22.05.2022
1350 Clouds 32 1000 10 10000 5.01 193 10:27 22.05.2022
1351 Clear 33 1000 10 10000 4.77 189 09:19 22.05.2022
1352 Clouds 33 1001 11 10000 3.52 185 07:34 22.05.2022
1353 Clouds 33 1003 12 10000 2.85 189 06:40 22.05.2022
1354 Clear 27 1005 20 10000 1.94 28 03:20 22.05.2022
1355 Clouds 21 1005 26 10000 1.55 19 00:48 22.05.2022
1356 Clouds 17 1004 30 10000 1.62 27 23:56 21.05.2022
1357 Clear 16 1004 31 10000 1.79 15 23:22 21.05.2022
1358 Clear 18 1004 30 10000 1.4 351 21:59 21.05.2022
1359 Clear 20 1004 30 10000 1.4 351 21:30 21.05.2022
1360 Clouds 21 1003 29 10000 0.9 301 20:29 21.05.2022
1361 Clouds 23 1003 27 10000 0.75 324 19:43 21.05.2022
1362 Clouds 25 1003 26 10000 0.17 149 18:31 21.05.2022
1363 Clouds 27 1003 24 10000 1.51 246 16:57 21.05.2022
1364 Clear 29 1003 21 10000 2.75 229 14:39 21.05.2022
1365 Clouds 30 1002 20 10000 4.03 240 13:55 21.05.2022
1366 Clouds 32 1001 22 10000 6.18 237 13:19 21.05.2022
1367 Clouds 34 1001 22 10000 6.18 237 12:38 21.05.2022
1368 Clear 35 1000 10 10000 2.96 182 11:20 21.05.2022
1369 Clear 37 1001 10 10000 2.29 199 09:57 21.05.2022
1370 Clear 36 1001 10 10000 2.53 212 08:59 21.05.2022
1371 Clear 35 1001 10 10000 2.53 212 08:37 21.05.2022
1372 Clear 34 1005 14 10000 2.41 205 06:20 21.05.2022
1373 Clear 23 1007 29 10000 1.35 19 01:41 21.05.2022
1374 Clear 16 1007 37 10000 0.59 17 23:32 20.05.2022
1375 Clear 16 1006 38 10000 0.6 11 22:30 20.05.2022
1376 Clear 16 1006 37 10000 0.23 14 21:56 20.05.2022
1377 Clear 17 1006 36 10000 0.99 304 21:19 20.05.2022
1378 Clear 17 1006 36 10000 0.99 304 20:45 20.05.2022
1379 Clear 18 1006 34 10000 1.66 280 19:45 20.05.2022
1380 Clear 19 1006 34 10000 2.36 239 18:53 20.05.2022
1381 Clear 20 1006 32 10000 2.19 225 17:53 20.05.2022
1382 Clear 24 1006 28 10000 3.22 212 16:23 20.05.2022
1383 Clear 25 1006 28 10000 3.22 212 15:53 20.05.2022
1384 Clear 28 1006 25 10000 2.98 213 14:32 20.05.2022
1385 Clear 28 1005 24 10000 3.16 219 13:59 20.05.2022
1386 Clear 33 1004 17 10000 4.49 203 11:51 20.05.2022
1387 Clear 33 1004 15 10000 3.83 199 10:45 20.05.2022
1388 Clear 33 1005 14 10000 2.51 188 09:23 20.05.2022
1389 Clear 32 1006 16 10000 2.22 187 07:43 20.05.2022
1390 Clear 30 1007 19 10000 2.21 202 06:40 20.05.2022
1391 Clear 28 1009 21 10000 1.59 208 05:39 20.05.2022
1392 Clouds 21 1010 39 10000 2.46 10 01:29 20.05.2022
1393 Clouds 16 1010 45 10000 2.13 11 23:46 19.05.2022
1394 Clouds 17 1010 46 10000 2.05 6 22:35 19.05.2022
1395 Clouds 17 1010 46 10000 2.02 7 21:50 19.05.2022
1396 Clouds 18 1009 45 10000 1.93 11 21:23 19.05.2022
1397 Clouds 20 1009 45 10000 1.93 11 20:43 19.05.2022
1398 Clouds 18 1010 49 10000 2.71 14 19:54 19.05.2022
1399 Clouds 19 1010 48 10000 2.96 24 18:59 19.05.2022
1400 Clouds 24 1011 46 10000 2.52 17 17:36 19.05.2022
1401 Clouds 26 1010 41 10000 2.25 6 15:43 19.05.2022
1402 Clouds 27 1010 39 10000 2.01 11 14:39 19.05.2022
1403 Clouds 27 1010 39 10000 3.51 351 14:19 19.05.2022
1404 Clouds 29 1006 17 10000 3.71 216 11:54 19.05.2022
1405 Clouds 32 1006 16 10000 5.3 213 10:30 19.05.2022
1406 Clouds 31 1008 17 10000 5.45 206 08:39 19.05.2022
1407 Clouds 30 1010 19 10000 4.28 214 07:18 19.05.2022
1408 Clouds 22 1013 25 10000 1.87 218 03:41 19.05.2022
1409 Clouds 17 1014 34 10000 0.23 89 00:57 19.05.2022
1410 Clouds 14 1013 37 10000 0.53 95 23:35 18.05.2022
1411 Clouds 16 1013 37 10000 0.98 68 22:43 18.05.2022
1412 Clouds 15 1013 36 10000 0.92 117 21:42 18.05.2022
1413 Clouds 15 1013 34 10000 1.12 135 21:20 18.05.2022
1414 Clouds 18 1013 32 10000 1.57 172 20:19 18.05.2022
1415 Clouds 21 1013 30 10000 2.6 202 18:53 18.05.2022
1416 Clouds 21 1013 30 10000 2.6 202 18:53 18.05.2022
1417 Clouds 23 1013 28 10000 3.64 201 17:42 18.05.2022
1418 Clouds 23 1013 27 10000 3.79 194 17:24 18.05.2022
1419 Clouds 22 1013 27 10000 3.79 194 16:53 18.05.2022
1420 Clouds 20 1013 23 10000 3.75 196 15:52 18.05.2022
1421 Clouds 21 1013 23 10000 3.75 196 15:33 18.05.2022
1422 Clouds 24 1012 20 10000 4.48 193 14:21 18.05.2022
1423 Clouds 29 1010 14 10000 3.88 186 12:54 18.05.2022
1424 Clouds 30 1010 11 10000 3.7 187 11:48 18.05.2022
1425 Clouds 30 1010 11 10000 3.7 187 11:30 18.05.2022
1426 Clouds 31 1010 9 10000 3.15 180 10:43 18.05.2022
1427 Clouds 32 1011 9 10000 2.1 155 07:59 18.05.2022
1428 Clouds 30 1012 9 10000 1.34 136 07:27 18.05.2022
1429 Clouds 25 1014 14 10000 1.85 22 03:40 18.05.2022
1430 Clouds 15 1012 22 10000 3.07 353 00:42 18.05.2022
1431 Clear 11 1011 26 10000 2.56 352 23:33 17.05.2022
1432 Clear 13 1009 36 10000 1.48 352 21:21 17.05.2022
1433 Clear 14 1009 36 10000 1.48 352 20:43 17.05.2022
1434 Clear 15 1009 30 10000 1.88 3 19:31 17.05.2022
1435 Clear 16 1008 29 10000 1.93 45 18:46 17.05.2022
1436 Clear 16 1007 25 10000 2.45 47 17:34 17.05.2022
1437 Clear 16 1006 22 10000 2.5 24 16:55 17.05.2022
1438 Clear 18 1005 19 10000 2.67 357 15:58 17.05.2022
1439 Clear 20 1004 16 10000 1.28 339 14:55 17.05.2022
1440 Clouds 21 1003 15 10000 0.5 319 14:28 17.05.2022
1441 Clouds 27 1002 14 10000 2.16 330 12:39 17.05.2022
1442 Clouds 28 1001 12 10000 2.8 274 10:39 17.05.2022
1443 Clear 30 1001 9 10000 5.99 201 08:51 17.05.2022
1444 Clouds 30 1002 9 10000 4.86 192 07:46 17.05.2022
1445 Clouds 27 1005 12 10000 1.65 108 06:23 17.05.2022
1446 Clear 18 1007 27 10000 2.41 36 01:23 17.05.2022
1447 Clear 11 1006 30 10000 2.02 48 23:43 16.05.2022
1448 Clouds 14 1006 29 10000 1.75 65 22:33 16.05.2022
1449 Clear 16 1005 24 10000 2.27 129 21:18 16.05.2022
1450 Clear 16 1005 24 10000 2.27 129 20:42 16.05.2022
1451 Clouds 21 1005 20 10000 3.99 198 18:51 16.05.2022
1452 Clouds 19 1005 18 10000 4.72 194 17:18 16.05.2022
1453 Clouds 19 1005 18 10000 4.72 194 17:18 16.05.2022
1454 Clouds 20 1005 16 10000 4.47 170 15:29 16.05.2022
1455 Clouds 24 1004 15 10000 4.19 151 13:48 16.05.2022
1456 Clouds 28 1003 13 10000 3.82 143 12:41 16.05.2022
1457 Clouds 29 1003 9 10000 0.97 152 10:36 16.05.2022
1458 Clouds 28 1005 8 10000 2.6 276 07:59 16.05.2022
1459 Clear 28 1006 9 10000 2.47 299 06:30 16.05.2022
1460 Clear 17 1008 14 10000 2.88 349 01:43 16.05.2022
1461 Clear 9 1008 19 10000 1.8 334 22:44 15.05.2022
1462 Clear 10 1008 18 10000 1.81 325 22:20 15.05.2022
1463 Clear 8 1008 18 10000 1.81 325 21:37 15.05.2022
1464 Clear 9 1008 17 10000 1.96 320 20:47 15.05.2022
1465 Clouds 11 1008 16 10000 1.97 298 18:52 15.05.2022
1466 Clouds 14 1009 17 10000 1.69 261 17:29 15.05.2022
1467 Clouds 15 1009 15 10000 2.06 223 14:58 15.05.2022
1468 Clouds 22 1008 16 10000 2.47 195 13:46 15.05.2022
1469 Clouds 27 1007 12 10000 1.51 269 12:19 15.05.2022
1470 Clouds 28 1008 11 10000 2.58 310 11:27 15.05.2022
1471 Clouds 28 1008 10 10000 2.54 328 09:57 15.05.2022
1472 Clouds 28 1012 9 10000 4.26 286 07:24 15.05.2022
1473 Clouds 27 1012 9 10000 4.26 286 06:56 15.05.2022
1474 Clear 20 1016 14 10000 1.81 304 03:40 15.05.2022
1475 Clear 11 1017 24 10000 2.05 360 00:42 15.05.2022
1476 Clear 9 1016 28 10000 1.79 2 23:38 14.05.2022
1477 Clear 8 1016 29 10000 1.48 355 22:39 14.05.2022
1478 Clear 8 1017 28 10000 1.25 8 21:26 14.05.2022
1479 Clear 8 1017 27 10000 0.81 355 20:28 14.05.2022
1480 Clear 9 1017 25 10000 0.6 310 19:21 14.05.2022
1481 Clear 11 1017 25 10000 0.6 310 18:59 14.05.2022
1482 Clear 10 1017 24 10000 0.08 270 17:53 14.05.2022
1483 Clouds 12 1017 22 10000 0.66 139 16:23 14.05.2022
1484 Clouds 19 1016 20 10000 1.22 127 14:50 14.05.2022
1485 Clouds 17 1016 18 10000 1.45 114 14:26 14.05.2022
1486 Clouds 25 1013 15 10000 1.42 16 11:51 14.05.2022
1487 Clouds 25 1013 14 10000 2.48 33 10:45 14.05.2022
1488 Clouds 25 1013 13 10000 2.74 13 10:19 14.05.2022
1489 Clouds 25 1013 13 10000 2.74 13 09:34 14.05.2022
1490 Clouds 23 1014 12 10000 4.03 337 07:43 14.05.2022
1491 Clouds 22 1016 16 10000 3.48 340 04:49 14.05.2022
1492 Clouds 18 1017 22 10000 2.9 346 01:57 14.05.2022
1493 Clouds 10 1015 29 10000 1.46 285 23:28 13.05.2022
1494 Clouds 9 1015 29 10000 1.46 285 22:56 13.05.2022
1495 Clouds 7 1015 28 10000 1.79 302 22:22 13.05.2022
1496 Clouds 7 1015 27 10000 1.07 282 21:19 13.05.2022
1497 Clouds 7 1015 27 10000 1.07 282 20:40 13.05.2022
1498 Clear 7 1014 26 10000 0.34 299 20:21 13.05.2022
1499 Clear 9 1015 25 10000 0.86 5 19:19 13.05.2022
1500 Clear 10 1015 23 10000 0.9 31 17:47 13.05.2022
1501 Clear 11 1015 22 10000 1.57 10 17:23 13.05.2022
1502 Clear 17 1014 20 10000 2.1 1 15:48 13.05.2022
1503 Clear 18 1014 19 10000 3.43 2 14:47 13.05.2022
1504 Clouds 23 1009 13 10000 4.8 354 12:54 13.05.2022
1505 Clouds 23 1008 9 10000 5.01 328 12:20 13.05.2022
1506 Clouds 25 1008 8 10000 6.04 314 10:23 13.05.2022
1507 Clouds 24 1008 9 10000 5.89 310 09:29 13.05.2022
1508 Clouds 24 1009 10 10000 5.29 309 07:59 13.05.2022
1509 Clouds 24 1009 10 10000 5.29 309 07:59 13.05.2022
1510 Clouds 23 1010 11 10000 5.27 296 07:30 13.05.2022
1511 Clear 20 1012 11 10000 4.69 295 05:46 13.05.2022
1512 Clouds 14 1015 12 10000 5.07 313 01:37 13.05.2022
1513 Clouds 7 1015 15 10000 2.37 316 23:34 12.05.2022
1514 Clouds 9 1015 15 10000 2.49 325 22:35 12.05.2022
1515 Clouds 7 1014 14 10000 3.21 343 21:35 12.05.2022
1516 Clouds 10 1015 26 10000 4.27 354 19:55 12.05.2022
1517 Clouds 10 1015 31 10000 4.63 348 18:30 12.05.2022
1518 Clouds 12 1014 58 10000 3.25 233 16:48 12.05.2022
1519 Clouds 15 1014 55 10000 5.6 210 15:22 12.05.2022
1520 Clouds 17 1013 56 10000 6.17 204 13:52 12.05.2022
1521 Clouds 18 1012 42 10000 6.2 193 12:46 12.05.2022
1522 Clouds 20 1012 32 10000 4.84 188 10:34 12.05.2022
1523 Clouds 19 1013 30 10000 3.47 177 08:58 12.05.2022
1524 Clouds 20 1013 30 10000 3.47 177 08:35 12.05.2022
1525 Rain 19 1015 16 10000 1.7 145 07:25 12.05.2022
1526 Clouds 17 1017 25 10000 0.93 81 04:45 12.05.2022
1527 Clouds 14 1018 42 10000 0.97 156 01:37 12.05.2022
1528 Rain 14 1017 63 10000 0.73 235 23:42 11.05.2022
1529 Rain 15 1017 70 10000 2.15 243 22:22 11.05.2022
1530 Clouds 15 1016 68 10000 2.11 226 21:27 11.05.2022
1531 Clouds 15 1016 68 10000 2.11 226 20:45 11.05.2022
1532 Clouds 18 1016 58 10000 3.88 222 17:43 11.05.2022
1533 Clouds 18 1016 56 10000 4.28 214 16:39 11.05.2022
1534 Clouds 19 1016 50 10000 4.34 227 14:48 11.05.2022
1535 Clouds 19 1016 48 10000 4.73 231 14:25 11.05.2022
1536 Clouds 20 1015 45 10000 4.2 227 13:37 11.05.2022
1537 Clouds 21 1014 26 10000 4.48 243 11:48 11.05.2022
1538 Clouds 22 1014 10 10000 2.97 290 09:34 11.05.2022
1539 Clouds 21 1016 12 10000 3.58 317 06:59 11.05.2022
1540 Clouds 15 1019 48 10000 2.26 358 02:27 11.05.2022
1541 Clouds 9 1017 70 10000 1.88 9 23:45 10.05.2022
1542 Clouds 9 1017 72 10000 1.64 10 22:30 10.05.2022
1543 Clouds 10 1016 71 10000 1.18 356 21:41 10.05.2022
1544 Clouds 10 1016 70 10000 0.79 343 20:48 10.05.2022
1545 Clouds 9 1015 62 10000 2.16 47 19:18 10.05.2022
1546 Clouds 10 1014 59 10000 1.82 29 17:43 10.05.2022
1547 Clouds 9 1014 55 10000 1.36 16 16:38 10.05.2022
1548 Clouds 13 1011 47 10000 1.63 346 13:37 10.05.2022
1549 Clouds 14 1009 41 10000 1.84 209 12:30 10.05.2022
1550 Clouds 14 1009 41 10000 1.84 209 11:42 10.05.2022
1551 Clouds 15 1009 39 10000 3.3 211 10:57 10.05.2022
1552 Rain 15 1008 38 10000 5.03 184 09:52 10.05.2022
1553 Clouds 15 1010 40 10000 4.33 187 08:29 10.05.2022
1554 Clouds 13 1012 42 10000 4.27 194 06:21 10.05.2022
1555 Clear 13 1014 56 10000 2.49 185 02:31 10.05.2022
1556 Clear 12 1015 75 10000 1.92 178 23:55 09.05.2022
1557 Clear 12 1015 76 10000 1.63 176 22:41 09.05.2022
1558 Clear 12 1015 74 10000 1.7 189 21:48 09.05.2022
1559 Clouds 13 1015 69 10000 2.55 189 20:22 09.05.2022
1560 Clouds 13 1017 63 10000 2.64 199 18:29 09.05.2022
1561 Clouds 13 1017 63 10000 2.64 199 17:33 09.05.2022
1562 Clear 13 1018 59 10000 2.99 192 16:21 09.05.2022
1563 Clear 14 1018 59 10000 2.99 192 15:47 09.05.2022
1564 Clear 15 1017 51 10000 2.93 182 14:41 09.05.2022
1565 Clouds 15 1017 47 10000 3.02 168 13:59 09.05.2022
1566 Clouds 16 1017 47 10000 3.02 168 13:32 09.05.2022
1567 Clouds 18 1016 37 10000 3.81 157 11:53 09.05.2022
1568 Clouds 19 1016 34 10000 3.8 153 10:50 09.05.2022
1569 Clouds 19 1016 32 10000 3.73 152 10:26 09.05.2022
1570 Clouds 19 1018 31 10000 2.71 158 07:57 09.05.2022
1571 Clouds 19 1020 37 10000 2.36 167 05:59 09.05.2022
1572 Clouds 13 1022 52 10000 1.24 156 02:37 09.05.2022
1573 Clouds 8 1022 70 10000 0.93 68 23:29 08.05.2022
1574 Clouds 8 1022 70 10000 0.93 68 22:42 08.05.2022
1575 Clouds 8 1022 69 10000 1.15 76 21:37 08.05.2022
1576 Clouds 8 1022 65 10000 0.8 143 20:25 08.05.2022
1577 Clouds 7 1022 65 10000 0.8 143 19:35 08.05.2022
1578 Clouds 7 1023 64 10000 1.27 182 18:40 08.05.2022
1579 Clouds 8 1023 62 10000 1.48 179 17:45 08.05.2022
1580 Clouds 9 1022 59 10000 1.31 179 16:23 08.05.2022
1581 Clouds 9 1022 57 10000 1.16 203 15:24 08.05.2022
1582 Clouds 12 1021 55 10000 0.63 209 14:23 08.05.2022
1583 Clouds 14 1020 51 10000 1.26 338 11:53 08.05.2022
1584 Clouds 15 1021 53 10000 1.45 34 10:27 08.05.2022
1585 Clouds 15 1021 53 10000 1.45 34 09:54 08.05.2022
1586 Clouds 13 1022 51 10000 1.5 28 08:23 08.05.2022
1587 Clouds 10 1023 60 10000 0.41 326 06:21 08.05.2022
1588 Clouds 9 1024 69 10000 2.22 199 03:22 08.05.2022
1589 Clouds 9 1023 76 10000 2.8 199 01:19 08.05.2022
1590 Clouds 9 1023 77 10000 2.7 193 00:20 08.05.2022
1591 Clouds 9 1023 77 10000 2.7 193 23:41 07.05.2022
1592 Rain 9 1023 81 10000 2.82 175 22:46 07.05.2022
1593 Rain 9 1023 84 10000 2.68 167 21:57 07.05.2022
1594 Clouds 10 1023 84 10000 2.68 167 21:31 07.05.2022
1595 Clouds 10 1023 82 10000 2.33 164 20:25 07.05.2022
1596 Clouds 10 1025 81 10000 2.26 161 18:59 07.05.2022
1597 Clouds 11 1026 79 10000 3.23 186 16:51 07.05.2022
1598 Rain 13 1026 73 10000 5.35 206 15:18 07.05.2022
1599 Clouds 15 1024 41 10000 5.59 220 11:51 07.05.2022
1600 Clouds 19 1024 27 10000 6.96 213 09:55 07.05.2022
1601 Clouds 19 1024 21 10000 7.02 211 08:34 07.05.2022
1602 Clouds 19 1025 12 10000 3.93 183 07:30 07.05.2022
1603 Clouds 20 1025 12 10000 2.59 169 06:42 07.05.2022
1604 Clouds 18 1028 11 10000 3.64 53 04:19 07.05.2022
1605 Clouds 8 1026 42 10000 2.54 29 00:45 07.05.2022
1606 Clouds 8 1025 65 10000 1.44 71 22:40 06.05.2022
1607 Clouds 8 1024 64 10000 1.34 21 22:21 06.05.2022
1608 Clouds 7 1024 64 10000 1.34 21 21:30 06.05.2022
1609 Clouds 6 1024 55 10000 2.19 345 19:48 06.05.2022
1610 Clouds 6 1024 54 10000 1.74 354 19:25 06.05.2022
1611 Clouds 6 1024 54 10000 1.74 354 18:34 06.05.2022
1612 Clouds 7 1023 54 10000 0.9 3 17:36 06.05.2022
1613 Clouds 7 1023 55 10000 0.93 124 15:53 06.05.2022
1614 Clouds 8 1022 54 10000 1.67 150 15:30 06.05.2022
1615 Clouds 9 1022 54 10000 1.9 160 13:50 06.05.2022
1616 Clouds 12 1020 46 10000 2.7 151 12:51 06.05.2022
1617 Clouds 13 1019 45 10000 3.05 154 11:58 06.05.2022
1618 Clouds 13 1019 48 10000 3.09 146 11:24 06.05.2022
1619 Clouds 12 1019 53 10000 3.34 142 09:47 06.05.2022
1620 Clouds 12 1019 51 10000 3.13 136 09:18 06.05.2022
1621 Clouds 12 1019 48 10000 2.93 122 07:49 06.05.2022
1622 Clouds 14 1020 58 10000 1.7 85 06:26 06.05.2022
1623 Clouds 12 1021 61 10000 5.51 31 03:42 06.05.2022
1624 Rain 14 1020 47 10000 7.17 33 02:38 06.05.2022
1625 Clouds 20 1012 32 10000 7.47 34 22:58 05.05.2022
1626 Clouds 21 1011 31 10000 7.09 29 21:49 05.05.2022
1627 Clouds 22 1009 31 10000 6.33 32 20:37 05.05.2022
1628 Clouds 19 1007 30 10000 4.23 4 18:56 05.05.2022
1629 Clouds 23 1006 32 10000 3.48 22 16:42 05.05.2022
1630 Clouds 25 1005 29 10000 3.37 16 15:30 05.05.2022
1631 Clouds 25 1001 20 10000 4.94 199 13:30 05.05.2022
1632 Clouds 27 1000 18 10000 5.63 193 12:56 05.05.2022
1633 Clouds 29 999 17 10000 5.6 189 11:35 05.05.2022
1634 Clouds 31 999 15 10000 5.89 199 09:41 05.05.2022
1635 Clouds 31 999 15 10000 5.89 199 09:41 05.05.2022
1636 Clouds 29 1000 15 10000 5.75 207 08:40 05.05.2022
1637 Clouds 26 1003 21 10000 6.13 203 06:24 05.05.2022
1638 Clouds 23 1005 30 10000 3.85 197 02:25 05.05.2022
1639 Clouds 22 1004 29 10000 3.53 195 01:41 05.05.2022
1640 Clouds 20 1004 29 10000 2.48 182 00:49 05.05.2022
1641 Clouds 20 1004 26 10000 2.12 162 23:18 04.05.2022
1642 Clouds 21 1003 23 10000 2.66 180 21:59 04.05.2022
1643 Clouds 21 1003 23 10000 2.66 180 21:34 04.05.2022
1644 Clouds 23 1003 19 10000 3.42 189 20:52 04.05.2022
1645 Clouds 23 1002 19 10000 4.54 187 20:18 04.05.2022
1646 Clouds 24 1002 19 10000 4.54 187 19:35 04.05.2022
1647 Clouds 25 1002 17 10000 4.98 191 18:42 04.05.2022
1648 Clouds 25 1003 15 10000 5.38 197 18:18 04.05.2022
1649 Clouds 25 1003 14 10000 6.04 200 17:22 04.05.2022
1650 Clouds 28 1003 13 10000 6.23 195 15:34 04.05.2022
1651 Clear 28 1003 12 10000 5.19 187 14:41 04.05.2022
1652 Clouds 28 1002 11 10000 5.43 183 14:19 04.05.2022
1653 Clouds 31 1001 11 10000 5.31 182 12:39 04.05.2022
1654 Clouds 32 1000 10 10000 6.42 181 11:40 04.05.2022
1655 Clouds 33 1001 7 10000 7.13 189 10:27 04.05.2022
1656 Clouds 33 1001 6 10000 6.98 197 09:21 04.05.2022
1657 Clouds 30 1002 7 10000 5.59 210 07:59 04.05.2022
1658 Clouds 25 1005 10 10000 3.86 218 05:34 04.05.2022
1659 Clouds 22 1006 16 10000 0.51 63 02:37 04.05.2022
1660 Clouds 11 1005 19 10000 0.19 329 23:20 03.05.2022
1661 Clouds 12 1004 18 10000 0.61 250 21:53 03.05.2022
1662 Clouds 12 1004 18 10000 0.61 250 21:31 03.05.2022
1663 Clouds 13 1004 17 10000 1.11 232 20:52 03.05.2022
1664 Clouds 14 1005 16 10000 2.98 224 19:33 03.05.2022
1665 Clouds 16 1005 15 10000 4.2 218 18:47 03.05.2022
1666 Clouds 26 1006 12 10000 3.72 208 17:22 03.05.2022
1667 Clouds 27 1005 11 10000 2.97 222 16:19 03.05.2022
1668 Clear 27 1004 9 10000 3.32 248 14:25 03.05.2022
1669 Clouds 31 1003 7 10000 4.57 251 12:42 03.05.2022
1670 Clear 32 1002 7 10000 2.64 211 11:39 03.05.2022
1671 Clear 31 1002 6 10000 2.51 194 10:49 03.05.2022
1672 Clear 29 1006 11 10000 2.36 181 08:29 03.05.2022
1673 Clear 26 1007 15 10000 2.27 186 06:45 03.05.2022
1674 Clear 19 1011 25 10000 1.14 39 02:48 03.05.2022
1675 Clouds 8 1011 35 10000 1.94 50 23:32 02.05.2022
1676 Clouds 9 1011 35 10000 2.02 48 22:31 02.05.2022
1677 Clouds 9 1012 35 10000 1.92 50 21:48 02.05.2022
1678 Clouds 10 1013 34 10000 1.61 82 19:59 02.05.2022
1679 Clouds 12 1014 32 10000 2.65 128 18:27 02.05.2022
1680 Clouds 15 1014 32 10000 2.65 128 17:42 02.05.2022
1681 Clouds 17 1014 31 10000 2.87 139 16:43 02.05.2022
1682 Clouds 18 1013 29 10000 2.76 146 15:44 02.05.2022
1683 Clouds 20 1012 27 10000 4.06 172 14:54 02.05.2022
1684 Clouds 22 1011 26 10000 5.19 162 13:45 02.05.2022
1685 Clouds 26 1010 20 10000 4.1 169 11:41 02.05.2022
1686 Clear 26 1011 18 10000 3.59 182 09:59 02.05.2022
1687 Clear 25 1012 18 10000 4.03 194 08:31 02.05.2022
1688 Clear 24 1014 19 10000 2.82 181 07:23 02.05.2022
1689 Clouds 13 1016 30 10000 1.85 95 00:48 02.05.2022
1690 Clouds 9 1016 33 10000 1.83 101 00:22 02.05.2022
1691 Clouds 7 1016 33 10000 1.83 101 23:40 01.05.2022
1692 Clouds 9 1015 33 10000 1.49 96 21:45 01.05.2022
1693 Clouds 12 1015 33 10000 1.58 74 20:50 01.05.2022
1694 Clouds 10 1015 32 10000 1.9 95 19:40 01.05.2022
1695 Clouds 10 1015 31 10000 1.59 76 18:53 01.05.2022
1696 Clouds 10 1014 30 10000 1.6 58 17:51 01.05.2022
1697 Clear 11 1014 29 10000 1.82 48 16:42 01.05.2022
1698 Clear 12 1014 28 10000 2.11 50 16:18 01.05.2022
1699 Clear 15 1013 27 10000 2.84 46 14:54 01.05.2022
1700 Clouds 22 1010 25 10000 3.36 34 13:23 01.05.2022
1701 Clouds 25 1008 18 10000 4.11 25 10:45 01.05.2022
1702 Clouds 25 1008 14 10000 4.37 18 08:50 01.05.2022
1703 Clouds 27 1009 15 10000 4.77 341 06:51 01.05.2022
1704 Clear 18 1013 13 10000 4.22 311 02:47 01.05.2022
1705 Clear 5 1013 13 10000 2.19 241 22:52 30.04.2022
1706 Clear 5 1014 12 10000 2.32 248 21:34 30.04.2022
1707 Clear 9 1016 12 10000 2.17 280 20:24 30.04.2022
1708 Clear 13 1016 10 10000 2.9 298 19:31 30.04.2022
1709 Clear 7 1018 10 10000 3.24 308 17:38 30.04.2022
1710 Clear 12 1019 10 10000 3.33 317 16:30 30.04.2022
1711 Clear 11 1018 8 10000 2.81 301 15:19 30.04.2022
1712 Clear 15 1018 8 10000 2.81 301 14:30 30.04.2022
1713 Clouds 22 1016 7 10000 4.59 305 12:28 30.04.2022
1714 Clouds 23 1016 7 10000 4.59 305 11:32 30.04.2022
1715 Clouds 23 1016 6 10000 5.42 302 10:30 30.04.2022
1716 Clouds 21 1019 7 10000 3.68 313 08:26 30.04.2022
1717 Clouds 19 1024 9 10000 4.17 326 04:58 30.04.2022
1718 Clouds 13 1024 14 10000 3.47 334 00:35 30.04.2022
1719 Clouds 14 1024 13 10000 3.38 349 23:29 29.04.2022
1720 Clouds 14 1024 12 10000 3.54 354 22:29 29.04.2022
1721 Clouds 14 1024 12 10000 3.54 354 22:29 29.04.2022
1722 Clouds 14 1023 11 10000 4.76 352 21:26 29.04.2022
1723 Clouds 14 1023 11 10000 4.76 352 20:36 29.04.2022
1724 Clouds 14 1022 9 10000 5.11 353 19:33 29.04.2022
1725 Clouds 16 1022 8 10000 5.74 360 17:38 29.04.2022
1726 Clouds 13 1021 10 10000 6.2 3 16:43 29.04.2022
1727 Clouds 16 1019 24 10000 5.49 335 14:38 29.04.2022
1728 Clouds 16 1019 24 10000 5.49 335 14:38 29.04.2022
1729 Clouds 16 1017 45 10000 1.37 260 14:19 29.04.2022
1730 Clouds 18 1015 38 10000 3.53 215 12:41 29.04.2022
1731 Clouds 19 1014 34 10000 4.41 220 10:57 29.04.2022
1732 Clouds 19 1015 32 10000 4.19 205 08:18 29.04.2022
1733 Clouds 19 1016 35 10000 3.57 210 07:27 29.04.2022
1734 Clouds 18 1016 35 10000 3.57 210 06:34 29.04.2022
1735 Clouds 14 1020 54 10000 2.63 206 03:28 29.04.2022
1736 Clouds 10 1020 75 10000 1.1 188 00:18 29.04.2022
1737 Clouds 10 1020 75 10000 1.31 183 23:26 28.04.2022
1738 Clouds 10 1020 75 10000 1.31 183 22:37 28.04.2022
1739 Clouds 10 1020 74 10000 1.35 175 21:45 28.04.2022
1740 Clear 10 1020 72 10000 1.07 165 20:51 28.04.2022
1741 Clear 11 1020 69 10000 1.48 172 19:59 28.04.2022
1742 Clear 11 1020 69 10000 1.48 172 19:40 28.04.2022
1743 Clear 11 1021 67 10000 1.65 193 19:20 28.04.2022
1744 Clear 11 1021 66 10000 2.03 199 17:56 28.04.2022
1745 Clear 11 1021 64 10000 2.7 201 16:59 28.04.2022
1746 Clear 11 1022 62 10000 3.22 180 16:21 28.04.2022
1747 Clear 11 1022 62 10000 3.22 180 15:56 28.04.2022
1748 Clear 11 1022 59 10000 3.69 160 15:23 28.04.2022
1749 Clouds 13 1021 54 10000 3.66 157 13:43 28.04.2022
1750 Clouds 14 1020 49 10000 3.36 156 12:34 28.04.2022
1751 Clouds 15 1019 44 10000 2.8 161 11:51 28.04.2022
1752 Clouds 16 1019 42 10000 2.63 163 10:30 28.04.2022
1753 Clouds 16 1019 41 10000 2.35 165 09:51 28.04.2022
1754 Clouds 14 1020 46 10000 1.4 148 07:45 28.04.2022
1755 Rain 14 1021 51 10000 0.9 164 06:56 28.04.2022
1756 Clouds 13 1022 54 10000 0.59 174 05:54 28.04.2022
1757 Rain 12 1023 61 10000 0.24 209 04:44 28.04.2022
1758 Rain 11 1024 67 10000 0.93 267 03:40 28.04.2022
1759 Rain 8 1023 82 10000 1.36 235 23:52 27.04.2022
1760 Rain 8 1023 83 10000 1.61 252 22:30 27.04.2022
1761 Rain 8 1023 81 10000 1.59 241 21:51 27.04.2022
1762 Rain 8 1023 80 10000 1.24 245 20:56 27.04.2022
1763 Clouds 8 1023 80 10000 1.24 245 20:34 27.04.2022
1764 Clouds 8 1023 80 10000 1.24 245 20:34 27.04.2022
1765 Rain 8 1023 81 8501 2.23 300 19:37 27.04.2022
1766 Rain 8 1023 80 9957 2.77 329 18:52 27.04.2022
1767 Clouds 8 1023 72 10000 2.56 350 18:21 27.04.2022
1768 Rain 8 1024 55 10000 2.27 24 16:23 27.04.2022
1769 Clouds 9 1022 51 10000 1.38 54 13:51 27.04.2022
1770 Clouds 11 1021 49 10000 1.43 10 11:45 27.04.2022
1771 Clouds 12 1021 48 10000 1.2 7 11:20 27.04.2022
1772 Clouds 12 1022 57 10000 2.2 351 08:58 27.04.2022
1773 Clouds 11 1023 54 10000 1.48 329 06:45 27.04.2022
1774 Clouds 11 1023 18 10000 3.06 141 03:41 27.04.2022
1775 Clouds 13 1023 18 10000 2.19 141 01:31 27.04.2022
1776 Clouds 13 1023 17 10000 2.09 112 00:36 27.04.2022
1777 Clouds 14 1021 15 10000 1.79 49 23:25 26.04.2022
1778 Clouds 13 1021 15 10000 1.79 49 22:57 26.04.2022
1779 Clouds 13 1021 15 10000 1.79 49 22:38 26.04.2022
1780 Clouds 7 1020 13 10000 2.74 42 21:26 26.04.2022
1781 Clouds 8 1020 13 10000 2.74 42 20:41 26.04.2022
1782 Clouds 10 1020 12 10000 3.03 49 19:49 26.04.2022
1783 Clouds 11 1021 13 10000 3.5 51 19:30 26.04.2022
1784 Clouds 12 1021 12 10000 2.97 52 18:44 26.04.2022
1785 Clouds 16 1020 11 10000 3.46 25 17:54 26.04.2022
1786 Clouds 15 1019 10 10000 5.93 11 16:28 26.04.2022
1787 Clouds 17 1017 8 10000 6.47 3 13:59 26.04.2022
1788 Clouds 19 1016 8 10000 6.79 357 13:31 26.04.2022
1789 Clouds 22 1013 6 10000 6.26 353 11:49 26.04.2022
1790 Clouds 24 1012 5 10000 6.51 347 10:34 26.04.2022
1791 Clouds 24 1011 4 10000 6.53 327 08:54 26.04.2022
1792 Clear 23 1012 5 10000 7.72 312 06:57 26.04.2022
1793 Clear 20 1012 7 10000 8.59 316 04:23 26.04.2022
1794 Clear 18 1009 9 10000 8.15 334 01:22 26.04.2022
1795 Clear 19 1008 10 10000 8.08 336 00:25 26.04.2022
1796 Clear 20 1005 15 10000 7.48 338 22:21 25.04.2022
1797 Clear 22 1005 15 10000 7.48 338 21:39 25.04.2022
1798 Clear 19 1005 16 10000 7.73 348 20:35 25.04.2022
1799 Clear 20 1003 63 10000 2.96 33 18:54 25.04.2022
1800 Clear 20 1002 62 10000 2.62 27 17:52 25.04.2022
1801 Clouds 20 1001 57 10000 2.04 78 16:52 25.04.2022
1802 Clear 21 999 43 10000 3.52 170 15:24 25.04.2022
1803 Clear 21 999 43 10000 3.44 151 14:38 25.04.2022
1804 Clear 21 998 32 10000 4.18 193 13:32 25.04.2022
1805 Clear 24 998 28 10000 4.27 191 11:37 25.04.2022
1806 Clear 24 999 27 10000 3.74 190 10:23 25.04.2022
1807 Clear 25 1000 28 10000 3.23 189 08:35 25.04.2022
1808 Clouds 23 1003 34 10000 2.61 184 06:38 25.04.2022
1809 Clouds 19 1006 42 10000 1.2 89 03:44 25.04.2022
1810 Clouds 17 1006 57 10000 1.46 86 00:33 25.04.2022
1811 Clouds 17 1006 59 10000 1.59 95 23:51 24.04.2022
1812 Clouds 18 1006 58 10000 1.83 111 22:41 24.04.2022
1813 Clouds 18 1005 56 10000 1.57 74 22:18 24.04.2022
1814 Clouds 18 1005 54 10000 1.78 62 21:24 24.04.2022
1815 Clouds 18 1005 54 10000 1.78 62 20:48 24.04.2022
1816 Clouds 19 1005 54 10000 1.57 77 20:22 24.04.2022
1817 Clouds 17 1005 54 10000 1.74 90 19:19 24.04.2022
1818 Clouds 18 1005 54 10000 2.45 92 18:20 24.04.2022
1819 Clouds 20 1005 52 10000 2.51 90 17:27 24.04.2022
1820 Clouds 20 1005 52 10000 2.51 90 16:58 24.04.2022
1821 Clouds 20 1005 52 10000 2.51 90 16:30 24.04.2022
1822 Clouds 20 1005 52 10000 2.51 90 16:30 24.04.2022
1823 Clouds 20 1005 48 10000 2.44 100 15:53 24.04.2022
1824 Clouds 20 1005 44 10000 2.59 127 14:57 24.04.2022
1825 Clouds 22 1003 37 10000 2.62 133 13:45 24.04.2022
1826 Clouds 23 1002 32 10000 3.4 143 13:23 24.04.2022
1827 Clouds 24 1002 27 10000 4.08 150 11:55 24.04.2022
1828 Clouds 25 1002 23 10000 5.2 154 11:22 24.04.2022
1829 Clouds 26 1002 20 10000 4.53 147 09:51 24.04.2022
1830 Clouds 26 1003 19 10000 4.42 148 08:31 24.04.2022
1831 Clouds 25 1006 17 10000 3.81 122 05:46 24.04.2022
1832 Clouds 20 1007 25 10000 3.5 90 02:59 24.04.2022
1833 Clouds 14 1005 32 10000 2.49 76 00:55 24.04.2022
1834 Clouds 12 1004 31 10000 2.33 57 23:55 23.04.2022
1835 Clouds 12 1003 32 10000 1.95 39 23:25 23.04.2022
1836 Clouds 14 1003 32 10000 1.95 39 22:42 23.04.2022
1837 Clear 13 1002 32 10000 2.37 30 21:49 23.04.2022
1838 Clear 13 1002 32 10000 2.37 30 21:30 23.04.2022
1839 Clouds 14 1001 29 10000 2.29 21 20:27 23.04.2022
1840 Clouds 16 1001 25 10000 1.32 312 19:21 23.04.2022
1841 Clouds 15 1001 25 10000 1.32 312 18:55 23.04.2022
1842 Clouds 18 1001 25 10000 1.32 312 18:32 23.04.2022
1843 Clouds 19 1001 23 10000 1.42 268 17:47 23.04.2022
1844 Clouds 19 1000 22 10000 2.69 242 16:46 23.04.2022
1845 Clear 17 1000 21 10000 4.83 231 15:54 23.04.2022
1846 Clear 22 998 17 10000 6.75 215 13:33 23.04.2022
1847 Clear 27 996 14 10000 6.67 194 11:57 23.04.2022
1848 Clear 27 997 12 10000 6.05 201 10:37 23.04.2022
1849 Clear 25 999 12 10000 5.95 213 08:30 23.04.2022
1850 Clear 18 1006 22 10000 2.56 220 05:27 23.04.2022
1851 Clear 15 1007 26 10000 1.62 208 03:32 23.04.2022
1852 Clear 10 1008 38 10000 1.61 163 23:38 22.04.2022
1853 Clear 12 1008 37 10000 2.25 172 23:20 22.04.2022
1854 Clear 13 1008 36 10000 2.63 178 21:58 22.04.2022
1855 Clear 13 1008 36 10000 2.63 178 21:40 22.04.2022
1856 Clear 14 1008 34 10000 3.32 184 20:35 22.04.2022
1857 Clear 14 1009 31 10000 3.46 186 19:39 22.04.2022
1858 Clear 14 1009 29 10000 4.24 194 19:18 22.04.2022
1859 Clear 15 1009 28 10000 4.68 198 18:28 22.04.2022
1860 Clear 15 1009 27 10000 5.02 203 17:24 22.04.2022
1861 Clear 17 1010 25 10000 5.79 201 15:59 22.04.2022
1862 Clear 17 1010 25 10000 5.79 201 15:30 22.04.2022
1863 Clear 18 1010 23 10000 6.13 197 14:38 22.04.2022
1864 Clear 18 1010 23 10000 6.13 197 14:38 22.04.2022
1865 Clear 20 1009 23 10000 6.49 198 13:41 22.04.2022
1866 Clear 20 1008 23 10000 6.18 195 12:48 22.04.2022
1867 Clear 22 1008 18 10000 6.25 191 11:23 22.04.2022
1868 Clear 22 1008 18 10000 6.25 191 10:57 22.04.2022
1869 Clear 22 1008 18 10000 6.25 191 10:34 22.04.2022
1870 Clouds 23 1009 16 10000 5.52 192 09:59 22.04.2022
1871 Clouds 22 1009 15 10000 5.01 189 09:22 22.04.2022
1872 Clouds 22 1009 15 10000 5.01 189 08:48 22.04.2022
1873 Clouds 21 1011 13 10000 1.6 213 06:54 22.04.2022
1874 Clear 14 1014 24 10000 3.43 329 01:34 22.04.2022
1875 Clear 8 1013 29 10000 3.64 339 23:35 21.04.2022
1876 Clear 12 1012 30 10000 4.6 342 22:47 21.04.2022
1877 Clear 12 1011 30 10000 4.79 345 21:42 21.04.2022
1878 Clear 13 1011 30 10000 4.73 347 20:32 21.04.2022
1879 Clear 15 1010 26 10000 5.72 338 19:24 21.04.2022
1880 Clear 17 1010 26 10000 5.72 338 18:32 21.04.2022
1881 Clear 18 1008 26 10000 6.25 340 17:20 21.04.2022
1882 Clear 20 1006 26 10000 6.83 341 16:19 21.04.2022
1883 Clear 22 1005 23 10000 7.59 344 15:19 21.04.2022
1884 Clouds 23 1002 20 10000 7.37 355 14:28 21.04.2022
1885 Clouds 25 1000 16 10000 6.72 347 13:22 21.04.2022
1886 Clouds 27 998 13 10000 7.25 335 12:29 21.04.2022
1887 Clouds 28 997 12 10000 8.55 323 09:58 21.04.2022
1888 Clouds 26 996 12 10000 8.25 322 08:47 21.04.2022
1889 Clouds 22 997 15 10000 7.37 324 06:44 21.04.2022
1890 Clouds 18 998 26 10000 1.06 321 03:42 21.04.2022
1891 Clouds 18 998 31 10000 1.07 260 03:22 21.04.2022
1892 Clouds 18 998 31 10000 1.07 260 02:44 21.04.2022
1893 Clouds 18 998 31 10000 1.07 260 02:44 21.04.2022
1894 Clouds 17 996 38 10000 2.34 193 00:35 21.04.2022
1895 Clouds 18 996 40 10000 2.59 184 23:40 20.04.2022
1896 Clouds 18 996 40 10000 3.23 173 23:18 20.04.2022
1897 Clouds 18 996 40 10000 3.23 173 22:36 20.04.2022
1898 Clouds 18 997 37 10000 3.6 181 21:47 20.04.2022
1899 Clouds 20 997 34 10000 4.21 187 20:45 20.04.2022
1900 Clouds 20 997 30 10000 5.43 199 20:21 20.04.2022
1901 Clouds 20 997 30 10000 5.43 199 19:46 20.04.2022
1902 Clouds 20 997 26 10000 5.95 194 18:48 20.04.2022
1903 Clouds 20 998 23 10000 6.08 200 17:50 20.04.2022
1904 Clouds 23 999 19 10000 6.39 201 16:39 20.04.2022
1905 Clouds 24 999 13 10000 6.34 199 15:26 20.04.2022
1906 Clouds 27 998 11 10000 6.55 189 12:22 20.04.2022
1907 Clouds 27 998 11 10000 6.55 189 11:42 20.04.2022
1908 Clouds 29 998 9 10000 6.42 189 10:44 20.04.2022
1909 Clear 27 1000 9 10000 6.8 193 09:31 20.04.2022
1910 Clear 26 1000 9 10000 6.8 193 08:40 20.04.2022
1911 Clear 26 1001 9 10000 6.02 196 08:18 20.04.2022
1912 Clear 23 1004 14 10000 3.45 200 06:18 20.04.2022
1913 Clear 17 1007 26 10000 0.63 89 02:34 20.04.2022
1914 Clear 9 1007 36 10000 0.06 145 00:22 20.04.2022
1915 Clear 10 1007 34 10000 0.69 190 22:59 19.04.2022
1916 Clear 10 1007 34 10000 0.69 190 22:59 19.04.2022
1917 Clear 10 1007 32 10000 1.39 207 22:23 19.04.2022
1918 Clear 13 1007 32 10000 1.39 207 21:53 19.04.2022
1919 Clear 17 1007 30 10000 2.27 215 20:59 19.04.2022
1920 Clear 17 1007 30 10000 2.27 215 20:37 19.04.2022
1921 Clear 20 1008 27 10000 2.3 220 19:32 19.04.2022
1922 Clear 20 1008 26 10000 3.07 217 18:31 19.04.2022
1923 Clear 22 1009 23 10000 4.63 213 16:55 19.04.2022
1924 Clear 22 1009 23 10000 4.63 213 16:33 19.04.2022
1925 Clear 23 1010 20 10000 4.82 207 15:59 19.04.2022
1926 Clear 23 1010 18 10000 4.59 202 14:46 19.04.2022
1927 Clear 25 1009 15 10000 4.29 189 12:58 19.04.2022
1928 Clear 25 1009 15 10000 4.29 189 12:36 19.04.2022
1929 Clear 27 1009 12 10000 4.43 187 11:35 19.04.2022
1930 Clear 28 1009 10 10000 4.75 199 09:52 19.04.2022
1931 Clear 27 1011 10 10000 3.96 204 08:22 19.04.2022
1932 Clear 20 1017 18 10000 0.9 233 04:26 19.04.2022
1933 Clear 15 1017 22 10000 0.52 285 02:41 19.04.2022
1934 Clear 6 1017 37 10000 0.36 26 00:23 19.04.2022
1935 Clear 6 1017 38 10000 0.58 360 22:54 18.04.2022
1936 Clear 7 1017 37 10000 1.03 295 21:28 18.04.2022
1937 Clear 9 1017 37 10000 1.03 295 20:40 18.04.2022
1938 Clear 9 1018 35 10000 0.63 297 20:22 18.04.2022
1939 Clear 11 1018 35 10000 0.63 297 19:41 18.04.2022
1940 Clear 13 1018 33 10000 0.81 231 18:52 18.04.2022
1941 Clear 14 1018 31 10000 1.26 202 17:49 18.04.2022
1942 Clear 14 1018 28 10000 1.59 193 17:20 18.04.2022
1943 Clear 13 1018 28 10000 1.59 193 16:40 18.04.2022
1944 Clear 15 1018 26 10000 2.18 194 15:43 18.04.2022
1945 Clear 19 1018 22 10000 2.56 183 14:28 18.04.2022
1946 Clear 20 1017 24 10000 2.93 191 13:31 18.04.2022
1947 Clear 21 1016 17 10000 3.05 158 12:28 18.04.2022
1948 Clear 23 1016 15 10000 2.78 140 11:20 18.04.2022
1949 Clear 23 1016 15 10000 2.39 133 10:28 18.04.2022
1950 Clear 23 1016 15 10000 2.39 133 09:30 18.04.2022
1951 Clouds 23 1018 15 10000 1.96 98 07:34 18.04.2022
1952 Clouds 19 1020 20 10000 3.31 63 03:57 18.04.2022
1953 Clouds 8 1017 32 10000 2.03 27 23:41 17.04.2022
1954 Clouds 10 1016 31 10000 2.23 30 22:39 17.04.2022
1955 Clouds 10 1015 31 10000 1.59 22 21:42 17.04.2022
1956 Clouds 10 1015 30 10000 0.51 309 21:21 17.04.2022
1957 Clouds 9 1015 30 10000 0.51 309 20:32 17.04.2022
1958 Clouds 12 1016 28 10000 0.42 290 19:21 17.04.2022
1959 Clouds 12 1016 28 10000 0.97 240 17:38 17.04.2022
1960 Clouds 13 1016 27 10000 2.39 214 15:38 17.04.2022
1961 Clouds 15 1016 26 10000 2.38 217 14:53 17.04.2022
1962 Clouds 17 1015 25 10000 2.56 221 13:44 17.04.2022
1963 Clouds 18 1014 24 10000 3 219 12:56 17.04.2022
1964 Clouds 20 1014 20 10000 3.84 215 11:24 17.04.2022
1965 Clouds 20 1014 20 10000 3.84 215 10:38 17.04.2022
1966 Clouds 20 1014 19 10000 4.27 211 10:19 17.04.2022
1967 Clouds 20 1015 18 10000 4.32 208 09:23 17.04.2022
1968 Clouds 20 1015 18 10000 4.32 208 08:41 17.04.2022
1969 Clouds 19 1016 17 10000 2.29 190 06:53 17.04.2022
1970 Clouds 14 1018 21 10000 0.95 78 03:20 17.04.2022
1971 Clouds 7 1017 24 10000 0.24 68 00:53 17.04.2022
1972 Clouds 5 1016 25 10000 0.38 41 23:49 16.04.2022
1973 Clouds 6 1016 26 10000 0.67 339 22:27 16.04.2022
1974 Clouds 6 1016 26 10000 0.93 310 21:29 16.04.2022
1975 Clear 7 1016 25 10000 0.67 279 19:54 16.04.2022
1976 Clear 10 1016 23 10000 1.06 264 18:54 16.04.2022
1977 Clear 15 1016 21 10000 1.93 242 17:40 16.04.2022
1978 Clear 18 1016 21 10000 3.42 236 16:32 16.04.2022
1979 Clear 15 1016 20 10000 5.14 226 15:40 16.04.2022
1980 Clear 19 1016 16 10000 5.4 218 14:51 16.04.2022
1981 Clear 20 1016 12 10000 5.17 215 13:56 16.04.2022
1982 Clear 20 1015 11 10000 4.91 209 13:26 16.04.2022
1983 Clear 22 1015 8 10000 4.36 221 12:18 16.04.2022
1984 Clear 24 1015 7 10000 4.08 231 10:42 16.04.2022
1985 Clear 24 1015 6 10000 2.77 240 09:41 16.04.2022
1986 Clear 24 1016 6 10000 1.67 256 08:56 16.04.2022
1987 Clear 22 1019 6 10000 1.06 274 07:31 16.04.2022
1988 Clear 20 1020 6 10000 1.56 317 06:22 16.04.2022
1989 Clear 10 1023 10 10000 3.07 329 01:59 16.04.2022
1990 Clear 1 1022 12 10000 2.26 336 00:21 16.04.2022
1991 Clear 4 1022 12 10000 2.02 336 22:54 15.04.2022
1992 Clear 6 1022 12 10000 2.02 336 22:31 15.04.2022
1993 Clear 10 1023 13 10000 1.72 326 21:44 15.04.2022
1994 Clear 6 1023 14 10000 1.62 319 20:56 15.04.2022
1995 Clear 10 1023 12 10000 1.46 318 19:59 15.04.2022
1996 Clear 8 1023 12 10000 1.46 318 19:38 15.04.2022
1997 Clear 6 1024 13 10000 1.39 320 18:46 15.04.2022
1998 Clear 6 1024 14 10000 1.59 313 18:24 15.04.2022
1999 Clear 8 1024 14 10000 1.59 313 17:30 15.04.2022
2000 Clouds 15 1024 13 10000 1.85 268 16:26 15.04.2022
2001 Clouds 16 1024 13 10000 1.85 268 15:59 15.04.2022
2002 Clouds 15 1024 11 10000 1.76 251 14:30 15.04.2022
2003 Clear 17 1022 8 10000 1.28 285 13:23 15.04.2022
2004 Clear 19 1022 8 10000 1.28 285 12:40 15.04.2022
2005 Clear 20 1022 7 10000 2.07 305 11:54 15.04.2022
2006 Clear 20 1022 6 10000 2.08 301 10:49 15.04.2022
2007 Clear 20 1023 6 10000 1.76 292 10:22 15.04.2022
2008 Clear 19 1024 6 10000 1.92 293 09:24 15.04.2022
2009 Clear 19 1024 6 10000 1.92 293 08:57 15.04.2022
2010 Clear 19 1027 7 10000 3.14 326 06:56 15.04.2022
2011 Clear 17 1028 8 10000 3.52 330 05:56 15.04.2022
2012 Clear 10 1031 13 10000 3.79 345 01:49 15.04.2022
2013 Clear 6 1030 21 10000 3 335 23:30 14.04.2022
2014 Clear 9 1030 20 10000 3.23 352 22:47 14.04.2022
2015 Clear 9 1030 22 10000 3.49 5 22:27 14.04.2022
2016 Clear 8 1030 22 10000 3.49 5 21:54 14.04.2022
2017 Clear 10 1030 29 10000 3.82 12 20:35 14.04.2022
2018 Clear 11 1029 27 10000 2.9 24 19:22 14.04.2022
2019 Clear 12 1029 26 10000 3.61 26 17:58 14.04.2022
2020 Clear 12 1029 25 10000 4.05 31 17:28 14.04.2022
2021 Clear 13 1029 25 10000 4.05 31 16:33 14.04.2022
2022 Clouds 14 1026 21 10000 4.24 32 14:23 14.04.2022
2023 Clouds 14 1024 15 10000 4.33 7 13:39 14.04.2022
2024 Clouds 17 1023 12 10000 5.18 351 12:51 14.04.2022
2025 Clouds 17 1023 12 10000 5.18 351 12:30 14.04.2022
2026 Clouds 19 1021 10 10000 5.7 346 11:23 14.04.2022
2027 Clouds 20 1021 10 10000 5.7 346 10:36 14.04.2022
2028 Clouds 20 1021 10 10000 6.02 335 09:56 14.04.2022
2029 Clouds 20 1021 10 10000 5.88 327 08:40 14.04.2022
2030 Clouds 19 1022 12 10000 5.59 311 06:50 14.04.2022
2031 Clouds 14 1024 21 10000 5.96 338 02:45 14.04.2022
2032 Clouds 3 1020 23 10000 1.61 359 22:56 13.04.2022
2033 Clouds 4 1020 24 10000 0.91 12 21:44 13.04.2022
2034 Clouds 4 1020 23 10000 0.45 340 20:55 13.04.2022
2035 Clouds 5 1019 23 10000 0.35 50 20:22 13.04.2022
2036 Clouds 7 1019 24 10000 1.02 137 19:24 13.04.2022
2037 Clouds 9 1019 23 10000 2.03 170 18:19 13.04.2022
2038 Clouds 10 1019 22 10000 2.47 181 17:23 13.04.2022
2039 Clouds 13 1019 22 10000 2.47 181 16:33 13.04.2022
2040 Clouds 14 1018 21 10000 3.41 180 15:35 13.04.2022
2041 Clouds 15 1017 20 10000 4.65 169 14:50 13.04.2022
2042 Clouds 15 1017 20 10000 5.34 165 14:18 13.04.2022
2043 Clouds 17 1015 19 10000 5.57 161 13:19 13.04.2022
2044 Clouds 18 1014 20 10000 4.78 177 12:25 13.04.2022
2045 Clouds 19 1014 19 10000 5.12 191 10:47 13.04.2022
2046 Clouds 19 1014 18 10000 6.03 200 08:58 13.04.2022
2047 Clouds 19 1014 18 10000 6.03 200 08:33 13.04.2022
2048 Clouds 18 1017 18 10000 6.23 196 06:51 13.04.2022
2049 Clouds 17 1018 19 10000 5.85 197 06:25 13.04.2022
2050 Clouds 15 1019 20 10000 5.69 188 04:55 13.04.2022
2051 Clouds 9 1019 35 10000 2.77 180 00:20 13.04.2022
2052 Clouds 10 1019 35 10000 3.06 183 23:21 12.04.2022
2053 Clouds 10 1019 34 10000 3.49 176 21:57 12.04.2022
2054 Clouds 12 1019 33 10000 3.76 176 20:51 12.04.2022
2055 Clouds 12 1019 33 10000 3.76 176 20:33 12.04.2022
2056 Clouds 13 1019 33 10000 3.4 176 19:48 12.04.2022
2057 Clouds 13 1019 32 10000 3.94 160 19:29 12.04.2022
2058 Clouds 13 1019 32 10000 3.94 160 19:29 12.04.2022
2059 Clouds 14 1019 32 10000 4.48 148 17:59 12.04.2022
2060 Clouds 15 1019 32 10000 4.2 146 16:58 12.04.2022
2061 Clouds 15 1018 33 10000 4.18 174 16:19 12.04.2022
2062 Clouds 17 1018 30 10000 3.97 195 15:26 12.04.2022
2063 Clouds 17 1017 23 10000 3.94 196 14:21 12.04.2022
2064 Clouds 19 1016 21 10000 3.52 180 13:28 12.04.2022
2065 Clouds 20 1016 21 10000 3.52 180 12:45 12.04.2022
2066 Clouds 20 1015 18 10000 3.54 166 11:42 12.04.2022
2067 Clouds 20 1015 16 10000 3.32 153 10:32 12.04.2022
2068 Clouds 20 1015 16 10000 2.36 141 08:57 12.04.2022
2069 Clouds 19 1016 13 10000 2.56 92 07:51 12.04.2022
2070 Clouds 19 1018 16 10000 2.69 60 05:49 12.04.2022
2071 Clouds 17 1019 18 10000 3.37 48 04:46 12.04.2022
2072 Clouds 13 1017 20 10000 4.37 28 23:49 11.04.2022
2073 Clouds 15 1017 19 10000 4.52 30 22:44 11.04.2022
2074 Clouds 17 1016 19 10000 5.08 22 21:37 11.04.2022
2075 Clouds 17 1015 20 10000 3.95 335 20:55 11.04.2022
2076 Clouds 17 1014 19 10000 2.72 334 20:28 11.04.2022
2077 Clouds 18 1014 20 10000 4.05 322 19:37 11.04.2022
2078 Clouds 18 1014 19 10000 3.78 316 19:18 11.04.2022
2079 Clouds 18 1014 19 10000 3.78 316 18:40 11.04.2022
2080 Clouds 19 1013 19 10000 4 311 17:56 11.04.2022
2081 Clouds 20 1012 17 10000 5.7 328 16:54 11.04.2022
2082 Rain 18 1012 15 10000 5.36 332 15:45 11.04.2022
2083 Clouds 19 1010 12 10000 6.57 335 13:53 11.04.2022
2084 Clouds 22 1009 15 10000 7.44 342 12:44 11.04.2022
2085 Clouds 23 1007 11 10000 7.67 344 12:25 11.04.2022
2086 Clouds 25 1006 9 10000 7.45 330 10:58 11.04.2022
2087 Clouds 25 1006 9 10000 8.75 322 09:58 11.04.2022
2088 Clouds 28 1005 11 10000 7.65 319 08:24 11.04.2022
2089 Clouds 24 1005 18 10000 4.75 332 05:26 11.04.2022
2090 Clouds 15 1003 48 10000 2.04 40 00:57 11.04.2022
2091 Clouds 14 1001 49 10000 1.66 58 22:33 10.04.2022
2092 Clouds 15 1001 48 10000 1.74 50 21:54 10.04.2022
2093 Clouds 15 1001 48 10000 1.33 77 21:26 10.04.2022
2094 Clouds 16 1001 47 10000 1.51 81 20:25 10.04.2022
2095 Clouds 16 1001 44 10000 0.92 88 19:37 10.04.2022
2096 Clouds 16 1001 42 10000 1.03 62 18:50 10.04.2022
2097 Clouds 19 1001 42 10000 1.03 62 18:30 10.04.2022
2098 Clouds 16 1002 39 10000 0.9 59 17:49 10.04.2022
2099 Clouds 18 1002 37 10000 0.54 38 16:59 10.04.2022
2100 Clouds 19 1002 36 10000 1.29 23 15:41 10.04.2022
2101 Clouds 18 1002 33 10000 2.07 37 14:42 10.04.2022
2102 Clouds 18 1002 33 10000 2.07 37 14:42 10.04.2022
2103 Clouds 22 1001 32 10000 1.63 25 13:45 10.04.2022
2104 Clouds 24 1000 30 10000 1.1 17 12:32 10.04.2022
2105 Clouds 25 1000 27 10000 0.06 200 11:44 10.04.2022
2106 Clouds 25 1001 26 10000 1.36 237 11:20 10.04.2022
2107 Clouds 25 1001 26 10000 1.36 237 10:34 10.04.2022
2108 Clouds 25 1001 26 10000 1.45 230 09:41 10.04.2022
2109 Clouds 24 1003 29 10000 1.08 231 08:28 10.04.2022
2110 Clouds 23 1003 29 10000 1.08 231 07:57 10.04.2022
2111 Clouds 22 1003 32 10000 1.21 216 06:59 10.04.2022
2112 Clouds 15 1005 45 10000 1.13 63 03:40 10.04.2022
2113 Clouds 14 1004 56 10000 1.87 45 02:19 10.04.2022
2114 Clouds 10 1004 67 10000 1.67 44 23:53 09.04.2022
2115 Clear 11 1003 64 10000 1.48 51 22:56 09.04.2022
2116 Clear 11 1003 64 10000 1.48 51 22:38 09.04.2022
2117 Clear 12 1004 58 10000 1.43 77 21:23 09.04.2022
2118 Clear 13 1004 58 10000 1.43 77 20:30 09.04.2022
2119 Clouds 15 1004 55 10000 1.6 96 19:57 09.04.2022
2120 Clouds 15 1004 62 10000 1.78 95 19:39 09.04.2022
2121 Clouds 15 1004 55 10000 2.04 123 18:23 09.04.2022
2122 Clouds 17 1004 55 10000 2.04 123 17:49 09.04.2022
2123 Clouds 18 1004 51 10000 2.02 134 16:57 09.04.2022
2124 Clouds 18 1004 51 10000 2.02 134 16:38 09.04.2022
2125 Clouds 18 1004 51 10000 2.02 134 16:38 09.04.2022
2126 Clouds 18 1004 51 10000 2.02 134 16:38 09.04.2022
2127 Clouds 18 1004 51 10000 2.02 134 16:38 09.04.2022
2128 Clouds 18 1004 51 10000 2.02 134 16:38 09.04.2022
2129 Clouds 20 1004 47 10000 2.23 148 15:50 09.04.2022
2130 Clouds 20 1004 44 10000 2.61 154 15:25 09.04.2022
2131 Clouds 20 1004 42 10000 2.73 150 14:25 09.04.2022
2132 Clouds 20 1003 41 10000 2.71 156 13:33 09.04.2022
2133 Clouds 23 1002 37 10000 3.43 146 12:56 09.04.2022
2134 Clouds 24 1002 31 10000 3.2 154 11:50 09.04.2022
2135 Clouds 25 1002 27 10000 3.23 151 10:52 09.04.2022
2136 Clouds 25 1002 26 10000 2.98 133 10:18 09.04.2022
2137 Clouds 24 1003 26 10000 2.78 128 09:22 09.04.2022
2138 Clear 24 1004 27 10000 2.86 113 08:18 09.04.2022
2139 Clear 22 1006 25 10000 3.28 87 04:38 09.04.2022
2140 Clouds 10 1004 43 10000 2.55 39 00:35 09.04.2022
2141 Clouds 11 1003 47 10000 2.27 14 23:23 08.04.2022
2142 Clouds 11 1003 45 10000 2.33 18 21:49 08.04.2022
2143 Clouds 11 1003 44 10000 2.09 18 20:43 08.04.2022
2144 Clouds 12 1002 39 10000 1.75 18 19:47 08.04.2022
2145 Clouds 13 1003 37 10000 1.59 1 18:56 08.04.2022
2146 Clear 14 1003 37 10000 1.42 314 18:22 08.04.2022
2147 Clear 14 1003 35 10000 0.52 266 17:29 08.04.2022
2148 Clear 13 1003 35 10000 0.52 266 16:58 08.04.2022
2149 Clear 14 1004 32 10000 0.65 256 16:27 08.04.2022
2150 Clear 16 1004 32 10000 0.65 256 15:36 08.04.2022
2151 Clear 17 1004 29 10000 0.98 210 14:52 08.04.2022
2152 Clear 16 1003 27 10000 1.31 190 14:19 08.04.2022
2153 Clear 19 1003 25 10000 1.31 186 13:31 08.04.2022
2154 Clear 22 1003 23 10000 1.12 216 12:55 08.04.2022
2155 Clear 24 1003 20 10000 2.31 214 11:35 08.04.2022
2156 Clear 22 1004 19 10000 2.65 222 09:59 08.04.2022
2157 Clear 22 1005 21 10000 2.56 225 09:19 08.04.2022
2158 Clouds 20 1006 21 10000 2.32 218 07:44 08.04.2022
2159 Clouds 18 1008 24 10000 1.96 218 06:45 08.04.2022
2160 Clear 12 1012 36 10000 1.14 49 02:55 08.04.2022
2161 Clear 6 1013 46 10000 1.75 47 00:31 08.04.2022
2162 Clear 6 1013 48 10000 1.76 45 23:47 07.04.2022
2163 Clear 6 1013 47 10000 1.69 56 22:55 07.04.2022
2164 Clear 9 1013 47 10000 1.69 56 22:36 07.04.2022
2165 Clear 8 1013 45 10000 1.66 74 22:18 07.04.2022
2166 Clear 8 1013 45 10000 1.66 74 21:30 07.04.2022
2167 Clear 10 1013 43 10000 2.01 77 20:55 07.04.2022
2168 Clear 10 1013 41 10000 2.31 92 20:21 07.04.2022
2169 Clear 15 1014 33 10000 1.75 141 17:43 07.04.2022
2170 Clear 15 1014 31 10000 1.67 166 17:23 07.04.2022
2171 Clear 15 1014 31 10000 1.67 166 16:35 07.04.2022
2172 Clear 15 1014 29 10000 1.35 165 15:52 07.04.2022
2173 Clouds 19 1013 25 10000 0.82 106 13:59 07.04.2022
2174 Clouds 20 1012 23 10000 0.84 114 13:26 07.04.2022
2175 Clouds 22 1012 19 10000 0.88 121 11:54 07.04.2022
2176 Clouds 22 1013 16 10000 1.72 186 10:55 07.04.2022
2177 Clouds 20 1014 15 10000 1.11 160 09:28 07.04.2022
2178 Clouds 18 1015 15 10000 1.6 186 07:38 07.04.2022
2179 Clear 14 1017 17 10000 1.11 183 05:32 07.04.2022
2180 Clear 8 1020 24 10000 0.96 25 02:37 07.04.2022
2181 Clear 1 1019 31 10000 0.31 23 00:44 07.04.2022
2182 Clear 0 1019 33 10000 0.37 196 23:39 06.04.2022
2183 Clear 1 1019 32 10000 1.21 214 22:45 06.04.2022
2184 Clear 1 1019 32 10000 1.47 204 22:21 06.04.2022
2185 Clear 5 1020 32 10000 1.82 200 20:53 06.04.2022
2186 Clear 4 1020 31 10000 2.3 201 20:26 06.04.2022
2187 Clear 5 1020 31 10000 2.3 201 19:48 06.04.2022
2188 Clear 5 1021 30 10000 2.62 200 18:48 06.04.2022
2189 Clear 5 1021 29 10000 2.92 202 17:38 06.04.2022
2190 Clear 7 1022 27 10000 3.12 197 17:20 06.04.2022
2191 Clear 7 1022 27 10000 3.12 197 16:34 06.04.2022
2192 Clear 8 1022 26 10000 3.66 194 15:45 06.04.2022
2193 Clouds 10 1022 23 10000 4.14 184 13:57 06.04.2022
2194 Clouds 11 1020 21 10000 4.62 174 12:37 06.04.2022
2195 Clouds 12 1020 20 10000 4.78 175 11:48 06.04.2022
2196 Clouds 13 1020 19 10000 4.57 179 10:42 06.04.2022
2197 Clouds 13 1021 17 10000 4.31 181 10:18 06.04.2022
2198 Clear 13 1022 16 10000 3.85 179 09:25 06.04.2022
2199 Clouds 13 1023 15 10000 3.78 181 08:26 06.04.2022
2200 Clouds 10 1025 16 10000 3.83 181 06:45 06.04.2022
2201 Clouds 9 1028 18 10000 3.48 153 02:19 06.04.2022
2202 Clouds 9 1027 20 10000 2.91 131 23:50 05.04.2022
2203 Clouds 10 1026 22 10000 2.72 133 22:20 05.04.2022
2204 Clouds 9 1026 26 10000 2.69 149 21:18 05.04.2022
2205 Clouds 9 1026 26 10000 2.69 149 21:18 05.04.2022
2206 Clouds 9 1026 26 10000 2.69 149 21:18 05.04.2022
2207 Clouds 9 1026 26 10000 2.69 149 21:18 05.04.2022
2208 Clouds 10 1025 28 10000 2.43 166 20:25 05.04.2022
2209 Clouds 10 1026 28 10000 2.69 171 18:53 05.04.2022
2210 Clouds 12 1026 29 10000 2.71 156 17:31 05.04.2022
2211 Clouds 14 1025 29 10000 2.68 148 16:47 05.04.2022
2212 Clouds 14 1024 29 10000 3.08 162 15:52 05.04.2022
2213 Clouds 14 1024 29 10000 3.08 162 15:33 05.04.2022
2214 Clouds 17 1021 25 10000 4.64 142 14:18 05.04.2022
2215 Clouds 22 1019 18 10000 3.55 120 12:55 05.04.2022
2216 Clear 24 1018 13 10000 3.3 67 11:49 05.04.2022
2217 Clear 24 1018 13 10000 3.3 67 11:31 05.04.2022
2218 Clear 24 1017 12 10000 4.4 47 09:42 05.04.2022
2219 Clear 23 1017 12 10000 4.45 39 08:52 05.04.2022
2220 Clear 23 1019 13 10000 4.51 34 06:43 05.04.2022
2221 Clear 7 1016 47 10000 2.41 4 00:39 05.04.2022
2222 Clear 8 1015 57 10000 2.27 9 22:41 04.04.2022
2223 Clear 8 1015 56 10000 1.79 8 21:57 04.04.2022
2224 Clear 8 1014 56 10000 1.46 346 21:21 04.04.2022
2225 Clear 9 1014 56 10000 1.46 346 20:49 04.04.2022
2226 Clear 12 1014 53 10000 0.74 311 19:44 04.04.2022
2227 Clear 14 1014 47 10000 1.33 265 19:25 04.04.2022
2228 Clear 15 1015 45 10000 2.53 232 17:55 04.04.2022
2229 Clear 12 1015 43 10000 3.12 221 16:36 04.04.2022
2230 Clear 12 1015 43 10000 3.12 221 16:36 04.04.2022
2231 Clear 15 1015 40 10000 3.34 208 15:43 04.04.2022
2232 Clear 15 1015 38 10000 3.08 199 15:25 04.04.2022
2233 Clear 15 1015 38 10000 3.08 199 14:45 04.04.2022
2234 Clouds 19 1014 31 10000 3.15 211 13:22 04.04.2022
2235 Clouds 20 1014 27 10000 3.66 221 11:49 04.04.2022
2236 Clouds 20 1014 25 10000 4.53 215 11:28 04.04.2022
2237 Clouds 20 1017 25 10000 4.16 208 08:29 04.04.2022
2238 Clouds 14 1022 34 10000 1.72 200 03:52 04.04.2022
2239 Clear 6 1022 40 10000 0.27 204 00:41 04.04.2022
2240 Clear 7 1021 37 10000 0.63 155 22:36 03.04.2022
2241 Clear 10 1021 35 10000 1.04 188 21:44 03.04.2022
2242 Clear 13 1021 32 10000 1.66 194 20:54 03.04.2022
2243 Clear 12 1021 30 10000 2.18 196 19:49 03.04.2022
2244 Clear 14 1022 28 10000 3.1 197 18:32 03.04.2022
2245 Clear 13 1022 25 10000 3.59 196 17:47 03.04.2022
2246 Clear 14 1022 24 10000 3.84 199 16:57 03.04.2022
2247 Clear 14 1022 24 10000 3.84 199 16:39 03.04.2022
2248 Clear 15 1022 21 10000 4.02 197 14:48 03.04.2022
2249 Clear 15 1021 19 10000 3.88 193 13:51 03.04.2022
2250 Clear 19 1020 18 10000 4.05 195 12:42 03.04.2022
2251 Clear 20 1020 14 10000 5.44 204 10:58 03.04.2022
2252 Clear 22 1020 13 10000 6.07 207 09:38 03.04.2022
2253 Clear 20 1021 12 10000 6.32 208 08:33 03.04.2022
2254 Clouds 17 1024 14 10000 3.93 222 05:38 03.04.2022
2255 Clouds 8 1025 24 10000 0.23 350 01:54 03.04.2022
2256 Clouds 2 1025 26 10000 0.53 257 23:21 02.04.2022
2257 Clear 3 1025 24 10000 0.85 223 22:18 02.04.2022
2258 Clear 4 1025 24 10000 0.85 223 21:46 02.04.2022
2259 Clear 4 1025 23 10000 1.54 221 21:18 02.04.2022
2260 Clear 9 1025 22 10000 2.21 216 19:54 02.04.2022
2261 Clear 13 1026 20 10000 2.91 217 18:23 02.04.2022
2262 Clear 14 1026 20 10000 2.91 217 17:53 02.04.2022
2263 Clear 15 1026 17 10000 3.63 211 16:30 02.04.2022
2264 Clear 14 1026 16 10000 3.59 205 15:22 02.04.2022
2265 Clear 15 1026 16 10000 3.59 205 14:51 02.04.2022
2266 Clear 15 1026 15 10000 3 193 13:56 02.04.2022
2267 Clear 15 1025 12 10000 1.54 224 13:19 02.04.2022
2268 Clear 19 1025 11 10000 1.51 283 11:39 02.04.2022
2269 Clear 19 1025 9 10000 1.97 320 09:31 02.04.2022
2270 Clear 18 1028 11 10000 2.43 349 06:58 02.04.2022
2271 Clear 13 1030 21 10000 3.21 348 03:55 02.04.2022
2272 Clear 3 1029 35 10000 1.69 2 00:25 02.04.2022
2273 Clear 1 1029 35 10000 1.69 2 23:45 01.04.2022
2274 Clear 4 1028 35 10000 1.83 24 22:24 01.04.2022
2275 Clear 5 1028 35 10000 2.21 34 20:54 01.04.2022
2276 Clear 4 1028 35 10000 2.21 34 20:31 01.04.2022
2277 Clouds 5 1029 33 10000 2.13 56 19:39 01.04.2022
2278 Clouds 8 1029 31 10000 1.95 52 18:54 01.04.2022
2279 Clouds 9 1028 30 10000 1.96 90 18:23 01.04.2022
2280 Clouds 6 1028 30 10000 1.96 90 17:35 01.04.2022
2281 Clouds 10 1028 28 10000 2.14 145 15:44 01.04.2022
2282 Clouds 9 1028 27 10000 1.76 166 14:39 01.04.2022
2283 Clouds 11 1027 24 10000 2.01 202 13:36 01.04.2022
2284 Clouds 13 1026 20 10000 2.77 194 12:33 01.04.2022
2285 Clouds 14 1026 18 10000 3.71 200 11:45 01.04.2022
2286 Clouds 14 1026 15 10000 3.79 203 10:34 01.04.2022
2287 Clouds 15 1027 15 10000 3.63 207 09:34 01.04.2022
2288 Clouds 14 1031 15 10000 4.14 207 07:19 01.04.2022
2289 Clear 10 1034 20 10000 3.31 207 04:56 01.04.2022
2290 Clear 10 1034 20 10000 3.31 207 04:37 01.04.2022
2291 Clear 7 1037 22 10000 0.54 200 02:19 01.04.2022
2292 Clear 1 1036 22 10000 0.7 190 01:31 01.04.2022
2293 Clear -1 1036 21 10000 0.61 203 22:23 31.03.2022
2294 Clear 0 1036 21 10000 0.61 203 21:37 31.03.2022
2295 Clear -1 1037 20 10000 0.57 130 20:50 31.03.2022
2296 Clear 4 1037 19 10000 0.71 92 20:28 31.03.2022
2297 Clear 8 1037 19 10000 1.29 122 19:18 31.03.2022
2298 Clear 7 1037 19 10000 1.29 122 18:31 31.03.2022
2299 Clear 7 1037 17 10000 2.29 64 16:46 31.03.2022
2300 Clear 5 1037 16 10000 2.5 53 15:54 31.03.2022
2301 Clear 7 1037 15 10000 2.12 62 15:24 31.03.2022
2302 Clear 6 1037 15 10000 2.12 62 14:44 31.03.2022
2303 Clear 10 1034 12 10000 3.11 48 13:28 31.03.2022
2304 Clear 14 1034 9 10000 4.19 37 11:30 31.03.2022
2305 Clear 14 1033 9 10000 5.24 9 10:22 31.03.2022
2306 Clear 15 1033 10 10000 5.67 0 09:19 31.03.2022
2307 Clear 15 1033 13 10000 6.71 350 07:31 31.03.2022
2308 Clouds 4 1032 64 10000 1.31 257 01:37 31.03.2022
2309 Clouds 3 1031 72 10000 0.44 252 23:23 30.03.2022
2310 Clouds 2 1031 70 10000 1.17 244 21:54 30.03.2022
2311 Clear 3 1031 68 10000 0.76 234 21:27 30.03.2022
2312 Clouds 2 1031 67 10000 0.34 193 20:32 30.03.2022
2313 Clouds 3 1031 67 10000 0.34 193 19:43 30.03.2022
2314 Clouds 3 1031 67 10000 1.27 24 18:41 30.03.2022
2315 Clouds 3 1031 65 10000 1.35 28 17:50 30.03.2022
2316 Clouds 5 1031 63 10000 1.77 32 16:58 30.03.2022
2317 Clouds 5 1031 63 10000 1.77 32 16:39 30.03.2022
2318 Clouds 7 1030 58 10000 2.32 28 15:38 30.03.2022
2319 Clouds 7 1027 58 10000 1.81 32 14:18 30.03.2022
2320 Clouds 8 1025 54 10000 1.96 55 13:20 30.03.2022
2321 Clouds 8 1024 37 10000 1.45 90 11:55 30.03.2022
2322 Clouds 9 1024 33 10000 1.88 134 10:38 30.03.2022
2323 Clouds 10 1024 32 10000 2.25 151 09:30 30.03.2022
2324 Clouds 9 1024 39 10000 2.44 173 07:59 30.03.2022
2325 Clouds 8 1026 50 10000 1.68 184 05:41 30.03.2022
2326 Clouds 8 1026 58 10000 1.28 160 05:23 30.03.2022
2327 Clouds 8 1024 75 10000 0.91 178 00:43 30.03.2022
2328 Clouds 8 1022 78 10000 1.12 158 22:35 29.03.2022
2329 Clouds 9 1022 76 10000 0.42 147 21:46 29.03.2022
2330 Rain 8 1022 76 10000 0.53 116 20:55 29.03.2022
2331 Clouds 8 1021 67 10000 2.13 117 20:25 29.03.2022
2332 Clouds 7 1020 74 10000 2.03 114 19:20 29.03.2022
2333 Clouds 7 1020 74 10000 2.03 114 18:48 29.03.2022
2334 Clouds 6 1020 81 10000 1.68 99 17:39 29.03.2022
2335 Clouds 6 1020 82 10000 1.84 74 16:59 29.03.2022
2336 Clouds 5 1019 82 10000 1.93 95 16:20 29.03.2022
2337 Clouds 8 1018 81 10000 2.23 68 14:53 29.03.2022
2338 Clouds 9 1017 81 10000 2.21 44 14:24 29.03.2022
2339 Rain 10 1016 79 10000 1.41 49 12:57 29.03.2022
2340 Rain 10 1016 78 10000 2.08 47 11:46 29.03.2022
2341 Clouds 10 1015 72 10000 2.39 15 10:59 29.03.2022
2342 Clouds 10 1014 71 10000 2.97 31 09:50 29.03.2022
2343 Rain 10 1015 71 10000 2.48 350 08:20 29.03.2022
2344 Rain 10 1015 63 10000 0.49 6 05:38 29.03.2022
2345 Clouds 12 1015 55 10000 2.98 171 01:25 29.03.2022
2346 Clouds 12 1014 48 10000 3.8 174 23:25 28.03.2022
2347 Clouds 12 1014 48 10000 3.8 174 22:54 28.03.2022
2348 Clouds 12 1014 44 10000 4.21 178 22:28 28.03.2022
2349 Clouds 12 1015 41 10000 4.42 178 20:59 28.03.2022
2350 Rain 12 1015 41 10000 4.74 179 20:31 28.03.2022
2351 Clouds 13 1015 38 10000 5.06 183 19:46 28.03.2022
2352 Clouds 13 1015 36 10000 5 187 19:28 28.03.2022
2353 Clouds 13 1015 36 10000 5 187 18:40 28.03.2022
2354 Clouds 13 1016 35 10000 4.84 189 17:39 28.03.2022
2355 Clouds 14 1016 34 10000 5.29 183 16:38 28.03.2022
2356 Clouds 14 1017 33 10000 5.23 187 14:49 28.03.2022
2357 Clouds 13 1016 28 10000 5.05 179 14:22 28.03.2022
2358 Clouds 15 1015 22 10000 4.62 182 12:41 28.03.2022
2359 Clear 17 1016 18 10000 5.13 192 11:32 28.03.2022
2360 Clear 18 1015 15 10000 6.11 199 09:43 28.03.2022
2361 Clear 18 1016 15 10000 6.23 203 09:19 28.03.2022
2362 Clear 18 1017 15 10000 5.89 205 08:22 28.03.2022
2363 Clear 17 1017 15 10000 5.89 205 07:40 28.03.2022
2364 Clear 12 1021 19 10000 3.96 209 04:18 28.03.2022
2365 Clear 3 1020 24 10000 1.69 212 23:33 27.03.2022
2366 Clear 7 1020 22 10000 2.7 211 22:25 27.03.2022
2367 Clear 5 1020 22 10000 2.7 211 21:42 27.03.2022
2368 Clear 7 1020 21 10000 3.4 217 20:58 27.03.2022
2369 Clear 8 1020 21 10000 3.64 219 19:49 27.03.2022
2370 Clear 7 1020 22 10000 3.86 212 19:26 27.03.2022
2371 Clear 8 1020 19 10000 4.18 208 18:28 27.03.2022
2372 Clear 8 1020 19 10000 4.18 208 17:39 27.03.2022
2373 Clear 10 1021 16 10000 4.16 205 16:31 27.03.2022
2374 Clear 12 1021 12 10000 3.75 196 15:25 27.03.2022
2375 Clear 13 1020 11 10000 3.65 192 13:56 27.03.2022
2376 Clear 15 1019 10 10000 3.3 185 12:37 27.03.2022
2377 Clear 15 1019 7 10000 1.68 307 11:20 27.03.2022
2378 Clear 15 1020 7 10000 3.42 324 08:53 27.03.2022
2379 Clear 13 1024 9 10000 4.61 316 05:54 27.03.2022
2380 Clear 8 1026 13 10000 3.5 299 00:48 27.03.2022
2381 Clear 4 1025 14 10000 2.67 298 23:46 26.03.2022
2382 Clear 5 1024 14 10000 2.7 305 22:38 26.03.2022
2383 Clear 7 1024 12 10000 2.93 318 21:38 26.03.2022
2384 Clear 7 1024 12 10000 2.93 318 21:38 26.03.2022
2385 Clear 7 1023 11 10000 3.55 330 20:57 26.03.2022
2386 Clear 7 1022 11 10000 4.99 338 19:29 26.03.2022
2387 Clear 9 1022 11 10000 5.65 340 17:54 26.03.2022
2388 Clear 9 1022 11 10000 5.65 340 17:54 26.03.2022
2389 Clear 9 1022 11 10000 5.65 340 17:33 26.03.2022
2390 Clear 9 1022 11 10000 5.65 340 17:33 26.03.2022
2391 Clear 10 1020 12 10000 7.25 332 16:27 26.03.2022
2392 Clear 12 1019 16 10000 7.53 337 15:20 26.03.2022
2393 Clear 14 1017 17 10000 8.89 335 13:53 26.03.2022
2394 Clouds 15 1014 14 10000 8.78 332 12:59 26.03.2022
2395 Clouds 15 1011 16 10000 6.46 318 11:41 26.03.2022
2396 Clouds 15 1011 16 10000 6.46 318 11:41 26.03.2022
2397 Clouds 19 1009 13 10000 7.63 308 10:28 26.03.2022
2398 Clouds 19 1009 9 10000 7.4 288 08:35 26.03.2022
2399 Clear 18 1012 9 10000 2.98 207 05:54 26.03.2022
2400 Clear 17 1014 11 10000 1.24 278 04:23 26.03.2022
2401 Clouds 1 1015 29 10000 1.87 325 00:28 26.03.2022
2402 Clear 2 1015 32 10000 2.39 315 21:49 25.03.2022
2403 Clear 1 1014 32 10000 2.32 322 20:46 25.03.2022
2404 Clear 3 1014 31 10000 2.47 319 19:38 25.03.2022
2405 Clouds 7 1014 29 10000 2.97 318 18:47 25.03.2022
2406 Clouds 4 1014 28 10000 2.9 326 17:47 25.03.2022
2407 Clouds 4 1014 26 10000 2.84 319 17:26 25.03.2022
2408 Clouds 4 1014 26 10000 2.11 316 16:18 25.03.2022
2409 Clouds 7 1014 26 10000 2.19 334 14:26 25.03.2022
2410 Clouds 9 1014 24 10000 2.16 337 12:57 25.03.2022
2411 Clouds 15 1013 16 10000 2.95 330 10:22 25.03.2022
2412 Clouds 15 1012 13 10000 3 348 09:28 25.03.2022
2413 Clouds 14 1012 12 10000 2.88 12 07:54 25.03.2022
2414 Clouds 14 1013 12 10000 3.55 359 07:27 25.03.2022
2415 Clouds 14 1013 13 10000 4.04 2 05:55 25.03.2022
2416 Clouds 7 1014 49 10000 3.85 7 00:46 25.03.2022
2417 Rain 5 1012 65 10000 3.14 2 22:39 24.03.2022
2418 Clouds 5 1011 67 10000 2.74 357 21:42 24.03.2022
2419 Clouds 7 1010 66 10000 1.67 10 19:51 24.03.2022
2420 Clouds 7 1010 66 10000 1.67 10 19:33 24.03.2022
2421 Clouds 7 1011 66 10000 1.96 356 17:47 24.03.2022
2422 Clouds 7 1011 66 10000 2.17 356 17:19 24.03.2022
2423 Clouds 7 1010 64 10000 1.61 355 15:21 24.03.2022
2424 Clouds 7 1010 64 10000 1.61 355 14:48 24.03.2022
2425 Rain 7 1009 61 10000 1.51 335 14:18 24.03.2022
2426 Clouds 7 1009 60 10000 0.98 288 12:52 24.03.2022
2427 Clouds 7 1008 59 10000 1.06 299 11:45 24.03.2022
2428 Clouds 8 1007 55 10000 1.97 217 09:53 24.03.2022
2429 Clouds 8 1007 54 10000 3.19 221 08:41 24.03.2022
2430 Clouds 9 1008 47 10000 2.89 206 06:49 24.03.2022
2431 Clear 7 1011 54 10000 1.41 122 02:24 24.03.2022
2432 Clouds 0 1011 62 10000 1.55 28 23:20 23.03.2022
2433 Clouds 0 1010 59 10000 1.85 42 21:27 23.03.2022
2434 Clouds 0 1010 59 10000 1.85 42 20:59 23.03.2022
2435 Clear 0 1011 56 10000 1.91 39 19:45 23.03.2022
2436 Clear 0 1011 55 10000 1.97 36 18:45 23.03.2022
2437 Clear 1 1012 53 10000 1.55 20 17:36 23.03.2022
2438 Clear 2 1012 51 10000 0.87 65 16:33 23.03.2022
2439 Clear 5 1011 46 10000 1.71 39 14:51 23.03.2022
2440 Clear 4 1011 42 10000 2.1 29 14:26 23.03.2022
2441 Clouds 5 1011 45 10000 2.71 24 12:50 23.03.2022
2442 Clouds 10 1010 30 10000 2.09 58 09:42 23.03.2022
2443 Clouds 8 1010 28 10000 2.66 238 06:41 23.03.2022
2444 Clouds 6 1013 31 10000 2.09 203 04:41 23.03.2022
2445 Clear -1 1016 49 10000 1 20 00:29 23.03.2022
2446 Clear -2 1016 48 10000 1.36 43 22:46 22.03.2022
2447 Clear 0 1016 42 10000 1.28 5 21:30 22.03.2022
2448 Clear 0 1016 42 10000 1.28 5 20:45 22.03.2022
2449 Clear -2 1017 40 10000 0.54 30 19:43 22.03.2022
2450 Clear -2 1018 43 10000 1.15 256 19:18 22.03.2022
2451 Clear -1 1018 43 10000 1.15 256 18:31 22.03.2022
2452 Clear -2 1020 36 10000 1.68 214 17:29 22.03.2022
2453 Clouds 0 1020 33 10000 2.32 210 16:27 22.03.2022
2454 Clouds 0 1021 30 10000 2.78 202 15:23 22.03.2022
2455 Clouds 1 1021 30 10000 2.78 202 14:47 22.03.2022
2456 Clouds 2 1021 27 10000 3.48 196 14:27 22.03.2022
2457 Clouds 3 1021 27 10000 3.48 196 13:35 22.03.2022
2458 Clouds 7 1020 28 10000 4.02 192 11:52 22.03.2022
2459 Rain 8 1021 25 10000 3.71 188 10:40 22.03.2022
2460 Clouds 10 1022 17 10000 3.59 204 08:29 22.03.2022
2461 Clouds 8 1026 17 10000 3.5 188 05:25 22.03.2022
2462 Clouds 5 1028 21 10000 3.35 195 03:47 22.03.2022
2463 Clouds 0 1029 35 10000 0.47 359 00:22 22.03.2022
2464 Clouds -2 1028 35 10000 1.12 19 22:42 21.03.2022
2465 Clouds -1 1029 32 10000 0.87 319 20:57 21.03.2022
2466 Clouds -2 1029 32 10000 0.87 319 20:38 21.03.2022
2467 Clear -3 1028 31 10000 1.27 13 19:58 21.03.2022
2468 Clear -1 1028 31 10000 1.27 13 19:33 21.03.2022
2469 Clouds 2 1029 28 10000 0.73 319 18:31 21.03.2022
2470 Clear -2 1029 27 10000 0.19 107 17:19 21.03.2022
2471 Clear 1 1029 27 10000 0.19 107 16:44 21.03.2022
2472 Clear 4 1028 26 10000 1.42 82 15:55 21.03.2022
2473 Clear 5 1029 25 10000 1.75 63 15:20 21.03.2022
2474 Clear 5 1028 24 10000 2.53 53 14:25 21.03.2022
2475 Clouds 8 1027 22 10000 3.27 45 12:42 21.03.2022
2476 Clouds 9 1026 19 10000 3.69 34 11:53 21.03.2022
2477 Clouds 12 1025 16 10000 3.74 7 10:44 21.03.2022
2478 Clouds 13 1024 15 10000 4.67 344 08:56 21.03.2022
2479 Clouds 12 1024 13 10000 4.71 349 06:57 21.03.2022
2480 Clouds 8 1027 27 10000 3.97 7 02:55 21.03.2022
2481 Clouds 0 1025 40 10000 3.46 3 00:35 21.03.2022
2482 Clouds 0 1024 43 10000 3.25 1 22:55 20.03.2022
2483 Clouds 3 1024 43 10000 3.04 1 21:57 20.03.2022
2484 Clouds 5 1023 42 10000 2.45 359 21:29 20.03.2022
2485 Clouds 5 1023 42 10000 2.45 359 20:45 20.03.2022
2486 Clouds 5 1023 42 10000 2.09 350 20:00 20.03.2022
2487 Clouds 5 1023 42 10000 2.09 350 19:38 20.03.2022
2488 Clouds 5 1024 42 10000 1.94 333 18:40 20.03.2022
2489 Clouds 5 1023 42 10000 1.73 323 17:37 20.03.2022
2490 Clouds 5 1023 40 10000 1.72 305 16:58 20.03.2022
2491 Clouds 5 1022 39 10000 1.44 294 15:52 20.03.2022
2492 Clouds 7 1022 37 10000 1.63 272 14:36 20.03.2022
2493 Clear 9 1020 32 10000 1.83 255 13:18 20.03.2022
2494 Clouds 10 1020 29 10000 1.51 273 11:32 20.03.2022
2495 Clouds 10 1019 25 10000 2.4 303 09:57 20.03.2022
2496 Clouds 9 1018 29 10000 1.08 284 07:51 20.03.2022
2497 Clouds 7 1020 36 10000 1.76 238 05:49 20.03.2022
2498 Clouds 2 1021 47 10000 0.56 291 02:53 20.03.2022
2499 Clouds -1 1021 58 10000 0.59 6 00:48 20.03.2022
2500 Clouds -2 1020 61 10000 0.55 44 23:21 19.03.2022
2501 Snow -2 1020 58 10000 0.4 56 21:41 19.03.2022
2502 Clouds -1 1020 55 10000 0.28 170 21:18 19.03.2022
2503 Clouds -1 1020 50 10000 0.94 179 19:21 19.03.2022
2504 Clouds 0 1021 50 10000 1.16 162 18:25 19.03.2022
2505 Clouds 0 1021 50 10000 1.16 162 17:41 19.03.2022
2506 Clouds 0 1021 47 10000 1.61 173 16:40 19.03.2022
2507 Clouds 0 1021 39 10000 1.82 179 15:21 19.03.2022
2508 Clouds 2 1021 37 10000 1.73 165 13:39 19.03.2022
2509 Clouds 3 1021 34 10000 1.86 175 12:42 19.03.2022
2510 Clouds 4 1020 31 10000 1.66 170 12:19 19.03.2022
2511 Clouds 5 1020 31 10000 1.66 170 11:42 19.03.2022
2512 Clouds 5 1019 24 10000 0.48 209 08:34 19.03.2022
2513 Clouds 3 1023 41 10000 2.59 344 04:24 19.03.2022
2514 Clouds 0 1023 49 10000 2.84 353 02:31 19.03.2022
2515 Clouds -2 1021 81 10000 1.56 310 23:50 18.03.2022
2516 Clouds -1 1020 86 10000 0.98 286 22:43 18.03.2022
2517 Clouds -1 1019 89 10000 0.81 271 22:20 18.03.2022
2518 Clouds -2 1018 91 10000 1.38 30 20:25 18.03.2022
2519 Clouds -1 1018 91 9662 2.74 41 19:23 18.03.2022
2520 Clouds -3 1018 86 10000 2.16 32 18:35 18.03.2022
2521 Clouds -2 1017 84 10000 1.54 25 16:53 18.03.2022
2522 Clouds -2 1016 86 10000 1.68 11 16:18 18.03.2022
2523 Clouds -3 1015 86 10000 1.56 29 14:26 18.03.2022
2524 Clouds -4 1015 86 10000 1.56 29 13:36 18.03.2022
2525 Snow -1 1013 88 4601 1.53 62 11:29 18.03.2022
2526 Snow 0 1012 77 4429 2.37 148 09:52 18.03.2022
2527 Snow 0 1013 52 7746 0.87 275 08:45 18.03.2022
2528 Clouds 0 1012 30 10000 2.98 160 06:45 18.03.2022
2529 Clouds 0 1012 30 10000 2.98 160 06:45 18.03.2022
2530 Clouds 0 1015 42 10000 2.52 171 04:39 18.03.2022
2531 Clouds -1 1017 69 10000 1.75 126 00:55 18.03.2022
2532 Clouds -1 1019 71 10000 1.34 149 23:52 17.03.2022
2533 Clouds -1 1019 71 10000 1.34 149 23:52 17.03.2022
2534 Clouds -1 1019 71 10000 1.34 149 23:52 17.03.2022
2535 Clouds -1 1019 71 10000 1.35 157 22:44 17.03.2022
2536 Clouds -1 1019 71 10000 1.39 160 22:18 17.03.2022
2537 Clouds -1 1019 70 10000 1.11 172 21:27 17.03.2022
2538 Clouds -1 1019 70 10000 1.11 172 20:53 17.03.2022
2539 Clouds -1 1020 71 10000 1.6 186 20:19 17.03.2022
2540 Clouds -1 1020 71 10000 1.6 186 19:37 17.03.2022
2541 Clouds -1 1021 78 10000 1.44 139 18:51 17.03.2022
2542 Clouds -1 1023 78 10000 1.45 156 17:29 17.03.2022
2543 Clouds -1 1023 78 10000 1.61 116 16:20 17.03.2022
2544 Clouds -1 1023 78 10000 1.61 116 15:43 17.03.2022
2545 Clouds -1 1024 77 10000 1.8 113 14:59 17.03.2022
2546 Clouds -1 1025 75 10000 1.52 117 13:35 17.03.2022
2547 Clouds -1 1024 74 10000 2.55 101 12:44 17.03.2022
2548 Clouds -1 1025 72 10000 2.28 106 11:32 17.03.2022
2549 Clouds -1 1025 70 10000 2.66 106 10:41 17.03.2022
2550 Snow -1 1025 71 10000 2.53 102 09:36 17.03.2022
2551 Snow -1 1026 72 8037 2.43 127 08:19 17.03.2022
2552 Snow 2 1027 30 6915 2.77 152 05:49 17.03.2022
2553 Clouds 3 1028 25 10000 2.89 153 04:30 17.03.2022
2554 Clouds 3 1030 22 10000 3.75 157 00:25 17.03.2022
2555 Clouds 3 1030 22 10000 3.94 145 22:52 16.03.2022
2556 Clouds 3 1030 22 10000 3.94 145 22:34 16.03.2022
2557 Clouds 3 1030 21 10000 3.44 140 21:55 16.03.2022
2558 Clouds 4 1029 22 10000 3.67 142 20:40 16.03.2022
2559 Clouds 4 1029 21 10000 3.47 132 19:23 16.03.2022
2560 Clouds 4 1029 23 10000 3.64 139 18:42 16.03.2022
2561 Clouds 5 1030 27 10000 3.53 144 17:46 16.03.2022
2562 Clouds 5 1030 33 10000 3.31 153 17:28 16.03.2022
2563 Clouds 7 1029 37 10000 3.61 156 15:56 16.03.2022
2564 Clouds 8 1029 35 10000 3.21 146 14:38 16.03.2022
2565 Clouds 9 1028 32 10000 4.36 154 13:35 16.03.2022
2566 Clouds 10 1026 34 10000 4.67 161 12:43 16.03.2022
2567 Clouds 10 1023 33 10000 3.77 132 11:23 16.03.2022
2568 Clouds 12 1023 33 10000 3.77 132 10:30 16.03.2022
2569 Clouds 13 1022 31 10000 3.1 121 09:56 16.03.2022
2570 Clouds 13 1021 34 10000 1.97 103 07:23 16.03.2022
2571 Clouds 9 1022 47 10000 2.25 128 02:44 16.03.2022
2572 Clouds 9 1017 47 10000 1.3 109 22:55 15.03.2022
2573 Clouds 9 1017 47 10000 1.3 109 22:35 15.03.2022
2574 Clouds 10 1014 43 10000 3.59 111 20:55 15.03.2022
2575 Clouds 9 1013 35 10000 2.89 87 19:37 15.03.2022
2576 Clouds 9 1012 30 10000 1.72 47 17:42 15.03.2022
2577 Clouds 10 1012 29 10000 1.68 40 16:35 15.03.2022
2578 Clouds 12 1011 29 10000 1.71 48 15:38 15.03.2022
2579 Clouds 11 1011 29 10000 1.85 42 14:52 15.03.2022
2580 Clouds 13 1009 28 10000 1.33 108 13:55 15.03.2022
2581 Clouds 13 1009 28 10000 1.33 108 13:55 15.03.2022
2582 Clouds 13 1008 27 10000 1.96 197 13:21 15.03.2022
2583 Clouds 15 1006 25 10000 3.51 188 11:32 15.03.2022
2584 Clear 16 1006 18 10000 3.22 191 10:22 15.03.2022
2585 Clear 16 1006 18 10000 2.28 184 08:53 15.03.2022
2586 Clear 15 1006 18 10000 1.19 203 07:53 15.03.2022
2587 Clear 15 1006 18 10000 1.19 203 07:35 15.03.2022
2588 Clear 10 1008 29 10000 0.86 190 05:55 15.03.2022
2589 Clouds 3 1011 61 10000 2.47 61 00:25 15.03.2022
2590 Clouds 2 1011 61 10000 2.99 70 23:27 14.03.2022
2591 Clouds 3 1011 61 10000 2.99 70 22:44 14.03.2022
2592 Clouds 3 1011 61 10000 3.42 67 21:51 14.03.2022
2593 Clouds 4 1011 61 10000 3.47 92 20:55 14.03.2022
2594 Clouds 4 1011 60 10000 3.96 101 20:24 14.03.2022
2595 Clouds 4 1011 54 10000 4.64 113 19:22 14.03.2022
2596 Clouds 5 1012 42 10000 4.95 121 17:55 14.03.2022
2597 Clouds 6 1012 42 10000 4.95 121 17:33 14.03.2022
2598 Clouds 10 1012 24 10000 3.38 142 16:27 14.03.2022
2599 Clouds 13 1012 23 10000 2.79 164 14:42 14.03.2022
2600 Clouds 15 1011 17 10000 3.13 159 12:55 14.03.2022
2601 Clouds 20 1011 13 10000 2.98 144 10:59 14.03.2022
2602 Clouds 20 1012 11 10000 2.39 142 09:56 14.03.2022
2603 Clear 21 1012 11 10000 1.42 28 09:24 14.03.2022
2604 Clear 20 1012 11 10000 1.42 28 08:57 14.03.2022
2605 Clear 20 1012 11 10000 3.29 339 08:24 14.03.2022
2606 Clear 17 1014 13 10000 5.59 316 05:51 14.03.2022
2607 Clear 9 1016 23 10000 4.96 329 02:57 14.03.2022
2608 Clear 7 1016 41 10000 3.64 340 01:36 14.03.2022
2609 Clouds 1 1013 55 10000 1.04 216 23:29 13.03.2022
2610 Clouds 3 1013 51 10000 0.85 210 21:41 13.03.2022
2611 Clouds 5 1013 49 10000 0.44 196 21:19 13.03.2022
2612 Clouds 5 1013 49 10000 0.44 196 20:46 13.03.2022
2613 Clouds 5 1013 47 10000 0.71 127 20:21 13.03.2022
2614 Clouds 5 1013 47 10000 0.71 127 19:41 13.03.2022
2615 Clouds 5 1013 48 10000 0.72 45 19:20 13.03.2022
2616 Clouds 7 1013 48 10000 0.72 45 18:41 13.03.2022
2617 Rain 7 1012 53 10000 1.29 132 17:52 13.03.2022
2618 Clouds 7 1012 53 10000 1.29 132 17:33 13.03.2022
2619 Clouds 8 1012 53 10000 1.82 161 16:44 13.03.2022
2620 Clouds 8 1013 52 10000 2.03 179 16:20 13.03.2022
2621 Clouds 8 1013 52 10000 2.03 179 15:34 13.03.2022
2622 Clouds 9 1013 53 10000 3.31 156 14:20 13.03.2022
2623 Clouds 9 1013 53 10000 3.97 162 13:27 13.03.2022
2624 Clouds 10 1014 52 10000 4.34 159 12:20 13.03.2022
2625 Clouds 10 1014 52 10000 4.34 159 11:36 13.03.2022
2626 Clouds 10 1014 52 10000 4.34 159 11:36 13.03.2022
2627 Clouds 10 1013 50 10000 4.76 165 10:49 13.03.2022
2628 Clouds 11 1012 48 10000 5.37 165 10:25 13.03.2022
2629 Clouds 11 1012 48 10000 5.37 165 09:41 13.03.2022
2630 Clouds 11 1012 46 10000 4.94 166 08:49 13.03.2022
2631 Clouds 11 1012 44 10000 4.09 169 08:21 13.03.2022
2632 Clouds 10 1014 44 10000 3.63 151 05:59 13.03.2022
2633 Clouds 10 1015 52 10000 3.88 143 03:33 13.03.2022
2634 Clouds 2 1014 63 10000 1.94 84 00:48 13.03.2022
2635 Clouds 1 1011 66 10000 1.64 41 22:48 12.03.2022
2636 Clouds 3 1011 61 10000 1 336 20:59 12.03.2022
2637 Clouds 3 1011 59 10000 1.1 301 19:57 12.03.2022
2638 Clouds 3 1011 59 10000 1.1 301 19:39 12.03.2022
2639 Clouds 5 1012 54 10000 1.38 309 18:31 12.03.2022
2640 Clouds 4 1012 52 10000 0.82 322 17:43 12.03.2022
2641 Rain 6 1012 51 10000 0.75 265 16:25 12.03.2022
2642 Clouds 5 1011 49 10000 1.32 207 15:24 12.03.2022
2643 Clouds 6 1011 49 10000 1.32 207 14:52 12.03.2022
2644 Clouds 7 1011 46 10000 1.78 206 13:53 12.03.2022
2645 Clouds 7 1011 46 10000 1.78 206 13:53 12.03.2022
2646 Clouds 9 1008 42 10000 0.79 142 12:25 12.03.2022
2647 Clouds 11 1008 42 10000 0.79 142 11:51 12.03.2022
2648 Clouds 12 1008 39 10000 1.15 192 11:19 12.03.2022
2649 Clouds 13 1008 38 10000 0.69 198 09:58 12.03.2022
2650 Clouds 13 1008 38 10000 0.69 198 09:39 12.03.2022
2651 Clouds 12 1008 40 10000 1.01 200 07:51 12.03.2022
2652 Clouds 10 1011 46 10000 1.36 11 05:20 12.03.2022
2653 Rain 5 1014 41 10000 2.28 338 00:24 12.03.2022
2654 Rain 7 1013 28 10000 1.14 70 23:28 11.03.2022
2655 Rain 7 1014 26 10000 1.48 75 21:48 11.03.2022
2656 Clouds 8 1015 25 10000 1.21 104 20:58 11.03.2022
2657 Rain 8 1015 25 10000 1.21 104 20:37 11.03.2022
2658 Rain 8 1015 24 10000 1.51 122 19:54 11.03.2022
2659 Clouds 8 1017 23 10000 1.59 125 19:27 11.03.2022
2660 Clouds 7 1019 23 10000 1.95 133 17:37 11.03.2022
2661 Clouds 7 1019 22 10000 2.11 136 17:18 11.03.2022
2662 Clouds 8 1020 20 10000 2.06 131 15:57 11.03.2022
2663 Clouds 10 1020 20 10000 2.43 132 14:22 11.03.2022
2664 Clouds 9 1020 20 10000 2.2 133 13:21 11.03.2022
2665 Clouds 10 1020 22 10000 2.91 136 12:22 11.03.2022
2666 Clouds 10 1020 22 10000 2.91 136 11:56 11.03.2022
2667 Clouds 12 1020 23 10000 3.07 144 10:24 11.03.2022
2668 Clouds 12 1019 26 10000 3.42 152 09:27 11.03.2022
2669 Clouds 12 1020 31 10000 3.48 154 08:24 11.03.2022
2670 Rain 12 1020 31 10000 3.48 154 07:46 11.03.2022
2671 Clouds 12 1021 34 10000 3.56 143 06:22 11.03.2022
2672 Clouds 12 1022 37 10000 3.66 123 04:24 11.03.2022
2673 Clouds 9 1020 58 10000 1.26 81 00:21 11.03.2022
2674 Clouds 7 1019 58 10000 1.6 96 22:31 10.03.2022
2675 Rain 7 1018 57 10000 2.26 52 21:50 10.03.2022
2676 Clouds 8 1016 56 10000 1.7 40 21:23 10.03.2022
2677 Clouds 5 1015 55 10000 1.68 40 19:51 10.03.2022
2678 Clouds 6 1015 53 10000 2.23 30 18:56 10.03.2022
2679 Clouds 7 1015 49 10000 2.04 62 17:36 10.03.2022
2680 Clouds 6 1014 45 10000 2.04 60 16:37 10.03.2022
2681 Clouds 7 1014 38 10000 1.67 35 15:26 10.03.2022
2682 Clear 10 1013 36 10000 1.77 26 13:30 10.03.2022
2683 Clear 13 1013 36 10000 1.94 359 12:34 10.03.2022
2684 Clear 16 1011 33 10000 1.43 349 11:23 10.03.2022
2685 Clear 19 1011 29 10000 0.15 43 09:27 10.03.2022
2686 Clear 19 1011 29 10000 0.12 121 07:46 10.03.2022
2687 Clear 13 1014 31 10000 1.08 66 04:59 10.03.2022
2688 Clear 7 1015 43 10000 1.38 13 01:53 10.03.2022
2689 Clouds 1 1013 54 10000 1.61 21 23:29 09.03.2022
2690 Clouds 2 1013 53 10000 1.79 20 21:56 09.03.2022
2691 Clouds 3 1013 53 10000 1.79 20 21:36 09.03.2022
2692 Clouds 4 1013 48 10000 1.47 19 19:56 09.03.2022
2693 Clouds 6 1014 43 10000 1.62 10 18:34 09.03.2022
2694 Clouds 7 1014 37 10000 0.98 331 17:27 09.03.2022
2695 Clouds 10 1014 37 10000 0.98 331 16:35 09.03.2022
2696 Clouds 9 1015 35 10000 0.34 353 15:31 09.03.2022
2697 Clouds 11 1015 31 10000 1.03 15 13:54 09.03.2022
2698 Clouds 11 1015 29 10000 1.2 353 12:56 09.03.2022
2699 Clouds 10 1015 28 10000 1.11 316 12:18 09.03.2022
2700 Clouds 14 1015 28 10000 1.11 316 11:36 09.03.2022
2701 Clouds 16 1015 26 10000 1.31 286 10:38 09.03.2022
2702 Clouds 17 1015 23 10000 1.59 223 08:59 09.03.2022
2703 Clouds 17 1016 22 10000 1.15 211 08:23 09.03.2022
2704 Clouds 12 1021 26 10000 1.14 102 03:50 09.03.2022
2705 Clouds 5 1022 33 10000 1.27 70 00:47 09.03.2022
2706 Clouds 1 1020 32 10000 1.5 75 22:48 08.03.2022
2707 Clouds 1 1020 30 10000 1.34 91 22:29 08.03.2022
2708 Clouds 2 1020 28 10000 0.99 74 21:24 08.03.2022
2709 Clouds 1 1020 28 10000 0.99 74 20:49 08.03.2022
2710 Clouds 3 1019 26 10000 1.56 59 19:53 08.03.2022
2711 Clear 2 1020 25 10000 1.34 21 18:44 08.03.2022
2712 Clear 1 1020 23 10000 1.45 3 17:40 08.03.2022
2713 Clear 4 1019 21 10000 1.31 20 16:29 08.03.2022
2714 Clear 4 1018 18 10000 1.19 313 14:20 08.03.2022
2715 Clear 10 1017 17 10000 1.19 312 12:44 08.03.2022
2716 Clear 15 1016 16 10000 0.6 288 11:45 08.03.2022
2717 Clear 16 1015 15 10000 0.3 18 10:55 08.03.2022
2718 Clear 17 1014 14 10000 0.68 47 10:19 08.03.2022
2719 Clear 15 1014 14 10000 0.59 40 07:34 08.03.2022
2720 Clear 12 1015 16 10000 0.57 52 05:44 08.03.2022
2721 Clear -2 1016 29 10000 1.11 19 23:58 07.03.2022
2722 Clear 3 1016 27 10000 0.34 114 22:23 07.03.2022
2723 Clear 3 1016 27 10000 0.34 114 21:34 07.03.2022
2724 Clear 4 1016 26 10000 0.78 171 20:49 07.03.2022
2725 Clear 4 1017 25 10000 1.31 179 20:20 07.03.2022
2726 Clear 4 1017 25 10000 1.31 179 19:34 07.03.2022
2727 Clear 3 1017 25 10000 1.4 172 18:46 07.03.2022
2728 Clouds 2 1018 23 10000 1.44 180 17:52 07.03.2022
2729 Clouds 8 1018 22 10000 1.92 192 16:56 07.03.2022
2730 Clouds 7 1018 21 10000 2.17 199 16:20 07.03.2022
2731 Clouds 7 1018 18 10000 2.11 180 14:18 07.03.2022
2732 Clouds 14 1018 17 10000 2.12 158 12:33 07.03.2022
2733 Clear 19 1017 14 10000 2.27 154 10:39 07.03.2022
2734 Clear 18 1017 11 10000 1.69 88 09:25 07.03.2022
2735 Clear 15 1019 13 10000 2.51 11 06:20 07.03.2022
2736 Clear -3 1018 31 10000 1.81 352 00:23 07.03.2022
2737 Clear -2 1018 31 10000 1.81 352 23:35 06.03.2022
2738 Clear -2 1018 29 10000 1.85 352 22:57 06.03.2022
2739 Clear -4 1017 28 10000 2.03 335 22:19 06.03.2022
2740 Clear -4 1017 29 10000 1.43 339 20:51 06.03.2022
2741 Clear -3 1017 29 10000 1.31 355 20:26 06.03.2022
2742 Clouds 0 1018 29 10000 1.51 16 19:23 06.03.2022
2743 Clouds 0 1018 30 10000 1.8 19 18:25 06.03.2022
2744 Clouds 1 1018 29 10000 1.58 56 17:21 06.03.2022
2745 Clouds 2 1018 29 10000 1.58 56 16:43 06.03.2022
2746 Clouds 3 1019 28 10000 1.8 61 16:18 06.03.2022
2747 Clouds 5 1018 25 10000 2.25 113 14:57 06.03.2022
2748 Clouds 6 1018 25 10000 2.25 113 14:33 06.03.2022
2749 Clouds 6 1018 23 10000 2.5 113 13:30 06.03.2022
2750 Clouds 8 1018 20 10000 1.66 161 12:35 06.03.2022
2751 Clear 10 1018 16 10000 2.93 194 11:21 06.03.2022
2752 Clear 11 1018 14 10000 4.02 199 10:28 06.03.2022
2753 Clear 11 1018 13 10000 4.32 200 08:30 06.03.2022
2754 Clouds 11 1019 13 10000 4.19 199 07:45 06.03.2022
2755 Clouds 10 1022 14 10000 2.69 197 06:19 06.03.2022
2756 Clear -3 1026 24 10000 1 114 00:53 06.03.2022
2757 Clear -6 1026 24 10000 1 114 00:31 06.03.2022
2758 Clear -6 1025 22 10000 0.99 118 23:23 05.03.2022
2759 Clear -6 1025 22 10000 0.99 118 22:53 05.03.2022
2760 Clear -6 1025 20 10000 1.06 125 21:56 05.03.2022
2761 Clear -5 1025 18 10000 1.03 106 21:23 05.03.2022
2762 Clear -6 1025 17 10000 1.25 108 19:44 05.03.2022
2763 Clear -5 1026 16 10000 1 115 18:56 05.03.2022
2764 Clear -2 1026 16 10000 0.72 117 18:27 05.03.2022
2765 Clear -4 1026 15 10000 0.52 157 16:49 05.03.2022
2766 Clear -3 1026 14 10000 0.82 133 15:31 05.03.2022
2767 Clear 3 1025 14 10000 1.3 131 14:47 05.03.2022
2768 Clear 2 1025 14 10000 1.89 109 14:29 05.03.2022
2769 Clear 1 1024 12 10000 2.3 79 13:22 05.03.2022
2770 Clear 8 1023 10 10000 1.57 11 11:48 05.03.2022
2771 Clear 8 1023 9 10000 2.6 338 11:19 05.03.2022
2772 Clear 9 1023 8 10000 4.06 328 10:20 05.03.2022
2773 Clear 9 1023 8 10000 4.64 323 09:22 05.03.2022
2774 Clear 9 1023 8 10000 4.88 322 07:38 05.03.2022
2775 Clear 8 1025 9 10000 5.4 320 05:43 05.03.2022
2776 Clear 5 1026 11 10000 5.52 325 03:49 05.03.2022
2777 Clear 0 1023 17 10000 4.34 343 23:38 04.03.2022
2778 Clear -3 1022 18 10000 4.36 345 22:42 04.03.2022
2779 Clear 3 1021 17 10000 3.9 345 22:19 04.03.2022
2780 Clear 4 1020 15 10000 3.96 321 20:56 04.03.2022
2781 Clear 4 1019 15 10000 3.85 304 20:27 04.03.2022
2782 Clear -4 1019 15 10000 3.85 304 19:36 04.03.2022
2783 Clear -3 1020 16 10000 4.02 304 18:45 04.03.2022
2784 Clear -4 1020 15 10000 4.09 306 17:48 04.03.2022
2785 Clear -2 1020 15 10000 4.77 309 17:28 04.03.2022
2786 Clear -1 1020 15 10000 5.34 314 15:30 04.03.2022
2787 Clear 1 1020 15 10000 5.51 319 14:33 04.03.2022
2788 Clear 5 1019 15 10000 5.12 328 13:26 04.03.2022
2789 Clear 5 1018 14 10000 5.67 327 11:46 04.03.2022
2790 Clear 8 1016 13 10000 4.81 337 10:54 04.03.2022
2791 Clear 10 1016 11 10000 5.59 338 09:58 04.03.2022
2792 Clear 10 1016 10 10000 6.61 332 08:40 04.03.2022
2793 Clear 10 1015 10 10000 7.37 328 07:38 04.03.2022
2794 Clear 10 1015 15 10000 7.91 330 04:31 04.03.2022
2795 Clear 1 1011 23 10000 8.39 310 00:38 04.03.2022
2796 Clear 0 1007 39 10000 1.53 335 22:28 03.03.2022
2797 Clear -1 1007 39 10000 1.53 335 21:50 03.03.2022
2798 Clear -1 1007 42 10000 2.03 334 21:29 03.03.2022
2799 Clear 0 1007 40 10000 1.25 353 20:18 03.03.2022
2800 Clear -1 1008 34 10000 0.76 332 18:55 03.03.2022
2801 Clear -1 1009 34 10000 0.97 347 18:24 03.03.2022
2802 Clear 2 1009 34 10000 0.97 347 17:31 03.03.2022
2803 Clear -1 1010 30 10000 0.44 314 16:25 03.03.2022
2804 Clear 1 1010 29 10000 0.24 264 15:24 03.03.2022
2805 Clear 1 1010 29 10000 0.24 264 14:43 03.03.2022
2806 Clear 1 1011 27 10000 0.41 242 14:24 03.03.2022
2807 Clear 5 1011 25 10000 0.4 270 12:27 03.03.2022
2808 Clear 10 1011 24 10000 0.7 198 10:49 03.03.2022
2809 Clear 10 1011 22 10000 1.22 176 09:45 03.03.2022
2810 Clear 10 1012 22 10000 0.6 141 08:19 03.03.2022
2811 Clouds 9 1013 23 10000 0.42 112 06:37 03.03.2022
2812 Clouds 8 1016 27 10000 1.51 86 04:46 03.03.2022
2813 Clear -3 1019 43 10000 1.99 53 23:41 02.03.2022
2814 Clear 0 1018 41 10000 2.14 53 22:53 02.03.2022
2815 Clear 0 1018 41 10000 2.14 53 22:53 02.03.2022
2816 Clear 3 1018 37 10000 2.22 58 21:36 02.03.2022
2817 Clear 4 1017 34 10000 2.1 61 20:57 02.03.2022
2818 Clear 4 1017 31 10000 1.81 68 20:25 02.03.2022
2819 Clear -2 1017 31 10000 1.81 68 19:37 02.03.2022
2820 Clear 0 1017 29 10000 2.03 58 18:58 02.03.2022
2821 Clear 1 1018 27 10000 1.89 58 18:26 02.03.2022
2822 Clear 5 1018 27 10000 1.89 58 17:37 02.03.2022
2823 Clear 2 1018 25 10000 1.99 32 16:52 02.03.2022
2824 Clear 5 1018 22 10000 2.19 12 15:46 02.03.2022
2825 Clear 10 1018 18 10000 1.9 20 13:52 02.03.2022
2826 Clear 12 1017 16 10000 0.59 353 12:46 02.03.2022
2827 Clear 12 1016 15 10000 0.87 280 12:24 02.03.2022
2828 Clear 14 1015 13 10000 1.86 305 11:26 02.03.2022
2829 Clear 15 1015 13 10000 1.86 305 10:31 02.03.2022
2830 Clear 15 1014 11 10000 2.94 308 09:36 02.03.2022
2831 Clear 15 1014 11 10000 3.99 307 08:34 02.03.2022
2832 Clear 15 1015 11 10000 4.67 311 07:23 02.03.2022
2833 Clear 13 1016 14 10000 4.26 308 04:51 02.03.2022
2834 Clear -4 1017 27 10000 1.66 279 00:40 02.03.2022
2835 Clear -4 1017 27 10000 1.63 279 00:40 02.03.2022
2836 Clear -2 1016 29 10000 1.4 278 23:27 01.03.2022
2837 Clear -5 1016 29 10000 1.4 278 22:38 01.03.2022
2838 Clear -4 1017 29 10000 1.17 292 21:44 01.03.2022
2839 Clear -3 1017 28 10000 1.22 300 20:40 01.03.2022
2840 Clear -3 1017 28 10000 1.43 293 20:19 01.03.2022
2841 Clear 3 1018 27 10000 1.45 297 18:53 01.03.2022
2842 Clear 5 1019 28 10000 1.54 259 18:24 01.03.2022
2843 Clear 3 1019 28 10000 1.54 259 17:54 01.03.2022
2844 Clear 5 1019 28 10000 1.92 234 16:37 01.03.2022
2845 Clear 7 1020 27 10000 2.26 225 15:48 01.03.2022
2846 Clear 8 1020 23 10000 2.88 218 14:54 01.03.2022
2847 Clear 8 1020 23 10000 2.88 218 14:31 01.03.2022
2848 Clear 9 1020 18 10000 3.11 212 13:26 01.03.2022
2849 Clear 9 1020 17 10000 2.94 212 12:37 01.03.2022
2850 Clear 9 1020 16 10000 3.02 205 11:38 01.03.2022
2851 Clear 12 1019 12 10000 3.09 228 09:53 01.03.2022
2852 Clear 12 1020 12 10000 3.12 260 08:30 01.03.2022
2853 Clear 10 1021 12 10000 3.46 275 07:32 01.03.2022
2854 Clear 5 1026 19 10000 3.99 309 03:27 01.03.2022
2855 Clear -1 1027 24 10000 3.47 321 00:49 01.03.2022
2856 Clear -1 1026 25 10000 2.98 325 23:47 28.02.2022
2857 Clear 2 1026 24 10000 3.5 334 22:50 28.02.2022
2858 Clear 2 1025 25 10000 4.52 337 21:48 28.02.2022
2859 Clear 3 1025 25 10000 5.33 336 20:55 28.02.2022
2860 Clear 4 1024 26 10000 6.1 339 19:51 28.02.2022
2861 Clear 4 1024 26 10000 6.79 340 19:22 28.02.2022
2862 Clouds 4 1024 25 10000 6.86 340 18:35 28.02.2022
2863 Clouds 5 1023 28 10000 6.54 345 17:23 28.02.2022
2864 Clouds 5 1023 28 10000 6.54 345 16:32 28.02.2022
2865 Clear 7 1022 28 10000 6.84 340 15:21 28.02.2022
2866 Clear 8 1020 28 10000 7.18 339 14:29 28.02.2022
2867 Clear 8 1020 28 10000 7.18 339 13:34 28.02.2022
2868 Clouds 10 1018 29 10000 7.47 332 12:31 28.02.2022
2869 Clouds 12 1016 28 10000 7.99 332 11:37 28.02.2022
2870 Clouds 12 1013 22 10000 4.83 303 10:24 28.02.2022
2871 Clouds 12 1013 22 10000 4.83 303 09:59 28.02.2022
2872 Clouds 12 1012 25 10000 2.85 284 09:27 28.02.2022
2873 Clouds 12 1012 26 10000 0.7 287 08:26 28.02.2022
2874 Clouds 12 1012 26 10000 0.7 287 08:26 28.02.2022
2875 Clouds 12 1013 24 10000 0.83 50 06:53 28.02.2022
2876 Clouds 9 1014 29 10000 1.26 17 04:31 28.02.2022
2877 Clouds 7 1015 34 10000 1.96 62 02:41 28.02.2022
2878 Clouds 3 1015 39 10000 1.79 23 23:26 27.02.2022
2879 Clouds 2 1015 39 10000 1.79 23 22:33 27.02.2022
2880 Clouds 2 1015 39 10000 1.86 28 21:47 27.02.2022
2881 Clouds 1 1015 38 10000 2.05 38 20:54 27.02.2022
2882 Clouds 0 1016 36 10000 2.03 36 20:27 27.02.2022
2883 Clouds 1 1016 36 10000 2.03 36 19:56 27.02.2022
2884 Clouds 1 1016 33 10000 1.79 43 19:26 27.02.2022
2885 Clouds 1 1016 35 10000 2.02 38 18:39 27.02.2022
2886 Clouds 3 1017 32 10000 1.69 41 17:54 27.02.2022
2887 Clouds 7 1017 30 10000 1.41 49 16:37 27.02.2022
2888 Clouds 7 1017 28 10000 1.5 41 15:55 27.02.2022
2889 Clouds 5 1017 24 10000 0.92 52 12:53 27.02.2022
2890 Clouds 9 1017 21 10000 0.69 86 12:29 27.02.2022
2891 Clouds 12 1016 18 10000 0.68 68 10:54 27.02.2022
2892 Clouds 15 1016 16 10000 0.69 149 09:58 27.02.2022
2893 Clouds 16 1016 16 10000 0.69 149 09:37 27.02.2022
2894 Clouds 16 1016 15 10000 1.47 161 09:18 27.02.2022
2895 Clouds 16 1016 14 10000 1.55 166 07:34 27.02.2022
2896 Clear 10 1018 17 10000 0.45 78 05:38 27.02.2022
2897 Clear -5 1020 29 10000 1.01 346 00:53 27.02.2022
2898 Clear -6 1019 28 10000 1.23 353 22:58 26.02.2022
2899 Clear -4 1019 27 10000 1.16 351 21:44 26.02.2022
2900 Clear -4 1018 26 10000 0.97 345 20:58 26.02.2022
2901 Clear -4 1018 25 10000 0.89 319 20:19 26.02.2022
2902 Clear -4 1018 25 10000 0.89 319 19:46 26.02.2022
2903 Clear -4 1019 25 10000 1.16 320 19:22 26.02.2022
2904 Clear -2 1020 26 10000 1.45 308 17:46 26.02.2022
2905 Clear -2 1020 25 10000 1.23 301 16:52 26.02.2022
2906 Clear 2 1020 24 10000 1.01 254 15:57 26.02.2022
2907 Clear 2 1020 22 10000 1.37 224 15:23 26.02.2022
2908 Clear 4 1020 22 10000 1.37 224 14:54 26.02.2022
2909 Clear 4 1020 22 10000 1.37 224 14:36 26.02.2022
2910 Clear 8 1020 17 10000 1.71 218 13:19 26.02.2022
2911 Clear 9 1021 17 10000 1.5 244 12:29 26.02.2022
2912 Clear 10 1020 15 10000 2.23 295 11:28 26.02.2022
2913 Clear 10 1020 15 10000 2.23 295 10:51 26.02.2022
2914 Clear 10 1021 12 10000 4.93 305 08:59 26.02.2022
2915 Clear 10 1021 13 10000 5.22 304 07:37 26.02.2022
2916 Clear 4 1025 25 10000 4.44 322 01:53 26.02.2022
2917 Clear 4 1022 34 10000 5.19 329 22:57 25.02.2022
2918 Clear 5 1021 35 10000 5.66 330 21:46 25.02.2022
2919 Clear 5 1020 35 10000 6.43 327 21:26 25.02.2022
2920 Clear 5 1020 35 10000 6.43 327 20:33 25.02.2022
2921 Clear 7 1018 32 10000 6.65 327 19:22 25.02.2022
2922 Clear -1 1017 30 10000 6.03 314 17:30 25.02.2022
2923 Clear 1 1017 30 10000 6.03 314 16:44 25.02.2022
2924 Clear 2 1017 36 10000 2.86 328 15:48 25.02.2022
2925 Clear 2 1017 37 10000 2.23 347 15:22 25.02.2022
2926 Clear 5 1017 37 10000 2.23 347 14:42 25.02.2022
2927 Clouds 9 1017 36 10000 1.57 337 13:58 25.02.2022
2928 Clouds 8 1016 35 10000 0.74 317 13:20 25.02.2022
2929 Clouds 9 1017 28 10000 1.35 227 11:28 25.02.2022
2930 Clouds 13 1017 28 10000 1.35 227 10:48 25.02.2022
2931 Clouds 13 1016 24 10000 1.82 226 10:22 25.02.2022
2932 Clouds 14 1016 24 10000 1.82 226 09:31 25.02.2022
2933 Clouds 12 1017 23 10000 2.23 207 07:44 25.02.2022
2934 Clear 10 1020 28 10000 1.19 217 06:19 25.02.2022
2935 Clear 9 1020 28 10000 1.19 217 05:36 25.02.2022
2936 Clear -6 1024 43 10000 1.73 6 00:30 25.02.2022
2937 Clear -6 1023 41 10000 1.25 5 22:20 24.02.2022
2938 Clear -6 1023 41 10000 1.25 5 21:42 24.02.2022
2939 Clear -6 1023 41 10000 1.03 1 21:20 24.02.2022
2940 Clear -6 1023 41 10000 1.03 1 20:42 24.02.2022
2941 Clear -5 1025 39 10000 1.38 349 19:19 24.02.2022
2942 Clear -4 1025 37 10000 1.08 328 18:20 24.02.2022
2943 Clear -5 1025 37 10000 1.08 328 17:46 24.02.2022
2944 Clear -2 1025 34 10000 1.02 312 16:57 24.02.2022
2945 Clear -4 1026 32 10000 1.08 284 16:25 24.02.2022
2946 Clear -3 1026 32 10000 1.08 284 15:31 24.02.2022
2947 Clear -2 1026 30 10000 1.1 254 14:43 24.02.2022
2948 Clear -2 1026 28 10000 1.11 243 13:45 24.02.2022
2949 Clear -2 1026 25 10000 1.33 240 13:27 24.02.2022
2950 Clear 8 1026 22 10000 1.16 211 10:50 24.02.2022
2951 Clear 10 1026 19 10000 1.61 206 09:42 24.02.2022
2952 Clear 9 1026 18 10000 1.88 205 08:43 24.02.2022
2953 Clear 9 1026 18 10000 1.88 205 08:43 24.02.2022
2954 Clear 7 1029 24 10000 1.15 225 06:28 24.02.2022
2955 Clear 5 1029 24 10000 1.15 225 05:37 24.02.2022
2956 Clear -5 1031 43 10000 1.72 354 00:30 24.02.2022
2957 Clear -6 1031 41 10000 1.69 359 21:56 23.02.2022
2958 Clear -5 1031 39 10000 1.47 0 20:43 23.02.2022
2959 Clear -5 1031 38 10000 1.38 354 20:20 23.02.2022
2960 Clear -6 1031 38 10000 1.38 354 19:34 23.02.2022
2961 Clear -3 1032 36 10000 1.45 330 18:22 23.02.2022
2962 Clear -5 1033 33 10000 1.32 292 16:27 23.02.2022
2963 Clear 0 1033 29 10000 1.38 236 13:45 23.02.2022
2964 Clear 0 1032 28 10000 1.39 231 12:31 23.02.2022
2965 Clear 5 1032 25 10000 1.1 196 10:56 23.02.2022
2966 Clear 7 1032 23 10000 1.34 196 09:38 23.02.2022
2967 Clear 7 1032 22 10000 1.22 199 08:54 23.02.2022
2968 Clear 7 1033 23 10000 0.99 201 07:53 23.02.2022
2969 Clear -1 1037 39 10000 1.74 344 02:31 23.02.2022
2970 Clear -10 1037 52 10000 1.69 346 23:50 22.02.2022
2971 Clear -10 1037 52 10000 1.69 346 23:32 22.02.2022
2972 Clear -9 1036 51 10000 1.85 352 22:28 22.02.2022
2973 Clear -9 1036 51 10000 1.85 352 21:44 22.02.2022
2974 Clear -8 1036 50 10000 1.77 349 21:21 22.02.2022
2975 Clear -8 1036 50 10000 1.77 349 20:41 22.02.2022
2976 Clear -8 1037 48 10000 1.54 346 20:22 22.02.2022
2977 Clear -10 1037 48 10000 1.54 346 19:34 22.02.2022
2978 Clear -9 1037 47 10000 1.36 336 18:35 22.02.2022
2979 Clear -8 1037 45 10000 1.14 328 17:34 22.02.2022
2980 Clear -9 1037 44 10000 1.04 312 16:56 22.02.2022
2981 Clear -6 1037 42 10000 1.09 299 16:21 22.02.2022
2982 Clear -6 1037 42 10000 1.09 299 15:31 22.02.2022
2983 Clear -5 1037 40 10000 1.29 292 14:33 22.02.2022
2984 Clear 0 1036 33 10000 1.4 291 11:39 22.02.2022
2985 Clear 0 1036 33 10000 1.4 291 11:39 22.02.2022
2986 Clear 4 1035 26 10000 2.57 315 09:48 22.02.2022
2987 Clear 3 1035 23 10000 2.72 316 07:38 22.02.2022
2988 Clear 2 1036 24 10000 2.85 321 07:19 22.02.2022
2989 Clear 2 1036 24 10000 2.85 321 07:19 22.02.2022
2990 Clear -1 1039 28 10000 4 345 02:51 22.02.2022
2991 Clear -10 1037 38 10000 3.79 345 23:42 21.02.2022
2992 Clear -8 1037 38 10000 3.57 345 22:37 21.02.2022
2993 Clear -8 1037 38 10000 3.27 343 21:23 21.02.2022
2994 Clear -3 1037 35 10000 3.88 340 18:58 21.02.2022
2995 Clear -3 1038 35 10000 4.11 337 18:39 21.02.2022
2996 Clear -3 1037 35 10000 4.55 337 16:30 21.02.2022
2997 Clear -1 1035 34 10000 4.6 335 14:24 21.02.2022
2998 Clear -1 1035 34 10000 4.6 335 13:40 21.02.2022
2999 Clouds 0 1033 34 10000 4.7 326 12:57 21.02.2022
3000 Clouds 0 1032 33 10000 4.62 303 12:21 21.02.2022
3001 Clouds 3 1031 32 10000 4.45 299 10:31 21.02.2022
3002 Clouds 4 1031 26 10000 4.19 296 07:51 21.02.2022
3003 Clear -11 1033 42 10000 2.94 345 00:36 21.02.2022
3004 Clear -9 1031 40 10000 3.18 333 22:37 20.02.2022
3005 Clear -5 1031 39 10000 3.75 334 21:51 20.02.2022
3006 Clear -5 1031 39 10000 3.71 339 21:25 20.02.2022
3007 Clear -5 1031 39 10000 3.71 339 20:45 20.02.2022
3008 Clear -5 1031 41 10000 3.43 343 19:51 20.02.2022
3009 Clear -5 1032 39 10000 3.71 345 18:57 20.02.2022
3010 Clear -5 1032 37 10000 3.39 335 18:37 20.02.2022
3011 Clear -3 1032 35 10000 3.41 336 17:56 20.02.2022
3012 Clear -3 1032 34 10000 3.77 337 17:24 20.02.2022
3013 Clear -2 1031 31 10000 4.64 338 15:28 20.02.2022
3014 Clear 0 1030 31 10000 4.79 337 13:59 20.02.2022
3015 Clear 2 1029 29 10000 4.58 332 12:49 20.02.2022
3016 Clear 3 1028 28 10000 4.81 307 11:56 20.02.2022
3017 Clear 4 1026 28 10000 2.64 278 10:21 20.02.2022
3018 Clear 5 1026 28 10000 2.64 278 09:51 20.02.2022
3019 Clear 3 1027 26 10000 1.6 253 06:30 20.02.2022
3020 Clear -13 1032 57 10000 1.96 350 00:33 20.02.2022
3021 Clear -13 1032 54 10000 1.74 345 00:33 20.02.2022
3022 Clear -12 1032 57 10000 1.96 350 23:39 19.02.2022
3023 Clear -10 1032 53 10000 2.15 349 22:24 19.02.2022
3024 Clear -10 1032 53 10000 2.15 349 21:50 19.02.2022
3025 Clear -8 1032 50 10000 2.21 338 20:45 19.02.2022
3026 Clear -7 1033 45 10000 2.87 323 19:36 19.02.2022
3027 Clear -5 1033 46 10000 2.87 326 18:41 19.02.2022
3028 Clear -5 1033 45 10000 2.84 327 17:58 19.02.2022
3029 Clear -5 1033 45 10000 2.84 327 17:32 19.02.2022
3030 Clear -5 1033 46 10000 2.56 333 15:59 19.02.2022
3031 Clear -3 1034 46 10000 2.18 324 14:55 19.02.2022
3032 Clear -6 1033 45 10000 1.78 321 13:58 19.02.2022
3033 Clear -3 1032 39 10000 2.25 297 11:58 19.02.2022
3034 Clear -1 1032 36 10000 2.56 307 11:24 19.02.2022
3035 Clear 0 1032 27 10000 4.43 314 09:21 19.02.2022
3036 Clear 0 1033 23 10000 5.22 311 06:49 19.02.2022
3037 Clouds -7 1038 35 10000 4.07 330 00:50 19.02.2022
3038 Clouds -6 1036 35 10000 4.79 332 22:33 18.02.2022
3039 Clouds -6 1036 34 10000 4.84 332 21:27 18.02.2022
3040 Clouds -6 1036 34 10000 5.29 328 20:25 18.02.2022
3041 Clouds -6 1036 34 10000 5.29 328 19:51 18.02.2022
3042 Clouds -6 1036 34 10000 5.64 332 18:38 18.02.2022
3043 Clouds -5 1037 35 10000 5.3 332 18:18 18.02.2022
3044 Clouds -5 1036 34 10000 5.26 334 17:18 18.02.2022
3045 Clouds -1 1035 34 10000 5.56 331 14:31 18.02.2022
3046 Clouds -1 1035 34 10000 5.56 331 13:47 18.02.2022
3047 Clouds 0 1033 37 10000 4.75 334 12:50 18.02.2022
3048 Clouds 2 1032 37 10000 4.45 331 11:57 18.02.2022
3049 Clouds 3 1031 37 10000 4.29 326 10:47 18.02.2022
3050 Clouds 4 1030 34 10000 3.96 307 09:20 18.02.2022
3051 Clouds 0 1030 35 10000 3.6 318 06:48 18.02.2022
3052 Clouds -1 1030 42 10000 1.86 327 05:34 18.02.2022
3053 Clouds -8 1030 80 10000 1.55 15 22:43 17.02.2022
3054 Clouds -10 1030 81 10000 1.45 3 21:42 17.02.2022
3055 Clouds -7 1030 81 10000 1.3 347 20:52 17.02.2022
3056 Snow -7 1030 81 10000 1.3 347 20:33 17.02.2022
3057 Snow -8 1030 81 10000 0.45 305 19:42 17.02.2022
3058 Clouds -5 1031 74 10000 0.47 154 18:29 17.02.2022
3059 Clouds -5 1031 74 10000 0.47 154 17:45 17.02.2022
3060 Clouds -6 1031 71 10000 1.51 165 16:19 17.02.2022
3061 Clouds -5 1031 69 10000 1.47 177 14:30 17.02.2022
3062 Clouds -3 1031 67 10000 1.69 181 13:47 17.02.2022
3063 Clouds -2 1031 59 10000 2.16 195 11:55 17.02.2022
3064 Clouds -2 1030 56 10000 2.44 197 10:57 17.02.2022
3065 Clouds -2 1031 43 10000 3.6 199 07:56 17.02.2022
3066 Clouds -12 1034 63 10000 1.49 53 00:20 17.02.2022
3067 Clouds -12 1034 65 10000 1.57 49 22:38 16.02.2022
3068 Clouds -10 1034 64 10000 1.82 35 20:24 16.02.2022
3069 Clouds -8 1034 65 10000 1.69 34 19:23 16.02.2022
3070 Clouds -8 1034 65 10000 1.48 36 18:34 16.02.2022
3071 Clouds -10 1034 64 10000 1.28 24 17:24 16.02.2022
3072 Clouds -10 1034 59 10000 1.34 5 15:24 16.02.2022
3073 Clear -6 1033 55 10000 0.74 36 13:47 16.02.2022
3074 Clear -5 1032 51 10000 1.56 118 12:27 16.02.2022
3075 Clear -4 1032 51 10000 1.56 118 11:46 16.02.2022
3076 Clear -2 1031 49 10000 1.92 127 10:35 16.02.2022
3077 Clear -2 1030 40 10000 1.87 120 09:54 16.02.2022
3078 Clear -3 1030 35 10000 1.72 44 06:44 16.02.2022
3079 Clear -8 1033 45 10000 2.45 16 02:48 16.02.2022
3080 Clear -10 1031 62 10000 2.29 13 22:34 15.02.2022
3081 Clear -10 1031 61 10000 2.3 11 21:51 15.02.2022
3082 Clear -10 1031 61 10000 2.3 11 21:31 15.02.2022
3083 Clear -10 1031 61 10000 2.25 13 20:58 15.02.2022
3084 Clear -9 1031 60 10000 1.99 13 20:27 15.02.2022
3085 Clear -10 1031 60 10000 1.99 13 19:48 15.02.2022
3086 Clouds -8 1030 65 10000 1.8 9 18:28 15.02.2022
3087 Clouds -8 1030 65 10000 1.8 9 17:57 15.02.2022
3088 Clouds -8 1030 65 10000 1.8 9 17:38 15.02.2022
3089 Clouds -10 1030 66 10000 1.36 359 15:44 15.02.2022
3090 Clouds -6 1029 61 10000 0.44 339 14:31 15.02.2022
3091 Clouds -5 1029 58 10000 0.46 53 13:26 15.02.2022
3092 Clouds -7 1028 56 10000 1.19 86 11:43 15.02.2022
3093 Clouds -5 1027 52 10000 1.37 102 10:32 15.02.2022
3094 Clouds -3 1027 40 10000 0.49 80 08:56 15.02.2022
3095 Clouds -6 1028 41 10000 0.99 40 06:47 15.02.2022
3096 Clouds -11 1030 54 10000 2.5 15 00:26 15.02.2022
3097 Clouds -10 1030 54 10000 2.4 14 21:59 14.02.2022
3098 Clouds -10 1030 53 10000 2.32 15 20:57 14.02.2022
3099 Clouds -10 1031 52 10000 2.19 13 19:52 14.02.2022
3100 Clouds -9 1031 52 10000 2.19 13 19:30 14.02.2022
3101 Clear -9 1031 50 10000 2.5 13 18:24 14.02.2022
3102 Clear -9 1031 50 10000 2.5 13 18:24 14.02.2022
3103 Clear -10 1031 50 10000 2.5 13 17:31 14.02.2022
3104 Clear -8 1031 50 10000 2.73 16 16:49 14.02.2022
3105 Clear -7 1031 49 10000 2.88 17 15:52 14.02.2022
3106 Clear -5 1031 47 10000 2.79 20 13:36 14.02.2022
3107 Clear -5 1031 45 10000 3.11 6 12:59 14.02.2022
3108 Clear -5 1031 45 10000 3.11 6 12:32 14.02.2022
3109 Clear -5 1030 41 10000 3.21 355 11:39 14.02.2022
3110 Clouds -3 1029 34 10000 3.34 346 10:22 14.02.2022
3111 Clouds -3 1029 29 10000 4.56 340 08:26 14.02.2022
3112 Clear -3 1029 30 10000 5 340 07:26 14.02.2022
3113 Clear -7 1029 50 10000 3.86 336 23:19 13.02.2022
3114 Clear -7 1029 50 10000 3.86 336 22:41 13.02.2022
3115 Clear -7 1028 54 10000 3.72 335 22:22 13.02.2022
3116 Clear -7 1028 60 10000 3.24 327 21:24 13.02.2022
3117 Clear -8 1028 60 10000 3.24 327 20:30 13.02.2022
3118 Clouds -7 1027 77 10000 1.67 310 19:23 13.02.2022
3119 Clouds -12 1027 77 10000 1.67 310 18:41 13.02.2022
3120 Clouds -10 1027 87 10000 0.18 336 17:41 13.02.2022
3121 Clouds -6 1027 86 10000 0.93 155 15:53 13.02.2022
3122 Clouds -6 1027 87 3336 1.43 148 14:52 13.02.2022
3123 Snow -6 1027 90 459 1.97 141 13:42 13.02.2022
3124 Snow -6 1026 88 2247 2.45 139 12:49 13.02.2022
3125 Snow -5 1025 87 1279 2.79 129 10:50 13.02.2022
3126 Snow -5 1025 82 3734 3.18 126 10:27 13.02.2022
3127 Snow -5 1025 83 1906 3.34 125 08:59 13.02.2022
3128 Snow -5 1027 78 1825 2.83 146 06:21 13.02.2022
3129 Snow -5 1028 70 10000 2.14 148 00:35 13.02.2022
3130 Clouds -5 1028 77 10000 1.58 126 22:59 12.02.2022
3131 Clouds -5 1028 77 10000 1.58 126 22:33 12.02.2022
3132 Clouds -4 1028 79 10000 1.47 104 21:19 12.02.2022
3133 Clouds -5 1028 76 10000 1.76 121 20:25 12.02.2022
3134 Clouds -5 1029 70 10000 1.99 114 19:18 12.02.2022
3135 Clouds -6 1028 67 10000 1.95 118 18:41 12.02.2022
3136 Clouds -6 1028 59 10000 1.73 101 18:23 12.02.2022
3137 Clouds -6 1028 55 10000 1.45 93 16:55 12.02.2022
3138 Clouds -5 1028 52 10000 1.36 82 16:25 12.02.2022
3139 Clouds -3 1028 52 10000 1.36 82 15:49 12.02.2022
3140 Clouds -3 1029 51 10000 1.37 63 14:30 12.02.2022
3141 Clouds -1 1028 52 10000 1.36 57 12:55 12.02.2022
3142 Clouds 0 1027 51 10000 1.38 61 10:36 12.02.2022
3143 Clouds 0 1027 51 10000 1.44 60 09:39 12.02.2022
3144 Clouds 0 1026 51 10000 1.44 61 08:48 12.02.2022
3145 Clouds 0 1026 53 10000 1.49 65 07:53 12.02.2022
3146 Clouds 0 1028 51 10000 1.37 61 05:33 12.02.2022
3147 Clouds -1 1030 56 10000 1.63 67 03:32 12.02.2022
3148 Clouds -1 1030 51 10000 1.7 84 02:18 12.02.2022
3149 Clouds -2 1029 55 10000 1.59 95 22:28 11.02.2022
3150 Clouds -5 1029 55 10000 1.59 95 21:47 11.02.2022
3151 Clouds -5 1029 57 10000 1.45 90 20:39 11.02.2022
3152 Clouds -3 1029 57 10000 1.79 94 19:40 11.02.2022
3153 Clouds -3 1029 57 10000 2.33 100 19:20 11.02.2022
3154 Clouds 0 1030 56 10000 2.16 107 17:48 11.02.2022
3155 Clouds 0 1030 56 10000 2.24 109 17:22 11.02.2022
3156 Clouds 2 1030 55 10000 2.87 118 15:56 11.02.2022
3157 Clouds 3 1029 54 10000 3.3 123 14:43 11.02.2022
3158 Clouds 4 1029 50 10000 3.44 126 14:20 11.02.2022
3159 Clouds 5 1029 50 10000 3.44 126 13:52 11.02.2022
3160 Rain 5 1029 50 10000 3.44 126 13:34 11.02.2022
3161 Clouds 6 1028 29 10000 1.6 98 11:32 11.02.2022
3162 Clouds 8 1027 23 10000 1 63 09:57 11.02.2022
3163 Clouds 9 1027 21 10000 1.8 75 08:42 11.02.2022
3164 Clouds 9 1027 21 10000 1.8 75 08:42 11.02.2022
3165 Clouds 9 1027 21 10000 2.18 71 08:22 11.02.2022
3166 Clouds 9 1026 24 10000 1.84 70 06:33 11.02.2022
3167 Clouds 3 1028 40 10000 2.03 14 02:26 11.02.2022
3168 Clouds -5 1027 42 10000 2.11 9 00:51 11.02.2022
3169 Clouds -5 1025 41 10000 2.13 11 22:49 10.02.2022
3170 Clouds -5 1025 41 10000 2.12 8 21:45 10.02.2022
3171 Clouds -4 1024 40 10000 2.35 5 20:57 10.02.2022
3172 Clouds -5 1024 40 10000 2.35 5 20:35 10.02.2022
3173 Clouds -5 1024 40 10000 2.02 5 19:25 10.02.2022
3174 Clouds -5 1024 40 10000 2.02 5 18:45 10.02.2022
3175 Clouds -5 1023 40 10000 1.44 335 17:26 10.02.2022
3176 Clouds -4 1023 40 10000 1.44 335 16:50 10.02.2022
3177 Clouds -3 1023 40 10000 1.24 290 15:49 10.02.2022
3178 Clouds -3 1023 39 10000 1.37 253 15:29 10.02.2022
3179 Clouds -2 1023 39 10000 1.37 253 14:47 10.02.2022
3180 Clouds 0 1023 37 10000 1.65 233 14:23 10.02.2022
3181 Clouds 1 1022 34 10000 2.16 208 13:26 10.02.2022
3182 Clouds 4 1022 28 10000 2.04 198 12:27 10.02.2022
3183 Clouds 5 1022 28 10000 2.04 198 11:33 10.02.2022
3184 Clouds 9 1021 26 10000 1.97 202 10:44 10.02.2022
3185 Clouds 10 1021 22 10000 2.2 206 09:50 10.02.2022
3186 Clouds 10 1021 21 10000 3.18 204 09:18 10.02.2022
3187 Clear 9 1021 21 10000 2.31 198 07:19 10.02.2022
3188 Clear 4 1024 27 10000 0.27 229 04:23 10.02.2022
3189 Clear -4 1024 31 10000 0.99 342 01:48 10.02.2022
3190 Snow -7 1024 33 10000 1.09 346 00:44 10.02.2022
3191 Clear -5 1023 33 10000 1.34 354 00:25 10.02.2022
3192 Clear -9 1023 32 10000 1.41 355 22:58 09.02.2022
3193 Clear -8 1023 32 10000 1.51 357 22:34 09.02.2022
3194 Clear -9 1023 32 10000 1.51 357 21:49 09.02.2022
3195 Clear -8 1023 31 10000 1.45 357 21:28 09.02.2022
3196 Clear -7 1023 31 10000 1.45 357 20:47 09.02.2022
3197 Clear -7 1023 31 10000 1.44 358 20:24 09.02.2022
3198 Clear -7 1023 31 10000 1.44 358 19:44 09.02.2022
3199 Clear -7 1023 31 10000 1.52 358 18:58 09.02.2022
3200 Clear -5 1023 31 10000 1.32 356 17:32 09.02.2022
3201 Clear -5 1023 31 10000 1.2 8 16:26 09.02.2022
3202 Clear -4 1023 31 10000 1.2 8 15:33 09.02.2022
3203 Clear -4 1023 30 10000 1.13 350 13:57 09.02.2022
3204 Clear -2 1022 27 10000 0.5 248 12:27 09.02.2022
3205 Clear 5 1022 25 10000 0.69 215 10:37 09.02.2022
3206 Clear 7 1022 23 10000 0.93 212 09:59 09.02.2022
3207 Clear 7 1022 20 10000 1.42 196 09:23 09.02.2022
3208 Clear 7 1022 20 10000 1.42 196 08:58 09.02.2022
3209 Clear 7 1022 19 10000 1.18 191 07:34 09.02.2022
3210 Clear 4 1023 18 10000 0.26 46 05:30 09.02.2022
3211 Clear 4 1023 18 10000 0.26 46 05:30 09.02.2022
3212 Clouds 0 1026 21 10000 1.15 23 03:50 09.02.2022
3213 Snow -8 1026 29 10000 1.53 13 00:21 09.02.2022
3214 Clouds -7 1026 29 10000 1.53 13 23:30 08.02.2022
3215 Clouds -9 1026 29 10000 1.4 12 22:43 08.02.2022
3216 Clouds -9 1026 28 10000 1.48 14 22:21 08.02.2022
3217 Clouds -9 1026 28 10000 1.48 14 21:38 08.02.2022
3218 Clouds -9 1026 28 10000 1.41 18 21:19 08.02.2022
3219 Clouds -8 1026 28 10000 1.41 18 20:41 08.02.2022
3220 Clouds -8 1026 28 10000 1.41 18 20:41 08.02.2022
3221 Clouds -8 1026 28 10000 1.36 16 19:45 08.02.2022
3222 Clear -7 1027 26 10000 1.31 7 18:34 08.02.2022
3223 Clear -5 1027 26 10000 1.09 358 17:36 08.02.2022
3224 Clear -5 1028 25 10000 0.69 339 15:55 08.02.2022
3225 Clear -4 1028 24 10000 0.51 302 15:29 08.02.2022
3226 Clear -3 1027 23 10000 0.69 232 13:59 08.02.2022
3227 Clear 3 1027 21 10000 0.9 217 12:40 08.02.2022
3228 Clear 4 1027 18 10000 1.13 189 11:28 08.02.2022
3229 Clear 8 1027 16 10000 1.47 194 09:59 08.02.2022
3230 Clear 8 1027 15 10000 1.39 194 08:56 08.02.2022
3231 Clear 7 1027 15 10000 0.61 207 07:37 08.02.2022
3232 Clear 4 1030 19 10000 1.41 343 04:40 08.02.2022
3233 Clear 3 1031 22 10000 1.55 342 04:22 08.02.2022
3234 Clear 2 1031 22 10000 1.55 342 03:37 08.02.2022
3235 Clear 2 1031 24 10000 1.84 344 03:18 08.02.2022
3236 Clear 0 1031 24 10000 1.84 344 02:59 08.02.2022
3237 Clear 0 1031 24 10000 1.84 344 02:37 08.02.2022
3238 Clear -1 1031 28 10000 1.94 349 02:19 08.02.2022
3239 Clear -1 1031 28 10000 1.94 349 01:55 08.02.2022
3240 Clear -7 1031 28 10000 1.94 349 01:37 08.02.2022
3241 Clear -7 1030 31 10000 1.93 353 01:19 08.02.2022
3242 Clear -7 1030 31 10000 1.93 353 00:44 08.02.2022
3243 Clear -7 1029 31 10000 1.95 356 23:45 07.02.2022
3244 Clear -9 1029 31 10000 1.82 352 23:19 07.02.2022
3245 Clear -8 1029 31 10000 1.82 352 23:00 07.02.2022
3246 Clear -6 1029 30 10000 1.55 345 22:19 07.02.2022
3247 Clear -8 1029 30 10000 1.55 345 21:52 07.02.2022
3248 Clear -8 1029 30 10000 1.41 341 21:29 07.02.2022
3249 Clear -8 1029 30 10000 1.41 341 21:29 07.02.2022
3250 Clear -7 1029 30 10000 1.41 341 20:56 07.02.2022
3251 Clear -7 1029 30 10000 1.41 341 20:38 07.02.2022
3252 Clear -5 1029 30 10000 1.45 342 19:47 07.02.2022
3253 Clouds -5 1029 29 10000 1.55 346 19:20 07.02.2022
3254 Clouds -6 1029 29 10000 1.55 336 17:41 07.02.2022
3255 Clouds -7 1030 29 10000 1.61 328 16:52 07.02.2022
3256 Clouds -7 1030 29 10000 1.62 319 15:49 07.02.2022
3257 Clouds -4 1030 29 10000 1.42 290 14:44 07.02.2022
3258 Clouds -4 1030 27 10000 1.82 224 13:27 07.02.2022
3259 Clouds -4 1030 27 10000 1.82 224 12:38 07.02.2022
3260 Clouds 0 1029 26 10000 1.64 219 11:55 07.02.2022
3261 Clouds 0 1029 26 10000 1.64 219 11:33 07.02.2022
3262 Clouds 3 1029 25 10000 1.41 212 10:47 07.02.2022
3263 Clouds 4 1028 23 10000 1.13 200 10:28 07.02.2022
3264 Clouds 4 1028 23 10000 1.13 200 09:52 07.02.2022
3265 Clouds 4 1028 21 10000 0.42 192 09:18 07.02.2022
3266 Clouds 5 1028 21 10000 0.49 15 08:20 07.02.2022
3267 Clouds 4 1029 22 10000 0.96 3 06:52 07.02.2022
3268 Clouds 5 1029 22 10000 0.96 3 06:33 07.02.2022
3269 Clouds -1 1032 31 10000 2.33 5 02:56 07.02.2022
3270 Clouds -8 1031 37 10000 2.02 360 00:42 07.02.2022
3271 Clouds -7 1030 37 10000 2.09 360 23:42 06.02.2022
3272 Clouds -6 1030 36 10000 2.4 5 22:47 06.02.2022
3273 Clouds -7 1030 34 10000 2 6 21:51 06.02.2022
3274 Clouds -8 1030 34 10000 2 6 21:30 06.02.2022
3275 Clouds -7 1030 32 10000 1.76 360 20:52 06.02.2022
3276 Clouds -7 1030 31 10000 1.16 353 20:28 06.02.2022
3277 Clouds -5 1030 31 10000 1.16 353 19:32 06.02.2022
3278 Clouds -5 1031 29 10000 1.64 4 18:38 06.02.2022
3279 Clouds -3 1030 28 10000 2.02 6 17:55 06.02.2022
3280 Clouds -5 1031 28 10000 1.76 3 16:56 06.02.2022
3281 Clouds -5 1031 28 10000 1.76 3 16:38 06.02.2022
3282 Clouds -6 1031 29 10000 1.18 331 15:47 06.02.2022
3283 Clouds -6 1031 28 10000 1.06 314 15:26 06.02.2022
3284 Clouds -5 1031 28 10000 1.06 314 14:33 06.02.2022
3285 Clouds -3 1030 28 10000 1.92 238 13:25 06.02.2022
3286 Clouds -1 1030 28 10000 1.92 238 12:51 06.02.2022
3287 Clouds 2 1030 22 10000 1.83 219 11:27 06.02.2022
3288 Clouds 5 1030 20 10000 1.38 227 10:29 06.02.2022
3289 Clouds 5 1030 17 10000 1.01 286 08:49 06.02.2022
3290 Clouds 5 1030 17 10000 1.68 321 07:37 06.02.2022
3291 Clouds 4 1032 20 10000 3.24 347 05:30 06.02.2022
3292 Clouds 4 1032 20 10000 3.24 347 05:30 06.02.2022
3293 Clouds 4 1032 20 10000 3.24 347 05:30 06.02.2022
3294 Clouds 0 1035 34 10000 3.03 360 02:26 06.02.2022
3295 Clouds -3 1035 34 10000 3.03 360 01:47 06.02.2022
3296 Clouds -3 1034 38 10000 2.45 358 00:26 06.02.2022
3297 Clouds -1 1033 36 10000 2.44 354 22:20 05.02.2022
3298 Clouds 0 1033 35 10000 2.55 353 20:59 05.02.2022
3299 Clouds 0 1033 33 10000 2.33 350 20:24 05.02.2022
3300 Clouds 1 1033 33 10000 2.33 350 19:45 05.02.2022
3301 Clouds 0 1033 32 10000 1.95 344 18:52 05.02.2022
3302 Clouds 0 1033 31 10000 1.91 330 17:39 05.02.2022
3303 Clouds -1 1033 29 10000 1.96 324 16:48 05.02.2022
3304 Clouds 0 1033 27 10000 2.58 322 15:34 05.02.2022
3305 Clouds 0 1032 25 10000 3.16 316 14:53 05.02.2022
3306 Clear 2 1032 22 10000 2.76 289 12:47 05.02.2022
3307 Clear 2 1032 19 10000 2.53 273 12:22 05.02.2022
3308 Clouds 3 1032 18 10000 2.88 280 10:48 05.02.2022
3309 Clouds 4 1031 16 10000 3.22 292 09:53 05.02.2022
3310 Clouds 4 1031 16 10000 3.22 292 09:30 05.02.2022
3311 Clouds 3 1032 14 10000 3.49 300 07:51 05.02.2022
3312 Clouds 2 1032 15 10000 3.4 306 06:57 05.02.2022
3313 Clear -1 1036 21 10000 2.77 320 04:29 05.02.2022
3314 Clear -6 1035 34 10000 2.39 338 01:19 05.02.2022
3315 Clear -6 1035 34 10000 2.39 338 00:52 05.02.2022
3316 Clear -6 1035 35 10000 2.82 337 23:39 04.02.2022
3317 Clear -6 1034 34 10000 3.07 337 23:21 04.02.2022
3318 Clear -5 1034 34 10000 3.11 335 21:54 04.02.2022
3319 Clear -5 1034 34 10000 3.11 335 21:36 04.02.2022
3320 Clear -5 1034 33 10000 3.16 331 21:18 04.02.2022
3321 Clear -5 1034 31 10000 3.56 331 19:39 04.02.2022
3322 Clear -5 1034 30 10000 4.05 323 17:40 04.02.2022
3323 Clear -6 1034 29 10000 4.39 322 15:39 04.02.2022
3324 Clear -6 1034 28 10000 4.19 328 14:54 04.02.2022
3325 Clear -4 1033 26 10000 3.72 331 13:31 04.02.2022
3326 Clear -2 1033 24 10000 3.33 331 12:43 04.02.2022
3327 Clear -2 1032 22 10000 3.46 326 11:41 04.02.2022
3328 Clear 0 1032 20 10000 3.75 321 10:36 04.02.2022
3329 Clear 0 1032 16 10000 5.15 310 08:34 04.02.2022
3330 Clear -2 1033 17 10000 5.38 326 06:18 04.02.2022
3331 Clear -5 1035 23 10000 5.03 334 02:44 04.02.2022
3332 Clear -7 1035 27 10000 4.68 334 01:48 04.02.2022
3333 Clear -6 1033 29 10000 4.85 333 23:29 03.02.2022
3334 Clear -6 1033 29 10000 4.85 333 22:33 03.02.2022
3335 Clear -5 1033 28 10000 4.92 336 21:49 03.02.2022
3336 Clear -5 1033 28 10000 4.78 340 20:38 03.02.2022
3337 Clear -5 1033 28 10000 4.49 340 20:18 03.02.2022
3338 Clear -8 1033 28 10000 4.49 340 19:30 03.02.2022
3339 Clouds -6 1033 28 10000 3.83 349 18:35 03.02.2022
3340 Clouds -6 1032 28 10000 3.68 355 17:32 03.02.2022
3341 Clouds -3 1032 26 10000 3.36 1 16:25 03.02.2022
3342 Clouds -3 1031 25 10000 2.74 7 14:45 03.02.2022
3343 Clouds -1 1031 22 10000 2.83 9 12:52 03.02.2022
3344 Clouds 0 1029 21 10000 3.16 325 10:58 03.02.2022
3345 Clouds 2 1029 18 10000 3.77 342 08:36 03.02.2022
3346 Clear 0 1031 21 10000 4.12 352 05:26 03.02.2022
3347 Clear -10 1030 34 10000 2.59 10 00:32 03.02.2022
3348 Clear -8 1030 34 10000 2.59 9 23:39 02.02.2022
3349 Clear -7 1030 31 10000 2.32 9 21:55 02.02.2022
3350 Clear -7 1030 31 10000 2.32 9 21:31 02.02.2022
3351 Clear -9 1030 29 10000 2.07 11 20:40 02.02.2022
3352 Clear -8 1030 28 10000 1.88 14 19:58 02.02.2022
3353 Clear -7 1030 28 10000 1.6 9 19:27 02.02.2022
3354 Clear -5 1030 29 10000 1.59 8 18:45 02.02.2022
3355 Clear -7 1030 29 10000 1.31 1 17:56 02.02.2022
3356 Clear -9 1030 29 10000 1.08 349 17:19 02.02.2022
3357 Clear -8 1030 29 10000 1.08 349 16:41 02.02.2022
3358 Clear -3 1030 29 10000 1.75 202 12:57 02.02.2022
3359 Clear -3 1029 25 10000 1.97 196 12:20 02.02.2022
3360 Clear 0 1029 25 10000 1.97 196 11:33 02.02.2022
3361 Clear 4 1029 18 10000 1.83 192 10:22 02.02.2022
3362 Clear 3 1029 15 10000 0.62 234 07:35 02.02.2022
3363 Clear -8 1032 28 10000 1.38 355 22:52 01.02.2022
3364 Clear -11 1032 27 10000 1.43 353 21:50 01.02.2022
3365 Clear -8 1032 26 10000 1.37 343 19:58 01.02.2022
3366 Clear -6 1032 26 10000 1.24 324 17:44 01.02.2022
3367 Clear -9 1033 26 10000 1.27 313 16:39 01.02.2022
3368 Clear -9 1033 26 10000 1.27 313 16:39 01.02.2022
3369 Clear -9 1032 28 10000 1.49 239 14:24 01.02.2022
3370 Clear -5 1032 27 10000 1.53 231 12:43 01.02.2022
3371 Clear -2 1032 26 10000 1.76 218 11:30 01.02.2022
3372 Clear -2 1034 21 10000 2.5 336 04:53 01.02.2022
3373 Clear -8 1033 37 10000 3.05 355 23:41 31.01.2022
3374 Clear -8 1032 36 10000 2.92 354 22:58 31.01.2022
3375 Clear -7 1032 35 10000 2.81 354 21:40 31.01.2022
3376 Clear -7 1032 35 10000 2.98 353 21:19 31.01.2022
3377 Clear -6 1032 34 10000 3.26 352 20:29 31.01.2022
3378 Clear -6 1032 34 10000 3.26 352 19:35 31.01.2022
3379 Clear -5 1031 33 10000 3.78 334 18:26 31.01.2022
3380 Clear -5 1031 33 10000 3.78 334 17:33 31.01.2022
3381 Clear -5 1031 33 10000 3.86 331 16:38 31.01.2022
3382 Clear -5 1030 32 10000 3.96 329 15:41 31.01.2022
3383 Clear -5 1029 29 10000 4.56 328 14:22 31.01.2022
3384 Clear -2 1028 28 10000 5.03 335 12:39 31.01.2022
3385 Clear -2 1027 26 10000 5.5 336 11:55 31.01.2022
3386 Clear -1 1026 24 10000 5.62 331 10:50 31.01.2022
3387 Clear -1 1026 24 10000 5.62 331 10:50 31.01.2022
3388 Clear -1 1026 24 10000 5.62 331 10:30 31.01.2022
3389 Clear 0 1025 19 10000 5.62 328 09:26 31.01.2022
3390 Clear 0 1025 19 10000 5.62 328 08:50 31.01.2022
3391 Clear -1 1024 18 10000 6.16 326 08:20 31.01.2022
3392 Clear 0 1024 20 10000 6.37 312 06:18 31.01.2022
3393 Clear -6 1024 33 10000 5.06 315 00:55 31.01.2022
3394 Clouds -5 1023 33 10000 4.61 323 22:55 30.01.2022
3395 Clouds -5 1024 32 10000 4.5 321 22:25 30.01.2022
3396 Clouds -3 1024 32 10000 4.5 321 21:40 30.01.2022
3397 Clouds -3 1024 31 10000 5.16 318 21:19 30.01.2022
3398 Clouds -3 1023 33 10000 5.89 308 20:46 30.01.2022
3399 Clouds -2 1023 32 10000 6.57 306 20:27 30.01.2022
3400 Clouds -2 1023 32 10000 6.57 306 19:52 30.01.2022
3401 Clouds -1 1023 31 10000 6.36 310 18:43 30.01.2022
3402 Clouds -1 1023 33 10000 6.32 311 18:20 30.01.2022
3403 Clouds -2 1023 35 10000 6.12 312 17:22 30.01.2022
3404 Clouds -2 1023 35 10000 6.12 312 16:40 30.01.2022
3405 Snow -1 1023 53 10000 3.75 301 16:22 30.01.2022
3406 Snow -1 1023 53 10000 3.75 301 15:50 30.01.2022
3407 Snow -1 1023 53 10000 3.75 301 15:31 30.01.2022
3408 Snow -1 1024 61 4325 1.89 316 14:46 30.01.2022
3409 Snow 0 1023 50 10000 1.5 8 12:47 30.01.2022
3410 Clouds 1 1023 52 10000 1.29 348 12:25 30.01.2022
3411 Clouds 2 1023 54 10000 0.92 350 10:36 30.01.2022
3412 Clouds 3 1022 51 10000 0.41 359 09:56 30.01.2022
3413 Clouds 2 1023 47 10000 0.84 213 08:56 30.01.2022
3414 Clear 0 1023 43 10000 1.68 203 07:29 30.01.2022
3415 Clear -9 1027 38 10000 1 26 01:56 30.01.2022
3416 Clear -10 1026 42 10000 1.17 6 00:41 30.01.2022
3417 Clear -9 1025 42 10000 1.02 20 23:20 29.01.2022
3418 Clear -10 1025 42 10000 1.08 24 21:58 29.01.2022
3419 Clear -9 1025 42 10000 1.08 22 21:25 29.01.2022
3420 Clear -9 1025 42 10000 1.08 22 20:35 29.01.2022
3421 Clear -9 1026 41 10000 0.9 32 19:35 29.01.2022
3422 Clear -9 1026 38 10000 1.04 30 18:58 29.01.2022
3423 Clear -9 1026 35 10000 0.48 30 18:26 29.01.2022
3424 Clear -8 1026 35 10000 0.48 30 17:35 29.01.2022
3425 Clear -8 1027 35 10000 0.28 9 16:37 29.01.2022
3426 Clear -5 1026 30 10000 0.28 236 14:24 29.01.2022
3427 Clear -4 1026 30 10000 0.28 236 13:45 29.01.2022
3428 Clear -5 1026 29 10000 0.34 194 13:24 29.01.2022
3429 Clear -4 1026 29 10000 0.34 194 12:35 29.01.2022
3430 Clear 0 1025 26 10000 0.54 144 11:27 29.01.2022
3431 Clear 4 1025 22 10000 0.99 190 09:29 29.01.2022
3432 Clear 3 1026 22 10000 0.69 199 06:55 29.01.2022
3433 Clear -8 1028 35 10000 1.6 2 00:49 29.01.2022
3434 Clear -8 1028 35 10000 1.6 2 00:31 29.01.2022
3435 Clear -5 1028 33 10000 1.65 2 22:51 28.01.2022
3436 Clear -3 1028 32 10000 1.68 2 22:26 28.01.2022
3437 Clear -3 1028 32 10000 1.68 2 21:50 28.01.2022
3438 Clear -4 1028 31 10000 1.72 6 20:30 28.01.2022
3439 Clear -4 1028 31 10000 1.72 6 20:30 28.01.2022
3440 Clear -5 1029 30 10000 1.72 4 19:33 28.01.2022
3441 Clouds -6 1029 30 10000 1.83 5 18:46 28.01.2022
3442 Clouds -8 1030 33 10000 1.45 342 17:31 28.01.2022
3443 Clouds -7 1030 30 10000 0.65 314 15:20 28.01.2022
3444 Clouds -5 1030 27 10000 0.68 274 13:57 28.01.2022
3445 Clouds -3 1030 25 10000 1.5 243 12:31 28.01.2022
3446 Clouds -1 1029 22 10000 1.29 214 11:25 28.01.2022
3447 Clouds 2 1029 21 10000 0.76 178 09:52 28.01.2022
3448 Clouds 3 1030 19 10000 0.94 22 08:26 28.01.2022
3449 Clouds 3 1030 19 10000 0.94 22 07:34 28.01.2022
3450 Clouds 0 1033 37 10000 1.44 337 05:23 28.01.2022
3451 Clouds -2 1034 40 10000 1.27 335 03:44 28.01.2022
3452 Clear -3 1034 53 10000 1.88 350 02:22 28.01.2022
3453 Clear -5 1034 53 10000 1.88 350 01:32 28.01.2022
3454 Clouds -5 1033 64 10000 2.06 359 23:25 27.01.2022
3455 Clouds -7 1033 64 10000 1.77 358 21:49 27.01.2022
3456 Clouds -7 1033 63 10000 1.7 359 21:29 27.01.2022
3457 Clouds -5 1034 64 10000 1.52 359 20:26 27.01.2022
3458 Clouds -5 1034 61 10000 1.86 1 18:40 27.01.2022
3459 Clouds -5 1034 62 10000 1.95 358 17:55 27.01.2022
3460 Clouds -8 1035 64 10000 1.54 345 14:42 27.01.2022
3461 Clear -7 1034 63 10000 1.48 337 13:35 27.01.2022
3462 Clouds -5 1034 59 10000 1.79 340 12:39 27.01.2022
3463 Clear 0 1032 49 10000 0.15 229 10:23 27.01.2022
3464 Clear 2 1032 36 10000 0.91 3 08:56 27.01.2022
3465 Clear 2 1032 36 10000 0.91 3 08:31 27.01.2022
3466 Clear 0 1033 34 10000 2.44 5 05:59 27.01.2022
3467 Clouds -3 1035 50 10000 2.54 2 02:36 27.01.2022
3468 Clouds -4 1033 71 10000 1.97 359 23:32 26.01.2022
3469 Clouds -5 1033 71 10000 1.99 358 21:57 26.01.2022
3470 Clouds -5 1033 71 10000 1.99 358 21:33 26.01.2022
3471 Clouds -5 1033 72 10000 1.87 355 20:36 26.01.2022
3472 Clear -3 1033 72 10000 1.92 354 19:55 26.01.2022
3473 Clouds -3 1033 73 10000 1.66 351 19:20 26.01.2022
3474 Clouds -2 1033 73 10000 1.66 351 18:40 26.01.2022
3475 Clouds -2 1033 73 10000 1.52 350 17:49 26.01.2022
3476 Clouds -3 1033 73 10000 1.63 354 17:21 26.01.2022
3477 Clouds -5 1033 73 10000 1.53 343 16:27 26.01.2022
3478 Clouds -5 1033 73 10000 1.53 343 15:47 26.01.2022
3479 Clouds -3 1032 67 10000 1.27 289 13:24 26.01.2022
3480 Clouds -1 1032 65 10000 0.87 267 11:40 26.01.2022
3481 Clouds 0 1030 54 10000 0.41 72 10:20 26.01.2022
3482 Clouds 0 1030 54 10000 0.41 72 09:43 26.01.2022
3483 Clouds 0 1030 39 10000 1.4 38 07:32 26.01.2022
3484 Clouds -5 1032 50 10000 2.48 14 01:53 26.01.2022
3485 Clouds -5 1030 52 10000 2.96 15 23:54 25.01.2022
3486 Clouds -5 1030 52 10000 3.19 11 22:50 25.01.2022
3487 Clouds -6 1029 51 10000 3.23 8 22:21 25.01.2022
3488 Clouds -3 1029 51 10000 3.22 8 21:41 25.01.2022
3489 Clouds -3 1029 50 10000 3.27 7 20:46 25.01.2022
3490 Clouds -3 1030 48 10000 3.36 2 20:22 25.01.2022
3491 Clouds -3 1030 48 10000 3.36 2 19:46 25.01.2022
3492 Clear -5 1029 47 10000 3.51 355 18:24 25.01.2022
3493 Clear -2 1029 47 10000 3.51 355 17:42 25.01.2022
3494 Clear -1 1029 46 10000 3.51 344 16:35 25.01.2022
3495 Clear 0 1029 46 10000 3.33 331 15:47 25.01.2022
3496 Clear -1 1028 45 10000 3.12 322 15:28 25.01.2022
3497 Clear 0 1028 45 10000 3.12 322 14:57 25.01.2022
3498 Clear 0 1028 45 10000 3.12 322 14:57 25.01.2022
3499 Clear 0 1027 42 10000 3.44 316 13:28 25.01.2022
3500 Clear 4 1026 39 10000 3.81 321 10:35 25.01.2022
3501 Clear 5 1025 36 10000 4.74 319 08:33 25.01.2022
3502 Clouds 5 1024 36 10000 4.96 325 07:28 25.01.2022
3503 Clouds 5 1025 35 10000 5.12 323 06:29 25.01.2022
3504 Clouds -1 1026 85 10000 1.37 339 01:36 25.01.2022
3505 Clouds -3 1025 95 10000 1.09 319 23:37 24.01.2022
3506 Clouds -3 1024 95 10000 1.11 330 23:18 24.01.2022
3507 Clouds -3 1024 95 10000 1.11 330 22:59 24.01.2022
3508 Clouds -3 1024 95 10000 1.11 330 22:41 24.01.2022
3509 Clouds -2 1024 95 10000 1.06 344 21:49 24.01.2022
3510 Clouds -2 1024 96 10000 1.08 344 21:27 24.01.2022
3511 Clouds -1 1024 96 10000 1.12 350 20:29 24.01.2022
3512 Clouds 0 1024 96 10000 1.12 350 19:39 24.01.2022
3513 Snow 0 1025 97 10000 0.98 353 19:19 24.01.2022
3514 Clouds 0 1025 95 10000 0.99 0 17:44 24.01.2022
3515 Clouds 0 1025 94 10000 0.76 1 17:23 24.01.2022
3516 Clouds 0 1025 93 10000 0.49 352 16:33 24.01.2022
3517 Clouds 0 1025 93 10000 0.49 352 15:52 24.01.2022
3518 Clouds 0 1025 92 10000 0.34 324 14:28 24.01.2022
3519 Clouds 0 1025 90 10000 0.38 18 12:38 24.01.2022
3520 Clouds 1 1025 88 10000 0.09 345 11:59 24.01.2022
3521 Clouds 0 1025 80 10000 0.38 210 10:25 24.01.2022
3522 Clouds 0 1025 80 10000 0.38 210 09:47 24.01.2022
3523 Clear 0 1025 67 10000 1.52 209 08:24 24.01.2022
3524 Clouds -2 1028 69 10000 0.45 289 02:51 24.01.2022
3525 Clouds -3 1028 80 10000 0.59 296 01:29 24.01.2022
3526 Clouds -3 1028 79 10000 0.58 295 00:34 24.01.2022
3527 Clouds -3 1027 80 10000 0.5 309 23:49 23.01.2022
3528 Clouds -3 1028 79 10000 0.51 273 22:21 23.01.2022
3529 Clouds -3 1028 79 10000 0.51 273 21:44 23.01.2022
3530 Clouds -3 1028 78 10000 0.55 284 21:24 23.01.2022
3531 Clouds -3 1028 78 10000 0.55 284 20:30 23.01.2022
3532 Clouds -3 1029 75 10000 0.52 260 19:21 23.01.2022
3533 Clouds -3 1029 72 10000 0.46 267 18:44 23.01.2022
3534 Clouds -3 1030 70 10000 0.59 257 17:28 23.01.2022
3535 Clouds -2 1030 70 10000 0.59 257 16:45 23.01.2022
3536 Clouds -2 1030 67 10000 0.35 287 14:59 23.01.2022
3537 Clouds -2 1030 67 10000 0.38 287 14:21 23.01.2022
3538 Clouds -3 1030 65 10000 0.24 269 12:51 23.01.2022
3539 Clouds -2 1029 53 10000 0.51 111 12:22 23.01.2022
3540 Clouds -2 1029 53 10000 0.51 111 11:51 23.01.2022
3541 Clouds -1 1029 51 10000 0.45 155 11:18 23.01.2022
3542 Clouds -1 1029 49 10000 0.71 176 10:27 23.01.2022
3543 Clouds 0 1029 49 10000 0.71 176 09:40 23.01.2022
3544 Clouds 0 1029 47 10000 0.74 143 08:51 23.01.2022
3545 Clouds 0 1030 59 10000 0.74 151 05:55 23.01.2022
3546 Clouds -3 1032 77 10000 1.11 23 01:49 23.01.2022
3547 Clouds -5 1031 84 10000 1.02 20 01:25 23.01.2022
3548 Clouds -3 1031 86 10000 1.11 19 00:23 23.01.2022
3549 Clouds -5 1031 86 10000 1.11 19 23:44 22.01.2022
3550 Clouds -5 1030 86 10000 1.28 12 22:40 22.01.2022
3551 Clouds -3 1030 85 10000 0.95 354 21:28 22.01.2022
3552 Clouds -5 1030 85 10000 1.06 359 19:51 22.01.2022
3553 Clouds -5 1031 83 10000 1.09 2 18:49 22.01.2022
3554 Clouds -6 1030 83 10000 1.17 3 17:59 22.01.2022
3555 Clouds -6 1030 83 10000 1.17 3 17:35 22.01.2022
3556 Clouds -6 1031 82 10000 1.08 7 16:56 22.01.2022
3557 Clouds -5 1030 81 10000 0.94 17 15:50 22.01.2022
3558 Clouds -6 1030 80 10000 0.85 32 14:58 22.01.2022
3559 Clouds -6 1030 79 10000 0.94 48 13:42 22.01.2022
3560 Clouds -5 1030 77 10000 0.69 54 12:50 22.01.2022
3561 Clouds -3 1029 76 10000 0.79 60 12:28 22.01.2022
3562 Clouds -2 1028 73 10000 0.81 72 11:31 22.01.2022
3563 Clouds -1 1028 67 10000 0.81 80 10:29 22.01.2022
3564 Clouds -1 1028 67 10000 0.81 80 09:59 22.01.2022
3565 Clouds -1 1027 65 10000 0.85 73 08:52 22.01.2022
3566 Clouds -1 1027 65 10000 0.92 60 07:38 22.01.2022
3567 Clouds -2 1029 71 10000 0.69 51 04:53 22.01.2022
3568 Clouds -5 1029 86 8726 1.25 46 01:35 22.01.2022
3569 Snow -5 1028 91 3314 1.15 67 23:45 21.01.2022
3570 Snow -5 1028 93 248 0.86 78 22:28 21.01.2022
3571 Snow -5 1028 92 196 0.68 126 20:28 21.01.2022
3572 Snow -5 1029 92 179 0.86 117 18:40 21.01.2022
3573 Snow -5 1029 91 185 0.8 125 17:31 21.01.2022
3574 Clouds -5 1029 86 954 0.38 171 15:44 21.01.2022
3575 Snow -5 1029 66 10000 1.05 216 13:51 21.01.2022
3576 Snow -5 1029 66 10000 1.05 216 13:51 21.01.2022
3577 Snow -5 1029 56 10000 1.09 215 12:38 21.01.2022
3578 Clouds -4 1029 48 10000 0.78 207 11:28 21.01.2022
3579 Clouds -3 1029 47 10000 0.9 205 10:19 21.01.2022
3580 Snow -3 1029 46 10000 1.41 197 08:25 21.01.2022
3581 Clouds -3 1030 47 10000 1.56 200 06:57 21.01.2022
3582 Clouds -4 1033 66 10000 0.94 157 23:40 20.01.2022
3583 Clouds -4 1032 65 10000 0.92 156 22:44 20.01.2022
3584 Clouds -4 1033 64 10000 1.13 169 21:47 20.01.2022
3585 Clouds -4 1033 63 10000 1.27 174 20:56 20.01.2022
3586 Clouds -3 1033 60 10000 1.46 172 19:20 20.01.2022
3587 Clouds -3 1034 60 10000 1.33 169 18:51 20.01.2022
3588 Clouds -3 1033 58 10000 1.64 174 17:30 20.01.2022
3589 Clouds -3 1034 54 10000 1.71 167 15:44 20.01.2022
3590 Clouds -3 1034 52 10000 1.57 164 15:24 20.01.2022
3591 Clouds -3 1034 51 10000 1.6 160 13:42 20.01.2022
3592 Clouds -3 1033 50 10000 1.54 150 12:35 20.01.2022
3593 Clouds -3 1033 49 10000 1.66 157 11:57 20.01.2022
3594 Clouds -3 1033 48 10000 1.82 170 10:40 20.01.2022
3595 Clouds -3 1033 47 10000 1.98 183 09:42 20.01.2022
3596 Clouds -3 1032 47 10000 2.3 195 08:34 20.01.2022
3597 Snow -3 1034 49 10000 2.42 202 05:34 20.01.2022
3598 Snow -6 1034 64 10000 1.58 154 23:35 19.01.2022
3599 Snow -6 1034 64 10000 1.65 159 22:32 19.01.2022
3600 Clouds -6 1034 62 10000 1.93 175 21:24 19.01.2022
3601 Clouds -6 1034 62 10000 1.93 175 20:50 19.01.2022
3602 Clouds -5 1035 61 10000 2.11 180 19:54 19.01.2022
3603 Clouds -4 1035 61 10000 2.29 179 18:43 19.01.2022
3604 Clouds -4 1035 58 10000 2.45 185 17:49 19.01.2022
3605 Clouds -3 1035 56 10000 2.63 191 16:57 19.01.2022
3606 Clouds -2 1035 47 10000 2.91 186 14:42 19.01.2022
3607 Clouds -2 1034 35 10000 2.96 151 12:43 19.01.2022
3608 Clouds -2 1034 33 10000 2.68 141 11:42 19.01.2022
3609 Clouds -2 1033 33 10000 2.31 142 10:37 19.01.2022
3610 Clouds -2 1033 33 10000 2.05 153 09:34 19.01.2022
3611 Clouds -2 1032 37 10000 2.17 162 07:18 19.01.2022
3612 Clouds -3 1034 43 10000 2.4 156 05:18 19.01.2022
3613 Clouds -7 1030 72 10000 1.7 122 23:24 18.01.2022
3614 Clouds -8 1030 72 10000 1.7 122 22:44 18.01.2022
3615 Clear -6 1029 64 10000 1.9 126 21:20 18.01.2022
3616 Clear -4 1030 50 10000 1.74 99 19:55 18.01.2022
3617 Clear -4 1030 56 10000 1.72 105 19:55 18.01.2022
3618 Clear -5 1030 50 10000 1.74 99 19:37 18.01.2022
3619 Clear -2 1029 43 10000 1.73 107 18:57 18.01.2022
3620 Clear -8 1029 39 10000 1.35 89 17:58 18.01.2022
3621 Clear -7 1028 38 10000 1.39 56 16:59 18.01.2022
3622 Clear -5 1028 37 10000 1.4 63 15:48 18.01.2022
3623 Clear -6 1027 35 10000 1.48 62 15:22 18.01.2022
3624 Clouds -7 1026 32 10000 1.59 28 13:26 18.01.2022
3625 Clouds -2 1025 32 10000 1.34 27 10:48 18.01.2022
3626 Clouds 3 1024 28 10000 1.11 35 09:29 18.01.2022
3627 Clouds 2 1024 28 10000 0.93 49 07:56 18.01.2022
3628 Clouds 0 1026 31 10000 1.33 41 05:31 18.01.2022
3629 Clear -12 1027 41 10000 0.62 43 23:55 17.01.2022
3630 Clear -10 1027 39 10000 0.29 138 22:29 17.01.2022
3631 Clear -8 1027 39 10000 0.29 138 21:35 17.01.2022
3632 Clear -6 1027 36 10000 0.52 147 20:29 17.01.2022
3633 Clear -6 1029 35 10000 0.44 161 18:31 17.01.2022
3634 Clear -8 1028 35 10000 0.85 186 17:51 17.01.2022
3635 Clear -6 1029 34 10000 1.01 190 16:45 17.01.2022
3636 Clear -6 1030 33 10000 1.05 178 15:24 17.01.2022
3637 Clear -3 1030 33 10000 1.05 178 14:57 17.01.2022
3638 Clear 0 1030 33 10000 1.28 181 13:30 17.01.2022
3639 Clear -1 1030 31 10000 1.51 179 12:57 17.01.2022
3640 Clear 2 1030 29 10000 1.51 180 11:49 17.01.2022
3641 Clear 3 1030 25 10000 1.53 187 10:25 17.01.2022
3642 Clear 5 1030 25 10000 1.53 187 09:35 17.01.2022
3643 Clear 5 1031 20 10000 1.29 194 07:43 17.01.2022
3644 Clear 5 1031 19 10000 0.31 225 07:18 17.01.2022
3645 Clear -3 1033 33 10000 2.34 348 00:57 17.01.2022
3646 Clear -11 1031 34 10000 2.45 343 22:31 16.01.2022
3647 Clear -11 1031 33 10000 2.29 341 20:38 16.01.2022
3648 Clear -9 1030 31 10000 1.04 351 18:53 16.01.2022
3649 Clear -10 1030 31 10000 0.66 337 17:59 16.01.2022
3650 Clear -9 1031 29 10000 0.59 328 17:23 16.01.2022
3651 Clear -11 1031 29 10000 0.59 328 16:45 16.01.2022
3652 Clear -9 1031 28 10000 0.45 320 14:50 16.01.2022
3653 Clear -6 1030 27 10000 0.19 177 14:27 16.01.2022
3654 Clouds -6 1030 27 10000 0.24 41 12:49 16.01.2022
3655 Clouds -2 1030 26 10000 0.17 186 11:43 16.01.2022
3656 Clouds -2 1029 25 10000 0.67 218 10:55 16.01.2022
3657 Clouds -1 1029 24 10000 1.11 227 10:19 16.01.2022
3658 Clouds 0 1029 24 10000 1.11 227 09:51 16.01.2022
3659 Clouds 0 1029 23 10000 1.43 236 09:22 16.01.2022
3660 Clouds 0 1029 23 10000 1.43 236 09:22 16.01.2022
3661 Clouds 1 1029 23 10000 1.43 236 08:37 16.01.2022
3662 Clear -5 1033 28 10000 0.56 231 02:36 16.01.2022
3663 Clear -7 1032 32 10000 0.69 20 23:49 15.01.2022
3664 Clear -9 1031 31 10000 1.55 13 21:46 15.01.2022
3665 Clear -9 1031 30 10000 2.12 13 21:19 15.01.2022
3666 Clear -9 1031 30 10000 2.12 13 20:40 15.01.2022
3667 Clear -6 1032 28 10000 2.93 20 19:29 15.01.2022
3668 Clear -5 1032 29 10000 2.74 16 18:44 15.01.2022
3669 Clear -7 1032 27 10000 3.25 26 17:29 15.01.2022
3670 Clear -4 1032 26 10000 3.35 27 15:50 15.01.2022
3671 Clear -2 1031 24 10000 3.34 21 13:55 15.01.2022
3672 Clear -1 1029 23 10000 3.57 356 11:46 15.01.2022
3673 Clear 0 1029 22 10000 3.84 351 10:36 15.01.2022
3674 Clear 4 1027 19 10000 5.21 338 08:31 15.01.2022
3675 Clear -7 1020 33 10000 3.78 330 00:28 15.01.2022
3676 Clear -8 1019 39 10000 1.87 359 21:52 14.01.2022
3677 Clear -8 1018 40 10000 1.55 357 20:40 14.01.2022
3678 Clear -8 1019 40 10000 1.42 356 20:20 14.01.2022
3679 Clouds -7 1019 39 10000 1.3 8 18:49 14.01.2022
3680 Clouds -7 1019 39 10000 1.34 360 17:57 14.01.2022
3681 Clouds -7 1019 39 10000 1.29 4 16:48 14.01.2022
3682 Clouds -6 1019 38 10000 1.17 17 15:37 14.01.2022
3683 Clouds -5 1019 37 10000 1.07 21 14:42 14.01.2022
3684 Clouds -4 1019 36 10000 1.23 13 13:35 14.01.2022
3685 Clouds -3 1019 35 10000 1.46 356 12:24 14.01.2022
3686 Clouds -1 1019 36 10000 1.46 350 10:50 14.01.2022
3687 Clear 2 1019 34 10000 1.01 271 08:54 14.01.2022
3688 Clear 1 1019 34 10000 0.79 230 08:20 14.01.2022
3689 Clouds 0 1023 33 10000 0.67 63 05:29 14.01.2022
3690 Clouds -12 1024 43 10000 0.56 44 00:59 14.01.2022
3691 Clear -11 1024 41 10000 0.51 37 22:46 13.01.2022
3692 Clear -10 1024 40 10000 0.26 8 21:31 13.01.2022
3693 Clear -10 1025 39 10000 0.1 272 20:56 13.01.2022
3694 Clear -9 1025 37 10000 0.44 209 19:40 13.01.2022
3695 Clear -6 1026 33 10000 0.43 204 19:21 13.01.2022
3696 Clear -8 1026 31 10000 0.56 205 17:48 13.01.2022
3697 Clear -7 1027 28 10000 0.84 193 16:20 13.01.2022
3698 Clear -6 1027 28 10000 0.84 193 15:37 13.01.2022
3699 Clear -3 1027 27 10000 1.02 206 14:40 13.01.2022
3700 Clear -1 1026 24 10000 1.36 211 12:37 13.01.2022
3701 Clear 1 1026 21 10000 1.7 202 10:23 13.01.2022
3702 Clear 4 1027 19 10000 1.87 207 08:58 13.01.2022
3703 Clear 3 1027 19 10000 1.99 213 08:26 13.01.2022
3704 Clear 3 1027 19 10000 1.96 222 07:23 13.01.2022
3705 Clear 2 1029 20 10000 1.94 239 05:59 13.01.2022
3706 Clear 0 1030 21 10000 1.81 250 05:19 13.01.2022
3707 Clear -5 1031 30 10000 1.33 305 01:56 13.01.2022
3708 Clear -5 1031 31 10000 1.65 308 00:49 13.01.2022
3709 Clear -5 1030 31 10000 2.33 318 23:46 12.01.2022
3710 Clear -5 1030 30 10000 3.1 323 23:19 12.01.2022
3711 Clear -5 1030 30 10000 3.71 322 21:57 12.01.2022
3712 Clear -3 1030 29 10000 4.2 318 21:22 12.01.2022
3713 Clear -3 1030 29 10000 4.2 318 20:56 12.01.2022
3714 Clear -3 1030 29 10000 4.2 318 20:56 12.01.2022
3715 Clear -4 1031 27 10000 4.69 318 19:43 12.01.2022
3716 Clear -3 1031 24 10000 4.69 320 18:30 12.01.2022
3717 Clear -3 1030 22 10000 4.54 326 17:20 12.01.2022
3718 Clear -3 1031 22 10000 4.51 331 16:28 12.01.2022
3719 Clear -2 1031 20 10000 5.04 332 14:48 12.01.2022
3720 Clear -1 1030 19 10000 5.43 336 13:19 12.01.2022
3721 Clear 1 1028 23 10000 4.88 331 10:48 12.01.2022
3722 Clouds 2 1027 22 10000 5.24 335 08:38 12.01.2022
3723 Clouds 1 1026 22 10000 5.54 332 07:50 12.01.2022
3724 Clouds 0 1026 22 10000 5.54 332 07:31 12.01.2022
3725 Clouds -7 1025 24 10000 1.53 34 23:53 11.01.2022
3726 Snow -9 1024 24 10000 1.53 42 22:54 11.01.2022
3727 Clouds -8 1025 24 10000 1.43 42 22:22 11.01.2022
3728 Clouds -9 1025 24 10000 1.12 55 20:56 11.01.2022
3729 Clouds -9 1026 24 10000 1.28 77 20:20 11.01.2022
3730 Clouds -10 1027 24 10000 1.09 74 18:32 11.01.2022
3731 Clouds -9 1027 23 10000 1.07 76 17:26 11.01.2022
3732 Clouds -9 1027 23 10000 1.07 76 16:38 11.01.2022
3733 Clouds -9 1028 22 10000 0.94 85 15:47 11.01.2022
3734 Clouds -6 1028 22 10000 0.93 93 14:42 11.01.2022
3735 Clouds -6 1028 21 10000 1.15 96 13:56 11.01.2022
3736 Clouds -4 1028 21 10000 1.15 96 13:36 11.01.2022
3737 Clouds -4 1027 21 10000 1.18 94 12:48 11.01.2022
3738 Clouds -5 1028 21 10000 1.11 100 12:20 11.01.2022
3739 Clouds -1 1027 20 10000 0.9 120 09:58 11.01.2022
3740 Clouds 0 1026 17 10000 0.73 184 07:18 11.01.2022
3741 Clear -10 1030 21 10000 0.5 68 00:34 11.01.2022
3742 Clouds -10 1030 21 10000 0.56 69 23:44 10.01.2022
3743 Clear -10 1029 21 10000 0.49 81 23:24 10.01.2022
3744 Clear -8 1029 21 10000 0.46 74 22:19 10.01.2022
3745 Clear -7 1029 21 10000 0.46 74 21:54 10.01.2022
3746 Clear -7 1030 20 10000 0.98 46 21:21 10.01.2022
3747 Clear -7 1030 20 10000 0.98 46 20:57 10.01.2022
3748 Clear -8 1030 20 10000 1.52 40 20:28 10.01.2022
3749 Clear -7 1030 20 10000 1.52 40 19:44 10.01.2022
3750 Clear -7 1030 20 10000 2.59 34 19:21 10.01.2022
3751 Clear -7 1030 20 10000 2.59 34 18:50 10.01.2022
3752 Clear -6 1030 20 10000 2.59 34 18:31 10.01.2022
3753 Clear -5 1030 18 10000 3.27 37 16:42 10.01.2022
3754 Clear -5 1031 18 10000 3.19 29 15:50 10.01.2022
3755 Clear -3 1031 17 10000 3.21 18 14:34 10.01.2022
3756 Clear -2 1030 18 10000 3.65 8 12:22 10.01.2022
3757 Clear -1 1029 19 10000 4.06 352 11:25 10.01.2022
3758 Clear 0 1028 18 10000 4.34 344 10:21 10.01.2022
3759 Clear 2 1027 19 10000 4.79 332 08:22 10.01.2022
3760 Clear 2 1027 22 10000 4.29 341 05:50 10.01.2022
3761 Clear -4 1028 30 10000 3.44 13 01:33 10.01.2022
3762 Clouds -3 1027 35 10000 3.25 12 00:33 10.01.2022
3763 Clouds -5 1026 38 10000 3.37 7 23:43 09.01.2022
3764 Clouds -5 1026 48 10000 3.18 5 22:42 09.01.2022
3765 Clouds -5 1026 60 10000 2.4 6 21:47 09.01.2022
3766 Clouds -5 1026 71 10000 2 7 21:24 09.01.2022
3767 Clouds -4 1026 71 10000 2 7 20:55 09.01.2022
3768 Clouds -5 1026 71 10000 2 7 20:37 09.01.2022
3769 Clouds -5 1026 74 10000 1.71 9 20:18 09.01.2022
3770 Clouds -5 1026 74 10000 1.71 9 19:37 09.01.2022
3771 Clouds -5 1025 74 10000 1.18 16 19:18 09.01.2022
3772 Clouds -3 1026 72 10000 1.33 17 18:37 09.01.2022
3773 Clouds -2 1025 72 10000 1.35 22 17:48 09.01.2022
3774 Clouds -1 1025 72 10000 1.5 36 17:26 09.01.2022
3775 Clouds -1 1025 72 10000 1.5 36 16:38 09.01.2022
3776 Clouds -2 1026 72 10000 1.33 35 15:38 09.01.2022
3777 Clouds -1 1026 71 10000 1.36 38 14:41 09.01.2022
3778 Clouds -1 1025 70 10000 1.51 35 14:21 09.01.2022
3779 Clouds -1 1025 70 10000 1.51 35 13:41 09.01.2022
3780 Clouds -1 1025 66 10000 1.47 25 11:56 09.01.2022
3781 Clouds -1 1024 64 10000 1.51 17 11:25 09.01.2022
3782 Clouds 1 1024 61 10000 0.95 4 09:55 09.01.2022
3783 Clouds 1 1024 58 10000 0.24 16 08:56 09.01.2022
3784 Clouds -1 1025 63 10000 0.48 156 06:21 09.01.2022
3785 Clouds -1 1027 76 10000 1.29 71 01:28 09.01.2022
3786 Clouds 0 1027 74 10000 1.41 68 00:37 09.01.2022
3787 Clouds 0 1027 74 10000 1.42 67 23:31 08.01.2022
3788 Clouds -1 1026 73 10000 1.45 73 22:48 08.01.2022
3789 Clouds -1 1027 66 10000 1.52 71 21:28 08.01.2022
3790 Clouds -1 1027 66 10000 1.52 71 20:43 08.01.2022
3791 Clouds -1 1027 59 10000 1.58 68 20:22 08.01.2022
3792 Clouds -1 1027 51 10000 1.64 70 19:22 08.01.2022
3793 Clouds 0 1027 44 10000 1.67 60 17:31 08.01.2022
3794 Clouds 1 1027 39 10000 1.48 62 16:42 08.01.2022
3795 Clouds 0 1027 34 10000 1.62 48 15:33 08.01.2022
3796 Clouds -2 1027 33 10000 1.69 37 13:58 08.01.2022
3797 Clouds 2 1026 32 10000 1.53 35 11:41 08.01.2022
3798 Clouds 6 1026 28 10000 2.17 14 10:33 08.01.2022
3799 Clouds 7 1026 28 10000 2.17 14 09:57 08.01.2022
3800 Clouds 8 1026 28 10000 2.17 14 09:34 08.01.2022
3801 Clouds 6 1026 27 10000 3.13 1 06:18 08.01.2022
3802 Clouds -5 1027 50 10000 2.63 354 01:41 08.01.2022
3803 Clear -4 1025 57 10000 1.8 332 23:36 07.01.2022
3804 Clear -7 1025 56 10000 1.43 329 21:49 07.01.2022
3805 Clear -6 1025 54 10000 1.35 322 20:34 07.01.2022
3806 Clear -8 1026 46 10000 0.84 276 19:27 07.01.2022
3807 Clear -8 1026 50 10000 0.91 272 18:49 07.01.2022
3808 Clear -8 1026 45 10000 0.69 274 18:21 07.01.2022
3809 Clear -7 1027 44 10000 0.8 283 17:24 07.01.2022
3810 Clear -6 1027 43 10000 0.65 300 14:56 07.01.2022
3811 Clear -5 1027 43 10000 0.84 296 13:52 07.01.2022
3812 Clear -5 1027 43 10000 0.84 296 13:52 07.01.2022
3813 Clear -4 1027 43 10000 0.93 275 12:51 07.01.2022
3814 Clear -2 1028 40 10000 0.93 280 11:28 07.01.2022
3815 Clouds 1 1030 30 10000 0.57 231 04:56 07.01.2022
3816 Clouds -2 1032 33 10000 0.41 327 02:53 07.01.2022
3817 Clouds -6 1032 36 10000 0.57 348 01:50 07.01.2022
3818 Clouds -7 1032 39 10000 0.66 352 01:26 07.01.2022
3819 Clouds -8 1032 39 10000 0.65 352 00:31 07.01.2022
3820 Clear -7 1032 38 10000 0.8 17 22:34 06.01.2022
3821 Clear -9 1033 37 10000 0.53 0 20:54 06.01.2022
3822 Clear -8 1033 37 10000 0.54 12 20:18 06.01.2022
3823 Clear -8 1033 37 10000 0.54 12 19:39 06.01.2022
3824 Clear -7 1033 34 10000 0.7 9 17:52 06.01.2022
3825 Clear -7 1034 34 10000 0.83 358 17:28 06.01.2022
3826 Clear -6 1034 34 10000 0.83 358 16:38 06.01.2022
3827 Clear -5 1035 33 10000 0.82 1 15:44 06.01.2022
3828 Clear -6 1035 32 10000 0.54 349 15:23 06.01.2022
3829 Clear -5 1035 30 10000 0.51 342 14:20 06.01.2022
3830 Clear -4 1035 30 10000 0.51 342 13:44 06.01.2022
3831 Clear -2 1034 30 10000 0.49 337 12:32 06.01.2022
3832 Clear 2 1034 29 10000 0.45 338 11:41 06.01.2022
3833 Clear 2 1034 28 10000 0.5 320 11:19 06.01.2022
3834 Clear 5 1033 24 10000 0.53 87 06:59 06.01.2022
3835 Clear -7 1035 35 10000 1.65 14 00:39 06.01.2022
3836 Clear -7 1034 36 10000 1.59 15 23:35 05.01.2022
3837 Clear -7 1034 36 10000 1.59 15 23:35 05.01.2022
3838 Clear -7 1034 36 10000 1.37 8 22:50 05.01.2022
3839 Clear -8 1033 36 10000 1.26 355 22:29 05.01.2022
3840 Clear -7 1033 36 10000 1.26 355 21:45 05.01.2022
3841 Clear -7 1033 36 10000 1.21 344 20:45 05.01.2022
3842 Clear -6 1033 36 10000 1.24 341 19:58 05.01.2022
3843 Clear -6 1032 38 10000 1.17 319 18:33 05.01.2022
3844 Clear -5 1031 39 10000 1.42 316 17:23 05.01.2022
3845 Clear -6 1032 40 10000 1.43 323 16:24 05.01.2022
3846 Clear -6 1031 40 10000 1.22 329 15:20 05.01.2022
3847 Clear -5 1031 41 10000 0.93 325 13:38 05.01.2022
3848 Clear -6 1031 41 10000 0.98 319 12:51 05.01.2022
3849 Clear 2 1029 39 10000 0.35 289 08:58 05.01.2022
3850 Clear 2 1029 39 10000 0.68 337 07:34 05.01.2022
3851 Clouds -2 1031 48 10000 1.25 12 03:33 05.01.2022
3852 Clear -9 1030 63 10000 1.24 38 00:33 05.01.2022
3853 Clear -9 1030 64 10000 1.44 19 23:26 04.01.2022
3854 Clear -8 1030 64 10000 1.35 20 22:27 04.01.2022
3855 Clear -8 1030 62 10000 1.16 26 20:50 04.01.2022
3856 Clear -7 1031 57 10000 1.15 37 19:19 04.01.2022
3857 Clear -3 1031 48 10000 1.24 26 17:39 04.01.2022
3858 Clear -5 1031 46 10000 1.23 19 16:41 04.01.2022
3859 Clear -4 1032 43 10000 1.2 35 16:22 04.01.2022
3860 Clear -6 1032 39 10000 1.17 48 14:52 04.01.2022
3861 Clear -6 1032 39 10000 1.17 48 14:34 04.01.2022
3862 Clear -4 1031 34 10000 1.45 12 13:26 04.01.2022
3863 Clear 0 1030 34 10000 1.65 350 10:41 04.01.2022
3864 Clear 3 1030 31 10000 0.89 357 09:20 04.01.2022
3865 Clear 3 1030 30 10000 0.35 34 08:25 04.01.2022
3866 Clear -7 1033 34 10000 1.02 66 01:51 04.01.2022
3867 Clear -9 1032 35 10000 1.2 66 00:40 04.01.2022
3868 Clear -10 1032 32 10000 1.64 54 23:18 03.01.2022
3869 Clear -10 1031 30 10000 1.63 50 21:50 03.01.2022
3870 Clear -10 1032 29 10000 1.44 43 21:24 03.01.2022
3871 Clear -8 1032 28 10000 1.41 39 19:47 03.01.2022
3872 Clear -9 1031 27 10000 1.36 41 18:47 03.01.2022
3873 Clear -9 1031 27 10000 1.52 37 18:24 03.01.2022
3874 Clear -6 1031 27 10000 1.61 32 16:58 03.01.2022
3875 Clear -6 1030 27 10000 1.31 1 14:56 03.01.2022
3876 Clear -3 1030 27 10000 1.31 1 14:30 03.01.2022
3877 Clear -2 1029 26 10000 1.1 358 12:39 03.01.2022
3878 Clear -3 1029 26 10000 1.35 22 11:34 03.01.2022
3879 Clear 2 1027 23 10000 1.69 40 10:26 03.01.2022
3880 Clear 5 1027 19 10000 2.35 25 08:47 03.01.2022
3881 Clear 5 1026 18 10000 2.88 10 07:34 03.01.2022
3882 Clouds -10 1026 35 10000 1.29 1 23:55 02.01.2022
3883 Clouds -10 1026 35 10000 1.29 6 23:20 02.01.2022
3884 Clouds -9 1026 35 10000 1.29 6 22:43 02.01.2022
3885 Clouds -10 1025 34 10000 1.47 10 21:39 02.01.2022
3886 Clouds -10 1025 33 10000 1.46 7 20:33 02.01.2022
3887 Clouds -8 1026 32 10000 1.41 2 19:54 02.01.2022
3888 Clouds -8 1026 31 10000 1.08 355 19:29 02.01.2022
3889 Clouds -7 1026 31 10000 1.13 360 18:44 02.01.2022
3890 Clouds -5 1027 30 10000 0.8 334 17:43 02.01.2022
3891 Clouds -4 1027 30 10000 0.51 306 17:22 02.01.2022
3892 Clouds -6 1027 30 10000 0.51 306 16:59 02.01.2022
3893 Clouds -6 1028 29 10000 0.49 277 16:24 02.01.2022
3894 Clouds -5 1028 28 10000 1.07 214 14:22 02.01.2022
3895 Clouds -2 1028 28 10000 1.43 204 12:49 02.01.2022
3896 Clouds 0 1028 29 10000 1.67 193 11:57 02.01.2022
3897 Clouds 0 1028 28 10000 1.61 188 11:26 02.01.2022
3898 Clouds 0 1028 28 10000 1.6 188 10:45 02.01.2022
3899 Clouds 2 1028 26 10000 2.53 211 08:46 02.01.2022
3900 Clear -2 1034 28 10000 2.34 206 03:49 02.01.2022
3901 Clear -11 1034 34 10000 0.2 192 00:58 02.01.2022
3902 Clear -8 1034 33 10000 0.35 27 23:39 01.01.2022
3903 Clear -8 1034 33 10000 0.35 27 23:39 01.01.2022
3904 Clear -11 1033 33 10000 1.13 22 22:57 01.01.2022
3905 Clear -11 1033 32 10000 1.96 25 22:21 01.01.2022
3906 Clear -8 1033 32 10000 1.96 25 21:43 01.01.2022
3907 Clear -9 1033 31 10000 2.44 33 20:53 01.01.2022
3908 Clear -9 1033 30 10000 2.63 41 19:57 01.01.2022
3909 Clear -5 1033 30 10000 2.72 40 18:58 01.01.2022
3910 Clear -3 1033 29 10000 2.95 30 17:58 01.01.2022
3911 Clear -5 1033 28 10000 3.03 25 16:37 01.01.2022
3912 Clear -5 1034 27 10000 3.19 18 16:19 01.01.2022
3913 Clear -1 1033 27 10000 3.62 8 15:26 01.01.2022
3914 Clear 0 1033 26 10000 4.38 356 13:46 01.01.2022
3915 Clear 0 1033 26 10000 4.38 356 13:46 01.01.2022
3916 Clear 0 1032 26 10000 5.11 347 12:49 01.01.2022
3917 Clear 2 1031 26 10000 5.49 340 11:56 01.01.2022
3918 Clear 3 1030 26 10000 5.95 333 11:22 01.01.2022
3919 Clear 4 1029 25 10000 6.05 324 10:27 01.01.2022
3920 Clear 5 1029 25 10000 6.05 324 09:45 01.01.2022
3921 Clear 8 1026 23 10000 7.2 307 08:25 01.01.2022
3922 Clear 7 1026 23 10000 7.2 307 07:44 01.01.2022
3923 Clouds 4 1025 22 10000 7.26 311 06:47 01.01.2022
3924 Clouds 2 1026 22 10000 3.7 315 05:26 01.01.2022
3925 Clouds 0 1026 22 10000 3.7 315 04:37 01.01.2022
3926 Clouds -8 1026 36 10000 1.08 18 01:28 01.01.2022
3927 Clear -10 1026 36 10000 1.34 22 23:36 31.12.2021
3928 Clear -8 1026 35 10000 1.24 30 21:53 31.12.2021
3929 Clear -9 1027 34 10000 1.16 35 20:37 31.12.2021
3930 Clear -9 1027 33 10000 1.16 24 19:30 31.12.2021
3931 Clear -8 1028 34 10000 1.19 27 18:35 31.12.2021
3932 Clear -7 1028 33 10000 1.28 33 17:40 31.12.2021
3933 Clouds -7 1029 32 10000 1.06 42 17:18 31.12.2021
3934 Clouds -7 1030 31 10000 1.22 51 16:25 31.12.2021
3935 Clouds -7 1030 31 10000 1.22 51 15:57 31.12.2021
3936 Clouds -7 1030 30 10000 1.42 37 15:28 31.12.2021
3937 Clouds -6 1030 30 10000 1.42 37 14:56 31.12.2021
3938 Clear -6 1030 30 10000 1.28 35 14:30 31.12.2021
3939 Clear -5 1030 30 10000 1.28 35 13:36 31.12.2021
3940 Clouds -4 1030 29 10000 1.19 24 12:45 31.12.2021
3941 Clouds -4 1030 27 10000 0.73 18 11:47 31.12.2021
3942 Clouds -2 1030 27 10000 0.85 5 11:29 31.12.2021
3943 Clouds 0 1030 27 10000 0.85 5 10:35 31.12.2021
3944 Clouds 3 1030 26 10000 0.7 356 09:55 31.12.2021
3945 Clouds 4 1030 26 10000 0.7 356 09:32 31.12.2021
3946 Clouds 3 1030 25 10000 0.13 295 08:39 31.12.2021
3947 Clouds 3 1030 24 10000 0.59 212 07:31 31.12.2021
3948 Clear -10 1034 31 10000 0.72 72 23:32 30.12.2021
3949 Clear -10 1034 30 10000 0.69 73 22:33 30.12.2021
3950 Clear -10 1033 30 10000 0.38 122 21:56 30.12.2021
3951 Clear -9 1033 30 10000 0.38 122 21:37 30.12.2021
3952 Clear -9 1034 29 10000 0.67 181 20:47 30.12.2021
3953 Clear -9 1034 29 10000 0.56 180 20:27 30.12.2021
3954 Clear -9 1034 29 10000 0.56 180 19:47 30.12.2021
3955 Clear -8 1034 27 10000 0.53 159 18:48 30.12.2021
3956 Clear -9 1034 27 10000 0.54 135 18:19 30.12.2021
3957 Clear -7 1034 27 10000 1.15 47 16:20 30.12.2021
3958 Clear -6 1034 27 10000 1.15 47 15:52 30.12.2021
3959 Clear -5 1034 26 10000 1.58 38 14:40 30.12.2021
3960 Clear -3 1033 26 10000 1.82 47 13:55 30.12.2021
3961 Clear -3 1033 26 10000 1.82 47 13:55 30.12.2021
3962 Clear 0 1033 25 10000 1.72 5 12:44 30.12.2021
3963 Clear 2 1032 22 10000 2.72 344 10:59 30.12.2021
3964 Clear 5 1032 21 10000 2.78 326 09:59 30.12.2021
3965 Clear 5 1032 21 10000 2.78 326 09:59 30.12.2021
3966 Clear 5 1031 19 10000 3.93 328 09:21 30.12.2021
3967 Clear 5 1030 17 10000 5.39 318 06:54 30.12.2021
3968 Clear 4 1032 19 10000 4.88 315 04:20 30.12.2021
3969 Clear 4 1032 19 10000 4.88 315 03:38 30.12.2021
3970 Clear -6 1029 25 10000 3.71 298 23:57 29.12.2021
3971 Clear -5 1028 24 10000 4.01 312 23:23 29.12.2021
3972 Clear -5 1028 24 10000 3.74 324 22:22 29.12.2021
3973 Clear -7 1028 24 10000 3.74 324 21:45 29.12.2021
3974 Clear -8 1028 24 10000 3.97 321 20:39 29.12.2021
3975 Clear -7 1029 24 10000 4.42 310 19:50 29.12.2021
3976 Clear -8 1029 24 10000 4.49 302 18:57 29.12.2021
3977 Clear -7 1028 25 10000 4.12 298 18:19 29.12.2021
3978 Clear -6 1029 25 10000 3.53 292 17:28 29.12.2021
3979 Clear -4 1029 25 10000 3.53 292 16:49 29.12.2021
3980 Clear -3 1029 24 10000 2.8 286 16:19 29.12.2021
3981 Clear -4 1029 24 10000 1.89 249 14:40 29.12.2021
3982 Clear 0 1029 22 10000 1.93 261 12:48 29.12.2021
3983 Clear 3 1029 23 10000 2.05 248 12:20 29.12.2021
3984 Clear 3 1028 21 10000 2.76 279 10:36 29.12.2021
3985 Clear 4 1028 19 10000 5.21 317 08:24 29.12.2021
3986 Clear 4 1029 20 10000 5.24 320 06:45 29.12.2021
3987 Clear 5 1029 20 10000 5.42 325 06:24 29.12.2021
3988 Clear 4 1029 20 10000 5.42 325 05:43 29.12.2021
3989 Clear 0 1030 21 10000 5.16 333 03:20 29.12.2021
3990 Clear -1 1027 21 10000 5.28 328 00:25 29.12.2021
3991 Clear -1 1027 21 10000 5.28 328 23:49 28.12.2021
3992 Clear -1 1026 20 10000 4.96 329 22:50 28.12.2021
3993 Clear -1 1025 18 10000 4.85 335 22:24 28.12.2021
3994 Clear 0 1025 18 10000 4.85 335 21:53 28.12.2021
3995 Clear 0 1025 17 10000 5.13 331 20:49 28.12.2021
3996 Clear 0 1025 16 10000 6.18 323 19:44 28.12.2021
3997 Clear 0 1024 17 10000 7.26 321 18:50 28.12.2021
3998 Clear 1 1024 18 10000 7.13 323 18:23 28.12.2021
3999 Clear -5 1024 16 10000 6.21 320 16:35 28.12.2021
4000 Clear -6 1024 17 10000 5.24 315 15:52 28.12.2021
4001 Clear -5 1023 20 10000 3.69 309 15:27 28.12.2021
4002 Clear -2 1023 20 10000 3.69 309 14:53 28.12.2021
4003 Clear -2 1023 23 10000 2.06 304 14:21 28.12.2021
4004 Clear -2 1023 23 10000 2.06 304 13:54 28.12.2021
4005 Clear -2 1023 23 10000 2.06 304 13:33 28.12.2021
4006 Clear 1 1023 24 10000 1.63 288 12:55 28.12.2021
4007 Clear 3 1023 24 10000 1.55 273 12:18 28.12.2021
4008 Clear 6 1022 21 10000 1.52 239 09:30 28.12.2021
4009 Clear 6 1022 17 10000 1.05 212 07:33 28.12.2021
4010 Clear -3 1027 21 10000 0.62 358 03:28 28.12.2021
4011 Clear -12 1027 27 10000 0.55 356 23:37 27.12.2021
4012 Clear -11 1028 26 10000 0.28 339 22:20 27.12.2021
4013 Clear -11 1028 26 10000 0.28 339 21:30 27.12.2021
4014 Clear -10 1029 25 10000 0.63 350 20:27 27.12.2021
4015 Clear -10 1029 25 10000 0.63 350 19:47 27.12.2021
4016 Clear -10 1029 25 10000 0.58 338 18:57 27.12.2021
4017 Clear -10 1029 24 10000 0.52 317 17:51 27.12.2021
4018 Clear -9 1030 23 10000 0.56 306 17:28 27.12.2021
4019 Clear -8 1030 22 10000 0.64 311 15:54 27.12.2021
4020 Clear -7 1031 21 10000 0.74 308 14:56 27.12.2021
4021 Clear -6 1031 20 10000 0.77 305 14:21 27.12.2021
4022 Clear -3 1031 19 10000 0.82 275 12:49 27.12.2021
4023 Clear 2 1031 18 10000 1.08 260 10:37 27.12.2021
4024 Clear 2 1031 17 10000 0.97 246 10:18 27.12.2021
4025 Clear 7 1031 15 10000 0.73 226 08:43 27.12.2021
4026 Clear 6 1031 14 10000 0.33 277 07:34 27.12.2021
4027 Clear 4 1031 13 10000 1.8 326 06:27 27.12.2021
4028 Clear -10 1034 19 10000 1.63 336 01:51 27.12.2021
4029 Clear -14 1033 21 10000 1.43 336 23:49 26.12.2021
4030 Clear -13 1033 20 10000 1.36 329 23:19 26.12.2021
4031 Clear -13 1033 20 10000 1.45 325 21:33 26.12.2021
4032 Clear -12 1035 20 10000 1.21 319 19:55 26.12.2021
4033 Clear -12 1035 20 10000 1.09 318 18:45 26.12.2021
4034 Clear -12 1036 20 10000 1.05 274 18:21 26.12.2021
4035 Clear -5 1037 20 10000 1.25 245 15:38 26.12.2021
4036 Clear -5 1037 17 10000 1.68 235 13:49 26.12.2021
4037 Clear -5 1037 17 10000 1.68 235 13:31 26.12.2021
4038 Clear -5 1038 16 10000 1.81 230 12:36 26.12.2021
4039 Clear -2 1037 13 10000 1.85 220 11:20 26.12.2021
4040 Clear -1 1037 12 10000 1.56 221 09:31 26.12.2021
4041 Clear 0 1038 11 10000 1.58 242 08:45 26.12.2021
4042 Clear 0 1038 11 10000 1.82 272 08:27 26.12.2021
4043 Clear -8 1042 14 10000 2.86 307 02:19 26.12.2021
4044 Clear -10 1042 15 10000 2.95 308 00:40 26.12.2021
4045 Clear -10 1042 16 10000 3.21 311 23:48 25.12.2021
4046 Clear -10 1042 16 10000 3.33 314 22:39 25.12.2021
4047 Clear -10 1043 16 10000 3.48 316 22:20 25.12.2021
4048 Clear -10 1044 16 10000 4.16 320 20:27 25.12.2021
4049 Clear -10 1045 15 10000 4.11 326 19:19 25.12.2021
4050 Clear -10 1045 16 10000 3.81 326 18:39 25.12.2021
4051 Clear -8 1045 16 10000 3.63 325 16:50 25.12.2021
4052 Clear -8 1045 15 10000 3.58 322 15:38 25.12.2021
4053 Clear -7 1046 15 10000 3.92 323 14:23 25.12.2021
4054 Clear -7 1045 15 10000 4.09 323 12:40 25.12.2021
4055 Clear -6 1045 13 10000 4.03 325 10:49 25.12.2021
4056 Clear -6 1045 12 10000 3.94 325 09:49 25.12.2021
4057 Clear -6 1045 12 10000 4.59 332 07:28 25.12.2021
4058 Clear -11 1046 21 10000 4.59 340 01:45 25.12.2021
4059 Clear -11 1045 20 10000 4.48 339 00:23 25.12.2021
4060 Clear -10 1045 18 10000 4.7 343 22:26 24.12.2021
4061 Clear -10 1044 16 10000 4.47 348 19:29 24.12.2021
4062 Clear -10 1044 16 10000 4.47 348 18:57 24.12.2021
4063 Clear -10 1044 17 10000 3.74 8 16:49 24.12.2021
4064 Clear -10 1044 17 10000 3.63 18 15:53 24.12.2021
4065 Clear -10 1044 17 10000 3.63 18 15:34 24.12.2021
4066 Clear -8 1044 16 10000 3.75 25 14:36 24.12.2021
4067 Clear -8 1043 15 10000 3.9 29 14:18 24.12.2021
4068 Clear -7 1043 15 10000 3.9 29 13:33 24.12.2021
4069 Clear -7 1042 14 10000 4.09 29 12:47 24.12.2021
4070 Clear -7 1042 13 10000 4.23 31 11:47 24.12.2021
4071 Clear -7 1041 12 10000 4.1 30 11:24 24.12.2021
4072 Clear -6 1041 12 10000 4.1 30 10:45 24.12.2021
4073 Clear -5 1039 12 10000 3.94 13 09:25 24.12.2021
4074 Clear -5 1039 12 10000 4.37 6 08:23 24.12.2021
4075 Clear -5 1039 12 10000 4.37 6 07:46 24.12.2021
4076 Clear -8 1040 22 10000 4.61 53 01:30 24.12.2021
4077 Clouds -8 1038 24 10000 4.55 60 23:55 23.12.2021
4078 Clouds -7 1037 26 10000 4.62 63 22:54 23.12.2021
4079 Clouds -6 1036 24 10000 4.62 61 22:27 23.12.2021
4080 Clouds -6 1036 24 10000 4.62 61 21:59 23.12.2021
4081 Clouds -5 1036 23 10000 4.34 61 20:56 23.12.2021
4082 Clouds -5 1035 28 10000 3.72 69 19:39 23.12.2021
4083 Clouds -2 1035 36 10000 3.14 90 18:34 23.12.2021
4084 Clouds -2 1035 38 10000 3.54 94 17:55 23.12.2021
4085 Clouds -2 1034 36 10000 3.92 90 16:43 23.12.2021
4086 Clouds -3 1034 44 10000 3.32 72 16:23 23.12.2021
4087 Snow -3 1034 44 10000 3.32 72 15:31 23.12.2021
4088 Clouds -3 1033 55 10000 1.85 61 14:49 23.12.2021
4089 Clouds -4 1033 55 10000 1.85 61 14:30 23.12.2021
4090 Clouds -3 1030 54 10000 1.27 78 12:53 23.12.2021
4091 Clouds -2 1028 55 10000 1.52 72 10:44 23.12.2021
4092 Clouds -1 1028 56 10000 1.47 67 09:35 23.12.2021
4093 Clouds -2 1027 56 10000 1.36 72 08:59 23.12.2021
4094 Clouds -2 1027 57 10000 1.07 94 06:51 23.12.2021
4095 Clouds -2 1028 59 10000 1.3 83 04:30 23.12.2021
4096 Clouds -3 1027 75 10000 1.67 108 22:57 22.12.2021
4097 Clouds -3 1027 75 10000 1.67 108 22:39 22.12.2021
4098 Clouds -3 1027 77 10000 1.74 117 21:54 22.12.2021
4099 Clouds -3 1027 77 10000 1.81 122 21:29 22.12.2021
4100 Clouds -3 1027 77 10000 1.81 122 20:44 22.12.2021
4101 Clouds -3 1027 75 10000 1.89 121 20:25 22.12.2021
4102 Clouds -3 1027 71 10000 1.92 118 19:21 22.12.2021
4103 Clouds -2 1027 66 10000 1.79 123 17:42 22.12.2021
4104 Clouds -1 1027 62 10000 1.55 125 16:38 22.12.2021
4105 Clouds 0 1027 58 10000 1.43 130 15:39 22.12.2021
4106 Clear 0 1027 54 10000 1.26 157 13:32 22.12.2021
4107 Clear -1 1027 56 10000 1.57 160 12:39 22.12.2021
4108 Clear 4 1025 50 10000 1.01 149 10:18 22.12.2021
4109 Clear 5 1025 50 10000 1.01 149 09:38 22.12.2021
4110 Clear 5 1025 47 10000 1.11 175 07:25 22.12.2021
4111 Clear 5 1026 48 10000 0.72 146 05:43 22.12.2021
4112 Clear 4 1027 50 10000 0.68 120 05:24 22.12.2021
4113 Clear 3 1027 50 10000 0.68 120 04:49 22.12.2021
4114 Clouds 3 1028 52 10000 1.06 97 04:26 22.12.2021
4115 Clouds 3 1028 52 10000 1.06 97 03:32 22.12.2021
4116 Clouds 0 1026 60 10000 1.3 96 00:47 22.12.2021
4117 Clouds 0 1025 58 10000 1.5 102 22:52 21.12.2021
4118 Clouds 0 1025 59 10000 1.75 92 22:28 21.12.2021
4119 Clouds 0 1025 59 10000 1.75 92 21:44 21.12.2021
4120 Clouds 0 1025 60 10000 1.91 79 20:55 21.12.2021
4121 Clouds 0 1025 61 10000 1.93 86 20:21 21.12.2021
4122 Clouds 0 1025 61 10000 1.93 86 19:42 21.12.2021
4123 Clouds 0 1026 61 10000 2.12 101 18:46 21.12.2021
4124 Clouds 0 1026 61 10000 2.17 101 18:21 21.12.2021
4125 Clouds 0 1026 61 10000 2.17 101 17:41 21.12.2021
4126 Clouds 2 1025 62 10000 2.83 112 15:59 21.12.2021
4127 Clouds 2 1025 63 10000 2.89 108 15:24 21.12.2021
4128 Clouds 3 1024 66 10000 2.61 118 13:50 21.12.2021
4129 Clouds 4 1024 66 10000 2.61 118 13:30 21.12.2021
4130 Clouds 4 1023 58 10000 2.43 131 11:49 21.12.2021
4131 Clouds 5 1022 51 10000 0.88 86 10:24 21.12.2021
4132 Clear 7 1021 47 10000 0.63 119 09:23 21.12.2021
4133 Clear 7 1021 45 10000 1.49 161 07:58 21.12.2021
4134 Clear 7 1021 44 10000 1.69 154 07:27 21.12.2021
4135 Clear 5 1022 43 10000 1.86 150 05:31 21.12.2021
4136 Clear 0 1024 38 10000 1.87 79 02:51 21.12.2021
4137 Clear -4 1021 44 10000 1.8 24 23:59 20.12.2021
4138 Clear -2 1020 43 10000 1.81 11 23:29 20.12.2021
4139 Clear -2 1019 42 10000 1.69 5 22:28 20.12.2021
4140 Clear -2 1019 42 10000 1.69 5 21:47 20.12.2021
4141 Clear -1 1019 41 10000 1.66 358 21:23 20.12.2021
4142 Clear 2 1019 41 10000 1.66 358 20:44 20.12.2021
4143 Clear -2 1019 40 10000 1.7 359 19:53 20.12.2021
4144 Clear -3 1019 40 10000 1.7 359 19:31 20.12.2021
4145 Clear -2 1018 38 10000 1.48 1 18:54 20.12.2021
4146 Clear -2 1018 37 10000 1.41 350 17:52 20.12.2021
4147 Clear -3 1018 36 10000 1.43 343 17:25 20.12.2021
4148 Clear -3 1018 36 10000 1.43 343 17:25 20.12.2021
4149 Clear -1 1018 36 10000 1.43 343 16:40 20.12.2021
4150 Clear 3 1018 35 10000 1.3 349 15:50 20.12.2021
4151 Clear 4 1017 34 10000 1.55 1 14:43 20.12.2021
4152 Clear 8 1016 33 10000 1.12 331 12:53 20.12.2021
4153 Clear 7 1015 29 10000 1.1 298 11:19 20.12.2021
4154 Clear 10 1014 28 10000 0.89 262 09:47 20.12.2021
4155 Clear 13 1014 24 10000 0.75 284 09:28 20.12.2021
4156 Clear 14 1014 24 10000 0.75 284 08:41 20.12.2021
4157 Clear 14 1013 22 10000 1.08 316 07:49 20.12.2021
4158 Clear 13 1013 21 10000 1.63 315 07:29 20.12.2021
4159 Clear 8 1016 25 10000 3.21 313 03:59 20.12.2021
4160 Clear -5 1014 38 10000 1.31 331 23:58 19.12.2021
4161 Clear -7 1014 38 10000 1.3 356 22:45 19.12.2021
4162 Clear -7 1015 38 10000 1.28 6 21:50 19.12.2021
4163 Clear -6 1015 38 10000 1.03 357 21:29 19.12.2021
4164 Clear -7 1015 38 10000 0.65 334 20:31 19.12.2021
4165 Clear -6 1015 38 10000 0.65 334 19:49 19.12.2021
4166 Clouds -6 1016 35 10000 0.79 271 18:59 19.12.2021
4167 Clouds -6 1016 35 10000 0.44 299 18:29 19.12.2021
4168 Clouds -5 1016 35 10000 0.44 299 17:51 19.12.2021
4169 Clouds -4 1017 34 10000 0.72 299 17:18 19.12.2021
4170 Clouds -3 1017 33 10000 0.86 290 16:26 19.12.2021
4171 Clouds -4 1017 33 10000 0.7 265 15:31 19.12.2021
4172 Clear -2 1017 32 10000 1.34 253 14:59 19.12.2021
4173 Clear -2 1017 32 10000 1.34 253 14:36 19.12.2021
4174 Clear 1 1018 29 10000 1.65 227 13:22 19.12.2021
4175 Clear 4 1018 29 10000 1.65 227 12:34 19.12.2021
4176 Clear 0 1018 28 10000 1.51 220 11:44 19.12.2021
4177 Clear 0 1018 28 10000 0.85 200 11:18 19.12.2021
4178 Clear 4 1018 27 10000 0.89 197 10:25 19.12.2021
4179 Clear 8 1018 27 10000 0.89 197 09:37 19.12.2021
4180 Clear 9 1018 24 10000 0.65 175 07:50 19.12.2021
4181 Clear 2 1021 27 10000 0.41 238 04:45 19.12.2021
4182 Clear -9 1022 31 10000 0.56 295 01:19 19.12.2021
4183 Clear -9 1022 31 10000 0.56 295 00:52 19.12.2021
4184 Clear -10 1021 30 10000 0.82 235 22:36 18.12.2021
4185 Clear -9 1021 30 10000 0.8 247 21:57 18.12.2021
4186 Clear -8 1021 30 10000 0.8 247 21:35 18.12.2021
4187 Clear -8 1022 30 10000 0.87 246 20:44 18.12.2021
4188 Clear -8 1023 30 10000 1.28 229 19:59 18.12.2021
4189 Clear -8 1023 29 10000 1.69 215 19:20 18.12.2021
4190 Clear -7 1024 29 10000 2.35 211 18:21 18.12.2021
4191 Clear -8 1024 29 10000 2.35 211 17:48 18.12.2021
4192 Clear -7 1025 28 10000 2.19 216 16:26 18.12.2021
4193 Clear -6 1025 27 10000 2 226 15:26 18.12.2021
4194 Clear -5 1025 27 10000 2 226 14:38 18.12.2021
4195 Clear -3 1025 24 10000 1.25 262 13:21 18.12.2021
4196 Clear 3 1025 21 10000 1.88 291 11:22 18.12.2021
4197 Clear 5 1024 19 10000 3.24 311 09:40 18.12.2021
4198 Clear 5 1024 17 10000 4.47 316 08:47 18.12.2021
4199 Clear 5 1024 16 10000 5.73 314 08:19 18.12.2021
4200 Clear -4 1026 19 10000 3.88 287 02:51 18.12.2021
4201 Clear -11 1026 20 10000 1.36 211 00:28 18.12.2021
4202 Clear -11 1026 20 10000 1.36 211 23:44 17.12.2021
4203 Clear -11 1026 21 10000 1.69 202 21:56 17.12.2021
4204 Clear -10 1027 21 10000 1.8 203 21:18 17.12.2021
4205 Clear -10 1027 21 10000 1.8 203 20:38 17.12.2021
4206 Clear -10 1029 20 10000 2 203 19:19 17.12.2021
4207 Clouds -9 1029 19 10000 1.61 201 18:38 17.12.2021
4208 Clear -9 1030 18 10000 1.8 202 17:31 17.12.2021
4209 Clouds -8 1031 17 10000 2.07 196 16:46 17.12.2021
4210 Clouds -3 1031 15 10000 2.05 193 16:22 17.12.2021
4211 Clear -3 1032 14 10000 2.14 199 15:21 17.12.2021
4212 Clear -3 1032 14 10000 2.14 199 15:21 17.12.2021
4213 Clear -3 1032 14 10000 2.14 199 14:39 17.12.2021
4214 Clear -3 1034 13 10000 1.62 203 12:46 17.12.2021
4215 Clear -4 1034 13 10000 1.68 201 11:34 17.12.2021
4216 Clear -2 1034 13 10000 1.71 195 10:37 17.12.2021
4217 Clear -1 1034 12 10000 1.79 201 09:31 17.12.2021
4218 Clear -1 1035 11 10000 1.6 255 08:30 17.12.2021
4219 Clear -3 1036 11 10000 4.01 300 05:58 17.12.2021
4220 Clear -6 1038 14 10000 4.88 313 02:53 17.12.2021
4221 Clear -7 1037 16 10000 6.18 332 23:23 16.12.2021
4222 Clear -7 1036 15 10000 6.75 331 22:24 16.12.2021
4223 Clear -7 1036 15 10000 6.75 331 22:24 16.12.2021
4224 Clear -6 1036 15 10000 6.75 331 21:50 16.12.2021
4225 Clear -5 1036 16 10000 6.52 330 21:25 16.12.2021
4226 Clear -5 1035 19 10000 6.61 322 20:28 16.12.2021
4227 Clear -5 1035 19 10000 6.62 322 19:42 16.12.2021
4228 Clear -5 1035 22 10000 7.05 316 18:38 16.12.2021
4229 Clear -4 1033 22 10000 4.82 318 17:55 16.12.2021
4230 Clear -3 1033 23 10000 3.91 325 17:28 16.12.2021
4231 Clear -3 1033 23 10000 3.75 337 16:21 16.12.2021
4232 Clear -2 1033 23 10000 3.89 351 14:50 16.12.2021
4233 Clear -1 1032 23 10000 4.51 4 12:57 16.12.2021
4234 Clear 0 1030 21 10000 4.56 9 11:20 16.12.2021
4235 Clear 0 1030 21 10000 4.56 9 10:58 16.12.2021
4236 Clear 2 1030 20 10000 5.05 354 10:20 16.12.2021
4237 Clear 4 1028 19 10000 5.9 318 07:31 16.12.2021
4238 Clear 4 1028 19 10000 6.32 318 06:19 16.12.2021
4239 Clouds 4 1025 27 10000 5.19 325 00:54 16.12.2021
4240 Clouds 4 1023 24 10000 6.16 318 23:25 15.12.2021
4241 Clouds 4 1023 24 10000 6.16 318 22:41 15.12.2021
4242 Clouds 4 1022 26 10000 6.07 315 21:55 15.12.2021
4243 Clear -2 1022 30 10000 4.57 324 21:26 15.12.2021
4244 Clouds -2 1022 40 10000 2 349 20:18 15.12.2021
4245 Clouds -3 1022 40 10000 2 349 19:45 15.12.2021
4246 Clouds -5 1021 40 10000 1.87 14 18:37 15.12.2021
4247 Clouds -6 1021 39 10000 1.65 11 17:53 15.12.2021
4248 Clouds -5 1021 39 10000 1.65 11 17:34 15.12.2021
4249 Clouds -6 1021 38 10000 0.69 327 16:28 15.12.2021
4250 Clouds -6 1021 38 10000 0.69 327 15:46 15.12.2021
4251 Clouds -4 1021 38 10000 0.35 246 15:27 15.12.2021
4252 Clouds -5 1021 37 10000 0.7 231 14:18 15.12.2021
4253 Clouds -4 1020 36 10000 0.76 195 12:37 15.12.2021
4254 Clouds -1 1020 30 10000 1.6 181 10:27 15.12.2021
4255 Clouds 3 1019 28 10000 1.14 163 08:55 15.12.2021
4256 Clouds 3 1020 26 10000 1.35 154 06:54 15.12.2021
4257 Clear -6 1021 36 10000 1.18 15 01:20 15.12.2021
4258 Clear -7 1021 36 10000 1.13 23 23:42 14.12.2021
4259 Clear -7 1020 36 10000 0.99 16 22:49 14.12.2021
4260 Clear -7 1020 36 10000 1.13 12 22:19 14.12.2021
4261 Clear -6 1020 35 10000 1.11 16 20:28 14.12.2021
4262 Clear -4 1020 35 10000 1.11 16 19:40 14.12.2021
4263 Clear -3 1020 35 10000 1.34 15 18:53 14.12.2021
4264 Clear -5 1020 34 10000 1.29 14 18:22 14.12.2021
4265 Clear -5 1020 33 10000 1.08 2 17:28 14.12.2021
4266 Clear -4 1020 33 10000 1.08 2 16:38 14.12.2021
4267 Clear -4 1020 31 10000 0.92 331 15:35 14.12.2021
4268 Clear -2 1019 29 10000 1.16 283 13:31 14.12.2021
4269 Clear 0 1018 26 10000 1.72 234 11:59 14.12.2021
4270 Clear 5 1017 25 10000 1.85 226 11:24 14.12.2021
4271 Clear 7 1016 24 10000 1.66 215 09:57 14.12.2021
4272 Clear 7 1016 24 10000 1.66 215 09:35 14.12.2021
4273 Clear 8 1015 20 10000 1.2 249 08:25 14.12.2021
4274 Clear 7 1015 20 10000 1.2 249 07:43 14.12.2021
4275 Clear -2 1018 26 10000 0.98 26 02:27 14.12.2021
4276 Clear -7 1018 30 10000 1.04 34 22:56 13.12.2021
4277 Clear -8 1018 30 10000 1.16 32 21:53 13.12.2021
4278 Clear -8 1018 30 10000 1.03 38 21:18 13.12.2021
4279 Clear -8 1018 30 10000 1.03 38 20:42 13.12.2021
4280 Clear -7 1019 31 10000 1.09 31 19:52 13.12.2021
4281 Clear -6 1020 29 10000 0.86 14 18:24 13.12.2021
4282 Clear -7 1021 30 10000 0.66 355 17:26 13.12.2021
4283 Clear -6 1021 30 10000 0.25 320 15:51 13.12.2021
4284 Clear -5 1022 30 10000 0.25 271 15:25 13.12.2021
4285 Clear -3 1022 30 10000 0.45 258 13:39 13.12.2021
4286 Clear 2 1022 32 10000 0.89 224 12:46 13.12.2021
4287 Clear 2 1022 30 10000 1.2 213 11:56 13.12.2021
4288 Clear 2 1022 30 10000 1.2 213 11:35 13.12.2021
4289 Clear 0 1023 27 10000 1.4 205 10:44 13.12.2021
4290 Clear 3 1023 24 10000 1.52 208 09:32 13.12.2021
4291 Clear 4 1024 19 10000 1.94 211 07:48 13.12.2021
4292 Clear 2 1026 17 10000 1.31 215 05:35 13.12.2021
4293 Clear -1 1029 23 10000 0.1 266 03:28 13.12.2021
4294 Clear -9 1031 29 10000 0.28 311 23:22 12.12.2021
4295 Clear -7 1031 29 10000 0.38 290 21:40 12.12.2021
4296 Clear -8 1032 28 10000 0.5 249 19:57 12.12.2021
4297 Clear -7 1033 27 10000 0.46 255 18:36 12.12.2021
4298 Clear -6 1034 26 10000 0.66 254 17:38 12.12.2021
4299 Clear -3 1034 24 10000 1.29 245 16:28 12.12.2021
4300 Clear -1 1034 24 10000 1.29 245 15:46 12.12.2021
4301 Clear 0 1035 23 10000 1.54 238 15:25 12.12.2021
4302 Clear 0 1035 23 10000 1.54 238 14:36 12.12.2021
4303 Clear 2 1035 18 10000 1.66 253 13:26 12.12.2021
4304 Clear 2 1035 18 10000 1.66 253 12:30 12.12.2021
4305 Clear 2 1035 17 10000 2.03 280 11:44 12.12.2021
4306 Clear 2 1035 16 10000 2.64 290 11:22 12.12.2021
4307 Clear 2 1035 15 10000 3.29 295 10:28 12.12.2021
4308 Clear 3 1035 15 10000 3.29 295 09:38 12.12.2021
4309 Clear 3 1036 13 10000 3.68 305 08:33 12.12.2021
4310 Clear 2 1037 14 10000 5.22 327 06:19 12.12.2021
4311 Clear 2 1039 16 10000 5.57 329 04:56 12.12.2021
4312 Clear 0 1040 17 10000 5.61 331 03:57 12.12.2021
4313 Clear -1 1039 22 10000 4.72 343 23:47 11.12.2021
4314 Clear -1 1038 21 10000 5.53 341 22:23 11.12.2021
4315 Clear -1 1038 21 10000 5.53 341 21:52 11.12.2021
4316 Clear 0 1038 20 10000 5.72 338 20:52 11.12.2021
4317 Clear 1 1037 20 10000 5.68 337 19:30 11.12.2021
4318 Clouds 2 1037 22 10000 5.67 334 18:52 11.12.2021
4319 Clouds 2 1036 24 10000 5.36 331 18:25 11.12.2021
4320 Clouds 3 1036 23 10000 5.29 334 17:24 11.12.2021
4321 Clouds 2 1036 23 10000 5.5 335 15:55 11.12.2021
4322 Clouds 2 1036 23 10000 5.5 335 15:30 11.12.2021
4323 Clouds 5 1033 24 10000 5.44 336 12:59 11.12.2021
4324 Clouds 7 1031 21 10000 6.32 326 11:26 11.12.2021
4325 Clouds 9 1030 20 10000 6.62 319 09:47 11.12.2021
4326 Clouds 10 1029 20 10000 6.53 313 09:18 11.12.2021
4327 Clouds 2 1031 38 10000 1.21 342 02:40 11.12.2021
4328 Clouds -2 1030 47 10000 1.4 351 00:40 11.12.2021
4329 Clouds -2 1029 48 10000 0.62 357 23:24 10.12.2021
4330 Clouds -2 1029 48 10000 1.05 359 21:57 10.12.2021
4331 Clouds -2 1029 48 10000 1.05 359 21:37 10.12.2021
4332 Clouds -1 1030 43 10000 0.38 17 19:22 10.12.2021
4333 Clouds -1 1030 43 10000 0.44 21 18:39 10.12.2021
4334 Clouds -1 1031 40 10000 0.91 2 17:21 10.12.2021
4335 Clouds 0 1031 40 10000 0.91 2 16:30 10.12.2021
4336 Clouds 0 1031 39 10000 0.95 358 15:42 10.12.2021
4337 Clouds 0 1030 38 10000 0.74 20 15:22 10.12.2021
4338 Clouds 1 1030 36 10000 0.93 18 13:52 10.12.2021
4339 Clouds 0 1030 36 10000 0.96 8 13:27 10.12.2021
4340 Clouds 1 1030 36 10000 0.96 8 12:47 10.12.2021
4341 Clouds 3 1030 34 10000 0.81 356 11:34 10.12.2021
4342 Clouds 5 1030 33 10000 0.34 284 10:38 10.12.2021
4343 Clouds 8 1029 31 10000 0.66 99 09:30 10.12.2021
4344 Clouds 8 1028 26 10000 2.29 3 07:21 10.12.2021
4345 Clouds 0 1030 39 10000 2.23 351 02:53 10.12.2021
4346 Clouds 0 1029 51 10000 2.25 343 01:32 10.12.2021
4347 Clouds -2 1028 55 10000 2.03 351 23:38 09.12.2021
4348 Clouds -2 1028 62 10000 1.62 352 22:41 09.12.2021
4349 Clouds -1 1027 70 10000 1.39 355 22:20 09.12.2021
4350 Clouds -1 1027 70 10000 1.39 355 21:38 09.12.2021
4351 Clouds -2 1027 77 10000 1.27 349 20:34 09.12.2021
4352 Clear 0 1027 82 10000 0.66 302 19:22 09.12.2021
4353 Clear 0 1027 82 10000 0.66 302 18:59 09.12.2021
4354 Clouds 0 1027 84 10000 0.5 307 17:58 09.12.2021
4355 Clear 0 1028 84 10000 0.72 263 17:29 09.12.2021
4356 Clear 2 1028 84 10000 0.72 263 16:57 09.12.2021
4357 Clear 2 1028 84 10000 0.69 248 16:20 09.12.2021
4358 Clear 2 1027 84 10000 0.18 245 14:59 09.12.2021
4359 Clear 0 1027 87 10000 0.29 0 13:52 09.12.2021
4360 Clouds 2 1027 85 10000 0.42 55 12:47 09.12.2021
4361 Clouds 3 1027 83 10000 0.48 74 11:33 09.12.2021
4362 Clouds 3 1026 77 10000 0.98 125 10:20 09.12.2021
4363 Clouds 3 1025 84 10000 0.46 168 06:59 09.12.2021
4364 Rain 3 1028 94 3022 0.6 88 03:55 09.12.2021
4365 Snow 2 1027 96 51 0.99 78 00:25 09.12.2021
4366 Clouds 2 1027 96 51 0.99 78 23:37 08.12.2021
4367 Clouds 2 1027 96 44 0.69 61 22:57 08.12.2021
4368 Rain 2 1027 96 53 0.54 49 22:25 08.12.2021
4369 Clouds 2 1027 96 53 0.54 49 21:33 08.12.2021
4370 Snow 2 1027 95 95 0.62 40 20:48 08.12.2021
4371 Snow 2 1028 95 715 0.32 68 19:56 08.12.2021
4372 Snow 2 1028 68 10000 0.81 304 18:58 08.12.2021
4373 Snow 2 1028 59 10000 0.36 278 18:22 08.12.2021
4374 Snow 2 1028 59 10000 0.36 278 18:22 08.12.2021
4375 Rain 3 1029 55 10000 0.28 274 16:53 08.12.2021
4376 Snow 2 1030 54 10000 0.5 197 15:41 08.12.2021
4377 Clouds 2 1030 52 10000 0.94 162 15:22 08.12.2021
4378 Snow 2 1030 47 10000 1.12 136 13:21 08.12.2021
4379 Clouds 4 1029 45 10000 1.27 139 10:44 08.12.2021
4380 Clouds 5 1029 43 10000 1.4 147 09:58 08.12.2021
4381 Clouds 6 1029 40 10000 1.57 177 08:34 08.12.2021
4382 Clouds 4 1031 40 10000 1.63 196 06:22 08.12.2021
4383 Clouds -3 1032 46 10000 0.18 320 00:41 08.12.2021
4384 Clouds -5 1032 47 10000 0.48 26 23:22 07.12.2021
4385 Clouds -4 1032 47 10000 0.22 29 21:25 07.12.2021
4386 Clouds -4 1032 47 10000 0.24 346 20:25 07.12.2021
4387 Clouds -5 1033 44 10000 0.13 63 19:21 07.12.2021
4388 Clouds -4 1033 43 10000 0.39 271 18:23 07.12.2021
4389 Clouds -4 1033 42 10000 0.15 315 17:27 07.12.2021
4390 Clouds -3 1033 42 10000 0.15 315 16:53 07.12.2021
4391 Clouds -3 1033 42 10000 0.04 24 16:25 07.12.2021
4392 Clouds -2 1033 41 10000 0.18 307 14:38 07.12.2021
4393 Clouds -2 1033 39 10000 0.15 252 13:41 07.12.2021
4394 Clouds 0 1033 35 10000 0.16 178 12:22 07.12.2021
4395 Clouds 1 1033 33 10000 0.33 222 11:19 07.12.2021
4396 Clouds 9 1033 32 10000 0.73 225 09:36 07.12.2021
4397 Clouds 9 1032 28 10000 1.46 211 07:50 07.12.2021
4398 Clear 8 1033 27 10000 0.52 246 05:52 07.12.2021
4399 Clear 7 1034 29 10000 0.58 268 05:26 07.12.2021
4400 Clear -5 1034 41 10000 0.84 359 23:36 06.12.2021
4401 Clear -5 1034 41 10000 0.84 4 22:41 06.12.2021
4402 Clear -3 1034 40 10000 0.98 359 21:59 06.12.2021
4403 Clear -3 1034 40 10000 0.98 359 21:31 06.12.2021
4404 Clear -5 1034 39 10000 1.25 5 20:32 06.12.2021
4405 Clear -3 1035 36 10000 1.25 343 19:24 06.12.2021
4406 Clear -3 1035 37 10000 1.17 337 18:42 06.12.2021
4407 Clear -2 1035 36 10000 1.43 339 17:54 06.12.2021
4408 Clear -2 1035 36 10000 1.43 339 17:33 06.12.2021
4409 Clear 3 1035 33 10000 1.51 339 15:52 06.12.2021
4410 Clear 0 1035 32 10000 1.56 347 14:40 06.12.2021
4411 Clear 1 1034 31 10000 1.71 359 13:35 06.12.2021
4412 Clear 2 1034 29 10000 1.96 5 12:38 06.12.2021
4413 Clear 10 1033 23 10000 2.19 5 10:28 06.12.2021
4414 Clear 12 1032 20 10000 3.8 353 07:41 06.12.2021
4415 Clear 5 1031 28 10000 4.19 349 02:28 06.12.2021
4416 Clouds 2 1026 26 10000 4.81 338 22:28 05.12.2021
4417 Clouds 4 1025 25 10000 5.14 340 21:25 05.12.2021
4418 Clouds 3 1025 25 10000 5.14 340 20:54 05.12.2021
4419 Clouds 3 1025 25 10000 4.66 347 20:18 05.12.2021
4420 Clouds 3 1024 25 10000 4.1 340 19:26 05.12.2021
4421 Clouds 2 1024 25 10000 4.63 339 18:31 05.12.2021
4422 Clouds 2 1023 28 10000 3.62 338 17:52 05.12.2021
4423 Clouds 2 1023 28 10000 3.62 338 17:34 05.12.2021
4424 Clouds 1 1023 33 10000 2.02 1 16:38 05.12.2021
4425 Clouds 1 1023 34 10000 1.74 2 16:19 05.12.2021
4426 Clouds 2 1023 35 10000 1.24 350 14:48 05.12.2021
4427 Clouds 1 1023 35 10000 1.24 350 14:30 05.12.2021
4428 Clouds 3 1022 36 10000 0.9 334 13:36 05.12.2021
4429 Clouds 3 1022 37 10000 0.59 320 12:47 05.12.2021
4430 Clouds 1 1022 39 10000 0.53 270 12:27 05.12.2021
4431 Clouds 3 1022 39 10000 0.53 270 11:46 05.12.2021
4432 Clouds 7 1022 38 10000 0.77 243 10:44 05.12.2021
4433 Clouds 9 1021 36 10000 1.06 218 09:51 05.12.2021
4434 Clear 9 1022 29 10000 1.65 201 06:31 05.12.2021
4435 Clear -3 1025 35 10000 0.24 21 01:38 05.12.2021
4436 Clear -5 1025 39 10000 1.07 15 23:25 04.12.2021
4437 Clear -4 1025 39 10000 1.16 14 21:52 04.12.2021
4438 Clear -4 1025 39 10000 1.11 10 20:47 04.12.2021
4439 Clear -4 1025 39 10000 1.05 9 19:54 04.12.2021
4440 Clear -4 1025 39 10000 1.05 9 19:30 04.12.2021
4441 Clear -3 1026 38 10000 0.93 1 17:58 04.12.2021
4442 Clear -2 1026 38 10000 0.93 1 17:36 04.12.2021
4443 Clear -2 1026 37 10000 0.74 3 16:47 04.12.2021
4444 Clear -2 1026 37 10000 0.74 3 16:47 04.12.2021
4445 Clear -2 1027 36 10000 0.42 7 16:28 04.12.2021
4446 Clear 0 1027 34 10000 0.38 137 14:23 04.12.2021
4447 Clear 3 1026 30 10000 0.51 167 11:45 04.12.2021
4448 Clear 4 1026 29 10000 0.37 148 11:20 04.12.2021
4449 Clear 9 1026 29 10000 0.37 148 10:42 04.12.2021
4450 Clear 13 1026 25 10000 0.72 186 08:42 04.12.2021
4451 Clear 10 1027 23 10000 0.14 16 05:47 04.12.2021
4452 Clear 8 1027 24 10000 0.66 6 04:41 04.12.2021
4453 Clear -2 1026 36 10000 1.52 355 23:49 03.12.2021
4454 Clear -3 1026 35 10000 1.57 359 22:57 03.12.2021
4455 Clear -4 1026 35 10000 1.57 359 22:38 03.12.2021
4456 Clear -3 1025 34 10000 1.21 343 21:25 03.12.2021
4457 Clear -2 1025 34 10000 1.21 343 20:44 03.12.2021
4458 Clear -3 1025 34 10000 1.4 338 19:36 03.12.2021
4459 Clear -2 1025 32 10000 2.3 351 18:28 03.12.2021
4460 Clear 2 1025 32 10000 2.3 351 17:58 03.12.2021
4461 Clear 2 1024 30 10000 1.71 337 14:23 03.12.2021
4462 Clear 10 1023 29 10000 1.4 286 12:52 03.12.2021
4463 Clear 10 1023 26 10000 1.49 244 11:25 03.12.2021
4464 Clear 12 1023 26 10000 1.49 244 10:32 03.12.2021
4465 Clear 13 1022 19 10000 2.8 267 08:25 03.12.2021
4466 Clear 13 1022 19 10000 2.8 267 07:38 03.12.2021
4467 Clear 7 1025 27 10000 1.81 242 02:39 03.12.2021
4468 Clear 5 1024 30 10000 2.12 287 00:47 03.12.2021
4469 Clear 5 1023 28 10000 2.99 302 23:47 02.12.2021
4470 Clear -1 1022 27 10000 3.88 311 21:43 02.12.2021
4471 Clear -1 1022 28 10000 3.39 309 21:20 02.12.2021
4472 Clear 0 1022 28 10000 3.39 309 20:38 02.12.2021
4473 Clear 1 1022 28 10000 3.26 319 19:31 02.12.2021
4474 Clear 5 1022 27 10000 4.5 315 18:33 02.12.2021
4475 Clear 7 1021 27 10000 5 313 15:43 02.12.2021
4476 Clear 5 1021 27 10000 4.64 319 15:20 02.12.2021
4477 Clear 7 1021 27 10000 4.64 319 14:43 02.12.2021
4478 Clear 7 1019 26 10000 3.64 325 12:53 02.12.2021
4479 Clear 7 1018 25 10000 3.8 323 12:18 02.12.2021
4480 Clear 9 1017 24 10000 4.68 314 10:36 02.12.2021
4481 Clear 13 1016 21 10000 6.45 305 08:55 02.12.2021
4482 Clear 10 1017 19 10000 5.08 298 04:54 02.12.2021
4483 Clouds -1 1019 27 10000 2.96 280 00:53 02.12.2021
4484 Clouds -5 1019 31 10000 1.69 268 23:28 01.12.2021
4485 Clouds -4 1020 32 10000 1.4 262 22:24 01.12.2021
4486 Clouds -3 1021 33 10000 1.29 271 21:21 01.12.2021
4487 Clouds -3 1022 34 10000 1.22 260 19:58 01.12.2021
4488 Clear -3 1023 35 10000 1.5 235 19:28 01.12.2021
4489 Clear 4 1023 34 10000 1.48 237 17:50 01.12.2021
4490 Clear 2 1024 33 10000 1.43 238 16:58 01.12.2021
4491 Clear 4 1025 32 10000 1.68 231 14:59 01.12.2021
4492 Clear 5 1026 31 10000 1.83 224 13:49 01.12.2021
4493 Clear 6 1026 30 10000 2.04 220 12:51 01.12.2021
4494 Clear 6 1026 26 10000 1.78 222 10:43 01.12.2021
4495 Clear 9 1027 24 10000 1.96 217 09:32 01.12.2021
4496 Clear 10 1027 20 10000 1.91 219 08:36 01.12.2021
4497 Clear 9 1027 18 10000 1.42 241 07:37 01.12.2021
4498 Clear 9 1027 17 10000 1.52 256 07:19 01.12.2021
4499 Clear 5 1031 21 10000 1.55 292 03:47 01.12.2021
4500 Clear 1 1031 24 10000 1.57 296 02:34 01.12.2021
4501 Clear -4 1030 29 10000 1.46 284 23:56 30.11.2021
4502 Clear -4 1030 28 10000 1.43 287 23:28 30.11.2021
4503 Clear 0 1029 27 10000 1.39 297 21:55 30.11.2021
4504 Clear -1 1029 26 10000 1.82 300 20:46 30.11.2021
4505 Clear 1 1029 25 10000 2.24 300 20:19 30.11.2021
4506 Clear 1 1029 25 10000 2.24 300 19:38 30.11.2021
4507 Clear -4 1029 25 10000 2.74 291 18:42 30.11.2021
4508 Clear -3 1029 23 10000 3.6 294 17:21 30.11.2021
4509 Clear -2 1029 22 10000 4.41 303 15:44 30.11.2021
4510 Clear 0 1029 22 10000 5.18 317 14:29 30.11.2021
4511 Clear 1 1029 23 10000 5.06 319 13:28 30.11.2021
4512 Clear 1 1029 23 10000 5.06 319 12:53 30.11.2021
4513 Clear 4 1029 22 10000 5.46 318 11:52 30.11.2021
4514 Clear 4 1028 22 10000 5.74 316 11:25 30.11.2021
4515 Clear 4 1028 22 10000 5.74 316 10:35 30.11.2021
4516 Clear 6 1027 20 10000 5.74 314 08:54 30.11.2021
4517 Clear 6 1027 20 10000 5.74 314 08:31 30.11.2021
4518 Clear 6 1027 19 10000 6.14 318 07:48 30.11.2021
4519 Clear 4 1029 20 10000 7.23 328 04:59 30.11.2021
4520 Clear 1 1028 24 10000 7.62 330 01:45 30.11.2021
4521 Clear 1 1027 27 10000 7.79 330 00:33 30.11.2021
4522 Clear 2 1025 30 10000 6.99 326 23:25 29.11.2021
4523 Clear 2 1025 30 10000 6.99 326 22:58 29.11.2021
4524 Clear 2 1025 30 10000 6.99 326 22:34 29.11.2021
4525 Clear 2 1024 31 10000 6.7 321 21:44 29.11.2021
4526 Clear 2 1024 34 10000 5.98 318 21:18 29.11.2021
4527 Clear 3 1024 34 10000 5.98 318 20:44 29.11.2021
4528 Clear 3 1024 35 10000 5.62 312 19:57 29.11.2021
4529 Clear 2 1024 35 10000 5.62 312 19:37 29.11.2021
4530 Clouds 2 1024 36 10000 5.76 306 18:56 29.11.2021
4531 Clouds 4 1023 35 10000 5.69 307 18:37 29.11.2021
4532 Clouds 4 1024 56 10000 2.37 294 17:21 29.11.2021
4533 Clouds 4 1024 56 10000 2.37 294 16:33 29.11.2021
4534 Clouds 5 1024 52 10000 2.03 297 15:55 29.11.2021
4535 Clouds 5 1025 49 10000 2.12 309 14:45 29.11.2021
4536 Clouds 5 1025 46 10000 2.16 322 13:47 29.11.2021
4537 Clouds 6 1025 44 10000 2.14 330 12:44 29.11.2021
4538 Rain 6 1025 44 10000 2.13 349 11:43 29.11.2021
4539 Rain 6 1025 43 10000 1.79 2 10:59 29.11.2021
4540 Rain 5 1025 42 10000 2.14 14 09:56 29.11.2021
4541 Clouds 4 1026 47 10000 3.33 342 06:43 29.11.2021
4542 Rain 6 1027 33 10000 3.21 353 04:53 29.11.2021
4543 Clouds 3 1027 53 10000 2.42 8 00:44 29.11.2021
4544 Clouds 2 1027 58 10000 2.33 5 23:47 28.11.2021
4545 Clouds 1 1026 60 10000 2.09 10 23:28 28.11.2021
4546 Clouds 1 1027 62 10000 1.87 8 21:53 28.11.2021
4547 Clouds 1 1027 63 10000 1.88 4 21:28 28.11.2021
4548 Clouds 1 1027 63 10000 1.88 4 20:35 28.11.2021
4549 Clouds 1 1027 64 10000 1.78 5 19:29 28.11.2021
4550 Clouds 0 1027 60 10000 1.78 4 18:38 28.11.2021
4551 Clouds 2 1027 59 10000 1.53 19 17:57 28.11.2021
4552 Clouds -1 1027 59 10000 1.53 19 17:32 28.11.2021
4553 Clear 0 1028 58 10000 1.55 4 16:44 28.11.2021
4554 Clear 2 1028 56 10000 1.35 15 16:26 28.11.2021
4555 Clear 1 1028 56 10000 1.35 15 15:43 28.11.2021
4556 Clear 0 1028 55 10000 1.45 11 14:50 28.11.2021
4557 Clear 1 1028 54 10000 1.32 16 13:51 28.11.2021
4558 Clouds 3 1028 53 10000 1.44 5 12:54 28.11.2021
4559 Clear 4 1027 51 10000 1.32 345 11:21 28.11.2021
4560 Clear 5 1027 51 10000 1.13 329 10:22 28.11.2021
4561 Clear 8 1027 51 10000 1.13 329 09:40 28.11.2021
4562 Clear 9 1027 46 10000 1.37 238 08:21 28.11.2021
4563 Clouds 2 1031 57 10000 1.2 16 00:40 28.11.2021
4564 Clouds 2 1030 57 10000 1.22 5 21:46 27.11.2021
4565 Clouds 0 1030 56 10000 0.74 2 19:50 27.11.2021
4566 Clouds 1 1031 53 10000 0.23 45 18:20 27.11.2021
4567 Clouds 1 1032 55 10000 0.54 41 15:59 27.11.2021
4568 Clouds 1 1032 53 10000 0.52 42 14:35 27.11.2021
4569 Clouds 2 1032 49 10000 0.47 37 13:20 27.11.2021
4570 Clouds 3 1032 46 10000 0.33 59 11:23 27.11.2021
4571 Clouds 7 1031 44 10000 0.15 206 09:55 27.11.2021
4572 Clouds 9 1031 41 10000 1.02 210 08:53 27.11.2021
4573 Clear 8 1031 39 10000 1.16 198 06:58 27.11.2021
4574 Clear 5 1034 42 10000 0.34 70 03:57 27.11.2021
4575 Clear -3 1033 51 10000 0.81 48 00:23 27.11.2021
4576 Clear -3 1033 50 10000 0.74 51 22:50 26.11.2021
4577 Clear -2 1033 49 10000 0.87 47 22:23 26.11.2021
4578 Clear -2 1032 48 10000 0.7 47 21:23 26.11.2021
4579 Clear 1 1032 48 10000 0.7 47 20:41 26.11.2021
4580 Clear 2 1033 47 10000 0.43 84 19:55 26.11.2021
4581 Clear 1 1033 46 10000 0.48 127 18:47 26.11.2021
4582 Clear 2 1033 41 10000 0.51 145 17:45 26.11.2021
4583 Clear 2 1034 40 10000 0.64 134 17:21 26.11.2021
4584 Clear 3 1033 39 10000 0.79 197 15:22 26.11.2021
4585 Clear 0 1032 37 10000 1 182 13:35 26.11.2021
4586 Clear 4 1031 31 10000 1.15 168 10:45 26.11.2021
4587 Clear 11 1031 29 10000 1.13 154 09:55 26.11.2021
4588 Clear 12 1030 25 10000 0.66 129 08:56 26.11.2021
4589 Clear 12 1030 23 10000 0.82 29 08:21 26.11.2021
4590 Clear 12 1030 24 10000 1.82 21 06:48 26.11.2021
4591 Clear 10 1030 25 10000 2.07 8 06:24 26.11.2021
4592 Clear 9 1032 31 10000 2.91 4 03:47 26.11.2021
4593 Clear 3 1030 44 10000 2.81 9 01:27 26.11.2021
4594 Clear -1 1028 44 10000 2.72 8 22:43 25.11.2021
4595 Clear -2 1027 42 10000 2.89 3 21:21 25.11.2021
4596 Clear -1 1026 40 10000 2.5 358 19:55 25.11.2021
4597 Clear 0 1026 38 10000 2.76 352 18:45 25.11.2021
4598 Clear 0 1025 36 10000 2.02 341 17:29 25.11.2021
4599 Clear -1 1025 36 10000 2.02 341 16:58 25.11.2021
4600 Clear -1 1025 35 10000 1.68 340 16:29 25.11.2021
4601 Clear 0 1024 35 10000 1.51 337 14:56 25.11.2021
4602 Clouds 2 1022 32 10000 1.16 321 13:25 25.11.2021
4603 Clouds 3 1022 31 10000 0.95 305 12:20 25.11.2021
4604 Clouds 3 1022 31 10000 0.95 305 11:48 25.11.2021
4605 Clouds 12 1020 26 10000 1.4 199 09:25 25.11.2021
4606 Clear 8 1022 29 10000 0.39 301 04:24 25.11.2021
4607 Clear 5 1022 32 10000 0.83 341 02:48 25.11.2021
4608 Clear -4 1020 39 10000 1.22 351 22:45 24.11.2021
4609 Clear -4 1019 39 10000 1.63 351 22:23 24.11.2021
4610 Clear -3 1019 38 10000 1.88 347 21:28 24.11.2021
4611 Clear -3 1019 38 10000 1.88 347 20:46 24.11.2021
4612 Clear -4 1019 37 10000 2.14 346 20:18 24.11.2021
4613 Clear -3 1019 35 10000 2.27 348 18:30 24.11.2021
4614 Clear -3 1019 35 10000 2.27 348 18:30 24.11.2021
4615 Clear -1 1019 31 10000 2.39 329 17:24 24.11.2021
4616 Clear 1 1018 29 10000 2.79 319 15:23 24.11.2021
4617 Clear 0 1018 29 10000 2.79 319 14:47 24.11.2021
4618 Clear 3 1018 29 10000 2.71 312 14:19 24.11.2021
4619 Clear 6 1016 28 10000 1.45 289 11:51 24.11.2021
4620 Clear 7 1016 25 10000 1.26 272 11:20 24.11.2021
4621 Clear 8 1016 25 10000 1.26 272 10:47 24.11.2021
4622 Clear 10 1015 23 10000 1.33 245 10:21 24.11.2021
4623 Clear 13 1014 17 10000 1.31 272 07:46 24.11.2021
4624 Clear 11 1014 17 10000 1.24 277 06:51 24.11.2021
4625 Clear 3 1017 24 10000 0.77 272 03:50 24.11.2021
4626 Clouds -4 1018 34 10000 0.94 339 00:32 24.11.2021
4627 Clouds -6 1017 34 10000 1.42 8 22:39 23.11.2021
4628 Clouds -6 1017 33 10000 1.18 5 21:54 23.11.2021
4629 Clouds -6 1017 33 10000 1.18 5 21:35 23.11.2021
4630 Clouds -5 1018 31 10000 1.38 17 19:37 23.11.2021
4631 Clear -5 1019 30 10000 1.05 12 18:39 23.11.2021
4632 Clear -5 1019 30 10000 0.91 356 18:18 23.11.2021
4633 Clear -4 1019 29 10000 0.9 340 16:57 23.11.2021
4634 Clear -2 1020 28 10000 0.8 313 15:59 23.11.2021
4635 Clear -4 1019 27 10000 0.89 281 15:19 23.11.2021
4636 Clear -1 1019 30 10000 1.45 244 13:46 23.11.2021
4637 Clear 6 1019 27 10000 2.22 216 11:42 23.11.2021
4638 Clear 7 1019 21 10000 2.13 202 09:59 23.11.2021
4639 Clear 8 1019 18 10000 2.33 208 08:46 23.11.2021
4640 Clear 7 1019 15 10000 1.97 218 06:39 23.11.2021
4641 Clear 2 1023 19 10000 0.93 258 03:45 23.11.2021
4642 Clear -8 1024 26 10000 0.35 15 00:57 23.11.2021
4643 Clear -8 1023 26 10000 0.7 8 23:21 22.11.2021
4644 Clear -7 1023 26 10000 0.7 8 22:33 22.11.2021
4645 Clear -8 1024 26 10000 0.75 333 21:49 22.11.2021
4646 Clear -8 1024 26 10000 0.75 333 21:31 22.11.2021
4647 Clear -8 1024 25 10000 1.28 304 20:50 22.11.2021
4648 Clear -7 1024 24 10000 1.7 301 19:55 22.11.2021
4649 Clear -7 1025 24 10000 2.01 298 19:19 22.11.2021
4650 Clear -6 1025 24 10000 2.01 298 18:39 22.11.2021
4651 Clear -6 1026 24 10000 2.25 282 17:20 22.11.2021
4652 Clear -3 1026 24 10000 2.33 281 15:47 22.11.2021
4653 Clear -3 1027 22 10000 2.58 279 13:58 22.11.2021
4654 Clear -2 1027 20 10000 2.94 293 11:50 22.11.2021
4655 Clear 1 1027 18 10000 3.74 307 10:41 22.11.2021
4656 Clear 4 1027 14 10000 5.77 311 09:26 22.11.2021
4657 Clear 4 1027 14 10000 5.77 311 08:40 22.11.2021
4658 Clear 1 1029 17 10000 7.25 307 04:36 22.11.2021
4659 Clear -1 1028 24 10000 6.45 323 23:26 21.11.2021
4660 Clear -1 1028 24 10000 6.45 323 22:48 21.11.2021
4661 Clear 0 1027 24 10000 6.59 323 21:53 21.11.2021
4662 Clear 0 1026 26 10000 6.67 324 20:42 21.11.2021
4663 Clear 0 1026 26 10000 6.81 324 19:48 21.11.2021
4664 Clear 1 1025 26 10000 6.54 323 18:24 21.11.2021
4665 Clear 1 1025 26 10000 6.54 323 17:38 21.11.2021
4666 Clear 1 1025 24 10000 6.86 328 15:49 21.11.2021
4667 Clear 2 1025 25 10000 7.23 325 14:45 21.11.2021
4668 Clear 3 1024 25 10000 8.14 324 13:47 21.11.2021
4669 Clear 3 1022 26 10000 9.46 317 12:37 21.11.2021
4670 Clear 4 1022 26 10000 8.58 309 11:43 21.11.2021
4671 Clear 4 1022 26 10000 7.28 301 11:24 21.11.2021
4672 Clear 5 1021 24 10000 7.22 301 10:18 21.11.2021
4673 Clear 7 1021 19 10000 6.89 300 08:42 21.11.2021
4674 Clear 7 1020 14 10000 7.34 300 08:23 21.11.2021
4675 Clear 7 1020 14 10000 7.34 300 07:47 21.11.2021
4676 Clouds 7 1021 13 10000 7.93 302 05:55 21.11.2021
4677 Clouds 7 1022 14 10000 7.67 308 05:25 21.11.2021
4678 Clouds 5 1022 19 10000 6.74 317 03:19 21.11.2021
4679 Clouds 4 1022 19 10000 6.74 317 02:52 21.11.2021
4680 Clouds 5 1022 67 10000 2.72 302 00:59 21.11.2021
4681 Clouds 4 1022 80 10000 0.32 284 23:56 20.11.2021
4682 Clouds 4 1022 80 10000 0.74 134 21:46 20.11.2021
4683 Clouds 4 1022 78 10000 1.46 134 21:27 20.11.2021
4684 Clouds 4 1022 70 10000 1.46 127 18:46 20.11.2021
4685 Clouds 4 1023 62 10000 1.84 134 18:26 20.11.2021
4686 Clouds 4 1023 62 10000 1.84 134 17:57 20.11.2021
4687 Clouds 4 1023 55 10000 1.56 131 16:57 20.11.2021
4688 Clouds 4 1024 50 10000 1.64 126 14:48 20.11.2021
4689 Clouds 5 1024 49 10000 1.2 120 14:25 20.11.2021
4690 Clouds 4 1023 46 10000 1.21 116 12:23 20.11.2021
4691 Clouds 4 1023 46 10000 1.21 116 12:23 20.11.2021
4692 Clouds 4 1022 44 10000 1.3 100 11:18 20.11.2021
4693 Clouds 9 1022 42 10000 1.31 67 09:51 20.11.2021
4694 Clouds 9 1022 39 10000 0.4 123 07:47 20.11.2021
4695 Clouds 7 1024 41 10000 0.97 21 05:28 20.11.2021
4696 Clouds 7 1024 41 10000 0.97 21 04:50 20.11.2021
4697 Clouds 5 1024 44 10000 1.43 29 03:24 20.11.2021
4698 Clouds 2 1023 49 10000 2.1 20 00:41 20.11.2021
4699 Clouds 2 1023 51 10000 1.78 33 23:43 19.11.2021
4700 Clouds 2 1022 52 10000 1.53 33 22:39 19.11.2021
4701 Clouds 3 1022 53 10000 1.34 56 21:21 19.11.2021
4702 Clouds 4 1022 53 10000 1.34 56 20:37 19.11.2021
4703 Clouds 3 1022 53 10000 1.3 79 19:56 19.11.2021
4704 Clouds 2 1022 52 10000 1.26 84 19:27 19.11.2021
4705 Clouds 3 1022 52 10000 1.33 88 18:43 19.11.2021
4706 Clouds 4 1022 51 10000 1.34 106 17:37 19.11.2021
4707 Clouds 5 1023 46 10000 1.57 142 15:58 19.11.2021
4708 Clouds 3 1022 43 10000 2.1 157 13:58 19.11.2021
4709 Clouds 7 1022 42 10000 1.84 149 10:34 19.11.2021
4710 Clouds 8 1021 40 10000 2.01 160 09:58 19.11.2021
4711 Clouds 9 1021 36 10000 2.35 172 08:32 19.11.2021
4712 Clouds 9 1023 29 10000 2.13 144 04:54 19.11.2021
4713 Clouds 5 1024 28 10000 1.81 91 02:59 19.11.2021
4714 Clear 5 1023 32 10000 2.09 44 23:53 18.11.2021
4715 Clear 5 1022 33 10000 2.76 50 22:38 18.11.2021
4716 Clear 7 1020 34 10000 3.92 27 20:56 18.11.2021
4717 Clear 7 1020 34 10000 3.92 27 20:34 18.11.2021
4718 Clear 7 1020 33 10000 4.03 30 19:59 18.11.2021
4719 Rain 7 1020 33 10000 4.03 30 19:35 18.11.2021
4720 Clouds 7 1021 28 10000 4.35 42 18:35 18.11.2021
4721 Clouds 9 1020 32 10000 4.49 44 17:51 18.11.2021
4722 Clouds 8 1019 35 10000 4.15 37 16:45 18.11.2021
4723 Clouds 6 1018 35 10000 4.26 26 15:52 18.11.2021
4724 Clouds 7 1016 34 10000 3.3 4 14:19 18.11.2021
4725 Clouds 5 1015 33 10000 2.69 354 12:53 18.11.2021
4726 Clouds 6 1014 33 10000 2.09 339 11:44 18.11.2021
4727 Clouds 5 1013 32 10000 0.85 333 11:25 18.11.2021
4728 Clouds 5 1013 31 10000 0.79 356 10:22 18.11.2021
4729 Clouds 8 1012 30 10000 0.51 314 08:26 18.11.2021
4730 Clouds 7 1013 28 10000 0.59 302 06:39 18.11.2021
4731 Clouds 6 1013 30 10000 0.71 309 05:43 18.11.2021
4732 Clear 2 1015 52 10000 0.9 34 01:25 18.11.2021
4733 Clear -1 1015 53 10000 0.95 35 23:30 17.11.2021
4734 Clear -1 1015 52 10000 0.79 23 22:39 17.11.2021
4735 Clear -1 1015 52 10000 0.82 5 22:19 17.11.2021
4736 Clear -1 1015 52 10000 0.82 5 21:35 17.11.2021
4737 Clear 0 1016 50 10000 0.69 27 19:42 17.11.2021
4738 Clear 0 1017 48 10000 0.2 250 17:35 17.11.2021
4739 Clear 1 1018 47 10000 0.68 252 15:55 17.11.2021
4740 Clear 5 1018 49 10000 1.13 254 13:18 17.11.2021
4741 Clear 4 1018 49 10000 1.13 254 12:36 17.11.2021
4742 Clear 9 1018 46 10000 1.49 216 10:54 17.11.2021
4743 Clear 12 1017 42 10000 1.58 203 09:38 17.11.2021
4744 Clear 12 1018 34 10000 0.88 200 07:46 17.11.2021
4745 Clouds 10 1018 36 10000 0.28 208 07:23 17.11.2021
4746 Clouds 5 1022 56 10000 0.52 335 02:49 17.11.2021
4747 Clear 0 1022 70 10000 0.56 29 00:34 17.11.2021
4748 Clear 1 1022 74 10000 0.68 5 22:30 16.11.2021
4749 Clear 1 1023 72 10000 0.6 302 20:19 16.11.2021
4750 Clear 1 1023 72 10000 0.6 302 19:39 16.11.2021
4751 Clear 2 1024 72 10000 0.54 272 18:49 16.11.2021
4752 Clear 2 1024 71 10000 0.51 256 18:28 16.11.2021
4753 Clear 2 1024 71 10000 0.52 253 17:26 16.11.2021
4754 Clear 4 1025 71 10000 0.83 235 16:20 16.11.2021
4755 Clear 4 1025 71 10000 0.83 235 15:44 16.11.2021
4756 Clear 4 1025 68 10000 1.46 210 13:47 16.11.2021
4757 Clear 10 1024 55 10000 1.64 200 10:27 16.11.2021
4758 Clear 10 1024 55 10000 1.64 200 09:42 16.11.2021
4759 Clear 10 1024 48 10000 1.76 212 08:23 16.11.2021
4760 Clear 10 1024 47 10000 1.68 213 07:29 16.11.2021
4761 Clear 0 1027 63 10000 0.87 342 23:54 15.11.2021
4762 Clear 1 1027 64 10000 0.99 343 22:41 15.11.2021
4763 Clear 1 1027 65 10000 1.03 345 22:20 15.11.2021
4764 Clear -1 1027 65 10000 1.03 345 21:32 15.11.2021
4765 Clear -1 1026 67 10000 0.76 351 20:59 15.11.2021
4766 Clear -1 1027 68 10000 0.43 345 19:39 15.11.2021
4767 Clear 0 1027 67 10000 0.04 123 17:36 15.11.2021
4768 Clear 1 1026 65 10000 0.49 128 15:56 15.11.2021
4769 Clear 2 1026 65 10000 0.49 128 15:36 15.11.2021
4770 Clear 2 1026 65 10000 0.86 74 14:39 15.11.2021
4771 Clouds 3 1025 63 10000 1.1 58 12:39 15.11.2021
4772 Clouds 8 1025 60 10000 1.06 57 10:53 15.11.2021
4773 Clouds 10 1024 54 10000 1.05 104 09:24 15.11.2021
4774 Clouds 10 1023 52 10000 1.33 118 07:26 15.11.2021
4775 Clouds 5 1026 39 10000 1.64 49 02:34 15.11.2021
4776 Clouds 4 1024 47 10000 1.72 23 22:47 14.11.2021
4777 Clouds 5 1023 46 10000 1.67 18 22:27 14.11.2021
4778 Clouds 8 1023 43 10000 1.61 22 19:36 14.11.2021
4779 Clouds 8 1023 42 10000 1.77 32 19:18 14.11.2021
4780 Clouds 8 1023 42 10000 1.77 32 18:54 14.11.2021
4781 Clouds 8 1023 42 10000 1.77 32 18:36 14.11.2021
4782 Clear 9 1023 40 10000 2.19 31 18:18 14.11.2021
4783 Clear 9 1023 40 10000 2.19 31 17:54 14.11.2021
4784 Clear 9 1023 40 10000 2.19 31 17:36 14.11.2021
4785 Clear 10 1023 39 10000 2.24 19 17:18 14.11.2021
4786 Clear 10 1023 39 10000 2.24 19 16:43 14.11.2021
4787 Clear 10 1022 38 10000 2.42 11 16:19 14.11.2021
4788 Clear 10 1022 36 10000 2.46 356 15:21 14.11.2021
4789 Clear 10 1022 36 10000 2.46 356 14:45 14.11.2021
4790 Clear 10 1021 34 10000 2.58 348 14:23 14.11.2021
4791 Clear 8 1021 34 10000 2.58 348 13:53 14.11.2021
4792 Clear 8 1021 34 10000 2.58 348 13:32 14.11.2021
4793 Clear 10 1020 30 10000 2.63 330 12:26 14.11.2021
4794 Clear 13 1020 30 10000 2.63 330 11:34 14.11.2021
4795 Clear 14 1019 29 10000 2.53 330 10:40 14.11.2021
4796 Clear 15 1018 26 10000 2.24 326 09:42 14.11.2021
4797 Clear 15 1018 23 10000 2.21 324 08:52 14.11.2021
4798 Clear 15 1017 23 10000 1.79 288 06:51 14.11.2021
4799 Clear 3 1019 47 10000 1.2 342 23:28 13.11.2021
4800 Clear 5 1019 46 10000 1.68 340 22:21 13.11.2021
4801 Clear 5 1019 46 10000 1.68 340 21:49 13.11.2021
4802 Clear 2 1018 46 10000 2.19 348 20:59 13.11.2021
4803 Clear 3 1018 45 10000 2.41 355 19:37 13.11.2021
4804 Clear 4 1019 45 10000 2.52 355 18:33 13.11.2021
4805 Clear 8 1019 43 10000 2.61 352 17:46 13.11.2021
4806 Clear 5 1019 41 10000 2.7 348 16:30 13.11.2021
4807 Clear 9 1019 36 10000 3.08 339 14:55 13.11.2021
4808 Clear 9 1018 33 10000 3.64 333 14:19 13.11.2021
4809 Clear 13 1017 30 10000 4.25 326 12:52 13.11.2021
4810 Clear 14 1017 29 10000 4.36 323 11:58 13.11.2021
4811 Clear 14 1016 27 10000 4.33 317 11:26 13.11.2021
4812 Clear 14 1016 27 10000 4.33 317 10:43 13.11.2021
4813 Clear 15 1015 25 10000 4.12 315 09:50 13.11.2021
4814 Clear 15 1015 25 10000 4.12 315 09:32 13.11.2021
4815 Clear 17 1015 22 10000 3.85 319 08:56 13.11.2021
4816 Clear 17 1014 19 10000 3.76 320 08:20 13.11.2021
4817 Clear 16 1016 21 10000 3.12 312 04:43 13.11.2021
4818 Clear 14 1016 26 10000 2.46 316 04:23 13.11.2021
4819 Clear 0 1016 47 10000 1.85 326 00:28 13.11.2021
4820 Clear 1 1016 48 10000 1.82 329 22:44 12.11.2021
4821 Clear 2 1017 48 10000 1.93 334 21:32 12.11.2021
4822 Clear 0 1017 47 10000 1.62 328 19:45 12.11.2021
4823 Clear 1 1018 46 10000 1.61 325 19:27 12.11.2021
4824 Clear 2 1018 46 10000 1.84 332 18:21 12.11.2021
4825 Clear 10 1019 43 10000 1.79 325 16:20 12.11.2021
4826 Clear 11 1019 43 10000 1.79 325 15:31 12.11.2021
4827 Clear 13 1019 37 10000 1.78 301 11:32 12.11.2021
4828 Clear 14 1019 33 10000 1.59 303 10:50 12.11.2021
4829 Clear 15 1019 29 10000 1.31 310 09:36 12.11.2021
4830 Clear 16 1018 23 10000 1.95 316 08:38 12.11.2021
4831 Clear 8 1023 36 10000 2.25 307 02:25 12.11.2021
4832 Clear 4 1022 43 10000 2.35 333 23:39 11.11.2021
4833 Clear 5 1022 43 10000 2.66 337 22:30 11.11.2021
4834 Clear 6 1022 43 10000 2.65 327 21:27 11.11.2021
4835 Clear 0 1022 43 10000 2.65 327 20:38 11.11.2021
4836 Clear 3 1022 42 10000 2.22 322 18:56 11.11.2021
4837 Clear 5 1022 41 10000 2.21 322 17:43 11.11.2021
4838 Clear 7 1022 39 10000 2.45 324 16:43 11.11.2021
4839 Clear 7 1022 37 10000 2.64 319 14:46 11.11.2021
4840 Clear 7 1021 36 10000 3.13 321 14:28 11.11.2021
4841 Clear 8 1021 36 10000 3.13 321 13:38 11.11.2021
4842 Clouds 7 1021 34 10000 3.58 314 12:48 11.11.2021
4843 Clouds 10 1020 32 10000 4.32 313 10:36 11.11.2021
4844 Clouds 12 1020 30 10000 4.25 311 09:33 11.11.2021
4845 Clouds 12 1020 26 10000 5.58 313 07:38 11.11.2021
4846 Clouds 10 1022 27 10000 5.91 321 03:58 11.11.2021
4847 Clear 6 1021 37 10000 4.92 324 23:00 10.11.2021
4848 Clear 5 1020 37 10000 4.83 323 22:22 10.11.2021
4849 Clear 7 1020 38 10000 4.67 320 21:21 10.11.2021
4850 Clear 7 1020 38 10000 4.67 320 20:46 10.11.2021
4851 Clear 5 1020 37 10000 4.86 315 19:47 10.11.2021
4852 Clear 5 1020 37 10000 4.86 315 19:47 10.11.2021
4853 Clear 8 1020 37 10000 5.38 316 18:33 10.11.2021
4854 Clear 7 1020 37 10000 5.32 317 16:34 10.11.2021
4855 Clear 9 1020 35 10000 6.18 323 15:28 10.11.2021
4856 Clear 9 1019 34 10000 6.25 325 13:43 10.11.2021
4857 Clear 10 1018 34 10000 6.23 321 12:50 10.11.2021
4858 Clouds 12 1017 32 10000 5.8 314 10:55 10.11.2021
4859 Clouds 14 1016 29 10000 6.7 315 08:45 10.11.2021
4860 Clouds 14 1015 28 10000 7.04 318 07:48 10.11.2021
4861 Clear 14 1015 27 10000 6.78 320 06:26 10.11.2021
4862 Clear 14 1015 27 10000 6.78 320 05:51 10.11.2021
4863 Clear 8 1016 45 10000 4.58 318 23:55 09.11.2021
4864 Clear 8 1015 44 10000 4.77 315 21:51 09.11.2021
4865 Clear 7 1015 44 10000 5.51 312 20:32 09.11.2021
4866 Clear 7 1015 44 10000 5.51 312 20:32 09.11.2021
4867 Clouds 7 1016 44 10000 5.49 305 19:26 09.11.2021
4868 Clouds 7 1016 43 10000 5.77 308 17:57 09.11.2021
4869 Clouds 6 1016 41 10000 6.88 316 16:24 09.11.2021
4870 Clouds 7 1016 41 10000 7.05 318 14:44 09.11.2021
4871 Clear 7 1016 41 10000 6.55 315 12:53 09.11.2021
4872 Clear 8 1015 40 10000 6.56 312 11:58 09.11.2021
4873 Clear 8 1015 39 10000 6.81 308 10:45 09.11.2021
4874 Clear 10 1015 37 10000 6.69 309 09:35 09.11.2021
4875 Clear 11 1015 34 10000 6.9 312 08:27 09.11.2021
4876 Clear 10 1016 31 10000 7.12 315 05:57 09.11.2021
4877 Clear 5 1019 39 10000 6.26 311 02:25 09.11.2021
4878 Clear 6 1019 39 10000 6.26 311 01:46 09.11.2021
4879 Clear 4 1019 45 10000 5.63 309 23:59 08.11.2021
4880 Clear 3 1019 46 10000 5.62 310 22:51 08.11.2021
4881 Clear 3 1019 46 10000 5.51 311 22:27 08.11.2021
4882 Clear 3 1019 45 10000 5.81 310 20:56 08.11.2021
4883 Clear 3 1019 46 10000 5.48 310 20:56 08.11.2021
4884 Clear 3 1019 46 10000 5.62 308 19:53 08.11.2021
4885 Clear 3 1020 46 10000 5.55 307 18:57 08.11.2021
4886 Clear 3 1021 45 10000 5.37 309 16:34 08.11.2021
4887 Clear 3 1021 45 10000 5.04 308 15:27 08.11.2021
4888 Clear 4 1021 45 10000 5.04 308 14:43 08.11.2021
4889 Clear 4 1021 44 10000 5.49 309 13:55 08.11.2021
4890 Clear 4 1021 44 10000 5.62 311 12:35 08.11.2021
4891 Clear 4 1021 42 10000 6 303 11:24 08.11.2021
4892 Clear 6 1021 42 10000 5.68 302 09:59 08.11.2021
4893 Clear 6 1021 42 10000 5.92 300 08:55 08.11.2021
4894 Clear 5 1021 45 10000 5.63 301 07:36 08.11.2021
4895 Clear 5 1022 49 10000 6.25 307 06:20 08.11.2021
4896 Clear 2 1023 56 10000 6.54 314 03:33 08.11.2021
4897 Clouds 0 1023 60 10000 6.52 312 23:51 07.11.2021
4898 Clouds 0 1023 61 10000 6.69 314 22:26 07.11.2021
4899 Clouds -1 1023 60 10000 6.78 316 21:21 07.11.2021
4900 Clouds -1 1024 62 10000 6.44 316 19:55 07.11.2021
4901 Clouds 0 1024 62 10000 6 321 18:24 07.11.2021
4902 Clouds 0 1024 62 10000 6 321 17:36 07.11.2021
4903 Clouds 0 1025 64 10000 5.62 321 15:55 07.11.2021
4904 Clouds 0 1026 66 10000 5.19 320 14:40 07.11.2021
4905 Clouds 0 1026 69 10000 4.9 318 13:54 07.11.2021
4906 Clouds 0 1026 72 10000 4.02 328 11:49 07.11.2021
4907 Clouds 0 1027 70 10000 4.83 332 09:58 07.11.2021
4908 Clouds 0 1027 69 10000 5.16 336 08:45 07.11.2021
4909 Snow -3 1032 80 10000 5.57 343 02:44 07.11.2021
4910 Snow -3 1031 79 10000 6.12 346 23:42 06.11.2021
4911 Snow -3 1031 83 10000 6.07 344 22:52 06.11.2021
4912 Snow -3 1032 84 2714 6.22 345 21:36 06.11.2021
4913 Snow -2 1031 84 9929 6.1 344 20:52 06.11.2021
4914 Snow -1 1031 91 867 6.36 343 18:56 06.11.2021
4915 Snow -1 1031 90 807 6.02 342 17:18 06.11.2021
4916 Snow -1 1031 89 1050 6.31 346 15:31 06.11.2021
4917 Snow 0 1029 82 5659 6.58 351 13:39 06.11.2021
4918 Rain 3 1027 75 8714 6.73 352 12:29 06.11.2021
4919 Rain 7 1023 67 6434 5.8 8 09:42 06.11.2021
4920 Rain 9 1021 76 10000 2.87 3 07:58 06.11.2021
4921 Clouds 12 1020 80 10000 1.94 46 03:20 06.11.2021
4922 Clouds 10 1019 79 10000 1.32 37 23:38 05.11.2021
4923 Clouds 10 1018 77 10000 1.63 45 22:50 05.11.2021
4924 Clouds 11 1018 75 10000 1.78 60 21:55 05.11.2021
4925 Clouds 10 1018 64 10000 1.06 79 20:20 05.11.2021
4926 Clouds 11 1018 64 10000 1.06 79 19:49 05.11.2021
4927 Rain 11 1018 67 10000 2 76 18:41 05.11.2021
4928 Rain 11 1019 61 10000 1.69 58 17:31 05.11.2021
4929 Clouds 12 1018 59 10000 0.72 118 15:48 05.11.2021
4930 Clouds 11 1018 59 10000 1.05 89 13:55 05.11.2021
4931 Clouds 10 1017 55 10000 0.9 57 11:31 05.11.2021
4932 Clouds 12 1016 48 10000 1.1 174 08:41 05.11.2021
4933 Clouds 12 1015 46 10000 1.41 169 07:39 05.11.2021
4934 Clouds 10 1016 44 10000 0.41 119 05:33 05.11.2021
4935 Clear 9 1019 51 10000 1.36 34 02:26 05.11.2021
4936 Clear 9 1018 56 10000 1.35 31 00:52 05.11.2021
4937 Clear 8 1017 58 10000 1.54 22 23:25 04.11.2021
4938 Clear 8 1017 57 10000 1.51 24 22:20 04.11.2021
4939 Clear 8 1017 57 10000 1.51 24 21:43 04.11.2021
4940 Clear 8 1016 56 10000 1.56 30 20:53 04.11.2021
4941 Clear 8 1016 55 10000 1.45 33 20:22 04.11.2021
4942 Clear 8 1016 55 10000 1.45 33 19:47 04.11.2021
4943 Clear 8 1017 55 10000 1.56 31 19:19 04.11.2021
4944 Clear 8 1017 53 10000 1.5 31 18:20 04.11.2021
4945 Clear 8 1017 52 10000 1.32 37 16:53 04.11.2021
4946 Rain 9 1017 49 10000 1.07 53 15:18 04.11.2021
4947 Rain 9 1016 45 10000 0.99 52 13:40 04.11.2021
4948 Clear 11 1014 37 10000 1.13 154 09:50 04.11.2021
4949 Clear 13 1014 33 10000 1.74 180 08:31 04.11.2021
4950 Clear 13 1014 31 10000 1.71 180 07:35 04.11.2021
4951 Clear 13 1015 31 10000 0.64 92 06:18 04.11.2021
4952 Clear 9 1015 66 10000 1.84 22 22:53 03.11.2021
4953 Clear 9 1015 67 10000 1.73 20 21:51 03.11.2021
4954 Clear 9 1015 67 10000 1.75 17 21:31 03.11.2021
4955 Clear 9 1015 61 10000 1.85 16 20:38 03.11.2021
4956 Clear 9 1015 61 10000 1.62 15 20:18 03.11.2021
4957 Clear 9 1016 60 10000 1.63 24 19:19 03.11.2021
4958 Clear 9 1016 59 10000 1.53 24 18:25 03.11.2021
4959 Clear 8 1016 59 10000 1.53 24 17:41 03.11.2021
4960 Clear 8 1016 54 10000 1.35 25 16:27 03.11.2021
4961 Clear 7 1016 54 10000 1.35 25 15:44 03.11.2021
4962 Clear 7 1015 48 10000 0.69 79 14:25 03.11.2021
4963 Clear 9 1015 45 10000 0.91 103 12:33 03.11.2021
4964 Clear 10 1015 40 10000 1.04 113 11:27 03.11.2021
4965 Clear 10 1015 40 10000 1.04 113 10:49 03.11.2021
4966 Clear 10 1015 40 10000 1.04 113 10:49 03.11.2021
4967 Clear 13 1014 37 10000 1.54 135 09:31 03.11.2021
4968 Clear 13 1014 37 10000 1.54 135 09:31 03.11.2021
4969 Clear 15 1014 34 10000 1.39 186 08:24 03.11.2021
4970 Clear 15 1014 34 10000 1.39 186 07:39 03.11.2021
4971 Clear 14 1017 45 10000 0.79 192 05:35 03.11.2021
4972 Clear 14 1019 72 10000 0.2 356 02:50 03.11.2021
4973 Clear 9 1019 75 10000 0.83 37 23:57 02.11.2021
4974 Clear 9 1019 75 10000 0.92 14 22:47 02.11.2021
4975 Clear 9 1019 75 10000 0.77 5 21:45 02.11.2021
4976 Clear 9 1019 74 10000 0.49 21 20:34 02.11.2021
4977 Clear 9 1019 73 10000 0.47 23 19:54 02.11.2021
4978 Clear 8 1020 68 10000 1.01 17 19:18 02.11.2021
4979 Clear 8 1020 67 10000 0.83 357 18:26 02.11.2021
4980 Clear 8 1020 67 10000 0.83 357 17:43 02.11.2021
4981 Clear 9 1021 64 10000 0.31 4 16:31 02.11.2021
4982 Clear 9 1021 64 10000 0.31 4 15:48 02.11.2021
4983 Clear 9 1021 62 10000 0.39 257 14:30 02.11.2021
4984 Clear 10 1020 63 10000 1.11 204 13:28 02.11.2021
4985 Clear 10 1020 63 10000 1.11 204 12:43 02.11.2021
4986 Clear 11 1020 61 10000 1.51 188 11:38 02.11.2021
4987 Clear 11 1020 58 10000 1.35 174 10:53 02.11.2021
4988 Clear 11 1020 55 10000 1.4 200 10:28 02.11.2021
4989 Clear 12 1020 51 10000 1.89 224 08:44 02.11.2021
4990 Clouds 11 1021 49 10000 2.08 225 06:57 02.11.2021
4991 Clouds 10 1024 57 10000 1.36 224 03:51 02.11.2021
4992 Clouds 10 1025 65 10000 1.05 238 02:24 02.11.2021
4993 Clouds 7 1025 72 10000 1.25 186 22:55 01.11.2021
4994 Clouds 8 1025 84 10000 1.15 195 21:23 01.11.2021
4995 Clouds 9 1025 71 10000 1.15 195 20:38 01.11.2021
4996 Clouds 8 1026 70 10000 1.27 201 19:57 01.11.2021
4997 Clouds 8 1026 69 10000 0.9 199 19:30 01.11.2021
4998 Clouds 9 1027 75 10000 0.78 175 18:22 01.11.2021
4999 Clouds 7 1027 68 10000 0.78 175 17:35 01.11.2021
5000 Clouds 7 1027 67 10000 0.89 192 16:50 01.11.2021
5001 Clouds 7 1028 66 10000 1 187 15:47 01.11.2021
5002 Clouds 7 1028 65 10000 1.21 181 15:21 01.11.2021
5003 Clouds 7 1028 65 10000 1.21 181 14:42 01.11.2021
5004 Clear 7 1028 63 10000 1.25 186 14:22 01.11.2021
5005 Clouds 9 1027 79 10000 1.59 205 13:25 01.11.2021
5006 Clouds 8 1027 56 10000 1.71 212 12:25 01.11.2021
5007 Clouds 10 1027 54 10000 1.88 207 10:33 01.11.2021
5008 Clouds 12 1027 53 10000 2.07 202 08:53 01.11.2021
5009 Clouds 12 1027 54 10000 2.16 213 07:48 01.11.2021
5010 Clouds 14 1028 51 10000 2 196 05:57 01.11.2021
5011 Clouds 10 1030 62 10000 1.38 169 03:42 01.11.2021
5012 Clouds 7 1030 73 10000 1.12 141 00:27 01.11.2021
5013 Rain 8 1030 80 10000 1.49 154 21:55 31.10.2021
5014 Clear 9 1030 83 10000 1.33 149 20:26 31.10.2021
5015 Clouds 9 1030 83 10000 1.3 161 18:54 31.10.2021
5016 Clouds 9 1030 83 10000 1.3 161 18:32 31.10.2021
5017 Clouds 8 1030 83 10000 1.51 172 16:49 31.10.2021
5018 Clouds 9 1030 77 10000 1.91 165 15:29 31.10.2021
5019 Clear 11 1029 52 10000 2.16 144 13:27 31.10.2021
5020 Clear 12 1029 52 10000 2.16 144 12:37 31.10.2021
5021 Clear 12 1028 37 10000 0.63 118 10:53 31.10.2021
5022 Clear 17 1027 34 10000 0.86 347 09:54 31.10.2021
5023 Clear 17 1027 34 10000 1.82 341 09:19 31.10.2021
5024 Clear 17 1028 28 10000 3.81 359 04:55 31.10.2021
5025 Clouds 12 1025 37 10000 4.11 332 00:48 31.10.2021
5026 Clouds 14 1024 34 10000 4.37 322 22:31 30.10.2021
5027 Clouds 14 1023 31 10000 3.92 326 21:33 30.10.2021
5028 Clouds 15 1024 34 10000 3.61 327 20:19 30.10.2021
5029 Clouds 15 1024 35 10000 3.28 320 18:21 30.10.2021
5030 Clouds 13 1023 69 10000 2.36 295 16:20 30.10.2021
5031 Clouds 11 1022 32 10000 1.63 273 14:25 30.10.2021
5032 Rain 13 1022 60 10000 1.67 269 13:39 30.10.2021
5033 Clouds 14 1022 63 10000 1.71 251 13:20 30.10.2021
5034 Rain 16 1022 55 10000 1.82 263 11:50 30.10.2021
5035 Clouds 17 1021 52 10000 2.35 284 11:26 30.10.2021
5036 Clouds 20 1021 38 10000 2.81 291 09:53 30.10.2021
5037 Clouds 20 1020 20 10000 3.03 302 08:31 30.10.2021
5038 Clear 16 1022 31 10000 1.87 345 05:50 30.10.2021
5039 Clear 15 1022 42 10000 1.41 0 05:19 30.10.2021
5040 Clear 6 1021 64 10000 1.23 18 23:47 29.10.2021
5041 Clear 5 1021 64 10000 1.23 22 22:35 29.10.2021
5042 Clear 6 1020 62 10000 0.77 36 21:20 29.10.2021
5043 Clear 6 1020 62 10000 0.77 36 20:34 29.10.2021
5044 Clear 6 1021 58 10000 0.84 46 19:38 29.10.2021
5045 Clear 7 1021 55 10000 0.57 65 18:26 29.10.2021
5046 Clear 8 1021 52 10000 0.62 78 16:50 29.10.2021
5047 Clear 10 1021 46 10000 0.8 177 14:29 29.10.2021
5048 Clear 17 1020 50 10000 1.26 196 10:52 29.10.2021
5049 Clear 18 1020 50 10000 1.26 196 10:33 29.10.2021
5050 Clear 18 1021 33 10000 0.8 171 07:23 29.10.2021
5051 Clouds 9 1024 72 10000 1.22 35 00:35 29.10.2021
5052 Clouds 6 1023 48 10000 1.41 35 22:51 28.10.2021
5053 Clouds 7 1023 46 10000 1.36 38 21:32 28.10.2021
5054 Clouds 10 1024 75 10000 1.25 44 20:20 28.10.2021
5055 Clouds 9 1025 76 10000 1.2 40 18:57 28.10.2021
5056 Clouds 10 1025 77 10000 1.09 46 17:59 28.10.2021
5057 Clouds 10 1025 75 10000 1.06 56 16:57 28.10.2021
5058 Clouds 11 1025 72 10000 1.02 88 15:20 28.10.2021
5059 Clouds 15 1024 49 10000 1.38 98 13:35 28.10.2021
5060 Clouds 15 1024 49 10000 1.43 101 12:53 28.10.2021
5061 Clouds 15 1024 49 10000 1.43 101 12:34 28.10.2021
5062 Clouds 18 1023 37 10000 1.4 112 10:51 28.10.2021
5063 Clouds 19 1023 33 10000 1.14 128 09:38 28.10.2021
5064 Clouds 19 1023 23 10000 1.44 116 08:37 28.10.2021
5065 Clouds 18 1023 23 10000 1.52 74 07:49 28.10.2021
5066 Clouds 15 1026 25 10000 1.45 20 04:36 28.10.2021
5067 Clouds 11 1024 50 10000 1.24 14 23:26 27.10.2021
5068 Clouds 6 1024 30 10000 1.24 14 22:30 27.10.2021
5069 Clouds 6 1024 30 10000 1.24 8 21:32 27.10.2021
5070 Clouds 6 1024 30 10000 1.34 9 20:49 27.10.2021
5071 Clouds 6 1024 30 10000 1.54 2 19:52 27.10.2021
5072 Clouds 5 1024 31 10000 1.31 349 18:58 27.10.2021
5073 Clouds 5 1024 31 10000 1.31 349 18:38 27.10.2021
5074 Clouds 6 1024 32 10000 1.16 295 16:26 27.10.2021
5075 Clouds 7 1024 32 10000 1.16 295 15:30 27.10.2021
5076 Clouds 7 1024 32 10000 1.16 295 15:30 27.10.2021
5077 Clouds 9 1023 33 10000 1.06 278 14:38 27.10.2021
5078 Clear 19 1022 22 10000 1.78 198 11:20 27.10.2021
5079 Clear 20 1022 22 10000 1.78 198 10:58 27.10.2021
5080 Clear 21 1022 19 10000 1.72 205 09:43 27.10.2021
5081 Clear 21 1022 18 10000 1.75 236 07:52 27.10.2021
5082 Clear 19 1024 19 10000 1.71 247 06:38 27.10.2021
5083 Clear 2 1026 31 10000 1.73 348 01:31 27.10.2021
5084 Clear 3 1026 33 10000 1.62 343 00:56 27.10.2021
5085 Clear 2 1026 32 10000 1.58 343 23:57 26.10.2021
5086 Rain 2 1026 32 10000 1.58 335 23:18 26.10.2021
5087 Clear 3 1026 32 10000 1.58 335 22:36 26.10.2021
5088 Clear 4 1025 31 10000 1.66 347 21:52 26.10.2021
5089 Clear 5 1025 29 10000 1.99 5 20:26 26.10.2021
5090 Clear 5 1025 29 10000 1.71 10 19:26 26.10.2021
5091 Clear 5 1025 29 10000 1.71 10 18:32 26.10.2021
5092 Clear 8 1025 25 10000 1.92 10 16:22 26.10.2021
5093 Clear 11 1023 25 10000 2.11 5 14:18 26.10.2021
5094 Clear 17 1022 23 10000 2.37 12 11:33 26.10.2021
5095 Clear 22 1020 20 10000 4.71 343 09:29 26.10.2021
5096 Clear 22 1020 16 10000 5.51 341 07:24 26.10.2021
5097 Clear 15 1021 19 10000 5.46 338 03:37 26.10.2021
5098 Clouds 11 1018 79 10000 1.72 2 23:49 25.10.2021
5099 Rain 11 1018 83 10000 1.5 8 22:39 25.10.2021
5100 Clouds 11 1018 83 10000 1.66 19 21:55 25.10.2021
5101 Rain 11 1018 85 10000 1.46 22 21:25 25.10.2021
5102 Rain 10 1018 86 10000 1.21 9 19:45 25.10.2021
5103 Rain 10 1018 87 10000 0.79 352 19:25 25.10.2021
5104 Rain 8 1018 58 10000 0.79 352 18:51 25.10.2021
5105 Rain 8 1018 56 10000 0.44 352 17:43 25.10.2021
5106 Clouds 12 1018 79 10000 1.03 197 15:38 25.10.2021
5107 Clouds 10 1018 48 10000 1.34 183 13:54 25.10.2021
5108 Clouds 15 1018 65 10000 1.24 188 12:22 25.10.2021
5109 Clouds 18 1018 51 10000 1.95 195 09:58 25.10.2021
5110 Clouds 19 1018 46 10000 1.61 182 07:41 25.10.2021
5111 Clouds 19 1020 45 10000 0.64 155 05:55 25.10.2021
5112 Rain 8 1021 85 10000 0.97 26 00:53 25.10.2021
5113 Rain 7 1021 85 10000 0.97 26 00:35 25.10.2021
5114 Rain 8 1021 83 10000 1.05 22 23:45 24.10.2021
5115 Clouds 8 1021 86 10000 0.95 16 22:42 24.10.2021
5116 Clouds 5 1021 59 10000 0.94 6 22:21 24.10.2021
5117 Clouds 8 1021 87 10000 0.94 6 21:37 24.10.2021
5118 Clouds 8 1021 87 10000 0.94 6 21:37 24.10.2021
5119 Rain 5 1022 58 10000 0.63 349 20:42 24.10.2021
5120 Rain 5 1022 58 10000 0.49 313 19:50 24.10.2021
5121 Rain 8 1022 84 10000 0.47 272 18:47 24.10.2021
5122 Rain 6 1023 55 10000 0.45 236 17:48 24.10.2021
5123 Rain 7 1023 61 10000 1.2 205 16:32 24.10.2021
5124 Rain 8 1023 57 10000 1.82 194 15:23 24.10.2021
5125 Clear 10 1023 75 10000 2.07 193 13:43 24.10.2021
5126 Clear 12 1023 68 10000 2.43 201 12:29 24.10.2021
5127 Clear 15 1023 52 10000 2.43 201 11:36 24.10.2021
5128 Clear 17 1022 45 10000 2.68 202 10:40 24.10.2021
5129 Clear 18 1022 41 10000 2.68 213 08:50 24.10.2021
5130 Clear 13 1026 55 10000 0.49 34 03:30 24.10.2021
5131 Rain 2 1026 59 10000 0.79 8 23:55 23.10.2021
5132 Clouds 2 1026 59 10000 0.62 2 22:54 23.10.2021
5133 Rain 3 1026 56 10000 0.41 319 20:59 23.10.2021
5134 Clear 3 1027 54 10000 0.51 302 19:36 23.10.2021
5135 Rain 4 1027 53 10000 0.56 249 18:44 23.10.2021
5136 Rain 4 1028 51 10000 0.91 220 17:46 23.10.2021
5137 Rain 8 1028 63 10000 1.35 209 17:18 23.10.2021
5138 Clear 8 1028 71 10000 1.66 204 15:56 23.10.2021
5139 Clear 10 1028 60 10000 2.31 198 13:32 23.10.2021
5140 Clouds 1 1030 47 10000 0.51 6 00:45 23.10.2021
5141 Rain 2 1029 47 10000 0.52 6 23:36 22.10.2021
5142 Clouds 2 1029 44 10000 0.25 241 21:29 22.10.2021
5143 Rain 7 1030 62 10000 1.06 195 19:29 22.10.2021
5144 Rain 5 1030 41 10000 1.21 197 18:24 22.10.2021
5145 Clear 5 1030 37 10000 1.88 194 16:27 22.10.2021
5146 Clear 9 1030 49 10000 2.05 190 14:35 22.10.2021
5147 Clear 12 1029 39 10000 2.11 171 12:41 22.10.2021
5148 Clear 12 1029 39 10000 2.11 171 12:41 22.10.2021
5149 Clear 17 1028 22 10000 1.76 165 10:56 22.10.2021
5150 Clear 19 1028 22 10000 0.84 157 09:57 22.10.2021
5151 Clear 19 1028 21 10000 0.84 157 09:32 22.10.2021
5152 Clear 18 1029 22 10000 1.31 337 07:29 22.10.2021
5153 Clear 16 1030 20 10000 1.85 340 06:20 22.10.2021
5154 Clear 2 1029 36 10000 2.22 360 00:40 22.10.2021
5155 Clear 2 1029 35 10000 2.33 355 23:49 21.10.2021
5156 Clear 2 1028 34 10000 2.38 351 22:40 21.10.2021
5157 Clear 4 1028 32 10000 2.51 341 21:23 21.10.2021
5158 Clear 5 1028 30 10000 2.5 342 20:21 21.10.2021
5159 Clear 10 1028 37 10000 2.58 347 19:31 21.10.2021
5160 Clear 12 1028 33 10000 2.79 345 18:59 21.10.2021
5161 Clear 12 1028 33 10000 2.79 345 18:30 21.10.2021
5162 Clear 10 1027 29 10000 3.15 346 17:50 21.10.2021
5163 Rain 7 1027 27 10000 3.75 350 16:40 21.10.2021
5164 Clear 8 1025 24 10000 4.28 349 15:22 21.10.2021
5165 Clear 8 1025 24 10000 4.28 349 14:50 21.10.2021
5166 Clear 7 1025 23 10000 3.69 346 13:42 21.10.2021
5167 Clear 15 1023 20 10000 2.48 335 11:47 21.10.2021
5168 Clear 20 1022 18 10000 4.82 301 09:26 21.10.2021
5169 Clear 19 1023 15 10000 4.51 311 07:33 21.10.2021
5170 Clear 18 1024 16 10000 4.81 329 06:28 21.10.2021
5171 Clear 4 1024 32 10000 2.38 337 00:32 21.10.2021
5172 Clear 5 1023 81 10000 1.71 350 22:23 20.10.2021
5173 Rain 2 1023 38 10000 1.71 350 21:47 20.10.2021
5174 Clear 3 1023 40 10000 1.53 351 20:58 20.10.2021
5175 Clear 2 1023 40 10000 1.53 351 20:37 20.10.2021
5176 Clear 2 1023 43 10000 1.38 347 20:00 20.10.2021
5177 Clear 3 1023 46 10000 1.21 336 19:19 20.10.2021
5178 Rain 3 1023 48 10000 0.97 325 18:29 20.10.2021
5179 Clear 5 1023 53 10000 0.83 243 16:27 20.10.2021
5180 Clear 11 1023 48 10000 1.8 213 13:46 20.10.2021
5181 Clear 15 1022 38 10000 1.56 189 09:52 20.10.2021
5182 Clear 11 1026 29 10000 0.27 3 05:29 20.10.2021
5183 Clear 3 1027 38 10000 0.88 20 01:48 20.10.2021
5184 Clear 1 1027 42 10000 0.96 20 00:32 20.10.2021
5185 Snow 0 1027 42 10000 0.76 5 22:30 19.10.2021
5186 Clear 0 1027 42 10000 0.4 333 21:35 19.10.2021
5187 Snow 0 1028 40 10000 0.73 209 20:26 19.10.2021
5188 Snow 1 1028 39 10000 0.87 212 19:56 19.10.2021
5189 Snow 1 1028 37 10000 1.49 207 19:29 19.10.2021
5190 Rain 3 1028 37 10000 1.49 207 18:32 19.10.2021
5191 Clouds 2 1029 32 10000 2.06 205 17:24 19.10.2021
5192 Clouds 10 1029 27 10000 2.82 203 15:28 19.10.2021
5193 Clouds 11 1029 27 10000 2.82 203 14:33 19.10.2021
5194 Clouds 11 1029 25 10000 3.19 196 13:50 19.10.2021
5195 Clouds 11 1029 21 10000 2.71 172 11:59 19.10.2021
5196 Clouds 12 1028 19 10000 2.03 159 11:23 19.10.2021
5197 Clear 14 1029 16 10000 1.37 152 09:42 19.10.2021
5198 Clear 14 1029 15 10000 1 151 08:56 19.10.2021
5199 Clear 4 1032 40 10000 2.8 33 00:39 19.10.2021
5200 Clear 5 1032 42 10000 3 38 23:57 18.10.2021
5201 Clear 6 1032 42 10000 3 38 23:36 18.10.2021
5202 Clear 7 1031 37 10000 3.56 44 22:55 18.10.2021
5203 Clear 7 1030 37 10000 4.3 43 22:18 18.10.2021
5204 Rain 8 1030 30 10000 4.78 39 20:46 18.10.2021
5205 Clouds 8 1030 29 10000 4.34 35 20:21 18.10.2021
5206 Clouds 7 1030 29 10000 4.34 35 19:31 18.10.2021
5207 Rain 10 1030 30 10000 4.2 37 18:58 18.10.2021
5208 Rain 12 1028 31 10000 5.13 37 16:33 18.10.2021
5209 Rain 7 1025 45 10000 3.15 48 14:44 18.10.2021
5210 Clear 15 1020 45 10000 2.06 109 11:59 18.10.2021
5211 Clouds 19 1018 25 10000 1.94 90 09:48 18.10.2021
5212 Clouds 17 1018 35 10000 1.91 54 07:46 18.10.2021
5213 Clear 4 1020 76 10000 0.89 41 00:30 18.10.2021
5214 Clear 4 1020 73 10000 0.74 35 22:48 17.10.2021
5215 Rain 4 1020 73 10000 0.26 354 21:44 17.10.2021
5216 Rain 4 1020 74 10000 0.44 240 20:57 17.10.2021
5217 Rain 6 1021 66 10000 0.99 223 20:21 17.10.2021
5218 Rain 7 1022 56 10000 0.57 241 19:38 17.10.2021
5219 Clear 9 1022 49 10000 1.27 219 18:35 17.10.2021
5220 Clear 9 1023 49 10000 2.49 213 16:47 17.10.2021
5221 Clear 10 1024 49 10000 3.22 209 14:40 17.10.2021
5222 Clear 10 1024 48 10000 3.42 206 14:22 17.10.2021
5223 Clear 11 1024 47 10000 3.42 206 13:33 17.10.2021
5224 Clear 12 1024 37 10000 3.54 205 11:49 17.10.2021
5225 Clear 16 1025 29 10000 4.04 210 10:19 17.10.2021
5226 Clear 16 1025 29 10000 4.04 210 10:19 17.10.2021
5227 Clear 16 1025 25 10000 3.72 210 09:21 17.10.2021
5228 Clear 14 1028 16 10000 2.67 207 06:52 17.10.2021
5229 Clear -2 1033 26 10000 0.72 21 00:49 17.10.2021
5230 Snow 0 1033 26 10000 0.91 14 23:31 16.10.2021
5231 Snow -1 1035 27 10000 0.75 335 21:28 16.10.2021
5232 Snow -1 1035 27 10000 0.75 335 20:30 16.10.2021
5233 Snow 0 1036 26 10000 0.46 297 19:42 16.10.2021
5234 Snow 0 1037 25 10000 0.68 272 19:20 16.10.2021
5235 Snow 0 1037 25 10000 0.68 272 18:45 16.10.2021
5236 Snow 0 1037 23 10000 0.84 265 18:26 16.10.2021
5237 Snow 1 1037 23 10000 0.84 265 17:49 16.10.2021
5238 Clear 2 1038 20 10000 0.73 269 17:20 16.10.2021
5239 Clear 10 1037 15 10000 1.56 325 13:45 16.10.2021
5240 Clear 12 1036 12 10000 4.05 311 11:25 16.10.2021
5241 Clear 13 1036 11 10000 4.52 312 09:45 16.10.2021
5242 Clear 12 1038 11 10000 4.7 324 06:48 16.10.2021
5243 Clear 5 1039 16 10000 5.28 358 01:24 16.10.2021
5244 Clear 4 1038 16 10000 6.08 358 23:27 15.10.2021
5245 Clear 7 1037 16 10000 6.24 1 22:22 15.10.2021
5246 Clear 7 1037 16 10000 6.24 1 21:50 15.10.2021
5247 Rain 8 1037 18 10000 6.15 4 21:20 15.10.2021
5248 Clear 8 1037 18 10000 6.15 4 20:44 15.10.2021
5249 Rain 7 1037 19 10000 6 6 19:21 15.10.2021
5250 Rain 8 1036 18 10000 5.81 5 18:29 15.10.2021
5251 Rain 10 1035 16 10000 5.52 7 16:26 15.10.2021
5252 Rain 11 1033 15 10000 5.81 9 15:22 15.10.2021
5253 Clouds 14 1030 18 10000 5.13 6 12:28 15.10.2021
5254 Clouds 14 1030 18 10000 5.13 6 12:28 15.10.2021
5255 Clouds 17 1028 19 10000 5.43 5 11:20 15.10.2021
5256 Clouds 20 1028 19 10000 5.43 5 10:42 15.10.2021
5257 Clouds 20 1027 18 10000 6.05 348 08:57 15.10.2021
5258 Clouds 20 1026 21 10000 5.99 341 05:31 15.10.2021
5259 Rain 14 1024 73 10000 2.21 0 00:38 15.10.2021
5260 Rain 14 1023 75 10000 2.2 4 23:45 14.10.2021
5261 Rain 14 1023 77 10000 2.01 12 22:44 14.10.2021
5262 Rain 14 1023 79 10000 1.94 359 21:43 14.10.2021
5263 Rain 14 1023 84 10000 1.72 11 20:23 14.10.2021
5264 Rain 14 1023 83 10000 1.72 11 19:52 14.10.2021
5265 Rain 14 1023 88 10000 1.51 9 18:50 14.10.2021
5266 Rain 14 1023 86 10000 0.13 159 17:25 14.10.2021
5267 Rain 15 1023 85 10000 0.13 160 16:46 14.10.2021
5268 Rain 16 1022 78 10000 0.71 185 15:24 14.10.2021
5269 Clouds 16 1022 74 10000 0.71 185 14:40 14.10.2021
5270 Clouds 17 1021 75 10000 2.17 215 13:35 14.10.2021
5271 Clouds 18 1021 66 10000 2.83 202 11:43 14.10.2021
5272 Clouds 21 1021 50 10000 2.27 278 09:50 14.10.2021
5273 Rain 18 1022 61 10000 2.77 316 06:47 14.10.2021
5274 Clouds 15 1023 73 10000 1.79 356 00:54 14.10.2021
5275 Rain 15 1023 71 10000 1.49 352 22:51 13.10.2021
5276 Clouds 15 1022 74 10000 1.18 2 21:41 13.10.2021
5277 Rain 15 1023 73 10000 1.37 351 20:46 13.10.2021
5278 Rain 15 1023 69 10000 0.78 337 19:48 13.10.2021
5279 Rain 15 1023 70 10000 0.88 4 18:49 13.10.2021
5280 Rain 16 1022 71 10000 0.04 220 17:36 13.10.2021
5281 Clouds 16 1022 70 10000 1.24 211 15:23 13.10.2021
5282 Rain 15 1022 70 10000 1.24 211 14:44 13.10.2021
5283 Clouds 15 1022 63 10000 1.6 181 12:54 13.10.2021
5284 Clouds 18 1022 53 10000 1.22 178 11:55 13.10.2021
5285 Clouds 20 1021 34 10000 1.17 174 10:21 13.10.2021
5286 Clouds 20 1022 34 10000 0.37 173 07:56 13.10.2021
5287 Clouds 17 1024 37 10000 0.39 36 05:41 13.10.2021
5288 Clouds 15 1026 66 10000 0.33 124 02:24 13.10.2021
5289 Rain 12 1026 75 10000 0.87 133 23:55 12.10.2021
5290 Clouds 12 1026 74 10000 0.9 126 23:29 12.10.2021
5291 Rain 13 1026 69 10000 0.9 126 22:43 12.10.2021
5292 Rain 14 1026 65 10000 0.92 137 21:19 12.10.2021
5293 Rain 14 1026 59 10000 0.92 137 20:33 12.10.2021
5294 Rain 14 1027 61 10000 0.75 119 19:51 12.10.2021
5295 Rain 12 1027 60 10000 1.01 160 18:27 12.10.2021
5296 Rain 12 1027 60 10000 1.01 160 17:35 12.10.2021
5297 Clouds 12 1027 75 10000 1.17 170 16:36 12.10.2021
5298 Rain 12 1027 74 10000 1.4 170 15:43 12.10.2021
5299 Clouds 12 1027 74 10000 1.75 167 14:30 12.10.2021
5300 Clear 12 1027 70 10000 1.68 166 13:42 12.10.2021
5301 Clear 17 1026 36 10000 2.22 156 11:36 12.10.2021
5302 Clear 20 1026 24 10000 2.05 153 09:41 12.10.2021
5303 Clear 21 1026 26 10000 1.81 147 08:42 12.10.2021
5304 Clear 19 1027 23 10000 1.01 98 06:49 12.10.2021
5305 Clear 17 1029 28 10000 1.37 36 05:29 12.10.2021
5306 Clear 16 1029 28 10000 1.37 36 04:31 12.10.2021
5307 Clear 9 1028 70 10000 1.23 10 00:18 12.10.2021
5308 Clear 9 1028 69 10000 1.23 10 00:18 12.10.2021
5309 Clear 9 1028 69 10000 1.23 10 00:18 12.10.2021
5310 Clear 9 1028 69 10000 1.23 10 00:18 12.10.2021
5311 Clear 9 1028 73 10000 1.23 10 23:37 11.10.2021
5312 Rain 8 1028 79 10000 1.42 16 22:56 11.10.2021
5313 Rain 6 1028 44 10000 1.53 22 21:41 11.10.2021
5314 Rain 9 1027 72 10000 1.27 19 20:32 11.10.2021
5315 Rain 10 1028 68 10000 0.82 5 19:38 11.10.2021
5316 Rain 6 1028 41 10000 0.23 327 18:24 11.10.2021
5317 Rain 6 1028 39 10000 0.31 256 16:49 11.10.2021
5318 Rain 6 1028 38 10000 0.59 223 16:31 11.10.2021
5319 Clear 7 1028 38 10000 0.59 223 15:45 11.10.2021
5320 Clear 10 1028 75 10000 0.97 201 14:54 11.10.2021
5321 Clear 10 1027 70 10000 1.3 180 14:22 11.10.2021
5322 Clear 12 1027 64 10000 1.3 180 13:36 11.10.2021
5323 Clear 19 1026 27 10000 1.6 127 11:25 11.10.2021
5324 Clear 21 1026 19 10000 1.26 110 09:55 11.10.2021
5325 Clear 20 1027 21 10000 1.18 82 08:41 11.10.2021
5326 Clear 15 1030 27 10000 2.6 359 03:47 11.10.2021
5327 Rain 9 1030 54 10000 2.48 356 01:34 11.10.2021
5328 Clouds 8 1030 54 10000 2.2 357 00:43 11.10.2021
5329 Rain 7 1029 64 10000 2.2 351 23:52 10.10.2021
5330 Rain 10 1029 51 10000 2.05 350 21:51 10.10.2021
5331 Rain 10 1029 51 10000 2.05 350 21:51 10.10.2021
5332 Rain 9 1029 57 10000 1.76 341 21:28 10.10.2021
5333 Rain 9 1029 55 10000 1.92 349 20:41 10.10.2021
5334 Rain 11 1029 44 10000 1.73 348 20:20 10.10.2021
5335 Rain 12 1029 36 10000 1.73 348 19:52 10.10.2021
5336 Rain 12 1029 34 10000 1.73 348 19:33 10.10.2021
5337 Rain 13 1029 33 10000 1.37 341 18:28 10.10.2021
5338 Rain 14 1029 30 10000 1.76 317 15:57 10.10.2021
5339 Rain 14 1029 31 10000 1.76 317 15:38 10.10.2021
5340 Clouds 14 1028 37 10000 2.45 356 13:42 10.10.2021
5341 Clouds 15 1027 32 10000 2.81 7 12:44 10.10.2021
5342 Clouds 16 1027 33 10000 2.93 5 12:23 10.10.2021
5343 Clouds 17 1026 22 10000 3.53 354 10:37 10.10.2021
5344 Clouds 19 1025 26 10000 3.86 330 09:27 10.10.2021
5345 Clouds 19 1025 26 10000 3.86 330 08:52 10.10.2021
5346 Clouds 16 1027 20 10000 4.83 315 06:36 10.10.2021
5347 Clouds 15 1027 34 10000 5.73 318 02:28 10.10.2021
5348 Clouds 13 1026 43 10000 5.22 319 00:54 10.10.2021
5349 Clouds 13 1026 43 10000 5.22 319 00:54 10.10.2021
5350 Clouds 14 1025 40 10000 5.08 323 23:52 09.10.2021
5351 Rain 14 1023 39 10000 5.82 326 22:26 09.10.2021
5352 Rain 14 1023 39 10000 5.82 326 21:30 09.10.2021
5353 Rain 15 1023 32 10000 6.04 326 20:43 09.10.2021
5354 Rain 15 1023 40 10000 6.4 323 19:41 09.10.2021
5355 Rain 14 1023 32 10000 6.75 319 18:51 09.10.2021
5356 Rain 14 1022 37 10000 6.29 311 18:27 09.10.2021
5357 Rain 15 1021 94 10000 1.24 280 16:26 09.10.2021
5358 Rain 15 1021 95 10000 1.36 229 14:57 09.10.2021
5359 Rain 15 1020 96 10000 1.45 219 13:40 09.10.2021
5360 Rain 14 1020 96 10000 1.44 206 12:37 09.10.2021
5361 Rain 14 1018 95 10000 1.21 176 11:26 09.10.2021
5362 Rain 14 1018 95 10000 0.87 164 10:22 09.10.2021
5363 Rain 14 1018 94 10000 0.6 181 09:30 09.10.2021
5364 Rain 14 1018 93 9440 1.09 184 08:28 09.10.2021
5365 Clouds 14 1019 94 10000 1.38 166 06:54 09.10.2021
5366 Clouds 13 1020 95 10000 0.96 161 05:27 09.10.2021
5367 Rain 12 1021 96 10000 0.87 128 02:49 09.10.2021
5368 Clouds 12 1020 95 10000 1.07 110 00:45 09.10.2021
5369 Clouds 12 1020 95 10000 1.17 118 23:35 08.10.2021
5370 Rain 13 1020 95 10000 0.95 132 22:49 08.10.2021
5371 Rain 13 1020 95 10000 1.18 126 21:47 08.10.2021
5372 Rain 14 1021 95 10000 0.98 144 20:31 08.10.2021
5373 Rain 14 1022 91 10000 2.43 163 18:50 08.10.2021
5374 Clouds 15 1022 76 10000 1.87 154 17:26 08.10.2021
5375 Rain 14 1022 76 10000 1.87 154 16:45 08.10.2021
5376 Rain 14 1022 76 10000 1.63 162 16:22 08.10.2021
5377 Clouds 14 1021 76 10000 1.82 159 13:49 08.10.2021
5378 Clouds 16 1021 67 10000 2.14 154 12:41 08.10.2021
5379 Clouds 20 1020 54 10000 2.63 162 10:59 08.10.2021
5380 Clouds 21 1020 48 10000 2.42 157 10:25 08.10.2021
5381 Clear 20 1021 51 10000 2.11 163 06:51 08.10.2021
5382 Rain 9 1022 96 10000 0.08 211 23:29 07.10.2021
5383 Rain 9 1022 95 10000 0.08 211 22:57 07.10.2021
5384 Rain 10 1022 95 10000 0.67 148 21:33 07.10.2021
5385 Rain 10 1022 95 10000 0.49 156 20:49 07.10.2021
5386 Rain 10 1022 93 10000 0.35 151 19:39 07.10.2021
5387 Rain 10 1023 92 10000 0.74 162 18:59 07.10.2021
5388 Rain 11 1023 91 10000 0.76 178 17:38 07.10.2021
5389 Rain 12 1023 87 10000 0.86 195 16:42 07.10.2021
5390 Rain 13 1023 86 10000 1.68 180 14:57 07.10.2021
5391 Rain 13 1022 82 10000 1.95 172 13:44 07.10.2021
5392 Rain 14 1022 80 10000 1.98 168 13:20 07.10.2021
5393 Clear 18 1021 59 10000 2.02 158 11:48 07.10.2021
5394 Clear 19 1020 54 10000 1.98 157 10:48 07.10.2021
5395 Clear 19 1020 54 10000 1.98 157 10:48 07.10.2021
5396 Clear 19 1020 54 10000 1.98 157 10:48 07.10.2021
5397 Clear 20 1020 49 10000 1.66 157 09:51 07.10.2021
5398 Clear 20 1020 46 10000 1.47 164 08:55 07.10.2021
5399 Clear 19 1021 47 10000 0.76 161 08:25 07.10.2021
5400 Clear 18 1021 50 10000 1.29 185 07:40 07.10.2021
5401 Clear 18 1022 52 10000 0.73 182 06:48 07.10.2021
5402 Clouds 11 1023 80 10000 0.27 340 02:21 07.10.2021
5403 Clouds 8 1023 97 10000 0.73 359 23:35 06.10.2021
5404 Clouds 7 1023 97 10000 0.41 317 22:41 06.10.2021
5405 Rain 8 1023 96 10000 0.9 232 21:45 06.10.2021
5406 Clouds 7 1023 89 10000 1.19 237 20:34 06.10.2021
5407 Clouds 8 1024 96 10000 1.39 211 19:28 06.10.2021
5408 Rain 9 1024 95 10000 1.35 208 18:20 06.10.2021
5409 Rain 9 1025 94 10000 0.85 195 16:44 06.10.2021
5410 Clouds 11 1025 85 10000 0.55 110 15:24 06.10.2021
5411 Clouds 11 1024 84 10000 0.91 65 13:31 06.10.2021
5412 Rain 11 1024 84 10000 0.91 65 12:53 06.10.2021
5413 Rain 10 1024 93 10000 1.2 60 12:29 06.10.2021
5414 Rain 10 1024 93 10000 1.2 60 11:46 06.10.2021
5415 Rain 11 1024 92 10000 2.42 46 09:57 06.10.2021
5416 Rain 11 1024 90 10000 2.42 46 09:37 06.10.2021
5417 Rain 11 1024 90 10000 2.52 42 08:39 06.10.2021
5418 Rain 12 1026 86 10000 1.66 23 06:19 06.10.2021
5419 Rain 13 1027 82 10000 1.65 5 04:56 06.10.2021
5420 Rain 11 1028 93 10000 0.98 45 00:25 06.10.2021
5421 Clouds 11 1028 93 10000 0.98 45 23:52 05.10.2021
5422 Clouds 11 1028 93 10000 0.98 45 23:32 05.10.2021
5423 Rain 11 1028 93 10000 1.18 66 22:38 05.10.2021
5424 Rain 12 1028 92 10000 1.38 83 21:58 05.10.2021
5425 Rain 12 1028 92 10000 1.38 83 21:32 05.10.2021
5426 Rain 12 1029 91 10000 2.37 90 20:38 05.10.2021
5427 Rain 12 1029 94 10000 1.77 84 20:18 05.10.2021
5428 Rain 12 1030 94 10000 0.68 24 19:26 05.10.2021
5429 Rain 12 1030 94 10000 0.68 24 18:45 05.10.2021
5430 Rain 12 1030 92 10000 1.77 259 16:18 05.10.2021
5431 Rain 13 1029 88 10000 1.87 312 14:29 05.10.2021
5432 Rain 14 1029 91 10000 1.33 311 13:27 05.10.2021
5433 Rain 15 1029 79 10000 1.33 311 12:36 05.10.2021
5434 Rain 15 1028 80 10000 0.86 313 11:58 05.10.2021
5435 Rain 16 1028 66 10000 0.88 5 10:39 05.10.2021
5436 Rain 16 1028 63 10000 0.97 29 08:38 05.10.2021
5437 Rain 13 1029 82 10000 1.18 142 01:47 05.10.2021
5438 Rain 12 1029 88 10000 0.8 53 23:40 04.10.2021
5439 Rain 12 1028 94 10000 1.12 10 21:42 04.10.2021
5440 Rain 12 1028 94 10000 2.1 341 18:54 04.10.2021
5441 Rain 12 1028 93 10000 2.42 336 17:44 04.10.2021
5442 Rain 12 1028 93 10000 1.97 316 15:59 04.10.2021
5443 Rain 12 1028 93 10000 1.21 304 15:29 04.10.2021
5444 Rain 12 1028 92 10000 1.83 334 14:34 04.10.2021
5445 Rain 12 1028 90 9175 1.4 319 13:48 04.10.2021
5446 Rain 12 1027 89 9177 1.09 309 13:23 04.10.2021
5447 Rain 13 1026 86 10000 1.06 343 11:34 04.10.2021
5448 Rain 14 1025 81 10000 1.94 335 10:47 04.10.2021
5449 Rain 15 1024 76 10000 1 9 09:48 04.10.2021
5450 Rain 17 1023 61 10000 1.61 43 08:32 04.10.2021
5451 Rain 18 1024 47 10000 0.98 35 06:51 04.10.2021
5452 Rain 17 1020 40 10000 3.31 12 23:42 03.10.2021
5453 Rain 18 1020 41 10000 3.83 15 22:33 03.10.2021
5454 Rain 18 1020 41 10000 3.83 15 22:33 03.10.2021
5455 Clouds 19 1018 39 10000 4.2 28 21:36 03.10.2021
5456 Rain 17 1018 52 10000 4.2 23 20:50 03.10.2021
5457 Rain 16 1017 57 10000 3.86 13 19:56 03.10.2021
5458 Rain 18 1016 46 10000 4.06 10 18:31 03.10.2021
5459 Rain 19 1015 47 10000 3.59 355 17:41 03.10.2021
5460 Rain 19 1014 50 10000 2.82 355 15:45 03.10.2021
5461 Rain 21 1013 55 10000 2.06 13 14:39 03.10.2021
5462 Clouds 21 1012 79 10000 2.44 13 13:40 03.10.2021
5463 Rain 21 1012 67 10000 3.28 14 13:20 03.10.2021
5464 Clouds 21 1012 71 10000 2.79 12 11:49 03.10.2021
5465 Rain 21 1011 91 10000 2.26 28 10:33 03.10.2021
5466 Rain 21 1009 88 10000 2.63 25 08:33 03.10.2021
5467 Clouds 19 1008 88 10000 1.98 23 00:26 03.10.2021
5468 Clouds 20 1008 89 10000 1.2 349 22:23 02.10.2021
5469 Rain 20 1008 89 10000 0.73 358 20:50 02.10.2021
5470 Rain 20 1009 88 4853 0.12 95 18:59 02.10.2021
5471 Clouds 20 1009 87 4853 0.12 95 18:31 02.10.2021
5472 Rain 19 1010 87 10000 1.81 1 17:38 02.10.2021
5473 Rain 20 1010 85 10000 2.31 344 16:46 02.10.2021
5474 Rain 19 1009 81 10000 0.77 113 14:42 02.10.2021
5475 Rain 18 1010 86 10000 0.47 124 15:41 30.09.2021
5476 Rain 18 1010 86 10000 0.47 124 15:41 30.09.2021
5477 Rain 18 1010 85 10000 1.35 123 14:42 30.09.2021
5478 Clouds 21 1008 78 10000 1.79 66 12:22 30.09.2021
5479 Clouds 23 1007 73 10000 2.48 53 11:31 30.09.2021
5480 Clouds 23 1007 71 10000 2.48 53 10:36 30.09.2021
5481 Clouds 22 1007 74 10000 2.35 48 08:54 30.09.2021
5482 Clouds 23 1007 71 10000 2.6 57 08:22 30.09.2021
5483 Clouds 21 1008 80 10000 2.4 46 05:50 30.09.2021
5484 Clouds 19 1009 81 10000 1.9 47 02:33 30.09.2021
5485 Rain 19 1009 87 10000 1.81 63 00:37 30.09.2021
5486 Rain 19 1009 93 10000 1.62 44 23:21 29.09.2021
5487 Rain 19 1009 86 10000 1.89 66 21:54 29.09.2021
5488 Rain 19 1009 89 10000 2 64 20:42 29.09.2021
5489 Rain 19 1010 89 10000 2.02 90 20:20 29.09.2021
5490 Rain 19 1010 88 10000 2.02 104 19:26 29.09.2021
5491 Rain 19 1011 84 10000 2.38 118 18:18 29.09.2021
5492 Rain 21 1011 76 10000 2.48 123 16:56 29.09.2021
5493 Rain 21 1011 76 10000 2.48 123 16:56 29.09.2021
5494 Rain 21 1011 75 10000 2.36 131 16:29 29.09.2021
5495 Rain 21 1011 71 10000 2.36 131 15:35 29.09.2021
5496 Rain 21 1011 67 10000 2.22 144 14:38 29.09.2021
5497 Rain 21 1010 56 10000 2.24 150 13:34 29.09.2021
5498 Clear 22 1010 50 10000 2.47 145 12:40 29.09.2021
5499 Clear 26 1009 41 10000 2.75 138 11:23 29.09.2021
5500 Clear 27 1009 33 10000 2.94 124 10:32 29.09.2021
5501 Clear 27 1009 33 10000 2.94 124 09:43 29.09.2021
5502 Clear 26 1009 30 10000 2.31 75 07:55 29.09.2021
5503 Clear 26 1010 31 10000 2.45 56 06:53 29.09.2021
5504 Rain 16 1009 95 10000 1.39 5 00:43 29.09.2021
5505 Rain 17 1009 95 10000 1.39 33 22:52 28.09.2021
5506 Rain 17 1008 94 10000 1.05 31 22:22 28.09.2021
5507 Rain 18 1008 94 10000 0.63 19 21:24 28.09.2021
5508 Rain 18 1009 94 10000 0.38 270 20:24 28.09.2021
5509 Rain 18 1008 93 10000 0.31 242 19:40 28.09.2021
5510 Rain 19 1009 93 10000 0.87 197 18:42 28.09.2021
5511 Rain 18 1009 91 10000 1.67 194 17:30 28.09.2021
5512 Rain 20 1009 87 10000 2.74 198 15:21 28.09.2021
5513 Clouds 21 1009 80 10000 2.83 187 13:28 28.09.2021
5514 Clouds 22 1009 75 10000 3.02 185 12:27 28.09.2021
5515 Clouds 23 1009 71 10000 3.02 185 11:55 28.09.2021
5516 Clouds 24 1009 69 10000 3.02 185 11:35 28.09.2021
5517 Clouds 25 1009 64 10000 3.18 189 10:33 28.09.2021
5518 Clouds 24 1009 61 10000 3.45 198 09:33 28.09.2021
5519 Clouds 25 1009 64 10000 3.35 201 08:44 28.09.2021
5520 Clouds 25 1010 65 10000 3.22 198 08:25 28.09.2021
5521 Clouds 24 1011 62 10000 3.04 198 06:47 28.09.2021
5522 Rain 21 1012 82 10000 1.6 192 04:48 28.09.2021
5523 Clouds 18 1013 95 10000 0.12 142 01:22 28.09.2021
5524 Rain 17 1013 94 10000 0.92 128 23:54 27.09.2021
5525 Rain 18 1013 93 10000 1.02 143 23:28 27.09.2021
5526 Rain 18 1013 91 10000 1.02 143 22:45 27.09.2021
5527 Rain 18 1013 89 10000 0.79 144 21:41 27.09.2021
5528 Rain 19 1013 89 10000 0.78 137 20:38 27.09.2021
5529 Rain 19 1014 88 10000 0.96 149 19:43 27.09.2021
5530 Rain 19 1015 88 10000 1.14 166 19:23 27.09.2021
5531 Rain 19 1015 87 10000 1.31 171 18:28 27.09.2021
5532 Rain 19 1015 86 10000 1.65 176 17:22 27.09.2021
5533 Rain 19 1015 83 10000 1.65 176 16:41 27.09.2021
5534 Rain 20 1015 78 10000 1.65 175 15:42 27.09.2021
5535 Clouds 21 1015 75 10000 1.7 185 14:32 27.09.2021
5536 Rain 22 1015 72 10000 1.71 185 13:30 27.09.2021
5537 Clouds 25 1014 54 10000 1.92 178 11:20 27.09.2021
5538 Clouds 27 1013 48 10000 1.75 169 09:53 27.09.2021
5539 Clouds 27 1013 44 10000 1.2 157 08:38 27.09.2021
5540 Clouds 23 1016 62 10000 1.19 357 05:21 27.09.2021
5541 Clouds 20 1016 77 10000 1.69 350 02:59 27.09.2021
5542 Rain 18 1015 95 10000 1.46 347 22:32 26.09.2021
5543 Rain 18 1015 95 10000 1.22 348 21:49 26.09.2021
5544 Rain 18 1016 95 10000 1.11 356 20:52 26.09.2021
5545 Rain 18 1016 95 10000 1.16 350 20:20 26.09.2021
5546 Rain 18 1016 95 10000 1.16 350 19:38 26.09.2021
5547 Rain 18 1017 95 10000 0.4 351 18:45 26.09.2021
5548 Rain 18 1017 94 10000 0.74 11 17:54 26.09.2021
5549 Rain 18 1018 94 10000 0.96 27 17:21 26.09.2021
5550 Rain 18 1018 94 10000 0.96 27 16:37 26.09.2021
5551 Clouds 19 1018 94 10000 1.23 1 15:58 26.09.2021
5552 Rain 19 1018 94 10000 1.2 22 14:46 26.09.2021
5553 Rain 19 1018 94 10000 1.16 359 13:54 26.09.2021
5554 Rain 20 1018 94 10000 1.03 46 12:56 26.09.2021
5555 Rain 20 1018 94 10000 1.38 64 12:20 26.09.2021
5556 Rain 20 1018 94 10000 1.38 64 11:37 26.09.2021
5557 Rain 20 1018 91 10000 1.56 43 10:23 26.09.2021
5558 Clouds 20 1018 89 10000 1.52 33 08:56 26.09.2021
5559 Rain 19 1019 93 10000 1.13 39 06:32 26.09.2021
5560 Clouds 19 1020 87 10000 1.34 47 00:21 26.09.2021
5561 Clouds 19 1019 89 10000 1.37 55 23:24 25.09.2021
5562 Clouds 19 1019 87 10000 1.37 55 22:38 25.09.2021
5563 Rain 19 1019 84 10000 1.44 42 21:55 25.09.2021
5564 Rain 20 1019 84 10000 1.44 42 21:31 25.09.2021
5565 Rain 19 1020 84 10000 1.38 40 20:45 25.09.2021
5566 Rain 19 1021 82 10000 0.87 119 18:55 25.09.2021
5567 Rain 20 1021 78 10000 0.37 97 17:55 25.09.2021
5568 Rain 20 1022 70 10000 0.6 74 15:48 25.09.2021
5569 Rain 21 1022 72 10000 0.9 187 13:57 25.09.2021
5570 Clouds 21 1022 73 10000 0.9 187 13:30 25.09.2021
5571 Clouds 23 1021 69 10000 1.62 191 12:25 25.09.2021
5572 Clouds 23 1021 61 10000 2.04 184 10:34 25.09.2021
5573 Rain 24 1020 58 10000 2.45 176 09:26 25.09.2021
5574 Clouds 24 1021 80 10000 1.4 172 07:56 25.09.2021
5575 Clouds 22 1021 81 10000 1.19 179 05:46 25.09.2021
5576 Clouds 19 1021 95 10000 2.12 124 23:50 24.09.2021
5577 Rain 19 1020 95 10000 1.69 108 21:42 24.09.2021
5578 Rain 19 1020 95 7871 1.63 99 20:34 24.09.2021
5579 Rain 19 1020 93 10000 1.68 94 19:47 24.09.2021
5580 Rain 19 1020 94 10000 1.43 72 18:33 24.09.2021
5581 Rain 19 1020 94 10000 1.5 63 17:54 24.09.2021
5582 Rain 19 1020 94 10000 1.5 63 17:36 24.09.2021
5583 Rain 19 1020 94 10000 1.51 53 17:18 24.09.2021
5584 Rain 19 1020 90 8211 1.37 37 13:57 24.09.2021
5585 Rain 19 1019 91 10000 2.2 36 12:58 24.09.2021
5586 Rain 19 1019 90 10000 2.2 36 12:39 24.09.2021
5587 Rain 19 1019 90 10000 2.18 36 12:20 24.09.2021
5588 Rain 19 1019 96 10000 2.36 49 10:25 24.09.2021
5589 Clouds 19 1019 95 10000 2.58 69 08:29 24.09.2021
5590 Rain 19 1019 96 10000 2.13 47 07:34 24.09.2021
5591 Rain 19 1020 95 10000 2.78 53 06:45 24.09.2021
5592 Rain 18 1021 97 9733 1.65 49 04:54 24.09.2021
5593 Clouds 19 1020 95 10000 2.62 56 23:57 23.09.2021
5594 Rain 19 1020 95 10000 2.69 56 22:22 23.09.2021
5595 Rain 19 1020 95 10000 2.69 56 21:52 23.09.2021
5596 Rain 19 1020 96 10000 2.56 71 20:34 23.09.2021
5597 Rain 20 1020 97 6487 2.84 109 19:31 23.09.2021
5598 Rain 21 1019 96 5286 2.28 108 17:46 23.09.2021
5599 Rain 23 1020 88 8423 2.96 152 15:30 23.09.2021
5600 Rain 23 1019 75 10000 3.05 152 14:59 23.09.2021
5601 Rain 23 1019 72 10000 2.29 129 13:45 23.09.2021
5602 Rain 24 1017 66 10000 1.2 97 13:19 23.09.2021
5603 Rain 24 1017 66 10000 1.2 97 12:49 23.09.2021
5604 Rain 25 1017 62 10000 1.33 160 12:22 23.09.2021
5605 Clouds 26 1017 62 10000 1.33 160 11:32 23.09.2021
5606 Clouds 27 1017 52 10000 3.78 180 10:20 23.09.2021
5607 Clouds 27 1017 52 10000 3.78 180 09:51 23.09.2021
5608 Clouds 28 1017 59 10000 2.92 143 07:54 23.09.2021
5609 Clouds 22 1019 75 10000 1.47 117 03:31 23.09.2021
5610 Rain 16 1015 79 10000 1.48 50 22:58 22.09.2021
5611 Rain 16 1014 79 10000 1.28 51 22:28 22.09.2021
5612 Rain 16 1014 79 10000 1.28 51 21:53 22.09.2021
5613 Rain 16 1014 79 10000 1.28 51 21:33 22.09.2021
5614 Rain 16 1014 80 10000 1.06 57 20:39 22.09.2021
5615 Rain 17 1014 78 10000 0.84 123 19:29 22.09.2021
5616 Rain 18 1014 78 10000 0.84 123 18:39 22.09.2021
5617 Rain 19 1014 76 10000 0.76 165 17:43 22.09.2021
5618 Rain 21 1014 75 10000 1.14 172 16:37 22.09.2021
5619 Rain 19 1013 71 10000 1.36 176 15:18 22.09.2021
5620 Clouds 20 1012 69 10000 1.8 171 13:48 22.09.2021
5621 Clouds 25 1011 59 10000 2.2 182 11:46 22.09.2021
5622 Clouds 29 1010 50 10000 2.47 179 10:45 22.09.2021
5623 Clear 30 1009 37 10000 2.08 181 09:24 22.09.2021
5624 Clear 29 1009 36 10000 1.85 188 08:28 22.09.2021
5625 Clear 28 1010 39 10000 1.4 202 06:59 22.09.2021
5626 Clear 27 1011 41 10000 0.2 259 05:53 22.09.2021
5627 Clear 25 1011 41 10000 0.2 259 05:32 22.09.2021
5628 Clear 24 1011 48 10000 1.09 5 03:48 22.09.2021
5629 Rain 13 1009 66 10000 1.09 334 00:21 22.09.2021
5630 Rain 13 1008 66 10000 1.04 329 22:52 21.09.2021
5631 Rain 14 1008 65 10000 1.23 329 21:36 21.09.2021
5632 Rain 18 1007 62 10000 1.08 327 20:26 21.09.2021
5633 Rain 20 1007 63 10000 1.07 293 19:20 21.09.2021
5634 Rain 18 1007 63 10000 1.14 318 17:35 21.09.2021
5635 Rain 16 1007 62 10000 1.15 331 16:35 21.09.2021
5636 Rain 22 1007 61 10000 1.35 4 15:39 21.09.2021
5637 Rain 22 1006 60 10000 1.59 15 14:57 21.09.2021
5638 Clear 17 1005 56 10000 1.43 6 13:56 21.09.2021
5639 Rain 20 1005 56 10000 1.43 6 13:36 21.09.2021
5640 Clear 24 1004 52 10000 1.68 7 12:35 21.09.2021
5641 Clear 27 1001 37 10000 2.99 351 10:26 21.09.2021
5642 Clear 27 1001 36 10000 4.28 314 08:28 21.09.2021
5643 Clouds 27 1002 37 10000 3.96 322 06:53 21.09.2021
5644 Rain 14 1001 76 10000 1.86 301 23:59 20.09.2021
5645 Clouds 14 1000 79 10000 1.4 303 22:25 20.09.2021
5646 Clouds 14 1000 79 10000 1.4 303 21:38 20.09.2021
5647 Clouds 14 1000 80 10000 1.28 312 20:34 20.09.2021
5648 Rain 15 1000 75 10000 1.66 307 19:31 20.09.2021
5649 Rain 15 1001 74 10000 1.52 297 17:47 20.09.2021
5650 Rain 17 1001 76 10000 1.75 307 16:43 20.09.2021
5651 Rain 16 1002 77 10000 1.88 305 15:50 20.09.2021
5652 Rain 16 1002 77 10000 1.88 305 15:32 20.09.2021
5653 Rain 17 1001 77 10000 2.34 327 14:24 20.09.2021
5654 Clouds 21 1001 73 10000 3.06 337 12:35 20.09.2021
5655 Clouds 21 1001 74 10000 3.53 335 11:44 20.09.2021
5656 Rain 22 1001 74 10000 4.61 334 10:24 20.09.2021
5657 Rain 21 1001 74 10000 4.61 334 09:37 20.09.2021
5658 Clouds 21 1001 81 10000 4.88 330 09:18 20.09.2021
5659 Rain 19 1002 84 10000 5.26 333 08:27 20.09.2021
5660 Rain 16 1007 93 10000 5.04 340 01:43 20.09.2021
5661 Rain 16 1008 94 10000 4.77 340 22:26 19.09.2021
5662 Rain 16 1008 94 10000 4.77 340 21:45 19.09.2021
5663 Rain 16 1009 94 8134 4.78 340 20:53 19.09.2021
5664 Rain 17 1010 95 9892 4.8 344 19:32 19.09.2021
5665 Rain 17 1011 95 5841 4.86 350 18:32 19.09.2021
5666 Rain 17 1013 95 4759 4.17 353 17:23 19.09.2021
5667 Rain 17 1013 95 4759 4.17 353 16:32 19.09.2021
5668 Rain 18 1014 95 5207 3.18 358 15:31 19.09.2021
5669 Rain 18 1014 95 4995 1.94 24 14:48 19.09.2021
5670 Rain 18 1014 95 5749 3.28 78 13:29 19.09.2021
5671 Rain 18 1014 95 5749 3.28 78 12:52 19.09.2021
5672 Rain 18 1014 95 5756 2.95 100 11:39 19.09.2021
5673 Rain 18 1014 94 7404 0.79 115 11:20 19.09.2021
5674 Rain 18 1013 93 8225 0.72 198 09:49 19.09.2021
5675 Rain 19 1013 94 10000 1.42 189 08:41 19.09.2021
5676 Rain 19 1014 92 10000 1.57 210 06:43 19.09.2021
5677 Rain 20 1016 89 10000 2.54 196 23:57 18.09.2021
5678 Rain 20 1015 90 10000 2.15 191 22:51 18.09.2021
5679 Rain 20 1015 92 10000 2.21 193 21:25 18.09.2021
5680 Rain 20 1015 92 10000 2.21 193 20:45 18.09.2021
5681 Rain 19 1017 84 10000 2.08 199 19:41 18.09.2021
5682 Rain 19 1017 81 10000 1.36 197 19:21 18.09.2021
5683 Rain 20 1017 81 10000 1.36 197 18:37 18.09.2021
5684 Rain 21 1017 79 10000 1.5 188 17:46 18.09.2021
5685 Rain 20 1017 78 10000 1.41 172 16:34 18.09.2021
5686 Rain 22 1016 73 10000 1.18 164 13:50 18.09.2021
5687 Rain 21 1016 72 10000 1.08 160 13:30 18.09.2021
5688 Rain 21 1016 72 10000 1.08 160 12:50 18.09.2021
5689 Clouds 24 1016 70 10000 1.48 163 11:42 18.09.2021
5690 Rain 24 1015 67 10000 1.75 167 10:35 18.09.2021
5691 Clouds 24 1015 64 10000 1.78 164 09:48 18.09.2021
5692 Clouds 24 1015 60 10000 1.79 164 09:19 18.09.2021
5693 Clouds 24 1016 57 10000 1.06 149 06:54 18.09.2021
5694 Clouds 19 1016 68 10000 1.25 17 00:42 18.09.2021
5695 Clouds 19 1015 69 10000 1.06 27 23:52 17.09.2021
5696 Rain 19 1015 68 10000 1.24 38 22:40 17.09.2021
5697 Rain 16 1015 68 10000 1.36 31 22:20 17.09.2021
5698 Rain 15 1015 67 10000 0.83 28 21:24 17.09.2021
5699 Rain 15 1015 67 10000 0.63 170 19:26 17.09.2021
5700 Rain 17 1015 65 10000 1.52 206 17:29 17.09.2021
5701 Rain 17 1015 66 10000 1.88 197 16:27 17.09.2021
5702 Rain 18 1014 61 10000 1.7 173 14:24 17.09.2021
5703 Clouds 26 1013 55 10000 2.44 179 11:30 17.09.2021
5704 Clear 28 1013 33 10000 1.25 143 08:55 17.09.2021
5705 Clouds 27 1013 33 10000 0.82 125 07:33 17.09.2021
5706 Rain 23 1017 47 10000 1.47 20 03:58 17.09.2021
5707 Rain 16 1016 73 10000 1.76 359 23:36 16.09.2021
5708 Rain 16 1016 76 10000 1.7 358 22:33 16.09.2021
5709 Rain 16 1016 78 10000 1.66 352 21:52 16.09.2021
5710 Rain 17 1016 81 10000 1.57 1 21:27 16.09.2021
5711 Rain 17 1016 84 10000 1.28 21 20:24 16.09.2021
5712 Rain 18 1016 80 10000 0.36 34 18:24 16.09.2021
5713 Rain 18 1016 80 10000 0.36 34 17:54 16.09.2021
5714 Rain 20 1016 77 10000 1.11 212 15:24 16.09.2021
5715 Rain 20 1016 77 10000 1.11 212 14:33 16.09.2021
5716 Clouds 21 1015 84 10000 1.83 174 12:52 16.09.2021
5717 Rain 22 1015 84 10000 1.83 174 12:33 16.09.2021
5718 Clouds 23 1015 82 10000 2.05 155 11:43 16.09.2021
5719 Clouds 23 1015 82 10000 2.05 155 11:43 16.09.2021
5720 Clouds 25 1014 78 10000 2.53 124 10:34 16.09.2021
5721 Rain 24 1013 73 10000 2.42 104 09:59 16.09.2021
5722 Rain 25 1013 64 10000 1.93 75 08:43 16.09.2021
5723 Rain 23 1013 67 10000 1.9 77 07:43 16.09.2021
5724 Clouds 23 1014 64 10000 1.13 24 06:54 16.09.2021
5725 Rain 22 1014 68 10000 0.94 348 06:31 16.09.2021
5726 Rain 20 1015 90 10000 0.87 334 02:57 16.09.2021
5727 Rain 20 1015 90 10000 1.15 353 00:45 16.09.2021
5728 Rain 20 1014 85 10000 1.36 11 22:52 15.09.2021
5729 Rain 20 1014 83 10000 1.36 14 21:56 15.09.2021
5730 Rain 20 1014 83 10000 1.36 14 21:56 15.09.2021
5731 Rain 20 1014 83 10000 1.36 14 21:30 15.09.2021
5732 Rain 20 1014 83 10000 1.36 14 21:30 15.09.2021
5733 Rain 21 1015 77 10000 1.37 0 20:24 15.09.2021
5734 Rain 21 1015 76 10000 1.05 354 19:29 15.09.2021
5735 Rain 20 1015 76 10000 0.51 18 18:25 15.09.2021
5736 Rain 21 1015 77 10000 0.47 109 17:26 15.09.2021
5737 Rain 21 1016 76 10000 0.66 112 16:27 15.09.2021
5738 Rain 21 1016 74 10000 0.77 100 14:46 15.09.2021
5739 Rain 22 1015 72 10000 0.89 97 14:24 15.09.2021
5740 Rain 22 1015 71 10000 0.8 105 13:40 15.09.2021
5741 Clouds 22 1015 70 10000 0.37 110 13:21 15.09.2021
5742 Clouds 23 1015 67 10000 0.85 196 12:21 15.09.2021
5743 Clouds 24 1015 67 10000 0.85 196 11:47 15.09.2021
5744 Clouds 25 1015 60 10000 1.9 200 10:56 15.09.2021
5745 Clouds 25 1015 57 10000 2.48 200 09:31 15.09.2021
5746 Clouds 24 1015 58 10000 2.26 201 08:41 15.09.2021
5747 Clouds 23 1018 56 10000 1.96 184 05:55 15.09.2021
5748 Clouds 20 1019 79 10000 0.88 133 23:56 14.09.2021
5749 Rain 20 1019 79 10000 0.64 142 21:59 14.09.2021
5750 Rain 20 1019 77 10000 0.65 166 20:56 14.09.2021
5751 Rain 20 1020 75 10000 1.18 176 19:54 14.09.2021
5752 Rain 20 1020 70 10000 1.19 191 18:24 14.09.2021
5753 Rain 21 1020 69 10000 1.4 179 17:28 14.09.2021
5754 Rain 20 1020 68 10000 1.31 156 15:58 14.09.2021
5755 Rain 22 1021 68 10000 1.07 158 14:32 14.09.2021
5756 Rain 22 1019 66 10000 0.87 136 13:26 14.09.2021
5757 Clouds 24 1019 59 10000 1.17 138 10:57 14.09.2021
5758 Clouds 25 1019 56 10000 1.45 137 09:51 14.09.2021
5759 Clouds 26 1019 56 10000 1.46 140 09:18 14.09.2021
5760 Clouds 26 1020 57 10000 1.6 160 07:25 14.09.2021
5761 Rain 22 1021 87 10000 0.27 182 00:56 14.09.2021
5762 Rain 22 1020 89 10000 0.61 50 22:58 13.09.2021
5763 Rain 23 1020 90 10000 1.08 51 22:26 13.09.2021
5764 Rain 23 1020 90 10000 1.08 51 21:54 13.09.2021
5765 Rain 23 1020 90 10000 1.05 79 21:19 13.09.2021
5766 Rain 23 1020 91 10000 0.85 83 19:34 13.09.2021
5767 Rain 23 1020 91 10000 1.51 101 18:43 13.09.2021
5768 Rain 22 1019 93 10000 2.81 109 17:18 13.09.2021
5769 Rain 23 1018 92 10000 3.36 104 15:50 13.09.2021
5770 Clouds 22 1017 85 10000 2.32 98 14:19 13.09.2021
5771 Clouds 29 1015 71 10000 3.13 112 11:21 13.09.2021
5772 Clouds 28 1015 63 10000 2.41 111 09:54 13.09.2021
5773 Clouds 28 1015 66 10000 1.4 93 07:31 13.09.2021
5774 Rain 20 1015 96 10000 1.25 0 23:50 12.09.2021
5775 Rain 20 1015 96 10000 1.76 359 22:26 12.09.2021
5776 Rain 20 1015 96 10000 1.76 359 21:51 12.09.2021
5777 Clouds 20 1015 96 10000 0.85 3 20:41 12.09.2021
5778 Rain 21 1015 95 10000 1.37 27 19:54 12.09.2021
5779 Rain 21 1015 96 10000 1.27 30 19:54 12.09.2021
5780 Rain 20 1015 95 10000 1.43 38 19:28 12.09.2021
5781 Rain 21 1015 95 10000 1.29 33 18:31 12.09.2021
5782 Rain 21 1015 94 10000 1.44 52 16:42 12.09.2021
5783 Rain 23 1014 95 10000 1.7 57 14:59 12.09.2021
5784 Rain 23 1014 94 10000 1.81 58 13:51 12.09.2021
5785 Clouds 23 1013 95 10000 2.48 352 11:47 12.09.2021
5786 Clouds 23 1012 95 10000 2.36 357 10:18 12.09.2021
5787 Clouds 23 1012 94 10000 2.09 8 08:38 12.09.2021
5788 Clouds 23 1014 93 10000 2.15 41 02:56 12.09.2021
5789 Rain 22 1013 93 10000 2.19 43 00:44 12.09.2021
5790 Rain 23 1012 91 10000 2.18 63 22:25 11.09.2021
5791 Rain 24 1012 91 10000 2.18 63 21:37 11.09.2021
5792 Rain 24 1012 87 10000 3.12 95 19:33 11.09.2021
5793 Rain 24 1012 89 10000 3.55 93 17:53 11.09.2021
5794 Rain 23 1011 82 10000 1.39 71 16:21 11.09.2021
5795 Rain 24 1009 77 10000 1.56 87 14:22 11.09.2021
5796 Rain 25 1009 72 10000 1.6 98 13:20 11.09.2021
5797 Clear 30 1008 66 10000 1.73 107 11:34 11.09.2021
5798 Clear 31 1007 52 10000 2.09 99 09:41 11.09.2021
5799 Clear 31 1007 52 10000 2.09 99 09:41 11.09.2021
5800 Clear 30 1008 51 10000 1.49 91 07:50 11.09.2021
5801 Clouds 30 1009 52 10000 1.66 60 07:28 11.09.2021
5802 Clear 23 1009 91 10000 1.46 9 01:20 11.09.2021
5803 Rain 22 1009 93 10000 1.5 2 22:26 10.09.2021
5804 Rain 22 1009 93 10000 1.5 2 21:55 10.09.2021
5805 Rain 23 1009 90 10000 1.13 348 20:31 10.09.2021
5806 Rain 23 1009 86 10000 0.72 125 18:28 10.09.2021
5807 Rain 24 1009 84 10000 0.68 139 17:27 10.09.2021
5808 Rain 24 1009 81 10000 0.98 148 15:36 10.09.2021
5809 Rain 25 1007 73 10000 1.86 174 13:18 10.09.2021
5810 Clear 29 1008 55 10000 3.13 181 09:50 10.09.2021
5811 Clear 29 1009 47 10000 2.24 152 07:51 10.09.2021
5812 Clear 25 1011 46 10000 2.56 34 03:43 10.09.2021
5813 Rain 18 1010 90 10000 1.86 5 22:33 09.09.2021
5814 Rain 19 1010 94 10000 1.82 11 21:46 09.09.2021
5815 Rain 18 1010 96 10000 1.75 6 20:47 09.09.2021
5816 Rain 19 1010 85 10000 2.07 351 20:21 09.09.2021
5817 Rain 19 1009 89 10000 1.8 352 18:34 09.09.2021
5818 Rain 21 1009 87 10000 1.13 345 16:41 09.09.2021
5819 Rain 20 1008 86 10000 0.51 354 15:51 09.09.2021
5820 Clouds 23 1007 83 10000 0.91 18 12:53 09.09.2021
5821 Clouds 25 1006 77 10000 1.02 40 11:47 09.09.2021
5822 Rain 25 1006 70 10000 0.59 21 10:25 09.09.2021
5823 Clouds 27 1006 74 10000 0.84 38 08:55 09.09.2021
5824 Rain 25 1006 76 10000 0.66 29 06:39 09.09.2021
5825 Rain 20 1007 87 10000 1.76 133 02:56 09.09.2021
5826 Rain 20 1007 95 10000 0.97 143 22:53 08.09.2021
5827 Rain 19 1007 94 10000 0.78 140 21:36 08.09.2021
5828 Rain 19 1008 90 10000 1.2 151 20:19 08.09.2021
5829 Rain 20 1008 86 10000 0.99 151 19:23 08.09.2021
5830 Rain 20 1008 83 10000 1.27 179 18:29 08.09.2021
5831 Rain 21 1008 83 10000 1.27 179 17:57 08.09.2021
5832 Rain 22 1008 81 10000 1.33 189 16:38 08.09.2021
5833 Rain 23 1008 75 10000 0.96 132 14:30 08.09.2021
5834 Rain 23 1008 75 10000 0.96 132 14:30 08.09.2021
5835 Rain 23 1007 72 10000 1.56 74 14:30 08.09.2021
5836 Rain 23 1007 72 10000 1.56 74 14:30 08.09.2021
5837 Rain 23 1008 75 10000 0.96 132 14:30 08.09.2021
5838 Rain 24 1006 71 10000 0.49 354 12:54 08.09.2021
5839 Rain 25 1007 67 10000 1.64 205 12:27 08.09.2021
5840 Clouds 27 1006 61 10000 2.64 182 11:38 08.09.2021
5841 Rain 26 1006 61 10000 2.64 182 10:43 08.09.2021
5842 Rain 26 1006 53 10000 1.74 177 10:24 08.09.2021
5843 Clouds 29 1006 53 10000 2.28 173 08:54 08.09.2021
5844 Clouds 27 1007 57 10000 2.13 158 07:38 08.09.2021
5845 Clouds 26 1008 61 10000 1.35 146 05:35 08.09.2021
5846 Clouds 18 1008 93 10000 0.85 55 22:50 07.09.2021
5847 Rain 18 1008 94 10000 0.55 70 22:18 07.09.2021
5848 Rain 19 1008 91 10000 1.23 185 20:23 07.09.2021
5849 Rain 20 1009 90 10000 1.58 194 18:45 07.09.2021
5850 Rain 20 1009 88 10000 2.25 189 18:21 07.09.2021
5851 Rain 19 1010 86 10000 2.6 191 16:48 07.09.2021
5852 Rain 22 1010 83 10000 2.85 185 15:40 07.09.2021
5853 Clouds 23 1011 83 10000 1.4 190 14:44 07.09.2021
5854 Clear 25 1009 75 10000 2.43 167 12:45 07.09.2021
5855 Clear 27 1009 67 10000 2.94 187 11:51 07.09.2021
5856 Clear 28 1009 59 10000 3.76 197 10:43 07.09.2021
5857 Clear 27 1010 48 10000 3.84 202 08:39 07.09.2021
5858 Clear 28 1011 50 10000 3.89 202 07:44 07.09.2021
5859 Clear 24 1013 54 10000 2.21 198 05:41 07.09.2021
5860 Clear 19 1015 64 10000 0.23 140 02:38 07.09.2021
5861 Rain 15 1015 77 10000 1.05 359 00:53 07.09.2021
5862 Clear 14 1015 81 10000 1.04 356 23:36 06.09.2021
5863 Rain 15 1015 82 10000 0.96 339 22:57 06.09.2021
5864 Rain 15 1015 82 10000 0.96 339 22:39 06.09.2021
5865 Rain 14 1016 84 10000 0.91 323 21:29 06.09.2021
5866 Rain 16 1017 85 10000 0.76 264 19:32 06.09.2021
5867 Rain 15 1017 85 10000 0.76 264 18:53 06.09.2021
5868 Rain 15 1017 84 10000 0.86 257 18:24 06.09.2021
5869 Rain 15 1017 84 10000 0.86 257 17:36 06.09.2021
5870 Rain 17 1018 81 10000 0.82 237 15:56 06.09.2021
5871 Rain 18 1017 78 10000 0.45 128 14:26 06.09.2021
5872 Clouds 21 1017 80 10000 1.44 93 12:48 06.09.2021
5873 Clouds 23 1017 65 10000 2.01 45 10:59 06.09.2021
5874 Rain 24 1017 62 10000 3.08 6 09:59 06.09.2021
5875 Clouds 23 1017 65 10000 3.78 13 07:21 06.09.2021
5876 Rain 19 1019 96 10000 2.56 24 23:40 05.09.2021
5877 Rain 19 1018 95 10000 2.37 15 23:19 05.09.2021
5878 Rain 19 1018 95 10000 2.37 15 22:30 05.09.2021
5879 Rain 19 1018 95 10000 2.37 15 22:30 05.09.2021
5880 Rain 19 1018 95 7507 2.74 333 21:49 05.09.2021
5881 Rain 19 1018 96 7323 3.71 328 20:55 05.09.2021
5882 Rain 20 1019 98 4748 2.04 12 18:59 05.09.2021
5883 Rain 20 1019 97 4257 1.48 20 17:34 05.09.2021
5884 Rain 21 1019 85 10000 0.47 120 15:40 05.09.2021
5885 Rain 21 1018 76 10000 1.7 108 14:23 05.09.2021
5886 Rain 25 1018 74 10000 1.53 103 12:34 05.09.2021
5887 Clouds 25 1017 69 10000 2.62 112 10:59 05.09.2021
5888 Rain 25 1017 69 10000 2.62 112 10:33 05.09.2021
5889 Rain 25 1016 64 10000 2.37 109 09:22 05.09.2021
5890 Clouds 24 1016 62 10000 2.55 110 08:22 05.09.2021
5891 Clouds 22 1016 85 10000 0.92 76 03:19 05.09.2021
5892 Clouds 20 1016 94 10000 1.61 54 00:30 05.09.2021
5893 Clouds 20 1015 93 10000 1.7 52 23:43 04.09.2021
5894 Rain 20 1015 91 10000 1.25 41 22:36 04.09.2021
5895 Rain 20 1014 91 10000 0.99 57 21:58 04.09.2021
5896 Rain 20 1014 91 10000 0.56 102 19:53 04.09.2021
5897 Rain 20 1014 92 10000 0.54 62 19:27 04.09.2021
5898 Rain 20 1014 90 10000 1.13 244 16:26 04.09.2021
5899 Rain 21 1013 92 10000 1.91 199 13:36 04.09.2021
5900 Clouds 20 1012 90 10000 1.41 210 11:20 04.09.2021
5901 Rain 23 1012 92 10000 0.51 187 09:26 04.09.2021
5902 Rain 22 1012 91 10000 1.54 156 06:55 04.09.2021
5903 Rain 23 1010 97 7294 1.25 108 00:27 04.09.2021
5904 Clouds 23 1010 97 7294 1.25 108 23:32 03.09.2021
5905 Rain 24 1010 97 5911 1.11 136 22:40 03.09.2021
5906 Rain 24 1010 97 4772 0.72 142 21:36 03.09.2021
5907 Rain 24 1009 95 6034 1.12 110 20:49 03.09.2021
5908 Rain 24 1009 88 10000 1.2 98 19:56 03.09.2021
5909 Rain 24 1009 92 10000 1.31 112 19:20 03.09.2021
5910 Rain 24 1009 90 10000 0.96 132 17:56 03.09.2021
5911 Rain 24 1009 90 10000 0.96 132 17:56 03.09.2021
5912 Rain 25 1009 86 10000 1.32 151 16:38 03.09.2021
5913 Rain 25 1009 77 10000 1.52 167 14:59 03.09.2021
5914 Clouds 28 1007 69 10000 2.74 156 12:26 03.09.2021
5915 Clouds 30 1006 65 10000 3.15 158 10:32 03.09.2021
5916 Clouds 30 1006 65 10000 3.15 158 10:32 03.09.2021
5917 Clouds 31 1006 54 10000 2.68 147 09:18 03.09.2021
5918 Clouds 31 1006 54 10000 2.68 147 09:18 03.09.2021
5919 Clouds 29 1006 53 10000 2.08 165 07:47 03.09.2021
5920 Clouds 28 1007 53 10000 0.93 123 05:30 03.09.2021
5921 Rain 19 1007 85 10000 0.07 264 23:21 02.09.2021
5922 Rain 20 1007 83 10000 0.06 210 21:38 02.09.2021
5923 Rain 20 1007 84 10000 1 201 19:56 02.09.2021
5924 Rain 20 1007 78 10000 2.3 223 17:33 02.09.2021
5925 Rain 25 1008 74 10000 2.49 206 15:54 02.09.2021
5926 Rain 27 1007 68 10000 1.81 161 13:59 02.09.2021
5927 Rain 28 1007 66 10000 1.84 165 12:56 02.09.2021
5928 Clear 28 1006 59 10000 2.93 183 11:36 02.09.2021
5929 Clear 31 1005 48 10000 4.92 193 09:47 02.09.2021
5930 Clear 30 1007 42 10000 4.1 196 08:20 02.09.2021
5931 Clear 30 1008 43 10000 3.61 196 07:20 02.09.2021
5932 Clear 24 1011 69 10000 0.38 344 02:58 02.09.2021
5933 Clear 23 1011 69 10000 0.38 344 02:33 02.09.2021
5934 Rain 20 1011 76 10000 1.03 14 01:32 02.09.2021
5935 Clear 18 1011 87 10000 0.55 348 23:40 01.09.2021
5936 Rain 18 1010 86 10000 0.31 352 22:41 01.09.2021
5937 Rain 19 1010 85 10000 0.32 258 21:40 01.09.2021
5938 Rain 20 1010 84 10000 0.62 211 20:45 01.09.2021
5939 Rain 20 1011 84 10000 1.34 198 18:53 01.09.2021
5940 Rain 21 1012 82 10000 1.6 196 17:41 01.09.2021
5941 Rain 21 1012 80 10000 1.83 195 16:47 01.09.2021
5942 Rain 22 1012 78 10000 2.09 196 15:47 01.09.2021
5943 Clear 28 1010 62 10000 3.15 190 12:41 01.09.2021
5944 Clear 29 1010 56 10000 3.4 193 11:45 01.09.2021
5945 Clear 31 1011 42 10000 3.94 196 08:56 01.09.2021
5946 Clear 30 1011 42 10000 3.79 195 07:52 01.09.2021
5947 Clear 27 1013 48 10000 2.47 195 05:39 01.09.2021
5948 Rain 17 1014 90 10000 0.28 335 22:43 31.08.2021
5949 Rain 19 1014 89 10000 0.57 334 21:33 31.08.2021
5950 Rain 18 1015 91 10000 0.57 211 19:46 31.08.2021
5951 Rain 18 1015 90 10000 1.06 208 18:30 31.08.2021
5952 Rain 19 1016 89 10000 1.33 197 17:38 31.08.2021
5953 Rain 19 1016 88 10000 1.42 197 17:20 31.08.2021
5954 Rain 20 1016 87 10000 1.78 201 16:24 31.08.2021
5955 Rain 20 1016 87 10000 1.78 201 16:24 31.08.2021
5956 Rain 24 1016 88 10000 1.36 162 13:40 31.08.2021
5957 Clouds 27 1015 76 10000 2.11 152 11:36 31.08.2021
5958 Clouds 28 1015 74 10000 2.05 137 10:55 31.08.2021
5959 Clouds 28 1015 77 10000 1.55 134 09:45 31.08.2021
5960 Clouds 27 1015 76 10000 0.9 106 08:39 31.08.2021
5961 Clouds 27 1016 69 10000 0.65 176 07:35 31.08.2021
5962 Rain 26 1017 82 10000 1.83 260 05:36 31.08.2021
5963 Rain 22 1015 82 10000 1.59 46 23:35 30.08.2021
5964 Rain 22 1015 81 10000 1.42 51 21:52 30.08.2021
5965 Rain 22 1015 81 10000 1.42 51 21:32 30.08.2021
5966 Rain 22 1015 79 10000 1.04 64 20:20 30.08.2021
5967 Rain 22 1015 77 10000 0.89 63 19:29 30.08.2021
5968 Rain 23 1015 77 10000 0.89 63 18:34 30.08.2021
5969 Rain 23 1015 77 10000 1.07 143 17:45 30.08.2021
5970 Rain 23 1015 73 10000 1.22 139 16:24 30.08.2021
5971 Rain 23 1015 73 10000 1.22 139 15:39 30.08.2021
5972 Rain 23 1014 69 10000 1.19 133 13:43 30.08.2021
5973 Clouds 25 1014 63 10000 2.09 163 12:24 30.08.2021
5974 Rain 28 1013 54 10000 3.34 151 09:30 30.08.2021
5975 Rain 20 1015 87 10000 0.68 6 22:30 29.08.2021
5976 Rain 20 1015 86 10000 0.48 31 21:33 29.08.2021
5977 Rain 20 1015 83 10000 0.8 144 20:22 29.08.2021
5978 Rain 20 1015 79 10000 0.8 201 19:19 29.08.2021
5979 Rain 21 1014 78 10000 2.05 204 17:50 29.08.2021
5980 Rain 23 1014 75 10000 3.16 196 15:48 29.08.2021
5981 Rain 25 1013 72 10000 3.39 199 14:19 29.08.2021
5982 Rain 26 1013 71 10000 3.62 199 13:43 29.08.2021
5983 Clouds 27 1012 68 10000 3.74 196 12:32 29.08.2021
5984 Clouds 28 1012 63 10000 3.97 197 11:50 29.08.2021
5985 Rain 28 1011 57 10000 4.48 199 11:22 29.08.2021
5986 Rain 29 1011 57 10000 4.48 199 10:42 29.08.2021
5987 Rain 29 1011 52 10000 4.04 192 10:23 29.08.2021
5988 Clouds 28 1012 42 10000 1.55 140 07:47 29.08.2021
5989 Clouds 19 1013 71 10000 1.34 343 00:21 29.08.2021
5990 Rain 19 1012 72 10000 1.06 27 21:50 28.08.2021
5991 Rain 21 1012 69 10000 0.92 345 20:22 28.08.2021
5992 Rain 21 1012 62 10000 1.57 326 18:33 28.08.2021
5993 Rain 21 1013 58 10000 1.23 315 17:59 28.08.2021
5994 Rain 21 1013 55 10000 1.27 314 16:59 28.08.2021
5995 Rain 21 1013 54 10000 1 320 15:33 28.08.2021
5996 Clouds 21 1013 51 10000 1.06 307 14:20 28.08.2021
5997 Rain 21 1013 51 10000 1.12 345 13:43 28.08.2021
5998 Clouds 26 1012 51 10000 1.43 345 12:41 28.08.2021
5999 Clouds 27 1012 51 10000 2.46 355 11:51 28.08.2021
6000 Clouds 28 1012 44 10000 2.69 345 10:35 28.08.2021
6001 Clouds 27 1011 33 10000 2.12 346 08:39 28.08.2021
6002 Rain 25 1014 46 10000 0.54 45 06:24 28.08.2021
6003 Clear 17 1013 63 10000 1.54 7 22:28 27.08.2021
6004 Rain 19 1012 65 10000 1.69 6 20:57 27.08.2021
6005 Rain 19 1012 68 10000 1.38 14 20:19 27.08.2021
6006 Rain 19 1012 65 10000 0.95 351 18:57 27.08.2021
6007 Rain 19 1012 65 10000 0.96 351 18:37 27.08.2021
6008 Rain 20 1012 63 10000 1.17 263 16:56 27.08.2021
6009 Rain 24 1012 60 10000 2.08 228 15:36 27.08.2021
6010 Rain 27 1011 58 10000 3.13 217 14:41 27.08.2021
6011 Clouds 30 1010 56 10000 3.72 205 12:30 27.08.2021
6012 Clouds 30 1010 48 10000 3.54 201 11:25 27.08.2021
6013 Clouds 31 1010 48 10000 3.54 201 10:43 27.08.2021
6014 Clouds 30 1009 40 10000 3.14 214 09:30 27.08.2021
6015 Clear 31 1009 35 10000 2.03 247 08:44 27.08.2021
6016 Clear 28 1010 33 10000 2.06 356 05:54 27.08.2021
6017 Clear 24 1011 48 10000 2.68 1 02:48 27.08.2021
6018 Rain 16 1011 64 10000 2.38 358 00:32 27.08.2021
6019 Rain 16 1010 67 10000 2 3 22:41 26.08.2021
6020 Rain 16 1010 66 10000 1.92 8 22:18 26.08.2021
6021 Rain 17 1010 65 10000 2.12 12 20:31 26.08.2021
6022 Rain 19 1010 77 10000 1.85 10 18:49 26.08.2021
6023 Rain 22 1010 77 10000 1.36 4 17:44 26.08.2021
6024 Rain 22 1010 78 10000 0.89 346 16:33 26.08.2021
6025 Rain 20 1009 75 10000 0.73 10 15:54 26.08.2021
6026 Clouds 22 1009 68 10000 2.83 233 13:33 26.08.2021
6027 Clouds 21 1008 65 10000 3.23 198 12:50 26.08.2021
6028 Clouds 29 1007 60 10000 3.81 197 11:56 26.08.2021
6029 Clouds 31 1007 50 10000 4.19 202 09:43 26.08.2021
6030 Clouds 30 1008 47 10000 4.98 209 08:34 26.08.2021
6031 Clouds 25 1009 56 10000 3 332 02:32 26.08.2021
6032 Rain 23 1007 61 10000 2.41 320 22:48 25.08.2021
6033 Clouds 23 1006 60 10000 2.32 308 22:29 25.08.2021
6034 Clouds 23 1006 58 10000 2.23 304 21:25 25.08.2021
6035 Clouds 23 1006 58 10000 2.23 304 20:44 25.08.2021
6036 Rain 23 1005 56 10000 2.75 308 20:25 25.08.2021
6037 Clear 24 1005 53 10000 3.43 302 18:32 25.08.2021
6038 Clear 25 1005 51 10000 3.96 296 17:19 25.08.2021
6039 Rain 25 1004 49 10000 4.51 293 15:43 25.08.2021
6040 Clear 26 1004 48 10000 5.03 285 14:47 25.08.2021
6041 Rain 26 1003 47 10000 5.75 284 13:59 25.08.2021
6042 Clouds 26 1001 48 10000 5.29 278 12:55 25.08.2021
6043 Clouds 27 1000 45 10000 3.41 287 11:25 25.08.2021
6044 Clouds 27 1000 45 10000 3.41 287 11:25 25.08.2021
6045 Clouds 26 999 40 10000 3.46 291 10:26 25.08.2021
6046 Clouds 26 999 40 10000 3.46 291 09:43 25.08.2021
6047 Clouds 26 1000 40 10000 3.57 271 08:40 25.08.2021
6048 Clouds 26 1000 40 10000 4.08 263 07:43 25.08.2021
6049 Rain 20 999 64 10000 2.23 333 01:26 25.08.2021
6050 Rain 18 999 66 10000 3.02 346 23:40 24.08.2021
6051 Rain 18 999 74 10000 2.68 356 21:48 24.08.2021
6052 Rain 19 999 74 10000 2.16 10 20:38 24.08.2021
6053 Rain 20 998 86 10000 2.58 353 19:44 24.08.2021
6054 Rain 20 998 74 10000 0.85 329 17:57 24.08.2021
6055 Rain 20 998 67 10000 0.49 286 17:22 24.08.2021
6056 Rain 23 998 67 10000 0.49 285 16:41 24.08.2021
6057 Rain 25 998 63 10000 1.18 193 14:25 24.08.2021
6058 Clouds 27 997 55 10000 1.73 166 13:23 24.08.2021
6059 Rain 29 997 45 10000 1.22 113 11:26 24.08.2021
6060 Clouds 29 997 45 10000 1.22 113 10:48 24.08.2021
6061 Clouds 29 997 39 10000 1.5 353 10:25 24.08.2021
6062 Rain 29 997 39 10000 2.23 315 08:46 24.08.2021
6063 Clouds 27 998 49 10000 2.62 205 06:35 24.08.2021
6064 Clear 24 1000 62 10000 2.42 226 03:59 24.08.2021
6065 Rain 18 1000 94 10000 0.93 323 00:01 24.08.2021
6066 Clouds 18 1000 95 10000 1.43 331 22:51 23.08.2021
6067 Rain 18 1000 95 10000 1.55 40 21:54 23.08.2021
6068 Rain 18 1001 93 10000 2.38 22 20:27 23.08.2021
6069 Rain 18 1001 93 10000 2.35 23 18:47 23.08.2021
6070 Rain 19 1002 92 4341 0.66 68 16:29 23.08.2021
6071 Rain 27 1002 86 7397 2.84 194 13:58 23.08.2021
6072 Rain 29 1001 78 10000 2.81 195 12:35 23.08.2021
6073 Clouds 29 1001 74 10000 2.72 189 11:48 23.08.2021
6074 Rain 30 1001 65 10000 3.35 182 10:36 23.08.2021
6075 Clouds 30 1001 59 10000 3.91 188 09:31 23.08.2021
6076 Rain 32 1002 74 10000 2.37 211 07:58 23.08.2021
6077 Clouds 31 1002 71 10000 1.54 209 06:48 23.08.2021
6078 Clouds 30 1004 82 10000 0.89 238 04:51 23.08.2021
6079 Rain 24 1004 95 10000 0.52 39 00:50 23.08.2021
6080 Rain 25 1003 96 10000 0.17 328 22:44 22.08.2021
6081 Rain 24 1003 96 10000 0.5 247 21:58 22.08.2021
6082 Clouds 25 1003 95 10000 1.11 204 20:21 22.08.2021
6083 Rain 25 1003 88 10000 2.48 205 19:22 22.08.2021
6084 Rain 27 1002 89 10000 4.07 205 16:27 22.08.2021
6085 Rain 26 1002 87 10000 4.35 196 14:55 22.08.2021
6086 Rain 27 1002 87 10000 4.35 196 14:35 22.08.2021
6087 Clouds 29 1002 85 10000 3.27 196 13:20 22.08.2021
6088 Clouds 29 1002 85 10000 3.27 196 12:51 22.08.2021
6089 Clouds 30 1001 82 10000 3.43 198 11:58 22.08.2021
6090 Clouds 30 1001 82 10000 3.43 198 11:39 22.08.2021
6091 Clouds 30 1001 76 10000 1.98 199 10:20 22.08.2021
6092 Clouds 29 1002 74 10000 1.36 190 08:18 22.08.2021
6093 Rain 26 1004 79 10000 0.49 229 04:50 22.08.2021
6094 Clouds 21 1004 92 10000 0.56 184 23:39 21.08.2021
6095 Clouds 21 1003 92 10000 0.97 170 22:31 21.08.2021
6096 Rain 25 1005 88 10000 1.29 194 19:39 21.08.2021
6097 Rain 24 1005 86 10000 1.8 198 18:39 21.08.2021
6098 Rain 23 1005 84 10000 2 191 17:48 21.08.2021
6099 Rain 24 1005 82 10000 2.19 195 16:50 21.08.2021
6100 Rain 24 1004 79 10000 2.09 198 15:51 21.08.2021
6101 Rain 26 1004 76 10000 2.46 202 15:26 21.08.2021
6102 Rain 25 1004 72 10000 2.96 201 14:32 21.08.2021
6103 Clouds 29 1003 70 10000 2.76 199 13:28 21.08.2021
6104 Clouds 30 1004 64 10000 3.4 202 12:24 21.08.2021
6105 Clear 33 1003 38 10000 3.63 188 09:21 21.08.2021
6106 Clear 29 1005 44 10000 0.84 188 05:32 21.08.2021
6107 Rain 21 1006 93 10000 1.67 353 22:42 20.08.2021
6108 Rain 21 1006 96 10000 1.43 337 20:51 20.08.2021
6109 Rain 24 1007 95 10000 0.74 150 17:46 20.08.2021
6110 Rain 24 1007 92 10000 1.43 145 15:51 20.08.2021
6111 Clear 26 1006 89 10000 2.21 132 13:35 20.08.2021
6112 Rain 30 1005 72 10000 2.22 127 11:35 20.08.2021
6113 Clear 29 1004 63 10000 2.44 118 10:41 20.08.2021
6114 Clear 29 1004 58 10000 2.36 112 09:36 20.08.2021
6115 Rain 28 1004 56 10000 2.14 93 08:41 20.08.2021
6116 Clouds 28 1006 59 10000 1.96 55 06:58 20.08.2021
6117 Clouds 25 1008 73 10000 1.35 35 04:21 20.08.2021
6118 Rain 19 1007 97 10000 1.44 41 00:19 20.08.2021
6119 Rain 19 1007 97 10000 1.44 41 00:19 20.08.2021
6120 Clouds 20 1007 98 10000 1.45 46 22:39 19.08.2021
6121 Rain 20 1006 98 10000 1.49 34 22:18 19.08.2021
6122 Rain 20 1007 97 10000 1.36 11 20:25 19.08.2021
6123 Rain 20 1008 96 10000 1.35 26 19:31 19.08.2021
6124 Rain 21 1009 97 10000 0.97 40 17:19 19.08.2021
6125 Rain 21 1009 97 10000 0.91 58 15:52 19.08.2021
6126 Clouds 20 1009 97 10000 0.16 227 13:20 19.08.2021
6127 Rain 20 1009 97 10000 0.16 227 12:32 19.08.2021
6128 Rain 20 1009 97 10000 1.51 174 11:21 19.08.2021
6129 Rain 21 1009 98 6141 1.54 183 09:51 19.08.2021
6130 Rain 21 1009 98 4116 1.85 177 09:32 19.08.2021
6131 Rain 21 1009 98 4116 1.85 177 08:59 19.08.2021
6132 Rain 21 1009 97 8057 2.09 159 06:32 19.08.2021
6133 Rain 21 1009 91 10000 1.71 145 02:22 19.08.2021
6134 Rain 23 1009 91 10000 1.71 145 01:41 19.08.2021
6135 Rain 24 1008 74 10000 2.16 165 22:42 18.08.2021
6136 Clouds 24 1008 73 10000 2.1 168 21:39 18.08.2021
6137 Rain 25 1009 73 10000 2.19 159 20:27 18.08.2021
6138 Rain 25 1009 69 10000 2.51 156 19:31 18.08.2021
6139 Rain 25 1009 69 10000 2.52 161 18:47 18.08.2021
6140 Rain 24 1010 69 10000 2.41 156 17:44 18.08.2021
6141 Rain 25 1010 69 10000 2.16 156 15:46 18.08.2021
6142 Clouds 25 1010 67 10000 1.87 149 15:23 18.08.2021
6143 Rain 27 1009 65 10000 1.95 142 13:40 18.08.2021
6144 Rain 28 1008 64 10000 2.53 133 12:42 18.08.2021
6145 Rain 28 1009 62 10000 2.31 137 12:24 18.08.2021
6146 Clouds 28 1009 55 10000 3.12 151 09:44 18.08.2021
6147 Rain 29 1011 48 10000 2.77 162 05:50 18.08.2021
6148 Rain 20 1012 80 10000 1.07 42 00:41 18.08.2021
6149 Rain 20 1012 83 10000 1.01 28 22:29 17.08.2021
6150 Rain 20 1012 80 10000 0.87 353 21:26 17.08.2021
6151 Rain 21 1012 80 10000 0.87 353 20:43 17.08.2021
6152 Rain 22 1013 76 10000 0.95 276 18:56 17.08.2021
6153 Rain 22 1013 75 10000 1.15 250 17:27 17.08.2021
6154 Rain 23 1013 75 10000 1.14 250 16:32 17.08.2021
6155 Rain 25 1013 74 10000 1.4 211 15:36 17.08.2021
6156 Clouds 25 1012 74 10000 2.23 173 13:57 17.08.2021
6157 Rain 30 1011 64 10000 2.57 146 11:36 17.08.2021
6158 Clear 31 1011 47 10000 1.93 106 09:20 17.08.2021
6159 Clouds 30 1012 52 10000 1.19 129 07:45 17.08.2021
6160 Clouds 20 1014 96 10000 1.55 35 00:21 17.08.2021
6161 Rain 21 1014 96 10000 1.38 30 22:54 16.08.2021
6162 Rain 21 1014 96 10000 1.38 30 22:36 16.08.2021
6163 Rain 21 1014 96 10000 1.63 40 21:53 16.08.2021
6164 Rain 22 1013 96 10000 2.07 62 20:54 16.08.2021
6165 Rain 22 1013 97 10000 2.02 63 19:44 16.08.2021
6166 Rain 23 1013 95 9239 1.77 68 19:22 16.08.2021
6167 Rain 23 1013 95 9239 1.77 68 19:22 16.08.2021
6168 Rain 23 1013 93 10000 1.19 64 18:22 16.08.2021
6169 Rain 23 1013 93 10000 1.19 64 17:51 16.08.2021
6170 Rain 25 1012 85 10000 1.02 108 15:30 16.08.2021
6171 Rain 25 1012 84 10000 1.49 120 14:36 16.08.2021
6172 Clouds 25 1011 82 10000 1.28 127 13:30 16.08.2021
6173 Rain 25 1010 80 10000 1.58 137 12:31 16.08.2021
6174 Rain 26 1010 73 10000 1.39 159 10:37 16.08.2021
6175 Rain 27 1011 63 10000 1.85 176 08:44 16.08.2021
6176 Rain 26 1011 63 10000 1.77 183 07:33 16.08.2021
6177 Clouds 24 1013 67 10000 1.21 172 06:25 16.08.2021
6178 Clouds 22 1014 89 10000 1.15 50 02:18 16.08.2021
6179 Rain 22 1014 92 10000 0.61 85 21:53 15.08.2021
6180 Rain 23 1013 91 10000 0.8 136 20:28 15.08.2021
6181 Rain 23 1013 86 10000 1.32 147 18:46 15.08.2021
6182 Rain 23 1013 87 10000 1.42 167 17:54 15.08.2021
6183 Rain 23 1013 87 10000 1.29 163 17:23 15.08.2021
6184 Rain 23 1012 86 10000 2.51 150 15:59 15.08.2021
6185 Rain 23 1013 85 10000 1.95 174 14:42 15.08.2021
6186 Rain 23 1011 78 10000 2.79 163 13:38 15.08.2021
6187 Rain 24 1011 67 10000 3.63 180 10:54 15.08.2021
6188 Rain 26 1011 71 10000 3.95 184 08:45 15.08.2021
6189 Rain 22 1013 92 10000 1.7 153 01:23 15.08.2021
6190 Rain 22 1013 92 10000 1.7 153 00:36 15.08.2021
6191 Rain 22 1011 96 10000 1.34 144 21:41 14.08.2021
6192 Rain 22 1011 95 10000 1.9 167 20:29 14.08.2021
6193 Rain 22 1011 93 10000 1.81 161 19:43 14.08.2021
6194 Rain 22 1011 94 10000 2.31 158 18:38 14.08.2021
6195 Rain 22 1011 94 10000 2.46 156 16:59 14.08.2021
6196 Rain 23 1010 93 10000 2.66 160 15:37 14.08.2021
6197 Rain 26 1010 91 10000 2.6 154 14:24 14.08.2021
6198 Clouds 27 1008 75 10000 3.07 174 11:57 14.08.2021
6199 Rain 27 1008 69 10000 3.32 173 10:45 14.08.2021
6200 Rain 27 1009 61 10000 3.21 173 07:39 14.08.2021
6201 Clouds 23 1010 87 10000 0.6 87 23:53 13.08.2021
6202 Rain 23 1010 88 10000 1.09 113 22:18 13.08.2021
6203 Rain 23 1010 88 10000 1.09 113 22:18 13.08.2021
6204 Rain 23 1010 88 10000 1.43 100 20:27 13.08.2021
6205 Rain 25 1010 87 10000 1.72 104 18:47 13.08.2021
6206 Rain 25 1010 82 10000 2.25 149 17:24 13.08.2021
6207 Rain 26 1009 83 10000 2.79 156 16:19 13.08.2021
6208 Rain 27 1007 70 10000 2.75 157 12:18 13.08.2021
6209 Rain 28 1007 67 10000 2.78 157 11:19 13.08.2021
6210 Rain 28 1007 57 10000 2.48 168 08:59 13.08.2021
6211 Clouds 28 1007 57 10000 2.48 168 08:35 13.08.2021
6212 Clouds 27 1009 71 10000 0.59 197 06:43 13.08.2021
6213 Rain 26 1010 86 10000 0.66 170 04:43 13.08.2021
6214 Clouds 23 1010 95 10000 1.25 107 22:34 12.08.2021
6215 Clouds 23 1010 93 10000 1.11 134 21:20 12.08.2021
6216 Rain 24 1010 94 10000 0.92 141 19:55 12.08.2021
6217 Rain 24 1010 94 10000 1.52 149 19:25 12.08.2021
6218 Rain 24 1011 91 10000 2.36 154 17:26 12.08.2021
6219 Rain 25 1011 86 10000 2.68 160 16:28 12.08.2021
6220 Clouds 27 1009 80 10000 2.96 150 13:54 12.08.2021
6221 Rain 28 1008 63 10000 2.71 156 12:23 12.08.2021
6222 Rain 29 1009 53 10000 2.89 168 09:58 12.08.2021
6223 Rain 29 1011 67 10000 1.9 137 07:53 12.08.2021
6224 Rain 23 1013 93 10000 1.55 86 00:48 12.08.2021
6225 Rain 24 1012 95 10000 1.57 77 21:56 11.08.2021
6226 Rain 24 1012 96 10000 1.57 90 19:36 11.08.2021
6227 Rain 24 1012 93 10000 1.73 96 18:27 11.08.2021
6228 Rain 26 1011 84 10000 2.42 130 15:38 11.08.2021
6229 Rain 26 1011 79 10000 2.51 124 15:20 11.08.2021
6230 Rain 26 1010 75 10000 2.31 127 14:20 11.08.2021
6231 Clouds 28 1009 59 10000 2.23 150 12:30 11.08.2021
6232 Clouds 28 1009 59 10000 2.23 150 12:30 11.08.2021
6233 Rain 30 1009 59 10000 2.23 150 11:46 11.08.2021
6234 Rain 30 1009 51 10000 2.46 144 11:21 11.08.2021
6235 Clouds 30 1008 47 10000 2.46 128 09:44 11.08.2021
6236 Clouds 29 1009 38 10000 2.16 109 07:30 11.08.2021
6237 Rain 22 1008 87 10000 2.26 358 22:53 10.08.2021
6238 Rain 23 1007 88 10000 1.89 357 22:29 10.08.2021
6239 Rain 23 1007 88 10000 1.89 357 22:29 10.08.2021
6240 Rain 24 1007 86 10000 0.95 17 20:57 10.08.2021
6241 Rain 25 1007 80 10000 0.93 342 19:42 10.08.2021
6242 Rain 25 1007 77 10000 0.56 334 18:31 10.08.2021
6243 Rain 25 1006 71 10000 1.08 169 15:58 10.08.2021
6244 Rain 29 1005 71 10000 1.55 163 14:42 10.08.2021
6245 Clear 32 1003 57 10000 3.71 193 11:53 10.08.2021
6246 Rain 34 1003 43 10000 3.61 181 09:48 10.08.2021
6247 Rain 32 1005 42 10000 1.42 144 06:47 10.08.2021
6248 Rain 28 1005 52 10000 0.61 161 04:58 10.08.2021
6249 Rain 20 1005 91 10000 0.98 355 23:41 09.08.2021
6250 Rain 20 1004 92 10000 1.19 359 21:54 09.08.2021
6251 Rain 20 1005 91 10000 1.4 356 21:32 09.08.2021
6252 Rain 20 1005 87 10000 1.22 14 19:35 09.08.2021
6253 Rain 20 1005 87 10000 0.91 26 16:58 09.08.2021
6254 Rain 21 1005 87 10000 1.47 47 15:30 09.08.2021
6255 Rain 22 1003 91 10000 3.19 97 13:32 09.08.2021
6256 Rain 20 1002 82 10000 1.29 108 12:50 09.08.2021
6257 Rain 30 1000 58 10000 4.18 188 10:43 09.08.2021
6258 Rain 30 1002 48 10000 2.95 168 08:26 09.08.2021
6259 Rain 22 1005 88 10000 1.01 358 22:47 08.08.2021
6260 Rain 22 1005 89 10000 2.54 351 21:25 08.08.2021
6261 Rain 24 1005 82 10000 2.31 340 19:29 08.08.2021
6262 Rain 26 1006 88 10000 2.06 291 16:53 08.08.2021
6263 Rain 26 1006 88 10000 2.06 291 16:53 08.08.2021
6264 Rain 28 1006 81 10000 1.76 232 15:31 08.08.2021
6265 Clouds 30 1003 63 10000 1.84 162 12:58 08.08.2021
6266 Rain 31 1003 55 10000 2.59 188 10:47 08.08.2021
6267 Rain 30 1005 50 10000 2.64 172 06:44 08.08.2021
6268 Rain 29 1005 52 10000 2.2 167 05:37 08.08.2021
6269 Rain 24 1006 74 10000 1.35 26 00:30 08.08.2021
6270 Rain 24 1006 74 10000 1.35 26 00:30 08.08.2021
6271 Rain 24 1006 74 10000 1.35 26 00:30 08.08.2021
6272 Clouds 24 1006 76 10000 0.51 82 22:19 07.08.2021
6273 Rain 24 1006 76 10000 0.51 82 21:40 07.08.2021
6274 Clear 24 1005 79 10000 0.87 125 19:46 07.08.2021
6275 Rain 24 1006 74 10000 1.64 155 17:27 07.08.2021
6276 Rain 25 1006 71 10000 1.9 171 16:25 07.08.2021
6277 Rain 29 1004 64 10000 2.33 171 14:25 07.08.2021
6278 Clear 31 1004 61 10000 2.29 187 12:53 07.08.2021
6279 Clear 33 1003 44 10000 3.25 175 09:56 07.08.2021
6280 Rain 30 1005 51 10000 1.52 45 04:56 07.08.2021
6281 Rain 24 1005 84 10000 1.43 14 23:54 06.08.2021
6282 Rain 25 1003 83 10000 1.28 357 21:23 06.08.2021
6283 Rain 23 1003 77 10000 1.03 346 20:27 06.08.2021
6284 Rain 25 1003 82 10000 0.91 359 19:55 06.08.2021
6285 Rain 26 1003 77 10000 0.94 198 18:28 06.08.2021
6286 Clear 26 1001 66 10000 3.06 202 13:50 06.08.2021
6287 Clear 32 1001 39 10000 2.72 174 09:58 06.08.2021
6288 Rain 32 1001 39 10000 2.59 155 09:25 06.08.2021
6289 Rain 23 1003 73 10000 1.7 5 01:46 06.08.2021
6290 Rain 20 1003 89 10000 0.12 3 23:27 05.08.2021
6291 Rain 21 1003 88 10000 0.4 125 21:31 05.08.2021
6292 Rain 21 1003 78 10000 1.34 37 19:53 05.08.2021
6293 Rain 21 1003 78 10000 1.05 44 18:37 05.08.2021
6294 Rain 22 1003 74 10000 0.54 178 15:47 05.08.2021
6295 Clouds 22 1002 70 10000 1.16 173 13:53 05.08.2021
6296 Rain 31 1001 67 10000 3.79 221 09:56 05.08.2021
6297 Rain 32 1001 60 10000 1.74 166 08:20 05.08.2021
6298 Rain 27 1003 80 10000 0.96 328 03:37 05.08.2021
6299 Rain 24 1003 97 10000 1.2 24 22:41 04.08.2021
6300 Rain 24 1003 96 10000 0.53 130 21:26 04.08.2021
6301 Rain 25 1003 96 10000 0.96 128 20:23 04.08.2021
6302 Rain 27 1002 88 10000 2.39 184 17:24 04.08.2021
6303 Rain 28 1003 82 10000 2.9 180 14:48 04.08.2021
6304 Rain 30 1001 68 10000 4.22 161 12:23 04.08.2021
6305 Clouds 33 1001 61 10000 4.29 164 09:30 04.08.2021
6306 Rain 25 1005 91 10000 1.1 143 22:32 03.08.2021
6307 Rain 26 1004 83 10000 2.2 177 20:32 03.08.2021
6308 Rain 26 1005 78 10000 2.6 184 18:58 03.08.2021
6309 Rain 26 1005 78 10000 2.6 184 18:58 03.08.2021
6310 Rain 26 1005 74 10000 3.02 176 17:31 03.08.2021
6311 Rain 29 1005 71 10000 2.58 165 13:58 03.08.2021
6312 Clouds 31 1004 56 10000 3.76 176 10:58 03.08.2021
6313 Rain 31 1004 53 10000 3.76 176 10:38 03.08.2021
6314 Clouds 24 1007 71 10000 0.86 127 22:59 02.08.2021
6315 Rain 26 1005 76 10000 2.25 134 16:52 02.08.2021
6316 Rain 28 1005 73 10000 2.67 126 15:35 02.08.2021
6317 Rain 32 1004 59 10000 1.8 185 12:41 02.08.2021
6318 Rain 32 1004 59 10000 1.8 185 12:41 02.08.2021
6319 Clouds 32 1003 53 10000 2.58 170 11:58 02.08.2021
6320 Rain 32 1003 48 10000 3.01 166 10:58 02.08.2021
6321 Rain 33 1002 42 10000 2.49 162 09:42 02.08.2021
6322 Clear 23 1004 60 10000 2.53 2 19:53 01.08.2021
6323 Clear 24 1003 58 10000 2.6 355 17:46 01.08.2021
6324 Clear 33 999 52 10000 2.91 44 11:40 01.08.2021
6325 Clear 32 999 45 10000 3.33 42 10:56 01.08.2021
6326 Clear 30 1000 46 10000 5.84 342 03:50 01.08.2021
6327 Clear 26 999 65 10000 3.42 324 01:22 01.08.2021
6328 Clear 24 999 87 10000 1.81 3 22:39 31.07.2021
6329 Clouds 26 998 78 10000 2.08 51 19:47 31.07.2021
6330 Rain 28 997 77 10000 2.25 27 16:38 31.07.2021
6331 Rain 28 996 74 10000 1.99 339 15:27 31.07.2021
6332 Rain 34 995 69 10000 2.44 297 10:59 31.07.2021
6333 Rain 34 995 69 10000 2.44 297 10:59 31.07.2021
6334 Clear 29 995 59 10000 0.91 143 04:38 31.07.2021
6335 Clear 22 995 90 10000 1.41 3 22:31 30.07.2021
6336 Clouds 23 995 87 10000 0.44 268 20:24 30.07.2021
6337 Clouds 25 996 79 10000 1.22 212 15:38 30.07.2021
6338 Rain 22 997 92 10000 2.94 8 19:57 29.07.2021
6339 Rain 23 1002 87 6237 2.83 29 08:43 29.07.2021
6340 Rain 24 1003 90 10000 1.74 113 04:51 29.07.2021
6341 Rain 25 1002 91 10000 2.43 8 22:48 28.07.2021
6342 Rain 26 1002 88 10000 1.2 3 18:46 28.07.2021
6343 Rain 26 1003 83 10000 1.91 341 17:18 28.07.2021
6344 Rain 29 1003 85 10000 1.2 33 09:44 28.07.2021
6345 Rain 24 1004 88 10000 1.06 28 23:56 27.07.2021
6346 Clouds 25 1004 87 10000 1.08 52 21:34 27.07.2021
6347 Rain 25 1003 82 10000 1.22 123 14:54 27.07.2021
6348 Rain 25 1003 82 10000 1.06 120 14:31 27.07.2021
6349 Rain 29 1002 78 6918 2.94 135 10:33 27.07.2021
6350 Rain 24 1003 95 10000 1.77 35 02:58 27.07.2021
6351 Rain 28 1001 80 10000 1.44 144 15:34 26.07.2021
6352 Rain 32 999 54 10000 3.69 194 10:38 26.07.2021
6353 Rain 27 1000 75 10000 1.75 102 20:58 25.07.2021
6354 Rain 27 1000 75 10000 1.75 102 20:37 25.07.2021
6355 Rain 27 1000 75 10000 1.75 102 20:37 25.07.2021
6356 Rain 29 1002 72 10000 2.83 153 17:22 25.07.2021
6357 Clouds 32 1001 62 10000 3.14 211 13:33 25.07.2021
6358 Clouds 34 1001 56 10000 5.92 206 08:21 25.07.2021
6359 Clouds 33 1003 58 10000 4.8 197 04:56 25.07.2021
6360 Clouds 27 1005 86 10000 1.64 155 20:22 24.07.2021
6361 Rain 27 1005 85 10000 1.64 155 19:35 24.07.2021
6362 Clouds 35 1004 52 10000 4.77 197 09:49 24.07.2021
6363 Rain 27 1007 78 10000 1.89 183 17:35 23.07.2021
6364 Rain 27 1007 73 10000 2.38 177 14:35 23.07.2021
6365 Rain 31 1007 52 10000 3.98 185 07:56 23.07.2021
6366 Clouds 23 1009 91 10000 0.61 214 22:50 22.07.2021
6367 Rain 25 1010 90 10000 0.2 221 14:57 22.07.2021
6368 Rain 26 1010 88 10000 1.43 212 11:18 22.07.2021
6369 Clouds 29 1011 90 10000 2.34 220 08:26 22.07.2021
6370 Rain 25 1011 91 10000 1.91 92 22:33 21.07.2021
6371 Rain 24 1011 91 10000 1.91 92 21:33 21.07.2021
6372 Rain 26 1012 87 10000 0.14 164 18:45 21.07.2021
6373 Rain 29 1011 68 10000 1.87 222 09:56 21.07.2021
6374 Rain 29 1011 78 10000 2.91 214 09:19 21.07.2021
6375 Rain 29 1011 78 10000 2.91 214 09:19 21.07.2021
6376 Rain 28 1013 87 10000 1.7 229 04:51 21.07.2021
6377 Clouds 25 1011 89 10000 1.57 72 20:29 20.07.2021
6378 Rain 27 1011 81 10000 1.85 132 16:36 20.07.2021
6379 Rain 27 1011 76 10000 2.6 134 15:27 20.07.2021
6380 Rain 33 1009 55 10000 2.86 156 11:19 20.07.2021
6381 Rain 32 1010 58 10000 2.68 152 07:37 20.07.2021
6382 Rain 27 1012 81 10000 1.62 97 02:58 20.07.2021
6383 Rain 25 1011 88 10000 2.42 132 17:50 19.07.2021
6384 Clouds 28 1008 74 10000 2.11 150 12:45 19.07.2021
6385 Rain 28 1010 78 10000 1.82 128 04:58 19.07.2021
6386 Rain 26 1009 87 10000 1.57 94 15:45 18.07.2021
6387 Rain 26 1008 93 10000 1.04 77 10:19 18.07.2021
6388 Rain 25 1009 89 9715 1.37 76 22:30 17.07.2021
6389 Rain 25 1009 89 9708 1.37 76 21:58 17.07.2021
6390 Rain 25 1009 89 9715 1.37 76 21:40 17.07.2021
6391 Rain 25 1009 89 9715 1.37 76 21:40 17.07.2021
6392 Clouds 27 1008 90 10000 1.81 93 13:46 17.07.2021
6393 Rain 30 1008 69 10000 2.07 97 11:30 17.07.2021
6394 Rain 27 1010 80 10000 1.45 111 04:48 17.07.2021
6395 Rain 27 1009 84 10000 3.01 83 15:34 16.07.2021
6396 Rain 30 1007 63 10000 4.32 98 11:44 16.07.2021
6397 Rain 32 1008 61 10000 2.09 99 07:24 16.07.2021
6398 Rain 26 1010 84 10000 1.77 99 19:47 15.07.2021
6399 Rain 29 1008 76 10000 1.96 109 13:50 15.07.2021
6400 Rain 32 1007 63 10000 3.64 110 09:51 15.07.2021
6401 Rain 26 1008 90 10000 1.44 90 00:31 15.07.2021
6402 Rain 28 1006 87 10000 1.98 102 16:54 14.07.2021
6403 Rain 32 1001 66 10000 2.98 155 11:59 14.07.2021
6404 Rain 33 1002 66 10000 1.32 86 04:44 14.07.2021
6405 Rain 25 999 90 10000 2.8 71 20:23 13.07.2021
6406 Rain 25 999 90 10000 2.8 71 19:50 13.07.2021
6407 Rain 26 999 89 10000 2.35 54 19:23 13.07.2021
6408 Rain 26 999 89 10000 2.35 54 18:44 13.07.2021
6409 Rain 26 998 89 10000 1.47 73 18:24 13.07.2021
6410 Rain 27 997 88 10000 0.4 107 15:31 13.07.2021
6411 Rain 32 995 57 10000 1.17 262 09:48 13.07.2021
6412 Rain 24 996 94 10000 2.41 358 00:19 13.07.2021
6413 Rain 23 996 93 10000 2.54 13 17:29 12.07.2021
6414 Rain 23 996 94 10000 3.96 60 15:21 12.07.2021
6415 Rain 22 1000 95 4046 6.53 83 00:31 12.07.2021
6416 Rain 22 1001 95 3595 2.5 98 21:58 11.07.2021
6417 Rain 25 1004 86 10000 2.55 215 15:50 11.07.2021
6418 Rain 27 1005 68 10000 2.22 133 02:31 11.07.2021
6419 Rain 28 1003 76 10000 1.88 70 17:38 10.07.2021
6420 Clouds 34 1001 58 10000 2.78 158 07:57 10.07.2021
6421 Rain 34 1002 57 10000 2.53 166 07:22 10.07.2021
6422 Clear 25 1002 81 10000 0.98 89 20:42 09.07.2021
6423 Rain 29 1001 66 10000 0.17 16 14:52 09.07.2021
6424 Rain 30 1000 59 10000 1.02 199 12:55 09.07.2021
6425 Rain 23 1002 77 10000 1.94 34 00:48 09.07.2021
6426 Clouds 22 1002 79 10000 1.7 54 22:52 08.07.2021
6427 Clouds 23 1001 72 10000 1.88 56 20:52 08.07.2021
6428 Rain 23 1003 73 10000 0.4 79 18:41 08.07.2021
6429 Clouds 26 1001 63 10000 1.03 356 13:52 08.07.2021
6430 Rain 25 1001 63 10000 1.03 356 13:30 08.07.2021
6431 Rain 31 1001 61 10000 2.44 49 12:35 08.07.2021
6432 Rain 32 1002 58 10000 0.26 310 11:21 08.07.2021
6433 Clear 32 1002 37 10000 1.7 176 06:52 08.07.2021
6434 Rain 30 1004 52 10000 0.42 105 03:52 08.07.2021
6435 Clear 22 1004 85 10000 0.47 100 22:59 07.07.2021
6436 Clear 23 1003 85 10000 0.77 77 22:20 07.07.2021
6437 Clear 23 1003 83 10000 0.77 77 21:45 07.07.2021
6438 Clear 23 1003 81 10000 0.91 15 21:24 07.07.2021
6439 Clouds 24 1003 76 10000 1.05 2 19:59 07.07.2021
6440 Clouds 24 1004 73 10000 0.58 348 19:30 07.07.2021
6441 Rain 25 1004 73 10000 0.58 348 18:55 07.07.2021
6442 Rain 28 1004 66 10000 1.56 197 15:58 07.07.2021
6443 Rain 27 1004 61 10000 0.71 7 15:24 07.07.2021
6444 Rain 31 1003 52 10000 3.32 9 11:52 07.07.2021
6445 Rain 31 1004 36 10000 1.54 166 07:23 07.07.2021
6446 Rain 34 1005 53 10000 0.89 161 05:51 07.07.2021
6447 Rain 28 1006 58 10000 0.52 52 02:56 07.07.2021
6448 Rain 23 1005 74 10000 0.42 79 20:53 06.07.2021
6449 Rain 23 1005 74 10000 0.69 109 19:18 06.07.2021
6450 Clouds 23 1005 74 10000 0.69 109 18:43 06.07.2021
6451 Clouds 24 1005 71 10000 1.16 154 17:43 06.07.2021
6452 Clouds 27 1003 57 10000 2.02 160 13:35 06.07.2021
6453 Clouds 29 1002 46 10000 3.21 184 09:44 06.07.2021
6454 Clouds 28 1003 45 10000 2.76 187 08:36 06.07.2021
6455 Clear 28 1003 46 10000 2.22 179 07:39 06.07.2021
6456 Clouds 21 1005 75 10000 1.26 336 01:59 06.07.2021
6457 Clouds 21 1006 88 10000 1.79 348 23:57 05.07.2021
6458 Clouds 21 1006 91 10000 1.73 338 21:58 05.07.2021
6459 Rain 21 1006 94 3592 4.51 23 17:21 05.07.2021
6460 Clouds 24 1002 57 10000 3.84 123 13:30 05.07.2021
6461 Clouds 31 1005 43 10000 1.94 176 05:59 05.07.2021
6462 Clouds 31 1005 43 10000 1.94 176 05:40 05.07.2021
6463 Clouds 23 1007 54 10000 1.38 55 00:32 05.07.2021
6464 Clouds 21 1005 55 10000 0.43 14 21:18 04.07.2021
6465 Clear 24 1005 53 10000 0.7 186 18:25 04.07.2021
6466 Clear 25 1004 47 10000 2.72 209 15:22 04.07.2021
6467 Clear 33 1001 27 10000 1.54 262 11:26 04.07.2021
6468 Clear 32 1002 29 10000 2.2 280 07:34 04.07.2021
6469 Clouds 22 1004 90 10000 0.82 127 23:27 03.07.2021
6470 Clouds 22 1003 89 10000 0.58 139 21:40 03.07.2021
6471 Rain 25 1002 69 10000 2.82 87 12:51 03.07.2021
6472 Rain 26 1002 63 10000 2.26 58 11:57 03.07.2021
6473 Rain 28 1002 63 10000 2.85 84 09:28 03.07.2021
6474 Rain 27 1002 63 10000 2.85 84 08:45 03.07.2021
6475 Rain 20 1003 93 8659 0.81 332 00:41 03.07.2021
6476 Rain 30 1002 39 10000 4.25 169 10:33 02.07.2021
6477 Rain 29 1005 42 10000 3.08 187 07:29 02.07.2021
6478 Clouds 23 1006 56 10000 1.99 186 03:23 02.07.2021
6479 Clear 17 1005 70 10000 0.7 202 22:32 01.07.2021
6480 Clear 18 1005 69 10000 0.21 259 21:39 01.07.2021
6481 Clouds 18 1005 70 10000 0.5 270 20:22 01.07.2021
6482 Clouds 19 1005 71 10000 1.22 284 19:21 01.07.2021
6483 Clouds 19 1005 71 10000 1.22 284 18:48 01.07.2021
6484 Rain 19 1005 72 10000 1.32 291 17:48 01.07.2021
6485 Clouds 18 1005 72 10000 0.9 86 16:43 01.07.2021
6486 Clouds 19 1003 65 10000 2.43 50 15:24 01.07.2021
6487 Clouds 20 1002 61 10000 5.39 281 14:20 01.07.2021
6488 Rain 28 1000 41 10000 4.59 220 10:55 01.07.2021
6489 Rain 23 1002 44 10000 2.5 183 04:42 01.07.2021
6490 Rain 19 1002 76 10000 0.94 22 23:19 30.06.2021
6491 Clouds 20 1002 74 10000 0.81 122 21:59 30.06.2021
6492 Clear 20 1003 70 10000 1.62 117 21:21 30.06.2021
6493 Clear 21 1003 71 10000 0.88 338 20:26 30.06.2021
6494 Rain 23 1004 61 10000 0.24 204 17:20 30.06.2021
6495 Rain 28 1003 47 10000 6 10 14:23 30.06.2021
6496 Rain 30 1000 41 10000 4.14 353 12:31 30.06.2021
6497 Rain 25 1003 75 10000 0.48 57 03:26 30.06.2021
6498 Clouds 21 1002 85 10000 0.89 37 21:28 29.06.2021
6499 Clear 22 1001 77 10000 1.11 186 18:22 29.06.2021
6500 Rain 23 1001 77 10000 1.11 186 17:30 29.06.2021
6501 Rain 23 1001 75 10000 0.79 140 15:52 29.06.2021
6502 Rain 24 1000 73 10000 1.51 148 14:58 29.06.2021
6503 Rain 25 999 81 10000 3.78 350 13:29 29.06.2021
6504 Clouds 26 999 56 10000 1.71 228 09:53 29.06.2021
6505 Rain 24 1002 87 10000 2.26 54 00:32 29.06.2021
6506 Rain 24 1002 85 10000 1.29 140 21:47 28.06.2021
6507 Rain 24 1002 84 10000 2 94 19:40 28.06.2021
6508 Rain 27 1002 60 10000 2.79 141 17:21 28.06.2021
6509 Rain 27 1002 60 10000 2.79 141 17:21 28.06.2021
6510 Rain 28 1001 56 10000 2.17 170 15:21 28.06.2021
6511 Rain 31 999 56 10000 3.71 129 12:58 28.06.2021
6512 Rain 31 999 56 10000 3.71 129 12:58 28.06.2021
6513 Rain 24 1004 81 10000 1.61 79 03:27 28.06.2021
6514 Rain 24 1004 84 10000 1.78 51 23:44 27.06.2021
6515 Rain 24 1003 84 10000 0.68 92 21:24 27.06.2021
6516 Rain 26 1004 73 10000 0.58 44 19:40 27.06.2021
6517 Clear 28 1004 64 10000 1.97 46 15:58 27.06.2021
6518 Rain 31 1000 49 10000 2 131 13:24 27.06.2021
6519 Clouds 32 1003 45 10000 0.14 33 06:41 27.06.2021
6520 Clouds 21 1005 88 10000 1.46 50 22:46 26.06.2021
6521 Clouds 22 1004 85 10000 1.43 96 20:59 26.06.2021
6522 Clouds 22 1004 82 10000 1.43 96 20:40 26.06.2021
6523 Clear 20 1003 74 10000 1.73 99 18:22 26.06.2021
6524 Rain 22 1002 69 10000 2.54 131 15:22 26.06.2021
6525 Clouds 24 999 40 10000 5.55 122 12:28 26.06.2021
6526 Clouds 24 999 40 10000 5.55 122 12:28 26.06.2021
6527 Rain 26 999 31 10000 1.35 10 08:54 26.06.2021
6528 Clear 22 1002 44 10000 1.11 349 04:35 26.06.2021
6529 Rain 19 1002 91 10000 2.11 79 20:40 25.06.2021
6530 Rain 19 1000 91 10000 2.68 95 19:38 25.06.2021
6531 Rain 19 1000 58 10000 1.51 88 17:52 25.06.2021
6532 Rain 19 1000 54 10000 1.03 124 16:49 25.06.2021
6533 Clear 24 1000 50 10000 1.33 139 14:58 25.06.2021
6534 Rain 25 999 34 10000 3.18 186 11:46 25.06.2021
6535 Rain 29 1001 64 10000 2.2 198 08:48 25.06.2021
6536 Rain 27 1003 63 10000 2.81 178 07:20 25.06.2021
6537 Rain 22 1005 90 10000 2.15 138 03:49 25.06.2021
6538 Rain 21 1006 90 10000 1.28 54 22:41 24.06.2021
6539 Rain 21 1006 83 10000 0.73 85 21:41 24.06.2021
6540 Rain 22 1007 73 10000 1 340 20:41 24.06.2021
6541 Rain 23 1006 67 10000 0.88 149 18:47 24.06.2021
6542 Rain 25 1007 65 10000 2.3 189 16:30 24.06.2021
6543 Rain 24 1007 62 10000 2.2 192 15:22 24.06.2021
6544 Rain 25 1007 61 10000 2.2 192 14:48 24.06.2021
6545 Rain 27 1005 55 10000 3.04 232 11:26 24.06.2021
6546 Clouds 28 1006 50 10000 3.14 234 09:34 24.06.2021
6547 Clouds 28 1007 52 10000 2.69 183 08:24 24.06.2021
6548 Rain 26 1008 47 10000 0.99 150 04:36 24.06.2021
6549 Clouds 20 1010 73 10000 1.15 56 23:28 23.06.2021
6550 Clouds 20 1009 70 10000 0.62 43 21:46 23.06.2021
6551 Clouds 22 1009 62 10000 1.25 60 20:47 23.06.2021
6552 Clouds 23 1009 58 10000 1.43 147 18:38 23.06.2021
6553 Rain 23 1009 56 10000 1.81 164 17:38 23.06.2021
6554 Clouds 24 1009 42 10000 2.45 168 16:34 23.06.2021
6555 Rain 25 1007 32 10000 3.11 151 13:22 23.06.2021
6556 Clouds 26 1006 28 10000 3.98 168 11:59 23.06.2021
6557 Clouds 27 1007 28 10000 2.93 170 10:22 23.06.2021
6558 Rain 25 1008 28 10000 2.31 167 08:50 23.06.2021
6559 Rain 28 1009 47 10000 1.52 197 07:52 23.06.2021
6560 Rain 27 1010 49 10000 1.08 228 07:25 23.06.2021
6561 Rain 26 1011 51 10000 0.45 236 04:34 23.06.2021
6562 Rain 22 1012 64 10000 1.74 89 00:45 23.06.2021
6563 Rain 22 1012 64 10000 1.66 90 23:56 22.06.2021
6564 Rain 22 1012 63 10000 1.73 85 22:46 22.06.2021
6565 Clouds 22 1011 63 10000 2.19 112 22:24 22.06.2021
6566 Rain 22 1011 60 10000 2.19 112 21:39 22.06.2021
6567 Rain 23 1010 54 10000 3.4 108 19:45 22.06.2021
6568 Clouds 24 1010 50 10000 3.27 111 18:54 22.06.2021
6569 Clouds 24 1009 46 10000 2.1 139 18:24 22.06.2021
6570 Clouds 25 1009 42 10000 2.88 182 17:22 22.06.2021
6571 Rain 26 1009 42 10000 2.88 182 16:32 22.06.2021
6572 Clear 29 1008 42 10000 6 170 14:38 22.06.2021
6573 Clouds 29 1007 43 10000 4.38 176 13:50 22.06.2021
6574 Clouds 32 1006 38 10000 2.74 202 12:54 22.06.2021
6575 Rain 32 1005 22 10000 2.39 220 11:20 22.06.2021
6576 Rain 34 1005 29 10000 2.36 213 09:57 22.06.2021
6577 Clear 33 1007 33 10000 2.6 207 06:46 22.06.2021
6578 Clouds 25 1010 51 10000 0.58 165 00:45 22.06.2021
6579 Clouds 23 1009 52 10000 1.03 195 23:23 21.06.2021
6580 Rain 22 1008 52 10000 0.35 185 22:21 21.06.2021
6581 Clear 23 1007 52 10000 0.99 99 21:18 21.06.2021
6582 Clouds 23 1008 52 10000 1.16 98 20:31 21.06.2021
6583 Rain 23 1008 49 10000 1.38 96 19:53 21.06.2021
6584 Rain 24 1008 47 10000 1.39 92 18:34 21.06.2021
6585 Rain 26 1007 46 10000 1.96 109 17:24 21.06.2021
6586 Rain 26 1007 46 10000 1.96 109 16:40 21.06.2021
6587 Rain 26 1007 46 10000 3.48 113 16:20 21.06.2021
6588 Rain 27 1007 47 10000 3.48 113 15:42 21.06.2021
6589 Clouds 29 1003 44 10000 6.85 110 13:59 21.06.2021
6590 Clouds 30 1001 43 10000 7.12 103 13:32 21.06.2021
6591 Clouds 32 1001 21 10000 7.12 103 12:36 21.06.2021
6592 Rain 33 1000 36 10000 4.45 113 11:46 21.06.2021
6593 Clouds 36 999 25 10000 2.64 113 10:24 21.06.2021
6594 Rain 36 1000 17 10000 3 100 09:19 21.06.2021
6595 Clear 36 1000 24 10000 2.97 82 08:20 21.06.2021
6596 Clear 35 1000 22 10000 3.26 67 06:44 21.06.2021
6597 Clouds 25 1001 45 10000 2.93 45 23:58 20.06.2021
6598 Rain 23 1001 48 10000 2.93 45 23:34 20.06.2021
6599 Clouds 22 1001 47 10000 2.79 46 22:57 20.06.2021
6600 Rain 24 1000 40 10000 2.45 49 21:55 20.06.2021
6601 Clear 23 999 52 10000 1 0 20:28 20.06.2021
6602 Clouds 26 999 30 10000 1.8 101 19:40 20.06.2021
6603 Clouds 26 999 29 10000 1.12 127 19:20 20.06.2021
6604 Clouds 27 999 26 10000 1.22 177 17:47 20.06.2021
6605 Rain 29 999 26 10000 2.64 190 16:46 20.06.2021
6606 Rain 31 998 24 10000 1.28 183 15:48 20.06.2021
6607 Clouds 31 998 24 10000 1.67 201 15:27 20.06.2021
6608 Rain 32 998 22 10000 1.67 201 14:43 20.06.2021
6609 Rain 34 997 19 10000 1.16 197 13:32 20.06.2021
6610 Clouds 37 996 17 10000 0.89 213 12:35 20.06.2021
6611 Clouds 37 996 10 10000 2.19 286 11:45 20.06.2021
6612 Clouds 39 997 15 10000 4.86 293 09:55 20.06.2021
6613 Clouds 38 997 15 10000 4.86 293 09:36 20.06.2021
6614 Clouds 33 1001 14 10000 2.7 325 04:32 20.06.2021
6615 Rain 23 1001 29 10000 2.03 348 23:36 19.06.2021
6616 Clouds 21 1000 34 10000 1.58 356 22:58 19.06.2021
6617 Clear 22 1000 33 10000 2.1 9 21:51 19.06.2021
6618 Clear 25 999 27 10000 2.56 4 21:19 19.06.2021
6619 Clouds 25 999 32 10000 1.97 352 18:53 19.06.2021
6620 Clouds 24 999 29 10000 2.61 338 18:21 19.06.2021
6621 Clouds 26 999 22 10000 3.27 326 17:22 19.06.2021
6622 Clouds 26 998 15 10000 3.66 320 16:20 19.06.2021
6623 Clear 32 998 15 10000 3.75 332 15:25 19.06.2021
6624 Rain 35 996 11 10000 5.43 353 12:52 19.06.2021
6625 Clear 37 995 12 10000 6.24 345 11:54 19.06.2021
6626 Clear 38 995 13 10000 7.23 333 10:46 19.06.2021
6627 Clear 38 995 13 10000 6.89 320 10:25 19.06.2021
6628 Clear 37 995 13 10000 6.89 320 09:48 19.06.2021
6629 Clear 36 996 13 10000 6.47 303 07:49 19.06.2021
6630 Clear 36 998 13 10000 5.89 306 06:29 19.06.2021
6631 Clear 36 998 13 10000 5.89 306 06:29 19.06.2021
6632 Clear 27 999 17 10000 1.44 315 02:22 19.06.2021
6633 Clear 20 999 21 10000 1.33 313 00:19 19.06.2021
6634 Rain 19 999 42 10000 1.33 313 23:33 18.06.2021
6635 Clear 20 999 41 10000 1.56 296 22:50 18.06.2021
6636 Clear 20 998 41 10000 1.49 280 22:25 18.06.2021
6637 Clear 20 998 39 10000 1.49 280 21:43 18.06.2021
6638 Clear 21 999 39 10000 1.51 274 21:21 18.06.2021
6639 Clear 22 1000 36 10000 1.71 284 20:23 18.06.2021
6640 Clear 23 1000 35 10000 1.84 297 18:29 18.06.2021
6641 Clear 23 1000 33 10000 1.84 297 17:39 18.06.2021
6642 Clear 25 1000 28 10000 2.03 297 16:33 18.06.2021
6643 Clear 28 1000 24 10000 1.98 311 15:46 18.06.2021
6644 Clear 29 999 20 10000 3.02 327 14:34 18.06.2021
6645 Clear 32 999 16 10000 3.86 331 13:41 18.06.2021
6646 Clear 34 998 15 10000 4.42 332 12:48 18.06.2021
6647 Clear 34 997 14 10000 5.69 321 12:29 18.06.2021
6648 Clear 35 997 14 10000 5.69 321 11:30 18.06.2021
6649 Clear 35 997 15 10000 6.6 311 10:52 18.06.2021
6650 Clear 35 998 15 10000 6.43 307 10:23 18.06.2021
6651 Clear 35 998 16 10000 6.43 307 09:49 18.06.2021
6652 Clear 34 998 15 10000 6.37 306 08:56 18.06.2021
6653 Clear 35 998 16 10000 6.43 308 08:30 18.06.2021
6654 Clouds 34 999 16<